<?xml version="1.0" encoding="UTF-8" standalone="no" ?>
<gpx xmlns="http://www.topografix.com/GPX/1/1" xmlns:xsi="http://www.w3.org/2001/XMLSchema-instance" xsi:schemaLocation="http://www.topografix.com/GPX/1/1 http://www.topografix.com/GPX/1/1/gpx.xsd" version="1.1" creator="VisuGPX - https://www.visugpx.com">
  <metadata>
    <name>VTT Tour du lac de grandlieu circuit été</name>
    <desc><![CDATA[Tour du lac en suivant le balisage GRP rouge et jaune]]></desc>
  </metadata>
  <trk>
    <name><![CDATA[VTT Tour du lac de grandlieu circuit été]]></name>
    <trkseg>
      <trkpt lat="47.19922" lon="-1.76001">
        <ele>14.800000190735</ele>
        <time>2020-08-29T12:21:55.000Z</time>
      </trkpt>
      <trkpt lat="47.19919" lon="-1.76002">
        <ele>14.800000190735</ele>
        <time>2020-08-29T12:21:56.000Z</time>
      </trkpt>
      <trkpt lat="47.19911" lon="-1.76003">
        <ele>15</ele>
        <time>2020-08-29T12:21:58.000Z</time>
      </trkpt>
      <trkpt lat="47.199" lon="-1.76002">
        <ele>15.60000038147</ele>
        <time>2020-08-29T12:22:01.000Z</time>
      </trkpt>
      <trkpt lat="47.19886" lon="-1.75999">
        <ele>16.39999961853</ele>
        <time>2020-08-29T12:22:05.000Z</time>
      </trkpt>
      <trkpt lat="47.19872" lon="-1.75995">
        <ele>17.200000762939</ele>
        <time>2020-08-29T12:22:09.000Z</time>
      </trkpt>
      <trkpt lat="47.19866" lon="-1.75992">
        <ele>17.799999237061</ele>
        <time>2020-08-29T12:22:11.000Z</time>
      </trkpt>
      <trkpt lat="47.19856" lon="-1.75987">
        <ele>18.39999961853</ele>
        <time>2020-08-29T12:22:14.000Z</time>
      </trkpt>
      <trkpt lat="47.1985" lon="-1.75983">
        <ele>18.799999237061</ele>
        <time>2020-08-29T12:22:16.000Z</time>
      </trkpt>
      <trkpt lat="47.1984" lon="-1.75978">
        <ele>19.200000762939</ele>
        <time>2020-08-29T12:22:19.000Z</time>
      </trkpt>
      <trkpt lat="47.19834" lon="-1.75974">
        <ele>19.60000038147</ele>
        <time>2020-08-29T12:22:21.000Z</time>
      </trkpt>
      <trkpt lat="47.19831" lon="-1.75972">
        <ele>19.799999237061</ele>
        <time>2020-08-29T12:22:22.000Z</time>
      </trkpt>
      <trkpt lat="47.19828" lon="-1.75971">
        <ele>19.799999237061</ele>
        <time>2020-08-29T12:22:23.000Z</time>
      </trkpt>
      <trkpt lat="47.19824" lon="-1.75969">
        <ele>19.799999237061</ele>
        <time>2020-08-29T12:22:24.000Z</time>
      </trkpt>
      <trkpt lat="47.19821" lon="-1.75968">
        <ele>19.799999237061</ele>
        <time>2020-08-29T12:22:25.000Z</time>
      </trkpt>
      <trkpt lat="47.19814" lon="-1.75964">
        <ele>19.799999237061</ele>
        <time>2020-08-29T12:22:27.000Z</time>
      </trkpt>
      <trkpt lat="47.19811" lon="-1.75962">
        <ele>19.799999237061</ele>
        <time>2020-08-29T12:22:28.000Z</time>
      </trkpt>
      <trkpt lat="47.19805" lon="-1.75958">
        <ele>20</ele>
        <time>2020-08-29T12:22:30.000Z</time>
      </trkpt>
      <trkpt lat="47.19799" lon="-1.75953">
        <ele>20</ele>
        <time>2020-08-29T12:22:32.000Z</time>
      </trkpt>
      <trkpt lat="47.19796" lon="-1.75951">
        <ele>20</ele>
        <time>2020-08-29T12:22:33.000Z</time>
      </trkpt>
      <trkpt lat="47.19793" lon="-1.7595">
        <ele>20</ele>
        <time>2020-08-29T12:22:34.000Z</time>
      </trkpt>
      <trkpt lat="47.1979" lon="-1.75948">
        <ele>20</ele>
        <time>2020-08-29T12:22:35.000Z</time>
      </trkpt>
      <trkpt lat="47.19787" lon="-1.75946">
        <ele>20</ele>
        <time>2020-08-29T12:22:36.000Z</time>
      </trkpt>
      <trkpt lat="47.19784" lon="-1.75944">
        <ele>20</ele>
        <time>2020-08-29T12:22:37.000Z</time>
      </trkpt>
      <trkpt lat="47.19778" lon="-1.7594">
        <ele>20.200000762939</ele>
        <time>2020-08-29T12:22:39.000Z</time>
      </trkpt>
      <trkpt lat="47.19752" lon="-1.75918">
        <ele>20.799999237061</ele>
        <time>2020-08-29T12:22:47.000Z</time>
      </trkpt>
      <trkpt lat="47.19743" lon="-1.75907">
        <ele>21</ele>
        <time>2020-08-29T12:22:50.000Z</time>
      </trkpt>
      <trkpt lat="47.19731" lon="-1.75887">
        <ele>21.60000038147</ele>
        <time>2020-08-29T12:22:54.000Z</time>
      </trkpt>
      <trkpt lat="47.19725" lon="-1.75877">
        <ele>21.799999237061</ele>
        <time>2020-08-29T12:22:56.000Z</time>
      </trkpt>
      <trkpt lat="47.19705" lon="-1.75843">
        <ele>22.39999961853</ele>
        <time>2020-08-29T12:23:03.000Z</time>
      </trkpt>
      <trkpt lat="47.19703" lon="-1.75838">
        <ele>22.60000038147</ele>
        <time>2020-08-29T12:23:04.000Z</time>
      </trkpt>
      <trkpt lat="47.1969" lon="-1.75813">
        <ele>22.60000038147</ele>
        <time>2020-08-29T12:23:09.000Z</time>
      </trkpt>
      <trkpt lat="47.19687" lon="-1.75808">
        <ele>22.60000038147</ele>
        <time>2020-08-29T12:23:10.000Z</time>
      </trkpt>
      <trkpt lat="47.19661" lon="-1.75776">
        <ele>22.39999961853</ele>
        <time>2020-08-29T12:23:17.000Z</time>
      </trkpt>
      <trkpt lat="47.19639" lon="-1.75759">
        <ele>22.200000762939</ele>
        <time>2020-08-29T12:23:22.000Z</time>
      </trkpt>
      <trkpt lat="47.19626" lon="-1.75751">
        <ele>22.799999237061</ele>
        <time>2020-08-29T12:23:25.000Z</time>
      </trkpt>
      <trkpt lat="47.19618" lon="-1.75745">
        <ele>23</ele>
        <time>2020-08-29T12:23:27.000Z</time>
      </trkpt>
      <trkpt lat="47.19604" lon="-1.75732">
        <ele>23.39999961853</ele>
        <time>2020-08-29T12:23:31.000Z</time>
      </trkpt>
      <trkpt lat="47.19601" lon="-1.75729">
        <ele>23.60000038147</ele>
        <time>2020-08-29T12:23:32.000Z</time>
      </trkpt>
      <trkpt lat="47.19597" lon="-1.75725">
        <ele>23.60000038147</ele>
        <time>2020-08-29T12:23:33.000Z</time>
      </trkpt>
      <trkpt lat="47.1959" lon="-1.75717">
        <ele>23.799999237061</ele>
        <time>2020-08-29T12:23:35.000Z</time>
      </trkpt>
      <trkpt lat="47.19573" lon="-1.75699">
        <ele>24</ele>
        <time>2020-08-29T12:23:40.000Z</time>
      </trkpt>
      <trkpt lat="47.19556" lon="-1.75688">
        <ele>24.200000762939</ele>
        <time>2020-08-29T12:23:46.000Z</time>
      </trkpt>
      <trkpt lat="47.19551" lon="-1.75688">
        <ele>24.39999961853</ele>
        <time>2020-08-29T12:23:50.000Z</time>
      </trkpt>
      <trkpt lat="47.19551" lon="-1.75688">
        <ele>24.39999961853</ele>
        <time>2020-08-29T12:23:51.000Z</time>
      </trkpt>
      <trkpt lat="47.19551" lon="-1.75688">
        <ele>24.39999961853</ele>
        <time>2020-08-29T12:23:58.000Z</time>
      </trkpt>
      <trkpt lat="47.19551" lon="-1.75689">
        <ele>24.39999961853</ele>
        <time>2020-08-29T12:24:01.000Z</time>
      </trkpt>
      <trkpt lat="47.19551" lon="-1.75689">
        <ele>24.39999961853</ele>
        <time>2020-08-29T12:24:02.000Z</time>
      </trkpt>
      <trkpt lat="47.19551" lon="-1.75689">
        <ele>24.39999961853</ele>
        <time>2020-08-29T12:24:04.000Z</time>
      </trkpt>
      <trkpt lat="47.19551" lon="-1.75688">
        <ele>24.39999961853</ele>
        <time>2020-08-29T12:24:09.000Z</time>
      </trkpt>
      <trkpt lat="47.19552" lon="-1.75688">
        <ele>24.39999961853</ele>
        <time>2020-08-29T12:24:12.000Z</time>
      </trkpt>
      <trkpt lat="47.19552" lon="-1.75688">
        <ele>24.39999961853</ele>
        <time>2020-08-29T12:24:15.000Z</time>
      </trkpt>
      <trkpt lat="47.19551" lon="-1.75687">
        <ele>24.39999961853</ele>
        <time>2020-08-29T12:24:21.000Z</time>
      </trkpt>
      <trkpt lat="47.19551" lon="-1.75687">
        <ele>24.39999961853</ele>
        <time>2020-08-29T12:24:22.000Z</time>
      </trkpt>
      <trkpt lat="47.19551" lon="-1.75687">
        <ele>24.39999961853</ele>
        <time>2020-08-29T12:24:24.000Z</time>
      </trkpt>
      <trkpt lat="47.19552" lon="-1.75688">
        <ele>24.39999961853</ele>
        <time>2020-08-29T12:24:29.000Z</time>
      </trkpt>
      <trkpt lat="47.19551" lon="-1.75684">
        <ele>24.39999961853</ele>
        <time>2020-08-29T12:24:32.000Z</time>
      </trkpt>
      <trkpt lat="47.19548" lon="-1.75681">
        <ele>24.39999961853</ele>
        <time>2020-08-29T12:24:34.000Z</time>
      </trkpt>
      <trkpt lat="47.19537" lon="-1.75677">
        <ele>24.39999961853</ele>
        <time>2020-08-29T12:24:38.000Z</time>
      </trkpt>
      <trkpt lat="47.19534" lon="-1.75675">
        <ele>24.60000038147</ele>
        <time>2020-08-29T12:24:39.000Z</time>
      </trkpt>
      <trkpt lat="47.19518" lon="-1.75668">
        <ele>24.799999237061</ele>
        <time>2020-08-29T12:24:45.000Z</time>
      </trkpt>
      <trkpt lat="47.19508" lon="-1.75663">
        <ele>24.799999237061</ele>
        <time>2020-08-29T12:24:50.000Z</time>
      </trkpt>
      <trkpt lat="47.19502" lon="-1.75662">
        <ele>25</ele>
        <time>2020-08-29T12:24:53.000Z</time>
      </trkpt>
      <trkpt lat="47.19501" lon="-1.75663">
        <ele>25</ele>
        <time>2020-08-29T12:24:54.000Z</time>
      </trkpt>
      <trkpt lat="47.19499" lon="-1.75663">
        <ele>25</ele>
        <time>2020-08-29T12:24:55.000Z</time>
      </trkpt>
      <trkpt lat="47.19488" lon="-1.75658">
        <ele>24.799999237061</ele>
        <time>2020-08-29T12:25:00.000Z</time>
      </trkpt>
      <trkpt lat="47.19481" lon="-1.75655">
        <ele>24.60000038147</ele>
        <time>2020-08-29T12:25:02.000Z</time>
      </trkpt>
      <trkpt lat="47.19475" lon="-1.75651">
        <ele>24.39999961853</ele>
        <time>2020-08-29T12:25:04.000Z</time>
      </trkpt>
      <trkpt lat="47.19471" lon="-1.75648">
        <ele>24.39999961853</ele>
        <time>2020-08-29T12:25:05.000Z</time>
      </trkpt>
      <trkpt lat="47.19464" lon="-1.75644">
        <ele>24.200000762939</ele>
        <time>2020-08-29T12:25:07.000Z</time>
      </trkpt>
      <trkpt lat="47.19438" lon="-1.75634">
        <ele>23.39999961853</ele>
        <time>2020-08-29T12:25:13.000Z</time>
      </trkpt>
      <trkpt lat="47.19419" lon="-1.75627">
        <ele>23</ele>
        <time>2020-08-29T12:25:17.000Z</time>
      </trkpt>
      <trkpt lat="47.19403" lon="-1.75622">
        <ele>23</ele>
        <time>2020-08-29T12:25:20.000Z</time>
      </trkpt>
      <trkpt lat="47.19367" lon="-1.75606">
        <ele>22.799999237061</ele>
        <time>2020-08-29T12:25:27.000Z</time>
      </trkpt>
      <trkpt lat="47.1934" lon="-1.75592">
        <ele>22.39999961853</ele>
        <time>2020-08-29T12:25:32.000Z</time>
      </trkpt>
      <trkpt lat="47.19335" lon="-1.75591">
        <ele>22.39999961853</ele>
        <time>2020-08-29T12:25:33.000Z</time>
      </trkpt>
      <trkpt lat="47.19329" lon="-1.75592">
        <ele>22.200000762939</ele>
        <time>2020-08-29T12:25:34.000Z</time>
      </trkpt>
      <trkpt lat="47.19317" lon="-1.75595">
        <ele>22.200000762939</ele>
        <time>2020-08-29T12:25:36.000Z</time>
      </trkpt>
      <trkpt lat="47.19312" lon="-1.75595">
        <ele>22.200000762939</ele>
        <time>2020-08-29T12:25:37.000Z</time>
      </trkpt>
      <trkpt lat="47.19301" lon="-1.75588">
        <ele>22.39999961853</ele>
        <time>2020-08-29T12:25:39.000Z</time>
      </trkpt>
      <trkpt lat="47.19296" lon="-1.75584">
        <ele>22.60000038147</ele>
        <time>2020-08-29T12:25:40.000Z</time>
      </trkpt>
      <trkpt lat="47.19274" lon="-1.75569">
        <ele>23.39999961853</ele>
        <time>2020-08-29T12:25:44.000Z</time>
      </trkpt>
      <trkpt lat="47.19263" lon="-1.75563">
        <ele>23.799999237061</ele>
        <time>2020-08-29T12:25:46.000Z</time>
      </trkpt>
      <trkpt lat="47.19247" lon="-1.75555">
        <ele>23.799999237061</ele>
        <time>2020-08-29T12:25:49.000Z</time>
      </trkpt>
      <trkpt lat="47.19236" lon="-1.75551">
        <ele>23.60000038147</ele>
        <time>2020-08-29T12:25:51.000Z</time>
      </trkpt>
      <trkpt lat="47.19218" lon="-1.75545">
        <ele>23.39999961853</ele>
        <time>2020-08-29T12:25:54.000Z</time>
      </trkpt>
      <trkpt lat="47.19206" lon="-1.75542">
        <ele>23.200000762939</ele>
        <time>2020-08-29T12:25:56.000Z</time>
      </trkpt>
      <trkpt lat="47.19189" lon="-1.75539">
        <ele>23</ele>
        <time>2020-08-29T12:25:59.000Z</time>
      </trkpt>
      <trkpt lat="47.19183" lon="-1.75538">
        <ele>23</ele>
        <time>2020-08-29T12:26:00.000Z</time>
      </trkpt>
      <trkpt lat="47.19177" lon="-1.75537">
        <ele>23</ele>
        <time>2020-08-29T12:26:01.000Z</time>
      </trkpt>
      <trkpt lat="47.19172" lon="-1.75537">
        <ele>23</ele>
        <time>2020-08-29T12:26:02.000Z</time>
      </trkpt>
      <trkpt lat="47.19166" lon="-1.75536">
        <ele>23</ele>
        <time>2020-08-29T12:26:03.000Z</time>
      </trkpt>
      <trkpt lat="47.19154" lon="-1.75534">
        <ele>23</ele>
        <time>2020-08-29T12:26:05.000Z</time>
      </trkpt>
      <trkpt lat="47.19149" lon="-1.75533">
        <ele>23</ele>
        <time>2020-08-29T12:26:06.000Z</time>
      </trkpt>
      <trkpt lat="47.19126" lon="-1.75525">
        <ele>23</ele>
        <time>2020-08-29T12:26:10.000Z</time>
      </trkpt>
      <trkpt lat="47.19092" lon="-1.75506">
        <ele>23.60000038147</ele>
        <time>2020-08-29T12:26:16.000Z</time>
      </trkpt>
      <trkpt lat="47.1907" lon="-1.75493">
        <ele>24</ele>
        <time>2020-08-29T12:26:20.000Z</time>
      </trkpt>
      <trkpt lat="47.1906" lon="-1.75487">
        <ele>24</ele>
        <time>2020-08-29T12:26:22.000Z</time>
      </trkpt>
      <trkpt lat="47.19055" lon="-1.75484">
        <ele>24</ele>
        <time>2020-08-29T12:26:23.000Z</time>
      </trkpt>
      <trkpt lat="47.1905" lon="-1.75481">
        <ele>24</ele>
        <time>2020-08-29T12:26:24.000Z</time>
      </trkpt>
      <trkpt lat="47.19041" lon="-1.75476">
        <ele>24.200000762939</ele>
        <time>2020-08-29T12:26:26.000Z</time>
      </trkpt>
      <trkpt lat="47.19016" lon="-1.75462">
        <ele>24.39999961853</ele>
        <time>2020-08-29T12:26:31.000Z</time>
      </trkpt>
      <trkpt lat="47.1898" lon="-1.75449">
        <ele>25</ele>
        <time>2020-08-29T12:26:38.000Z</time>
      </trkpt>
      <trkpt lat="47.18948" lon="-1.75435">
        <ele>25</ele>
        <time>2020-08-29T12:26:44.000Z</time>
      </trkpt>
      <trkpt lat="47.18942" lon="-1.75432">
        <ele>25</ele>
        <time>2020-08-29T12:26:45.000Z</time>
      </trkpt>
      <trkpt lat="47.18936" lon="-1.75429">
        <ele>25</ele>
        <time>2020-08-29T12:26:46.000Z</time>
      </trkpt>
      <trkpt lat="47.18924" lon="-1.75422">
        <ele>25</ele>
        <time>2020-08-29T12:26:48.000Z</time>
      </trkpt>
      <trkpt lat="47.18899" lon="-1.75411">
        <ele>24.799999237061</ele>
        <time>2020-08-29T12:26:52.000Z</time>
      </trkpt>
      <trkpt lat="47.18872" lon="-1.75406">
        <ele>24.60000038147</ele>
        <time>2020-08-29T12:26:57.000Z</time>
      </trkpt>
      <trkpt lat="47.18869" lon="-1.75407">
        <ele>24.39999961853</ele>
        <time>2020-08-29T12:26:58.000Z</time>
      </trkpt>
      <trkpt lat="47.18868" lon="-1.75409">
        <ele>24.39999961853</ele>
        <time>2020-08-29T12:26:59.000Z</time>
      </trkpt>
      <trkpt lat="47.18868" lon="-1.75411">
        <ele>24.39999961853</ele>
        <time>2020-08-29T12:27:00.000Z</time>
      </trkpt>
      <trkpt lat="47.18868" lon="-1.75411">
        <ele>24.39999961853</ele>
        <time>2020-08-29T12:27:01.000Z</time>
      </trkpt>
      <trkpt lat="47.18867" lon="-1.75403">
        <ele>24.39999961853</ele>
        <time>2020-08-29T12:28:12.000Z</time>
      </trkpt>
      <trkpt lat="47.18864" lon="-1.75403">
        <ele>24.39999961853</ele>
        <time>2020-08-29T12:28:13.000Z</time>
      </trkpt>
      <trkpt lat="47.18848" lon="-1.75403">
        <ele>24.200000762939</ele>
        <time>2020-08-29T12:28:17.000Z</time>
      </trkpt>
      <trkpt lat="47.18837" lon="-1.75403">
        <ele>24</ele>
        <time>2020-08-29T12:28:19.000Z</time>
      </trkpt>
      <trkpt lat="47.18811" lon="-1.75403">
        <ele>24</ele>
        <time>2020-08-29T12:28:23.000Z</time>
      </trkpt>
      <trkpt lat="47.18791" lon="-1.75403">
        <ele>24</ele>
        <time>2020-08-29T12:28:26.000Z</time>
      </trkpt>
      <trkpt lat="47.18777" lon="-1.75402">
        <ele>24</ele>
        <time>2020-08-29T12:28:28.000Z</time>
      </trkpt>
      <trkpt lat="47.18764" lon="-1.75402">
        <ele>24</ele>
        <time>2020-08-29T12:28:30.000Z</time>
      </trkpt>
      <trkpt lat="47.18757" lon="-1.75402">
        <ele>24</ele>
        <time>2020-08-29T12:28:31.000Z</time>
      </trkpt>
      <trkpt lat="47.1875" lon="-1.75402">
        <ele>24</ele>
        <time>2020-08-29T12:28:32.000Z</time>
      </trkpt>
      <trkpt lat="47.18705" lon="-1.75404">
        <ele>24.39999961853</ele>
        <time>2020-08-29T12:28:38.000Z</time>
      </trkpt>
      <trkpt lat="47.18682" lon="-1.75404">
        <ele>24.799999237061</ele>
        <time>2020-08-29T12:28:41.000Z</time>
      </trkpt>
      <trkpt lat="47.18627" lon="-1.75406">
        <ele>24.60000038147</ele>
        <time>2020-08-29T12:28:48.000Z</time>
      </trkpt>
      <trkpt lat="47.18618" lon="-1.75407">
        <ele>24.39999961853</ele>
        <time>2020-08-29T12:28:49.000Z</time>
      </trkpt>
      <trkpt lat="47.18562" lon="-1.7541">
        <ele>23.39999961853</ele>
        <time>2020-08-29T12:28:55.000Z</time>
      </trkpt>
      <trkpt lat="47.1853" lon="-1.75412">
        <ele>21.799999237061</ele>
        <time>2020-08-29T12:28:58.000Z</time>
      </trkpt>
      <trkpt lat="47.1852" lon="-1.75412">
        <ele>21.200000762939</ele>
        <time>2020-08-29T12:28:59.000Z</time>
      </trkpt>
      <trkpt lat="47.18499" lon="-1.75413">
        <ele>20.200000762939</ele>
        <time>2020-08-29T12:29:01.000Z</time>
      </trkpt>
      <trkpt lat="47.18488" lon="-1.75413">
        <ele>20.200000762939</ele>
        <time>2020-08-29T12:29:02.000Z</time>
      </trkpt>
      <trkpt lat="47.18478" lon="-1.75414">
        <ele>20</ele>
        <time>2020-08-29T12:29:03.000Z</time>
      </trkpt>
      <trkpt lat="47.18439" lon="-1.75415">
        <ele>19.60000038147</ele>
        <time>2020-08-29T12:29:07.000Z</time>
      </trkpt>
      <trkpt lat="47.18422" lon="-1.75417">
        <ele>19.39999961853</ele>
        <time>2020-08-29T12:29:09.000Z</time>
      </trkpt>
      <trkpt lat="47.18403" lon="-1.75424">
        <ele>19.60000038147</ele>
        <time>2020-08-29T12:29:12.000Z</time>
      </trkpt>
      <trkpt lat="47.18394" lon="-1.75431">
        <ele>19.799999237061</ele>
        <time>2020-08-29T12:29:14.000Z</time>
      </trkpt>
      <trkpt lat="47.18385" lon="-1.75427">
        <ele>20</ele>
        <time>2020-08-29T12:29:16.000Z</time>
      </trkpt>
      <trkpt lat="47.18381" lon="-1.75415">
        <ele>19.799999237061</ele>
        <time>2020-08-29T12:29:18.000Z</time>
      </trkpt>
      <trkpt lat="47.18381" lon="-1.75409">
        <ele>19.799999237061</ele>
        <time>2020-08-29T12:29:19.000Z</time>
      </trkpt>
      <trkpt lat="47.18383" lon="-1.75392">
        <ele>19.60000038147</ele>
        <time>2020-08-29T12:29:21.000Z</time>
      </trkpt>
      <trkpt lat="47.18385" lon="-1.75373">
        <ele>19.60000038147</ele>
        <time>2020-08-29T12:29:23.000Z</time>
      </trkpt>
      <trkpt lat="47.18385" lon="-1.75363">
        <ele>19.60000038147</ele>
        <time>2020-08-29T12:29:24.000Z</time>
      </trkpt>
      <trkpt lat="47.18388" lon="-1.75317">
        <ele>19.60000038147</ele>
        <time>2020-08-29T12:29:29.000Z</time>
      </trkpt>
      <trkpt lat="47.18392" lon="-1.7528">
        <ele>19.39999961853</ele>
        <time>2020-08-29T12:29:33.000Z</time>
      </trkpt>
      <trkpt lat="47.18396" lon="-1.75252">
        <ele>19.39999961853</ele>
        <time>2020-08-29T12:29:36.000Z</time>
      </trkpt>
      <trkpt lat="47.18408" lon="-1.75183">
        <ele>17.60000038147</ele>
        <time>2020-08-29T12:29:43.000Z</time>
      </trkpt>
      <trkpt lat="47.18424" lon="-1.75099">
        <ele>18</ele>
        <time>2020-08-29T12:29:52.000Z</time>
      </trkpt>
      <trkpt lat="47.18426" lon="-1.7509">
        <ele>18.200000762939</ele>
        <time>2020-08-29T12:29:53.000Z</time>
      </trkpt>
      <trkpt lat="47.18434" lon="-1.75049">
        <ele>18.799999237061</ele>
        <time>2020-08-29T12:29:58.000Z</time>
      </trkpt>
      <trkpt lat="47.18438" lon="-1.75025">
        <ele>19</ele>
        <time>2020-08-29T12:30:01.000Z</time>
      </trkpt>
      <trkpt lat="47.18441" lon="-1.7501">
        <ele>19</ele>
        <time>2020-08-29T12:30:03.000Z</time>
      </trkpt>
      <trkpt lat="47.18446" lon="-1.74982">
        <ele>19.39999961853</ele>
        <time>2020-08-29T12:30:07.000Z</time>
      </trkpt>
      <trkpt lat="47.18453" lon="-1.74947">
        <ele>21</ele>
        <time>2020-08-29T12:30:12.000Z</time>
      </trkpt>
      <trkpt lat="47.1846" lon="-1.74913">
        <ele>22.200000762939</ele>
        <time>2020-08-29T12:30:17.000Z</time>
      </trkpt>
      <trkpt lat="47.18462" lon="-1.74907">
        <ele>22.39999961853</ele>
        <time>2020-08-29T12:30:18.000Z</time>
      </trkpt>
      <trkpt lat="47.18465" lon="-1.74893">
        <ele>22.799999237061</ele>
        <time>2020-08-29T12:30:20.000Z</time>
      </trkpt>
      <trkpt lat="47.18468" lon="-1.74879">
        <ele>23</ele>
        <time>2020-08-29T12:30:22.000Z</time>
      </trkpt>
      <trkpt lat="47.1847" lon="-1.74864">
        <ele>23.200000762939</ele>
        <time>2020-08-29T12:30:24.000Z</time>
      </trkpt>
      <trkpt lat="47.18477" lon="-1.74823">
        <ele>24.200000762939</ele>
        <time>2020-08-29T12:30:30.000Z</time>
      </trkpt>
      <trkpt lat="47.1848" lon="-1.74809">
        <ele>24.200000762939</ele>
        <time>2020-08-29T12:30:32.000Z</time>
      </trkpt>
      <trkpt lat="47.18486" lon="-1.74769">
        <ele>24.60000038147</ele>
        <time>2020-08-29T12:30:38.000Z</time>
      </trkpt>
      <trkpt lat="47.18495" lon="-1.74705">
        <ele>25</ele>
        <time>2020-08-29T12:30:47.000Z</time>
      </trkpt>
      <trkpt lat="47.18498" lon="-1.74676">
        <ele>25</ele>
        <time>2020-08-29T12:30:51.000Z</time>
      </trkpt>
      <trkpt lat="47.185" lon="-1.74653">
        <ele>25</ele>
        <time>2020-08-29T12:30:54.000Z</time>
      </trkpt>
      <trkpt lat="47.18501" lon="-1.74646">
        <ele>25</ele>
        <time>2020-08-29T12:30:55.000Z</time>
      </trkpt>
      <trkpt lat="47.18503" lon="-1.7463">
        <ele>25.200000762939</ele>
        <time>2020-08-29T12:30:57.000Z</time>
      </trkpt>
      <trkpt lat="47.18509" lon="-1.74574">
        <ele>25.799999237061</ele>
        <time>2020-08-29T12:31:04.000Z</time>
      </trkpt>
      <trkpt lat="47.18516" lon="-1.74496">
        <ele>26.799999237061</ele>
        <time>2020-08-29T12:31:13.000Z</time>
      </trkpt>
      <trkpt lat="47.18517" lon="-1.74487">
        <ele>27</ele>
        <time>2020-08-29T12:31:14.000Z</time>
      </trkpt>
      <trkpt lat="47.18519" lon="-1.74405">
        <ele>25.60000038147</ele>
        <time>2020-08-29T12:31:23.000Z</time>
      </trkpt>
      <trkpt lat="47.1852" lon="-1.74387">
        <ele>25.60000038147</ele>
        <time>2020-08-29T12:31:25.000Z</time>
      </trkpt>
      <trkpt lat="47.18518" lon="-1.74315">
        <ele>24.60000038147</ele>
        <time>2020-08-29T12:31:33.000Z</time>
      </trkpt>
      <trkpt lat="47.18513" lon="-1.74259">
        <ele>24.200000762939</ele>
        <time>2020-08-29T12:31:39.000Z</time>
      </trkpt>
      <trkpt lat="47.1851" lon="-1.74221">
        <ele>24.39999961853</ele>
        <time>2020-08-29T12:31:43.000Z</time>
      </trkpt>
      <trkpt lat="47.18505" lon="-1.74172">
        <ele>25</ele>
        <time>2020-08-29T12:31:48.000Z</time>
      </trkpt>
      <trkpt lat="47.18503" lon="-1.74164">
        <ele>25</ele>
        <time>2020-08-29T12:31:49.000Z</time>
      </trkpt>
      <trkpt lat="47.18497" lon="-1.74152">
        <ele>25</ele>
        <time>2020-08-29T12:31:51.000Z</time>
      </trkpt>
      <trkpt lat="47.18492" lon="-1.7414">
        <ele>25</ele>
        <time>2020-08-29T12:31:53.000Z</time>
      </trkpt>
      <trkpt lat="47.18491" lon="-1.74126">
        <ele>25.200000762939</ele>
        <time>2020-08-29T12:31:55.000Z</time>
      </trkpt>
      <trkpt lat="47.18498" lon="-1.74112">
        <ele>25.60000038147</ele>
        <time>2020-08-29T12:31:57.000Z</time>
      </trkpt>
      <trkpt lat="47.18501" lon="-1.74105">
        <ele>25.60000038147</ele>
        <time>2020-08-29T12:31:58.000Z</time>
      </trkpt>
      <trkpt lat="47.18504" lon="-1.74097">
        <ele>25.60000038147</ele>
        <time>2020-08-29T12:31:59.000Z</time>
      </trkpt>
      <trkpt lat="47.18507" lon="-1.74079">
        <ele>26</ele>
        <time>2020-08-29T12:32:01.000Z</time>
      </trkpt>
      <trkpt lat="47.18509" lon="-1.74069">
        <ele>26</ele>
        <time>2020-08-29T12:32:02.000Z</time>
      </trkpt>
      <trkpt lat="47.18513" lon="-1.74008">
        <ele>25.39999961853</ele>
        <time>2020-08-29T12:32:09.000Z</time>
      </trkpt>
      <trkpt lat="47.18514" lon="-1.73982">
        <ele>25.200000762939</ele>
        <time>2020-08-29T12:32:12.000Z</time>
      </trkpt>
      <trkpt lat="47.18513" lon="-1.73956">
        <ele>25.39999961853</ele>
        <time>2020-08-29T12:32:15.000Z</time>
      </trkpt>
      <trkpt lat="47.18513" lon="-1.73947">
        <ele>25.39999961853</ele>
        <time>2020-08-29T12:32:16.000Z</time>
      </trkpt>
      <trkpt lat="47.18512" lon="-1.73904">
        <ele>26</ele>
        <time>2020-08-29T12:32:21.000Z</time>
      </trkpt>
      <trkpt lat="47.18509" lon="-1.73877">
        <ele>26.39999961853</ele>
        <time>2020-08-29T12:32:24.000Z</time>
      </trkpt>
      <trkpt lat="47.18504" lon="-1.73823">
        <ele>27</ele>
        <time>2020-08-29T12:32:30.000Z</time>
      </trkpt>
      <trkpt lat="47.18502" lon="-1.73805">
        <ele>27</ele>
        <time>2020-08-29T12:32:32.000Z</time>
      </trkpt>
      <trkpt lat="47.18493" lon="-1.73721">
        <ele>25.799999237061</ele>
        <time>2020-08-29T12:32:41.000Z</time>
      </trkpt>
      <trkpt lat="47.18486" lon="-1.73646">
        <ele>24.799999237061</ele>
        <time>2020-08-29T12:32:49.000Z</time>
      </trkpt>
      <trkpt lat="47.18481" lon="-1.73628">
        <ele>24.60000038147</ele>
        <time>2020-08-29T12:32:51.000Z</time>
      </trkpt>
      <trkpt lat="47.18472" lon="-1.73613">
        <ele>24.200000762939</ele>
        <time>2020-08-29T12:32:53.000Z</time>
      </trkpt>
      <trkpt lat="47.18446" lon="-1.73582">
        <ele>24</ele>
        <time>2020-08-29T12:32:58.000Z</time>
      </trkpt>
      <trkpt lat="47.18441" lon="-1.73577">
        <ele>24</ele>
        <time>2020-08-29T12:32:59.000Z</time>
      </trkpt>
      <trkpt lat="47.18436" lon="-1.73571">
        <ele>24</ele>
        <time>2020-08-29T12:33:00.000Z</time>
      </trkpt>
      <trkpt lat="47.1842" lon="-1.73553">
        <ele>24</ele>
        <time>2020-08-29T12:33:03.000Z</time>
      </trkpt>
      <trkpt lat="47.18403" lon="-1.73534">
        <ele>24</ele>
        <time>2020-08-29T12:33:06.000Z</time>
      </trkpt>
      <trkpt lat="47.18392" lon="-1.73522">
        <ele>24</ele>
        <time>2020-08-29T12:33:08.000Z</time>
      </trkpt>
      <trkpt lat="47.18371" lon="-1.73499">
        <ele>24.39999961853</ele>
        <time>2020-08-29T12:33:12.000Z</time>
      </trkpt>
      <trkpt lat="47.18349" lon="-1.73477">
        <ele>24.799999237061</ele>
        <time>2020-08-29T12:33:16.000Z</time>
      </trkpt>
      <trkpt lat="47.18338" lon="-1.73468">
        <ele>24.799999237061</ele>
        <time>2020-08-29T12:33:18.000Z</time>
      </trkpt>
      <trkpt lat="47.18333" lon="-1.73463">
        <ele>24.799999237061</ele>
        <time>2020-08-29T12:33:19.000Z</time>
      </trkpt>
      <trkpt lat="47.18304" lon="-1.7344">
        <ele>24.39999961853</ele>
        <time>2020-08-29T12:33:24.000Z</time>
      </trkpt>
      <trkpt lat="47.18299" lon="-1.73435">
        <ele>24.39999961853</ele>
        <time>2020-08-29T12:33:25.000Z</time>
      </trkpt>
      <trkpt lat="47.18254" lon="-1.73398">
        <ele>24</ele>
        <time>2020-08-29T12:33:33.000Z</time>
      </trkpt>
      <trkpt lat="47.18213" lon="-1.73365">
        <ele>25.200000762939</ele>
        <time>2020-08-29T12:33:40.000Z</time>
      </trkpt>
      <trkpt lat="47.18189" lon="-1.73343">
        <ele>24.799999237061</ele>
        <time>2020-08-29T12:33:44.000Z</time>
      </trkpt>
      <trkpt lat="47.18179" lon="-1.73331">
        <ele>24.39999961853</ele>
        <time>2020-08-29T12:33:46.000Z</time>
      </trkpt>
      <trkpt lat="47.18155" lon="-1.73295">
        <ele>23.39999961853</ele>
        <time>2020-08-29T12:33:51.000Z</time>
      </trkpt>
      <trkpt lat="47.1815" lon="-1.73287">
        <ele>23.200000762939</ele>
        <time>2020-08-29T12:33:52.000Z</time>
      </trkpt>
      <trkpt lat="47.18142" lon="-1.7327">
        <ele>22.60000038147</ele>
        <time>2020-08-29T12:33:54.000Z</time>
      </trkpt>
      <trkpt lat="47.18123" lon="-1.73231">
        <ele>23</ele>
        <time>2020-08-29T12:33:59.000Z</time>
      </trkpt>
      <trkpt lat="47.18103" lon="-1.73188">
        <ele>22.39999961853</ele>
        <time>2020-08-29T12:34:05.000Z</time>
      </trkpt>
      <trkpt lat="47.18094" lon="-1.73147">
        <ele>22</ele>
        <time>2020-08-29T12:34:10.000Z</time>
      </trkpt>
      <trkpt lat="47.18091" lon="-1.7314">
        <ele>22.200000762939</ele>
        <time>2020-08-29T12:34:11.000Z</time>
      </trkpt>
      <trkpt lat="47.18082" lon="-1.73128">
        <ele>22</ele>
        <time>2020-08-29T12:34:13.000Z</time>
      </trkpt>
      <trkpt lat="47.18064" lon="-1.7312">
        <ele>22</ele>
        <time>2020-08-29T12:34:16.000Z</time>
      </trkpt>
      <trkpt lat="47.18054" lon="-1.73108">
        <ele>22</ele>
        <time>2020-08-29T12:34:18.000Z</time>
      </trkpt>
      <trkpt lat="47.18048" lon="-1.73102">
        <ele>22</ele>
        <time>2020-08-29T12:34:19.000Z</time>
      </trkpt>
      <trkpt lat="47.18043" lon="-1.73096">
        <ele>22</ele>
        <time>2020-08-29T12:34:20.000Z</time>
      </trkpt>
      <trkpt lat="47.18029" lon="-1.7309">
        <ele>22</ele>
        <time>2020-08-29T12:34:22.000Z</time>
      </trkpt>
      <trkpt lat="47.18013" lon="-1.73088">
        <ele>22</ele>
        <time>2020-08-29T12:34:24.000Z</time>
      </trkpt>
      <trkpt lat="47.17997" lon="-1.73089">
        <ele>22</ele>
        <time>2020-08-29T12:34:26.000Z</time>
      </trkpt>
      <trkpt lat="47.17947" lon="-1.73094">
        <ele>21.799999237061</ele>
        <time>2020-08-29T12:34:32.000Z</time>
      </trkpt>
      <trkpt lat="47.17931" lon="-1.73096">
        <ele>21.60000038147</ele>
        <time>2020-08-29T12:34:34.000Z</time>
      </trkpt>
      <trkpt lat="47.17923" lon="-1.73097">
        <ele>21.39999961853</ele>
        <time>2020-08-29T12:34:35.000Z</time>
      </trkpt>
      <trkpt lat="47.17905" lon="-1.73099">
        <ele>21.200000762939</ele>
        <time>2020-08-29T12:34:37.000Z</time>
      </trkpt>
      <trkpt lat="47.17861" lon="-1.73105">
        <ele>20.200000762939</ele>
        <time>2020-08-29T12:34:42.000Z</time>
      </trkpt>
      <trkpt lat="47.17844" lon="-1.73104">
        <ele>19.799999237061</ele>
        <time>2020-08-29T12:34:44.000Z</time>
      </trkpt>
      <trkpt lat="47.17809" lon="-1.73099">
        <ele>19.39999961853</ele>
        <time>2020-08-29T12:34:48.000Z</time>
      </trkpt>
      <trkpt lat="47.17757" lon="-1.73074">
        <ele>19</ele>
        <time>2020-08-29T12:34:54.000Z</time>
      </trkpt>
      <trkpt lat="47.17703" lon="-1.73045">
        <ele>19.200000762939</ele>
        <time>2020-08-29T12:35:00.000Z</time>
      </trkpt>
      <trkpt lat="47.17694" lon="-1.7304">
        <ele>19.200000762939</ele>
        <time>2020-08-29T12:35:01.000Z</time>
      </trkpt>
      <trkpt lat="47.17667" lon="-1.73026">
        <ele>18.39999961853</ele>
        <time>2020-08-29T12:35:04.000Z</time>
      </trkpt>
      <trkpt lat="47.17648" lon="-1.73016">
        <ele>17.799999237061</ele>
        <time>2020-08-29T12:35:06.000Z</time>
      </trkpt>
      <trkpt lat="47.17607" lon="-1.72994">
        <ele>17.60000038147</ele>
        <time>2020-08-29T12:35:11.000Z</time>
      </trkpt>
      <trkpt lat="47.17589" lon="-1.72984">
        <ele>17.799999237061</ele>
        <time>2020-08-29T12:35:14.000Z</time>
      </trkpt>
      <trkpt lat="47.17563" lon="-1.7297">
        <ele>17.39999961853</ele>
        <time>2020-08-29T12:35:18.000Z</time>
      </trkpt>
      <trkpt lat="47.1755" lon="-1.72963">
        <ele>17.200000762939</ele>
        <time>2020-08-29T12:35:20.000Z</time>
      </trkpt>
      <trkpt lat="47.1753" lon="-1.72953">
        <ele>16.799999237061</ele>
        <time>2020-08-29T12:35:23.000Z</time>
      </trkpt>
      <trkpt lat="47.17523" lon="-1.7295">
        <ele>16.60000038147</ele>
        <time>2020-08-29T12:35:24.000Z</time>
      </trkpt>
      <trkpt lat="47.17517" lon="-1.72946">
        <ele>16.60000038147</ele>
        <time>2020-08-29T12:35:25.000Z</time>
      </trkpt>
      <trkpt lat="47.17504" lon="-1.7294">
        <ele>16.200000762939</ele>
        <time>2020-08-29T12:35:27.000Z</time>
      </trkpt>
      <trkpt lat="47.17462" lon="-1.72909">
        <ele>15</ele>
        <time>2020-08-29T12:35:34.000Z</time>
      </trkpt>
      <trkpt lat="47.17411" lon="-1.72867">
        <ele>15</ele>
        <time>2020-08-29T12:35:43.000Z</time>
      </trkpt>
      <trkpt lat="47.17406" lon="-1.72862">
        <ele>15.199999809265</ele>
        <time>2020-08-29T12:35:44.000Z</time>
      </trkpt>
      <trkpt lat="47.17373" lon="-1.72826">
        <ele>16.799999237061</ele>
        <time>2020-08-29T12:35:51.000Z</time>
      </trkpt>
      <trkpt lat="47.17369" lon="-1.72821">
        <ele>17</ele>
        <time>2020-08-29T12:35:52.000Z</time>
      </trkpt>
      <trkpt lat="47.17335" lon="-1.7278">
        <ele>19</ele>
        <time>2020-08-29T12:36:00.000Z</time>
      </trkpt>
      <trkpt lat="47.17327" lon="-1.72771">
        <ele>19.60000038147</ele>
        <time>2020-08-29T12:36:02.000Z</time>
      </trkpt>
      <trkpt lat="47.17314" lon="-1.7275">
        <ele>20.200000762939</ele>
        <time>2020-08-29T12:36:06.000Z</time>
      </trkpt>
      <trkpt lat="47.17311" lon="-1.72745">
        <ele>20.39999961853</ele>
        <time>2020-08-29T12:36:07.000Z</time>
      </trkpt>
      <trkpt lat="47.17295" lon="-1.72721">
        <ele>20.799999237061</ele>
        <time>2020-08-29T12:36:12.000Z</time>
      </trkpt>
      <trkpt lat="47.17265" lon="-1.72702">
        <ele>21.60000038147</ele>
        <time>2020-08-29T12:36:19.000Z</time>
      </trkpt>
      <trkpt lat="47.17248" lon="-1.7269">
        <ele>22</ele>
        <time>2020-08-29T12:36:23.000Z</time>
      </trkpt>
      <trkpt lat="47.17244" lon="-1.72687">
        <ele>22</ele>
        <time>2020-08-29T12:36:24.000Z</time>
      </trkpt>
      <trkpt lat="47.17232" lon="-1.72677">
        <ele>22</ele>
        <time>2020-08-29T12:36:27.000Z</time>
      </trkpt>
      <trkpt lat="47.17215" lon="-1.72666">
        <ele>22.39999961853</ele>
        <time>2020-08-29T12:36:31.000Z</time>
      </trkpt>
      <trkpt lat="47.17206" lon="-1.7266">
        <ele>22.799999237061</ele>
        <time>2020-08-29T12:36:33.000Z</time>
      </trkpt>
      <trkpt lat="47.17197" lon="-1.72655">
        <ele>23.200000762939</ele>
        <time>2020-08-29T12:36:35.000Z</time>
      </trkpt>
      <trkpt lat="47.17192" lon="-1.72652">
        <ele>23.200000762939</ele>
        <time>2020-08-29T12:36:36.000Z</time>
      </trkpt>
      <trkpt lat="47.17163" lon="-1.72636">
        <ele>24</ele>
        <time>2020-08-29T12:36:42.000Z</time>
      </trkpt>
      <trkpt lat="47.17127" lon="-1.72614">
        <ele>23.60000038147</ele>
        <time>2020-08-29T12:36:49.000Z</time>
      </trkpt>
      <trkpt lat="47.17111" lon="-1.72603">
        <ele>23.60000038147</ele>
        <time>2020-08-29T12:36:52.000Z</time>
      </trkpt>
      <trkpt lat="47.1709" lon="-1.72589">
        <ele>23.799999237061</ele>
        <time>2020-08-29T12:36:56.000Z</time>
      </trkpt>
      <trkpt lat="47.17049" lon="-1.72562">
        <ele>23.799999237061</ele>
        <time>2020-08-29T12:37:04.000Z</time>
      </trkpt>
      <trkpt lat="47.17044" lon="-1.72559">
        <ele>23.799999237061</ele>
        <time>2020-08-29T12:37:05.000Z</time>
      </trkpt>
      <trkpt lat="47.17029" lon="-1.72549">
        <ele>24</ele>
        <time>2020-08-29T12:37:08.000Z</time>
      </trkpt>
      <trkpt lat="47.17025" lon="-1.72545">
        <ele>24</ele>
        <time>2020-08-29T12:37:09.000Z</time>
      </trkpt>
      <trkpt lat="47.17017" lon="-1.72537">
        <ele>24</ele>
        <time>2020-08-29T12:37:11.000Z</time>
      </trkpt>
      <trkpt lat="47.17005" lon="-1.7252">
        <ele>24.39999961853</ele>
        <time>2020-08-29T12:37:14.000Z</time>
      </trkpt>
      <trkpt lat="47.16999" lon="-1.72505">
        <ele>24.60000038147</ele>
        <time>2020-08-29T12:37:16.000Z</time>
      </trkpt>
      <trkpt lat="47.16989" lon="-1.72473">
        <ele>25</ele>
        <time>2020-08-29T12:37:20.000Z</time>
      </trkpt>
      <trkpt lat="47.16986" lon="-1.72456">
        <ele>25</ele>
        <time>2020-08-29T12:37:22.000Z</time>
      </trkpt>
      <trkpt lat="47.16985" lon="-1.72448">
        <ele>25</ele>
        <time>2020-08-29T12:37:23.000Z</time>
      </trkpt>
      <trkpt lat="47.16983" lon="-1.72431">
        <ele>25.200000762939</ele>
        <time>2020-08-29T12:37:25.000Z</time>
      </trkpt>
      <trkpt lat="47.16979" lon="-1.72397">
        <ele>25.200000762939</ele>
        <time>2020-08-29T12:37:29.000Z</time>
      </trkpt>
      <trkpt lat="47.16978" lon="-1.72389">
        <ele>25</ele>
        <time>2020-08-29T12:37:30.000Z</time>
      </trkpt>
      <trkpt lat="47.16975" lon="-1.72338">
        <ele>24.39999961853</ele>
        <time>2020-08-29T12:37:36.000Z</time>
      </trkpt>
      <trkpt lat="47.16974" lon="-1.72329">
        <ele>24.200000762939</ele>
        <time>2020-08-29T12:37:37.000Z</time>
      </trkpt>
      <trkpt lat="47.16969" lon="-1.72281">
        <ele>25</ele>
        <time>2020-08-29T12:37:43.000Z</time>
      </trkpt>
      <trkpt lat="47.16968" lon="-1.72273">
        <ele>25.200000762939</ele>
        <time>2020-08-29T12:37:44.000Z</time>
      </trkpt>
      <trkpt lat="47.16968" lon="-1.72265">
        <ele>25.39999961853</ele>
        <time>2020-08-29T12:37:45.000Z</time>
      </trkpt>
      <trkpt lat="47.16966" lon="-1.72234">
        <ele>25.60000038147</ele>
        <time>2020-08-29T12:37:49.000Z</time>
      </trkpt>
      <trkpt lat="47.16965" lon="-1.72226">
        <ele>25.799999237061</ele>
        <time>2020-08-29T12:37:50.000Z</time>
      </trkpt>
      <trkpt lat="47.16958" lon="-1.72181">
        <ele>26</ele>
        <time>2020-08-29T12:37:56.000Z</time>
      </trkpt>
      <trkpt lat="47.16954" lon="-1.72166">
        <ele>26.200000762939</ele>
        <time>2020-08-29T12:37:58.000Z</time>
      </trkpt>
      <trkpt lat="47.1694" lon="-1.7212">
        <ele>25.799999237061</ele>
        <time>2020-08-29T12:38:04.000Z</time>
      </trkpt>
      <trkpt lat="47.16936" lon="-1.72104">
        <ele>25.799999237061</ele>
        <time>2020-08-29T12:38:06.000Z</time>
      </trkpt>
      <trkpt lat="47.16923" lon="-1.72055">
        <ele>26</ele>
        <time>2020-08-29T12:38:12.000Z</time>
      </trkpt>
      <trkpt lat="47.16916" lon="-1.72033">
        <ele>26</ele>
        <time>2020-08-29T12:38:15.000Z</time>
      </trkpt>
      <trkpt lat="47.16913" lon="-1.72027">
        <ele>26</ele>
        <time>2020-08-29T12:38:16.000Z</time>
      </trkpt>
      <trkpt lat="47.1691" lon="-1.72023">
        <ele>26</ele>
        <time>2020-08-29T12:38:17.000Z</time>
      </trkpt>
      <trkpt lat="47.16901" lon="-1.72021">
        <ele>25.39999961853</ele>
        <time>2020-08-29T12:38:19.000Z</time>
      </trkpt>
      <trkpt lat="47.16896" lon="-1.72021">
        <ele>25.200000762939</ele>
        <time>2020-08-29T12:38:20.000Z</time>
      </trkpt>
      <trkpt lat="47.16879" lon="-1.72021">
        <ele>24.39999961853</ele>
        <time>2020-08-29T12:38:23.000Z</time>
      </trkpt>
      <trkpt lat="47.16859" lon="-1.72019">
        <ele>23.799999237061</ele>
        <time>2020-08-29T12:38:26.000Z</time>
      </trkpt>
      <trkpt lat="47.16851" lon="-1.72019">
        <ele>23.39999961853</ele>
        <time>2020-08-29T12:38:27.000Z</time>
      </trkpt>
      <trkpt lat="47.1682" lon="-1.72014">
        <ele>22.200000762939</ele>
        <time>2020-08-29T12:38:31.000Z</time>
      </trkpt>
      <trkpt lat="47.16805" lon="-1.72014">
        <ele>21.60000038147</ele>
        <time>2020-08-29T12:38:33.000Z</time>
      </trkpt>
      <trkpt lat="47.16799" lon="-1.72013">
        <ele>21.200000762939</ele>
        <time>2020-08-29T12:38:34.000Z</time>
      </trkpt>
      <trkpt lat="47.16794" lon="-1.72013">
        <ele>21</ele>
        <time>2020-08-29T12:38:35.000Z</time>
      </trkpt>
      <trkpt lat="47.16784" lon="-1.72013">
        <ele>20.60000038147</ele>
        <time>2020-08-29T12:38:37.000Z</time>
      </trkpt>
      <trkpt lat="47.16773" lon="-1.72014">
        <ele>20</ele>
        <time>2020-08-29T12:38:39.000Z</time>
      </trkpt>
      <trkpt lat="47.1676" lon="-1.72014">
        <ele>19.39999961853</ele>
        <time>2020-08-29T12:38:41.000Z</time>
      </trkpt>
      <trkpt lat="47.16731" lon="-1.72015">
        <ele>18.200000762939</ele>
        <time>2020-08-29T12:38:45.000Z</time>
      </trkpt>
      <trkpt lat="47.16723" lon="-1.72015">
        <ele>17.799999237061</ele>
        <time>2020-08-29T12:38:46.000Z</time>
      </trkpt>
      <trkpt lat="47.16676" lon="-1.72016">
        <ele>16.200000762939</ele>
        <time>2020-08-29T12:38:52.000Z</time>
      </trkpt>
      <trkpt lat="47.16643" lon="-1.72017">
        <ele>14.800000190735</ele>
        <time>2020-08-29T12:38:56.000Z</time>
      </trkpt>
      <trkpt lat="47.16609" lon="-1.72017">
        <ele>13.39999961853</ele>
        <time>2020-08-29T12:39:00.000Z</time>
      </trkpt>
      <trkpt lat="47.16591" lon="-1.72017">
        <ele>12.800000190735</ele>
        <time>2020-08-29T12:39:02.000Z</time>
      </trkpt>
      <trkpt lat="47.16545" lon="-1.72019">
        <ele>13.800000190735</ele>
        <time>2020-08-29T12:39:07.000Z</time>
      </trkpt>
      <trkpt lat="47.16536" lon="-1.72019">
        <ele>13.800000190735</ele>
        <time>2020-08-29T12:39:08.000Z</time>
      </trkpt>
      <trkpt lat="47.1651" lon="-1.72019">
        <ele>14.199999809265</ele>
        <time>2020-08-29T12:39:11.000Z</time>
      </trkpt>
      <trkpt lat="47.16478" lon="-1.72016">
        <ele>15.39999961853</ele>
        <time>2020-08-29T12:39:15.000Z</time>
      </trkpt>
      <trkpt lat="47.16447" lon="-1.72003">
        <ele>18.200000762939</ele>
        <time>2020-08-29T12:39:20.000Z</time>
      </trkpt>
      <trkpt lat="47.16417" lon="-1.71979">
        <ele>21.39999961853</ele>
        <time>2020-08-29T12:39:26.000Z</time>
      </trkpt>
      <trkpt lat="47.16412" lon="-1.71974">
        <ele>21.39999961853</ele>
        <time>2020-08-29T12:39:27.000Z</time>
      </trkpt>
      <trkpt lat="47.16403" lon="-1.71966">
        <ele>21.39999961853</ele>
        <time>2020-08-29T12:39:29.000Z</time>
      </trkpt>
      <trkpt lat="47.1639" lon="-1.71955">
        <ele>21.799999237061</ele>
        <time>2020-08-29T12:39:32.000Z</time>
      </trkpt>
      <trkpt lat="47.16385" lon="-1.71951">
        <ele>21.799999237061</ele>
        <time>2020-08-29T12:39:33.000Z</time>
      </trkpt>
      <trkpt lat="47.16376" lon="-1.71943">
        <ele>22</ele>
        <time>2020-08-29T12:39:35.000Z</time>
      </trkpt>
      <trkpt lat="47.16363" lon="-1.71931">
        <ele>21.39999961853</ele>
        <time>2020-08-29T12:39:38.000Z</time>
      </trkpt>
      <trkpt lat="47.16358" lon="-1.71928">
        <ele>21.200000762939</ele>
        <time>2020-08-29T12:39:39.000Z</time>
      </trkpt>
      <trkpt lat="47.16354" lon="-1.71923">
        <ele>21</ele>
        <time>2020-08-29T12:39:40.000Z</time>
      </trkpt>
      <trkpt lat="47.16345" lon="-1.71915">
        <ele>20.60000038147</ele>
        <time>2020-08-29T12:39:42.000Z</time>
      </trkpt>
      <trkpt lat="47.1634" lon="-1.71911">
        <ele>20.39999961853</ele>
        <time>2020-08-29T12:39:43.000Z</time>
      </trkpt>
      <trkpt lat="47.16323" lon="-1.71895">
        <ele>20</ele>
        <time>2020-08-29T12:39:47.000Z</time>
      </trkpt>
      <trkpt lat="47.1631" lon="-1.71883">
        <ele>20</ele>
        <time>2020-08-29T12:39:50.000Z</time>
      </trkpt>
      <trkpt lat="47.16279" lon="-1.71854">
        <ele>20</ele>
        <time>2020-08-29T12:39:57.000Z</time>
      </trkpt>
      <trkpt lat="47.16266" lon="-1.71842">
        <ele>20</ele>
        <time>2020-08-29T12:40:00.000Z</time>
      </trkpt>
      <trkpt lat="47.16261" lon="-1.71838">
        <ele>20</ele>
        <time>2020-08-29T12:40:01.000Z</time>
      </trkpt>
      <trkpt lat="47.16234" lon="-1.71814">
        <ele>20</ele>
        <time>2020-08-29T12:40:07.000Z</time>
      </trkpt>
      <trkpt lat="47.16224" lon="-1.71805">
        <ele>20</ele>
        <time>2020-08-29T12:40:09.000Z</time>
      </trkpt>
      <trkpt lat="47.16199" lon="-1.71785">
        <ele>19.799999237061</ele>
        <time>2020-08-29T12:40:14.000Z</time>
      </trkpt>
      <trkpt lat="47.16185" lon="-1.71773">
        <ele>19.60000038147</ele>
        <time>2020-08-29T12:40:17.000Z</time>
      </trkpt>
      <trkpt lat="47.1617" lon="-1.71762">
        <ele>19.200000762939</ele>
        <time>2020-08-29T12:40:20.000Z</time>
      </trkpt>
      <trkpt lat="47.16146" lon="-1.71743">
        <ele>19.200000762939</ele>
        <time>2020-08-29T12:40:25.000Z</time>
      </trkpt>
      <trkpt lat="47.16113" lon="-1.71719">
        <ele>19.799999237061</ele>
        <time>2020-08-29T12:40:32.000Z</time>
      </trkpt>
      <trkpt lat="47.16104" lon="-1.71712">
        <ele>20</ele>
        <time>2020-08-29T12:40:34.000Z</time>
      </trkpt>
      <trkpt lat="47.16094" lon="-1.71704">
        <ele>20.200000762939</ele>
        <time>2020-08-29T12:40:36.000Z</time>
      </trkpt>
      <trkpt lat="47.16086" lon="-1.71695">
        <ele>20.39999961853</ele>
        <time>2020-08-29T12:40:38.000Z</time>
      </trkpt>
      <trkpt lat="47.16065" lon="-1.7167">
        <ele>21</ele>
        <time>2020-08-29T12:40:43.000Z</time>
      </trkpt>
      <trkpt lat="47.16058" lon="-1.71658">
        <ele>21.39999961853</ele>
        <time>2020-08-29T12:40:45.000Z</time>
      </trkpt>
      <trkpt lat="47.16032" lon="-1.71611">
        <ele>22</ele>
        <time>2020-08-29T12:40:52.000Z</time>
      </trkpt>
      <trkpt lat="47.16028" lon="-1.71605">
        <ele>22</ele>
        <time>2020-08-29T12:40:53.000Z</time>
      </trkpt>
      <trkpt lat="47.16002" lon="-1.71568">
        <ele>22</ele>
        <time>2020-08-29T12:40:59.000Z</time>
      </trkpt>
      <trkpt lat="47.15987" lon="-1.71553">
        <ele>22.200000762939</ele>
        <time>2020-08-29T12:41:02.000Z</time>
      </trkpt>
      <trkpt lat="47.15967" lon="-1.71534">
        <ele>22.60000038147</ele>
        <time>2020-08-29T12:41:06.000Z</time>
      </trkpt>
      <trkpt lat="47.15957" lon="-1.71523">
        <ele>23</ele>
        <time>2020-08-29T12:41:08.000Z</time>
      </trkpt>
      <trkpt lat="47.15932" lon="-1.71494">
        <ele>24.200000762939</ele>
        <time>2020-08-29T12:41:13.000Z</time>
      </trkpt>
      <trkpt lat="47.15918" lon="-1.71475">
        <ele>24.799999237061</ele>
        <time>2020-08-29T12:41:16.000Z</time>
      </trkpt>
      <trkpt lat="47.15885" lon="-1.71431">
        <ele>23.39999961853</ele>
        <time>2020-08-29T12:41:23.000Z</time>
      </trkpt>
      <trkpt lat="47.15857" lon="-1.71397">
        <ele>24.39999961853</ele>
        <time>2020-08-29T12:41:29.000Z</time>
      </trkpt>
      <trkpt lat="47.15829" lon="-1.71351">
        <ele>25</ele>
        <time>2020-08-29T12:41:36.000Z</time>
      </trkpt>
      <trkpt lat="47.15795" lon="-1.71283">
        <ele>25.39999961853</ele>
        <time>2020-08-29T12:41:45.000Z</time>
      </trkpt>
      <trkpt lat="47.1577" lon="-1.71237">
        <ele>26</ele>
        <time>2020-08-29T12:41:51.000Z</time>
      </trkpt>
      <trkpt lat="47.15766" lon="-1.7123">
        <ele>26</ele>
        <time>2020-08-29T12:41:52.000Z</time>
      </trkpt>
      <trkpt lat="47.15761" lon="-1.71222">
        <ele>25.799999237061</ele>
        <time>2020-08-29T12:41:53.000Z</time>
      </trkpt>
      <trkpt lat="47.15752" lon="-1.71206">
        <ele>25.60000038147</ele>
        <time>2020-08-29T12:41:55.000Z</time>
      </trkpt>
      <trkpt lat="47.15734" lon="-1.71175">
        <ele>25.200000762939</ele>
        <time>2020-08-29T12:41:59.000Z</time>
      </trkpt>
      <trkpt lat="47.15728" lon="-1.71168">
        <ele>25.200000762939</ele>
        <time>2020-08-29T12:42:00.000Z</time>
      </trkpt>
      <trkpt lat="47.15718" lon="-1.71153">
        <ele>25</ele>
        <time>2020-08-29T12:42:02.000Z</time>
      </trkpt>
      <trkpt lat="47.15695" lon="-1.71125">
        <ele>24.60000038147</ele>
        <time>2020-08-29T12:42:06.000Z</time>
      </trkpt>
      <trkpt lat="47.15682" lon="-1.71111">
        <ele>24.39999961853</ele>
        <time>2020-08-29T12:42:08.000Z</time>
      </trkpt>
      <trkpt lat="47.15676" lon="-1.71104">
        <ele>24.39999961853</ele>
        <time>2020-08-29T12:42:09.000Z</time>
      </trkpt>
      <trkpt lat="47.15664" lon="-1.7109">
        <ele>24.200000762939</ele>
        <time>2020-08-29T12:42:11.000Z</time>
      </trkpt>
      <trkpt lat="47.15645" lon="-1.71071">
        <ele>24.200000762939</ele>
        <time>2020-08-29T12:42:14.000Z</time>
      </trkpt>
      <trkpt lat="47.15639" lon="-1.71064">
        <ele>24.39999961853</ele>
        <time>2020-08-29T12:42:15.000Z</time>
      </trkpt>
      <trkpt lat="47.15633" lon="-1.71057">
        <ele>24.39999961853</ele>
        <time>2020-08-29T12:42:16.000Z</time>
      </trkpt>
      <trkpt lat="47.15609" lon="-1.71029">
        <ele>25</ele>
        <time>2020-08-29T12:42:20.000Z</time>
      </trkpt>
      <trkpt lat="47.15603" lon="-1.71021">
        <ele>25</ele>
        <time>2020-08-29T12:42:21.000Z</time>
      </trkpt>
      <trkpt lat="47.15598" lon="-1.71013">
        <ele>25</ele>
        <time>2020-08-29T12:42:22.000Z</time>
      </trkpt>
      <trkpt lat="47.15592" lon="-1.71005">
        <ele>25</ele>
        <time>2020-08-29T12:42:23.000Z</time>
      </trkpt>
      <trkpt lat="47.15587" lon="-1.70997">
        <ele>25</ele>
        <time>2020-08-29T12:42:24.000Z</time>
      </trkpt>
      <trkpt lat="47.15575" lon="-1.7098">
        <ele>25</ele>
        <time>2020-08-29T12:42:26.000Z</time>
      </trkpt>
      <trkpt lat="47.15554" lon="-1.70947">
        <ele>25</ele>
        <time>2020-08-29T12:42:30.000Z</time>
      </trkpt>
      <trkpt lat="47.15526" lon="-1.70906">
        <ele>24.39999961853</ele>
        <time>2020-08-29T12:42:35.000Z</time>
      </trkpt>
      <trkpt lat="47.15514" lon="-1.7089">
        <ele>24</ele>
        <time>2020-08-29T12:42:37.000Z</time>
      </trkpt>
      <trkpt lat="47.15509" lon="-1.70881">
        <ele>24</ele>
        <time>2020-08-29T12:42:38.000Z</time>
      </trkpt>
      <trkpt lat="47.15503" lon="-1.70873">
        <ele>24</ele>
        <time>2020-08-29T12:42:39.000Z</time>
      </trkpt>
      <trkpt lat="47.1548" lon="-1.70839">
        <ele>23.799999237061</ele>
        <time>2020-08-29T12:42:43.000Z</time>
      </trkpt>
      <trkpt lat="47.15463" lon="-1.70814">
        <ele>23.200000762939</ele>
        <time>2020-08-29T12:42:46.000Z</time>
      </trkpt>
      <trkpt lat="47.15456" lon="-1.70805">
        <ele>23</ele>
        <time>2020-08-29T12:42:47.000Z</time>
      </trkpt>
      <trkpt lat="47.15443" lon="-1.7079">
        <ele>22.39999961853</ele>
        <time>2020-08-29T12:42:49.000Z</time>
      </trkpt>
      <trkpt lat="47.15422" lon="-1.70769">
        <ele>22.200000762939</ele>
        <time>2020-08-29T12:42:52.000Z</time>
      </trkpt>
      <trkpt lat="47.154" lon="-1.7075">
        <ele>22</ele>
        <time>2020-08-29T12:42:55.000Z</time>
      </trkpt>
      <trkpt lat="47.15368" lon="-1.70728">
        <ele>21.39999961853</ele>
        <time>2020-08-29T12:42:59.000Z</time>
      </trkpt>
      <trkpt lat="47.15326" lon="-1.70702">
        <ele>21.39999961853</ele>
        <time>2020-08-29T12:43:04.000Z</time>
      </trkpt>
      <trkpt lat="47.1529" lon="-1.70682">
        <ele>21</ele>
        <time>2020-08-29T12:43:08.000Z</time>
      </trkpt>
      <trkpt lat="47.15247" lon="-1.70656">
        <ele>20</ele>
        <time>2020-08-29T12:43:13.000Z</time>
      </trkpt>
      <trkpt lat="47.15229" lon="-1.70645">
        <ele>20</ele>
        <time>2020-08-29T12:43:15.000Z</time>
      </trkpt>
      <trkpt lat="47.1522" lon="-1.7064">
        <ele>19.799999237061</ele>
        <time>2020-08-29T12:43:16.000Z</time>
      </trkpt>
      <trkpt lat="47.15168" lon="-1.70608">
        <ele>19</ele>
        <time>2020-08-29T12:43:22.000Z</time>
      </trkpt>
      <trkpt lat="47.15151" lon="-1.70598">
        <ele>19</ele>
        <time>2020-08-29T12:43:24.000Z</time>
      </trkpt>
      <trkpt lat="47.15097" lon="-1.70567">
        <ele>21.200000762939</ele>
        <time>2020-08-29T12:43:31.000Z</time>
      </trkpt>
      <trkpt lat="47.15075" lon="-1.70556">
        <ele>21.60000038147</ele>
        <time>2020-08-29T12:43:34.000Z</time>
      </trkpt>
      <trkpt lat="47.1506" lon="-1.70548">
        <ele>21.200000762939</ele>
        <time>2020-08-29T12:43:36.000Z</time>
      </trkpt>
      <trkpt lat="47.15045" lon="-1.70543">
        <ele>21</ele>
        <time>2020-08-29T12:43:38.000Z</time>
      </trkpt>
      <trkpt lat="47.15031" lon="-1.70543">
        <ele>20.799999237061</ele>
        <time>2020-08-29T12:43:40.000Z</time>
      </trkpt>
      <trkpt lat="47.15025" lon="-1.70544">
        <ele>20.799999237061</ele>
        <time>2020-08-29T12:43:41.000Z</time>
      </trkpt>
      <trkpt lat="47.15019" lon="-1.70542">
        <ele>20.60000038147</ele>
        <time>2020-08-29T12:43:42.000Z</time>
      </trkpt>
      <trkpt lat="47.15014" lon="-1.70538">
        <ele>20.60000038147</ele>
        <time>2020-08-29T12:43:43.000Z</time>
      </trkpt>
      <trkpt lat="47.15011" lon="-1.70532">
        <ele>20.60000038147</ele>
        <time>2020-08-29T12:43:44.000Z</time>
      </trkpt>
      <trkpt lat="47.15" lon="-1.70509">
        <ele>20.200000762939</ele>
        <time>2020-08-29T12:43:47.000Z</time>
      </trkpt>
      <trkpt lat="47.14995" lon="-1.70502">
        <ele>20.200000762939</ele>
        <time>2020-08-29T12:43:48.000Z</time>
      </trkpt>
      <trkpt lat="47.14991" lon="-1.70496">
        <ele>20</ele>
        <time>2020-08-29T12:43:49.000Z</time>
      </trkpt>
      <trkpt lat="47.14971" lon="-1.70473">
        <ele>19.60000038147</ele>
        <time>2020-08-29T12:43:53.000Z</time>
      </trkpt>
      <trkpt lat="47.1494" lon="-1.70435">
        <ele>19.39999961853</ele>
        <time>2020-08-29T12:43:59.000Z</time>
      </trkpt>
      <trkpt lat="47.14929" lon="-1.70423">
        <ele>19.60000038147</ele>
        <time>2020-08-29T12:44:01.000Z</time>
      </trkpt>
      <trkpt lat="47.1489" lon="-1.70387">
        <ele>20</ele>
        <time>2020-08-29T12:44:08.000Z</time>
      </trkpt>
      <trkpt lat="47.14885" lon="-1.70383">
        <ele>20</ele>
        <time>2020-08-29T12:44:09.000Z</time>
      </trkpt>
      <trkpt lat="47.14846" lon="-1.70354">
        <ele>20</ele>
        <time>2020-08-29T12:44:16.000Z</time>
      </trkpt>
      <trkpt lat="47.14828" lon="-1.70345">
        <ele>20</ele>
        <time>2020-08-29T12:44:19.000Z</time>
      </trkpt>
      <trkpt lat="47.14817" lon="-1.70338">
        <ele>19.799999237061</ele>
        <time>2020-08-29T12:44:21.000Z</time>
      </trkpt>
      <trkpt lat="47.14811" lon="-1.70335">
        <ele>19.799999237061</ele>
        <time>2020-08-29T12:44:22.000Z</time>
      </trkpt>
      <trkpt lat="47.14806" lon="-1.7033">
        <ele>20</ele>
        <time>2020-08-29T12:44:23.000Z</time>
      </trkpt>
      <trkpt lat="47.14786" lon="-1.70308">
        <ele>20.60000038147</ele>
        <time>2020-08-29T12:44:27.000Z</time>
      </trkpt>
      <trkpt lat="47.14769" lon="-1.7028">
        <ele>21.200000762939</ele>
        <time>2020-08-29T12:44:31.000Z</time>
      </trkpt>
      <trkpt lat="47.1476" lon="-1.70267">
        <ele>21.39999961853</ele>
        <time>2020-08-29T12:44:33.000Z</time>
      </trkpt>
      <trkpt lat="47.14728" lon="-1.7022">
        <ele>21.200000762939</ele>
        <time>2020-08-29T12:44:40.000Z</time>
      </trkpt>
      <trkpt lat="47.14695" lon="-1.70161">
        <ele>19.799999237061</ele>
        <time>2020-08-29T12:44:47.000Z</time>
      </trkpt>
      <trkpt lat="47.14677" lon="-1.70119">
        <ele>18.799999237061</ele>
        <time>2020-08-29T12:44:51.000Z</time>
      </trkpt>
      <trkpt lat="47.14668" lon="-1.70096">
        <ele>18.39999961853</ele>
        <time>2020-08-29T12:44:53.000Z</time>
      </trkpt>
      <trkpt lat="47.14659" lon="-1.70073">
        <ele>17.799999237061</ele>
        <time>2020-08-29T12:44:55.000Z</time>
      </trkpt>
      <trkpt lat="47.14654" lon="-1.70061">
        <ele>17.200000762939</ele>
        <time>2020-08-29T12:44:56.000Z</time>
      </trkpt>
      <trkpt lat="47.1465" lon="-1.7005">
        <ele>16.39999961853</ele>
        <time>2020-08-29T12:44:57.000Z</time>
      </trkpt>
      <trkpt lat="47.14646" lon="-1.70038">
        <ele>15.800000190735</ele>
        <time>2020-08-29T12:44:58.000Z</time>
      </trkpt>
      <trkpt lat="47.14641" lon="-1.70027">
        <ele>15</ele>
        <time>2020-08-29T12:44:59.000Z</time>
      </trkpt>
      <trkpt lat="47.14637" lon="-1.70015">
        <ele>14.199999809265</ele>
        <time>2020-08-29T12:45:00.000Z</time>
      </trkpt>
      <trkpt lat="47.14633" lon="-1.70004">
        <ele>13.800000190735</ele>
        <time>2020-08-29T12:45:01.000Z</time>
      </trkpt>
      <trkpt lat="47.14628" lon="-1.69992">
        <ele>13.60000038147</ele>
        <time>2020-08-29T12:45:02.000Z</time>
      </trkpt>
      <trkpt lat="47.1462" lon="-1.6997">
        <ele>13.39999961853</ele>
        <time>2020-08-29T12:45:04.000Z</time>
      </trkpt>
      <trkpt lat="47.14616" lon="-1.69959">
        <ele>13.199999809265</ele>
        <time>2020-08-29T12:45:05.000Z</time>
      </trkpt>
      <trkpt lat="47.14604" lon="-1.69927">
        <ele>14.60000038147</ele>
        <time>2020-08-29T12:45:08.000Z</time>
      </trkpt>
      <trkpt lat="47.146" lon="-1.69916">
        <ele>15.199999809265</ele>
        <time>2020-08-29T12:45:09.000Z</time>
      </trkpt>
      <trkpt lat="47.14587" lon="-1.69874">
        <ele>17.200000762939</ele>
        <time>2020-08-29T12:45:13.000Z</time>
      </trkpt>
      <trkpt lat="47.14582" lon="-1.69853">
        <ele>17.39999961853</ele>
        <time>2020-08-29T12:45:15.000Z</time>
      </trkpt>
      <trkpt lat="47.14572" lon="-1.69792">
        <ele>18.200000762939</ele>
        <time>2020-08-29T12:45:21.000Z</time>
      </trkpt>
      <trkpt lat="47.14567" lon="-1.69755">
        <ele>18.39999961853</ele>
        <time>2020-08-29T12:45:25.000Z</time>
      </trkpt>
      <trkpt lat="47.14566" lon="-1.69747">
        <ele>18.39999961853</ele>
        <time>2020-08-29T12:45:26.000Z</time>
      </trkpt>
      <trkpt lat="47.14565" lon="-1.69739">
        <ele>18.39999961853</ele>
        <time>2020-08-29T12:45:27.000Z</time>
      </trkpt>
      <trkpt lat="47.14564" lon="-1.69731">
        <ele>18.39999961853</ele>
        <time>2020-08-29T12:45:28.000Z</time>
      </trkpt>
      <trkpt lat="47.14559" lon="-1.69719">
        <ele>18.39999961853</ele>
        <time>2020-08-29T12:45:30.000Z</time>
      </trkpt>
      <trkpt lat="47.14555" lon="-1.69715">
        <ele>18.200000762939</ele>
        <time>2020-08-29T12:45:31.000Z</time>
      </trkpt>
      <trkpt lat="47.1455" lon="-1.69712">
        <ele>18</ele>
        <time>2020-08-29T12:45:32.000Z</time>
      </trkpt>
      <trkpt lat="47.14539" lon="-1.69707">
        <ele>17.39999961853</ele>
        <time>2020-08-29T12:45:34.000Z</time>
      </trkpt>
      <trkpt lat="47.14527" lon="-1.69701">
        <ele>17</ele>
        <time>2020-08-29T12:45:36.000Z</time>
      </trkpt>
      <trkpt lat="47.14507" lon="-1.69693">
        <ele>16.200000762939</ele>
        <time>2020-08-29T12:45:39.000Z</time>
      </trkpt>
      <trkpt lat="47.14494" lon="-1.69684">
        <ele>15.60000038147</ele>
        <time>2020-08-29T12:45:41.000Z</time>
      </trkpt>
      <trkpt lat="47.14483" lon="-1.69672">
        <ele>15.60000038147</ele>
        <time>2020-08-29T12:45:43.000Z</time>
      </trkpt>
      <trkpt lat="47.14477" lon="-1.69665">
        <ele>15.60000038147</ele>
        <time>2020-08-29T12:45:44.000Z</time>
      </trkpt>
      <trkpt lat="47.14461" lon="-1.69646">
        <ele>15.60000038147</ele>
        <time>2020-08-29T12:45:47.000Z</time>
      </trkpt>
      <trkpt lat="47.14439" lon="-1.69621">
        <ele>15.800000190735</ele>
        <time>2020-08-29T12:45:51.000Z</time>
      </trkpt>
      <trkpt lat="47.14424" lon="-1.69601">
        <ele>15.800000190735</ele>
        <time>2020-08-29T12:45:54.000Z</time>
      </trkpt>
      <trkpt lat="47.14398" lon="-1.69558">
        <ele>16.39999961853</ele>
        <time>2020-08-29T12:46:00.000Z</time>
      </trkpt>
      <trkpt lat="47.14382" lon="-1.69534">
        <ele>17.200000762939</ele>
        <time>2020-08-29T12:46:05.000Z</time>
      </trkpt>
      <trkpt lat="47.14379" lon="-1.69534">
        <ele>17.200000762939</ele>
        <time>2020-08-29T12:46:06.000Z</time>
      </trkpt>
      <trkpt lat="47.14375" lon="-1.69536">
        <ele>17.200000762939</ele>
        <time>2020-08-29T12:46:08.000Z</time>
      </trkpt>
      <trkpt lat="47.14367" lon="-1.69558">
        <ele>16.799999237061</ele>
        <time>2020-08-29T12:46:12.000Z</time>
      </trkpt>
      <trkpt lat="47.14351" lon="-1.6961">
        <ele>15.199999809265</ele>
        <time>2020-08-29T12:46:18.000Z</time>
      </trkpt>
      <trkpt lat="47.14346" lon="-1.69629">
        <ele>14.60000038147</ele>
        <time>2020-08-29T12:46:20.000Z</time>
      </trkpt>
      <trkpt lat="47.14337" lon="-1.69667">
        <ele>13.800000190735</ele>
        <time>2020-08-29T12:46:24.000Z</time>
      </trkpt>
      <trkpt lat="47.14328" lon="-1.69703">
        <ele>12.800000190735</ele>
        <time>2020-08-29T12:46:29.000Z</time>
      </trkpt>
      <trkpt lat="47.14327" lon="-1.6971">
        <ele>12.60000038147</ele>
        <time>2020-08-29T12:46:31.000Z</time>
      </trkpt>
      <trkpt lat="47.14325" lon="-1.69716">
        <ele>12.39999961853</ele>
        <time>2020-08-29T12:46:33.000Z</time>
      </trkpt>
      <trkpt lat="47.14322" lon="-1.69719">
        <ele>12.39999961853</ele>
        <time>2020-08-29T12:46:34.000Z</time>
      </trkpt>
      <trkpt lat="47.14319" lon="-1.6972">
        <ele>12.199999809265</ele>
        <time>2020-08-29T12:46:35.000Z</time>
      </trkpt>
      <trkpt lat="47.14314" lon="-1.6972">
        <ele>12.199999809265</ele>
        <time>2020-08-29T12:46:36.000Z</time>
      </trkpt>
      <trkpt lat="47.14309" lon="-1.69719">
        <ele>12.199999809265</ele>
        <time>2020-08-29T12:46:37.000Z</time>
      </trkpt>
      <trkpt lat="47.14285" lon="-1.69714">
        <ele>12</ele>
        <time>2020-08-29T12:46:41.000Z</time>
      </trkpt>
      <trkpt lat="47.1425" lon="-1.69712">
        <ele>11.60000038147</ele>
        <time>2020-08-29T12:46:46.000Z</time>
      </trkpt>
      <trkpt lat="47.14236" lon="-1.69714">
        <ele>11.60000038147</ele>
        <time>2020-08-29T12:46:48.000Z</time>
      </trkpt>
      <trkpt lat="47.14206" lon="-1.6972">
        <ele>11.800000190735</ele>
        <time>2020-08-29T12:46:52.000Z</time>
      </trkpt>
      <trkpt lat="47.14199" lon="-1.69721">
        <ele>12</ele>
        <time>2020-08-29T12:46:53.000Z</time>
      </trkpt>
      <trkpt lat="47.14183" lon="-1.69723">
        <ele>12</ele>
        <time>2020-08-29T12:46:55.000Z</time>
      </trkpt>
      <trkpt lat="47.14176" lon="-1.69724">
        <ele>12.199999809265</ele>
        <time>2020-08-29T12:46:56.000Z</time>
      </trkpt>
      <trkpt lat="47.14137" lon="-1.69731">
        <ele>11.60000038147</ele>
        <time>2020-08-29T12:47:01.000Z</time>
      </trkpt>
      <trkpt lat="47.14114" lon="-1.69734">
        <ele>11.39999961853</ele>
        <time>2020-08-29T12:47:04.000Z</time>
      </trkpt>
      <trkpt lat="47.14106" lon="-1.69735">
        <ele>11.39999961853</ele>
        <time>2020-08-29T12:47:05.000Z</time>
      </trkpt>
      <trkpt lat="47.14091" lon="-1.69737">
        <ele>11.199999809265</ele>
        <time>2020-08-29T12:47:07.000Z</time>
      </trkpt>
      <trkpt lat="47.14063" lon="-1.69738">
        <ele>10.800000190735</ele>
        <time>2020-08-29T12:47:11.000Z</time>
      </trkpt>
      <trkpt lat="47.14048" lon="-1.69736">
        <ele>10.60000038147</ele>
        <time>2020-08-29T12:47:13.000Z</time>
      </trkpt>
      <trkpt lat="47.14041" lon="-1.69735">
        <ele>10.60000038147</ele>
        <time>2020-08-29T12:47:14.000Z</time>
      </trkpt>
      <trkpt lat="47.14034" lon="-1.69734">
        <ele>10.60000038147</ele>
        <time>2020-08-29T12:47:15.000Z</time>
      </trkpt>
      <trkpt lat="47.14027" lon="-1.69734">
        <ele>10.39999961853</ele>
        <time>2020-08-29T12:47:16.000Z</time>
      </trkpt>
      <trkpt lat="47.13991" lon="-1.6973">
        <ele>10.39999961853</ele>
        <time>2020-08-29T12:47:21.000Z</time>
      </trkpt>
      <trkpt lat="47.13983" lon="-1.69729">
        <ele>10.39999961853</ele>
        <time>2020-08-29T12:47:22.000Z</time>
      </trkpt>
      <trkpt lat="47.13961" lon="-1.69726">
        <ele>10.39999961853</ele>
        <time>2020-08-29T12:47:25.000Z</time>
      </trkpt>
      <trkpt lat="47.13929" lon="-1.69722">
        <ele>10.199999809265</ele>
        <time>2020-08-29T12:47:29.000Z</time>
      </trkpt>
      <trkpt lat="47.1388" lon="-1.69723">
        <ele>9.8000001907349</ele>
        <time>2020-08-29T12:47:35.000Z</time>
      </trkpt>
      <trkpt lat="47.13866" lon="-1.69726">
        <ele>10</ele>
        <time>2020-08-29T12:47:37.000Z</time>
      </trkpt>
      <trkpt lat="47.13843" lon="-1.6973">
        <ele>10</ele>
        <time>2020-08-29T12:47:40.000Z</time>
      </trkpt>
      <trkpt lat="47.13835" lon="-1.69731">
        <ele>10.199999809265</ele>
        <time>2020-08-29T12:47:41.000Z</time>
      </trkpt>
      <trkpt lat="47.1382" lon="-1.6973">
        <ele>9.8000001907349</ele>
        <time>2020-08-29T12:47:43.000Z</time>
      </trkpt>
      <trkpt lat="47.13788" lon="-1.69729">
        <ele>9.8000001907349</ele>
        <time>2020-08-29T12:47:47.000Z</time>
      </trkpt>
      <trkpt lat="47.13733" lon="-1.69734">
        <ele>9.8000001907349</ele>
        <time>2020-08-29T12:47:54.000Z</time>
      </trkpt>
      <trkpt lat="47.13679" lon="-1.69742">
        <ele>9.1999998092651</ele>
        <time>2020-08-29T12:48:01.000Z</time>
      </trkpt>
      <trkpt lat="47.1367" lon="-1.69742">
        <ele>9.1999998092651</ele>
        <time>2020-08-29T12:48:02.000Z</time>
      </trkpt>
      <trkpt lat="47.13613" lon="-1.69744">
        <ele>8</ele>
        <time>2020-08-29T12:48:09.000Z</time>
      </trkpt>
      <trkpt lat="47.13597" lon="-1.69745">
        <ele>7.5999999046326</ele>
        <time>2020-08-29T12:48:11.000Z</time>
      </trkpt>
      <trkpt lat="47.13546" lon="-1.69745">
        <ele>6.1999998092651</ele>
        <time>2020-08-29T12:48:17.000Z</time>
      </trkpt>
      <trkpt lat="47.1352" lon="-1.69744">
        <ele>5.5999999046326</ele>
        <time>2020-08-29T12:48:20.000Z</time>
      </trkpt>
      <trkpt lat="47.13471" lon="-1.69748">
        <ele>4.8000001907349</ele>
        <time>2020-08-29T12:48:26.000Z</time>
      </trkpt>
      <trkpt lat="47.1343" lon="-1.69761">
        <ele>5.1999998092651</ele>
        <time>2020-08-29T12:48:31.000Z</time>
      </trkpt>
      <trkpt lat="47.13414" lon="-1.69767">
        <ele>5.1999998092651</ele>
        <time>2020-08-29T12:48:33.000Z</time>
      </trkpt>
      <trkpt lat="47.13385" lon="-1.69782">
        <ele>4.5999999046326</ele>
        <time>2020-08-29T12:48:37.000Z</time>
      </trkpt>
      <trkpt lat="47.13378" lon="-1.69785">
        <ele>4.4000000953674</ele>
        <time>2020-08-29T12:48:38.000Z</time>
      </trkpt>
      <trkpt lat="47.13371" lon="-1.69789">
        <ele>4.4000000953674</ele>
        <time>2020-08-29T12:48:39.000Z</time>
      </trkpt>
      <trkpt lat="47.13364" lon="-1.69792">
        <ele>4.1999998092651</ele>
        <time>2020-08-29T12:48:40.000Z</time>
      </trkpt>
      <trkpt lat="47.13319" lon="-1.69818">
        <ele>3</ele>
        <time>2020-08-29T12:48:47.000Z</time>
      </trkpt>
      <trkpt lat="47.13276" lon="-1.69845">
        <ele>2.4000000953674</ele>
        <time>2020-08-29T12:48:54.000Z</time>
      </trkpt>
      <trkpt lat="47.13271" lon="-1.69849">
        <ele>2.4000000953674</ele>
        <time>2020-08-29T12:48:55.000Z</time>
      </trkpt>
      <trkpt lat="47.1325" lon="-1.69859">
        <ele>2</ele>
        <time>2020-08-29T12:48:59.000Z</time>
      </trkpt>
      <trkpt lat="47.13232" lon="-1.69868">
        <ele>2.2000000476837</ele>
        <time>2020-08-29T12:49:02.000Z</time>
      </trkpt>
      <trkpt lat="47.13206" lon="-1.69882">
        <ele>2.4000000953674</ele>
        <time>2020-08-29T12:49:06.000Z</time>
      </trkpt>
      <trkpt lat="47.13191" lon="-1.6989">
        <ele>2.5999999046326</ele>
        <time>2020-08-29T12:49:08.000Z</time>
      </trkpt>
      <trkpt lat="47.13168" lon="-1.69904">
        <ele>2.7999999523163</ele>
        <time>2020-08-29T12:49:11.000Z</time>
      </trkpt>
      <trkpt lat="47.13132" lon="-1.69923">
        <ele>2.4000000953674</ele>
        <time>2020-08-29T12:49:16.000Z</time>
      </trkpt>
      <trkpt lat="47.13118" lon="-1.6993">
        <ele>2.2000000476837</ele>
        <time>2020-08-29T12:49:18.000Z</time>
      </trkpt>
      <trkpt lat="47.13091" lon="-1.69944">
        <ele>1.6000000238419</ele>
        <time>2020-08-29T12:49:22.000Z</time>
      </trkpt>
      <trkpt lat="47.13078" lon="-1.69952">
        <ele>1.3999999761581</ele>
        <time>2020-08-29T12:49:24.000Z</time>
      </trkpt>
      <trkpt lat="47.13025" lon="-1.69982">
        <ele>1.6000000238419</ele>
        <time>2020-08-29T12:49:32.000Z</time>
      </trkpt>
      <trkpt lat="47.12974" lon="-1.7001">
        <ele>1.7999999523163</ele>
        <time>2020-08-29T12:49:40.000Z</time>
      </trkpt>
      <trkpt lat="47.12927" lon="-1.70035">
        <ele>1.7999999523163</ele>
        <time>2020-08-29T12:49:47.000Z</time>
      </trkpt>
      <trkpt lat="47.12873" lon="-1.70063">
        <ele>2.5999999046326</ele>
        <time>2020-08-29T12:49:55.000Z</time>
      </trkpt>
      <trkpt lat="47.12867" lon="-1.70067">
        <ele>2.7999999523163</ele>
        <time>2020-08-29T12:49:56.000Z</time>
      </trkpt>
      <trkpt lat="47.12827" lon="-1.70087">
        <ele>4.1999998092651</ele>
        <time>2020-08-29T12:50:02.000Z</time>
      </trkpt>
      <trkpt lat="47.12807" lon="-1.70096">
        <ele>2.7999999523163</ele>
        <time>2020-08-29T12:50:05.000Z</time>
      </trkpt>
      <trkpt lat="47.12754" lon="-1.70121">
        <ele>-0.20000000298023</ele>
        <time>2020-08-29T12:50:13.000Z</time>
      </trkpt>
      <trkpt lat="47.12703" lon="-1.70146">
        <ele>-0.40000000596046</ele>
        <time>2020-08-29T12:50:21.000Z</time>
      </trkpt>
      <trkpt lat="47.12657" lon="-1.70169">
        <ele>-0.40000000596046</ele>
        <time>2020-08-29T12:50:28.000Z</time>
      </trkpt>
      <trkpt lat="47.12617" lon="-1.70189">
        <ele>1</ele>
        <time>2020-08-29T12:50:34.000Z</time>
      </trkpt>
      <trkpt lat="47.12561" lon="-1.70221">
        <ele>1</ele>
        <time>2020-08-29T12:50:43.000Z</time>
      </trkpt>
      <trkpt lat="47.12511" lon="-1.70251">
        <ele>3</ele>
        <time>2020-08-29T12:50:51.000Z</time>
      </trkpt>
      <trkpt lat="47.12469" lon="-1.70272">
        <ele>3.5999999046326</ele>
        <time>2020-08-29T12:50:58.000Z</time>
      </trkpt>
      <trkpt lat="47.12446" lon="-1.70289">
        <ele>3.4000000953674</ele>
        <time>2020-08-29T12:51:02.000Z</time>
      </trkpt>
      <trkpt lat="47.12436" lon="-1.70301">
        <ele>3.2000000476837</ele>
        <time>2020-08-29T12:51:04.000Z</time>
      </trkpt>
      <trkpt lat="47.12418" lon="-1.70337">
        <ele>3.2000000476837</ele>
        <time>2020-08-29T12:51:09.000Z</time>
      </trkpt>
      <trkpt lat="47.12413" lon="-1.70353">
        <ele>3.4000000953674</ele>
        <time>2020-08-29T12:51:11.000Z</time>
      </trkpt>
      <trkpt lat="47.12408" lon="-1.70376">
        <ele>3.5999999046326</ele>
        <time>2020-08-29T12:51:14.000Z</time>
      </trkpt>
      <trkpt lat="47.12399" lon="-1.70423">
        <ele>3.7999999523163</ele>
        <time>2020-08-29T12:51:20.000Z</time>
      </trkpt>
      <trkpt lat="47.12397" lon="-1.70439">
        <ele>3.7999999523163</ele>
        <time>2020-08-29T12:51:22.000Z</time>
      </trkpt>
      <trkpt lat="47.12383" lon="-1.70499">
        <ele>3.5999999046326</ele>
        <time>2020-08-29T12:51:29.000Z</time>
      </trkpt>
      <trkpt lat="47.12373" lon="-1.70525">
        <ele>3</ele>
        <time>2020-08-29T12:51:32.000Z</time>
      </trkpt>
      <trkpt lat="47.12358" lon="-1.70554">
        <ele>2.5999999046326</ele>
        <time>2020-08-29T12:51:36.000Z</time>
      </trkpt>
      <trkpt lat="47.12324" lon="-1.70606">
        <ele>2</ele>
        <time>2020-08-29T12:51:44.000Z</time>
      </trkpt>
      <trkpt lat="47.12311" lon="-1.70626">
        <ele>2.2000000476837</ele>
        <time>2020-08-29T12:51:47.000Z</time>
      </trkpt>
      <trkpt lat="47.123" lon="-1.70641">
        <ele>2.4000000953674</ele>
        <time>2020-08-29T12:51:49.000Z</time>
      </trkpt>
      <trkpt lat="47.1229" lon="-1.70657">
        <ele>2.4000000953674</ele>
        <time>2020-08-29T12:51:51.000Z</time>
      </trkpt>
      <trkpt lat="47.12285" lon="-1.70664">
        <ele>2.5999999046326</ele>
        <time>2020-08-29T12:51:52.000Z</time>
      </trkpt>
      <trkpt lat="47.12281" lon="-1.70671">
        <ele>2.5999999046326</ele>
        <time>2020-08-29T12:51:53.000Z</time>
      </trkpt>
      <trkpt lat="47.12262" lon="-1.70698">
        <ele>2.7999999523163</ele>
        <time>2020-08-29T12:51:57.000Z</time>
      </trkpt>
      <trkpt lat="47.12248" lon="-1.70718">
        <ele>3</ele>
        <time>2020-08-29T12:52:00.000Z</time>
      </trkpt>
      <trkpt lat="47.12238" lon="-1.7073">
        <ele>3</ele>
        <time>2020-08-29T12:52:02.000Z</time>
      </trkpt>
      <trkpt lat="47.12233" lon="-1.70735">
        <ele>3</ele>
        <time>2020-08-29T12:52:03.000Z</time>
      </trkpt>
      <trkpt lat="47.12228" lon="-1.7074">
        <ele>3</ele>
        <time>2020-08-29T12:52:04.000Z</time>
      </trkpt>
      <trkpt lat="47.12217" lon="-1.70751">
        <ele>3.2000000476837</ele>
        <time>2020-08-29T12:52:06.000Z</time>
      </trkpt>
      <trkpt lat="47.12205" lon="-1.70761">
        <ele>3.2000000476837</ele>
        <time>2020-08-29T12:52:08.000Z</time>
      </trkpt>
      <trkpt lat="47.12194" lon="-1.7077">
        <ele>3.4000000953674</ele>
        <time>2020-08-29T12:52:10.000Z</time>
      </trkpt>
      <trkpt lat="47.12183" lon="-1.70779">
        <ele>3.5999999046326</ele>
        <time>2020-08-29T12:52:12.000Z</time>
      </trkpt>
      <trkpt lat="47.12166" lon="-1.7079">
        <ele>3.5999999046326</ele>
        <time>2020-08-29T12:52:15.000Z</time>
      </trkpt>
      <trkpt lat="47.12149" lon="-1.70801">
        <ele>4</ele>
        <time>2020-08-29T12:52:18.000Z</time>
      </trkpt>
      <trkpt lat="47.12139" lon="-1.70807">
        <ele>4.4000000953674</ele>
        <time>2020-08-29T12:52:20.000Z</time>
      </trkpt>
      <trkpt lat="47.12122" lon="-1.70818">
        <ele>4.8000001907349</ele>
        <time>2020-08-29T12:52:23.000Z</time>
      </trkpt>
      <trkpt lat="47.12116" lon="-1.70822">
        <ele>5</ele>
        <time>2020-08-29T12:52:24.000Z</time>
      </trkpt>
      <trkpt lat="47.12099" lon="-1.70833">
        <ele>5.4000000953674</ele>
        <time>2020-08-29T12:52:27.000Z</time>
      </trkpt>
      <trkpt lat="47.12077" lon="-1.70847">
        <ele>5.5999999046326</ele>
        <time>2020-08-29T12:52:31.000Z</time>
      </trkpt>
      <trkpt lat="47.12071" lon="-1.70851">
        <ele>5.5999999046326</ele>
        <time>2020-08-29T12:52:32.000Z</time>
      </trkpt>
      <trkpt lat="47.12017" lon="-1.70884">
        <ele>5.1999998092651</ele>
        <time>2020-08-29T12:52:41.000Z</time>
      </trkpt>
      <trkpt lat="47.12011" lon="-1.70888">
        <ele>5.1999998092651</ele>
        <time>2020-08-29T12:52:42.000Z</time>
      </trkpt>
      <trkpt lat="47.11998" lon="-1.70896">
        <ele>5</ele>
        <time>2020-08-29T12:52:44.000Z</time>
      </trkpt>
      <trkpt lat="47.11985" lon="-1.70904">
        <ele>5</ele>
        <time>2020-08-29T12:52:46.000Z</time>
      </trkpt>
      <trkpt lat="47.11965" lon="-1.70917">
        <ele>5</ele>
        <time>2020-08-29T12:52:49.000Z</time>
      </trkpt>
      <trkpt lat="47.11914" lon="-1.7095">
        <ele>5.1999998092651</ele>
        <time>2020-08-29T12:52:56.000Z</time>
      </trkpt>
      <trkpt lat="47.11906" lon="-1.70955">
        <ele>5.1999998092651</ele>
        <time>2020-08-29T12:52:57.000Z</time>
      </trkpt>
      <trkpt lat="47.11883" lon="-1.7097">
        <ele>5.1999998092651</ele>
        <time>2020-08-29T12:53:00.000Z</time>
      </trkpt>
      <trkpt lat="47.1186" lon="-1.70985">
        <ele>5.4000000953674</ele>
        <time>2020-08-29T12:53:03.000Z</time>
      </trkpt>
      <trkpt lat="47.11845" lon="-1.70995">
        <ele>5.4000000953674</ele>
        <time>2020-08-29T12:53:05.000Z</time>
      </trkpt>
      <trkpt lat="47.11795" lon="-1.71029">
        <ele>5.1999998092651</ele>
        <time>2020-08-29T12:53:12.000Z</time>
      </trkpt>
      <trkpt lat="47.1178" lon="-1.71039">
        <ele>5</ele>
        <time>2020-08-29T12:53:14.000Z</time>
      </trkpt>
      <trkpt lat="47.11745" lon="-1.71063">
        <ele>5</ele>
        <time>2020-08-29T12:53:19.000Z</time>
      </trkpt>
      <trkpt lat="47.11725" lon="-1.71076">
        <ele>5.1999998092651</ele>
        <time>2020-08-29T12:53:22.000Z</time>
      </trkpt>
      <trkpt lat="47.11711" lon="-1.71086">
        <ele>5.4000000953674</ele>
        <time>2020-08-29T12:53:24.000Z</time>
      </trkpt>
      <trkpt lat="47.11698" lon="-1.71095">
        <ele>5.5999999046326</ele>
        <time>2020-08-29T12:53:26.000Z</time>
      </trkpt>
      <trkpt lat="47.11678" lon="-1.71108">
        <ele>5.8000001907349</ele>
        <time>2020-08-29T12:53:29.000Z</time>
      </trkpt>
      <trkpt lat="47.11651" lon="-1.71127">
        <ele>6.1999998092651</ele>
        <time>2020-08-29T12:53:33.000Z</time>
      </trkpt>
      <trkpt lat="47.11631" lon="-1.71143">
        <ele>6</ele>
        <time>2020-08-29T12:53:36.000Z</time>
      </trkpt>
      <trkpt lat="47.11593" lon="-1.71182">
        <ele>5.4000000953674</ele>
        <time>2020-08-29T12:53:42.000Z</time>
      </trkpt>
      <trkpt lat="47.11587" lon="-1.71189">
        <ele>5.1999998092651</ele>
        <time>2020-08-29T12:53:43.000Z</time>
      </trkpt>
      <trkpt lat="47.1155" lon="-1.71241">
        <ele>4.4000000953674</ele>
        <time>2020-08-29T12:53:50.000Z</time>
      </trkpt>
      <trkpt lat="47.11534" lon="-1.71266">
        <ele>4</ele>
        <time>2020-08-29T12:53:53.000Z</time>
      </trkpt>
      <trkpt lat="47.1152" lon="-1.71292">
        <ele>3.5999999046326</ele>
        <time>2020-08-29T12:53:56.000Z</time>
      </trkpt>
      <trkpt lat="47.11516" lon="-1.71301">
        <ele>3.5999999046326</ele>
        <time>2020-08-29T12:53:57.000Z</time>
      </trkpt>
      <trkpt lat="47.11507" lon="-1.71319">
        <ele>3.4000000953674</ele>
        <time>2020-08-29T12:53:59.000Z</time>
      </trkpt>
      <trkpt lat="47.11498" lon="-1.71336">
        <ele>3.2000000476837</ele>
        <time>2020-08-29T12:54:01.000Z</time>
      </trkpt>
      <trkpt lat="47.11489" lon="-1.71354">
        <ele>3</ele>
        <time>2020-08-29T12:54:03.000Z</time>
      </trkpt>
      <trkpt lat="47.11485" lon="-1.71363">
        <ele>2.7999999523163</ele>
        <time>2020-08-29T12:54:04.000Z</time>
      </trkpt>
      <trkpt lat="47.1148" lon="-1.71372">
        <ele>2.7999999523163</ele>
        <time>2020-08-29T12:54:05.000Z</time>
      </trkpt>
      <trkpt lat="47.11472" lon="-1.7139">
        <ele>2.7999999523163</ele>
        <time>2020-08-29T12:54:07.000Z</time>
      </trkpt>
      <trkpt lat="47.11463" lon="-1.71407">
        <ele>2.5999999046326</ele>
        <time>2020-08-29T12:54:09.000Z</time>
      </trkpt>
      <trkpt lat="47.11449" lon="-1.71434">
        <ele>2.4000000953674</ele>
        <time>2020-08-29T12:54:12.000Z</time>
      </trkpt>
      <trkpt lat="47.11436" lon="-1.71461">
        <ele>2.4000000953674</ele>
        <time>2020-08-29T12:54:15.000Z</time>
      </trkpt>
      <trkpt lat="47.1141" lon="-1.71513">
        <ele>2</ele>
        <time>2020-08-29T12:54:21.000Z</time>
      </trkpt>
      <trkpt lat="47.11405" lon="-1.71521">
        <ele>2</ele>
        <time>2020-08-29T12:54:22.000Z</time>
      </trkpt>
      <trkpt lat="47.11375" lon="-1.71578">
        <ele>2.4000000953674</ele>
        <time>2020-08-29T12:54:29.000Z</time>
      </trkpt>
      <trkpt lat="47.11364" lon="-1.71602">
        <ele>2.5999999046326</ele>
        <time>2020-08-29T12:54:32.000Z</time>
      </trkpt>
      <trkpt lat="47.11351" lon="-1.71631">
        <ele>2.7999999523163</ele>
        <time>2020-08-29T12:54:36.000Z</time>
      </trkpt>
      <trkpt lat="47.11346" lon="-1.71643">
        <ele>2.7999999523163</ele>
        <time>2020-08-29T12:54:39.000Z</time>
      </trkpt>
      <trkpt lat="47.11344" lon="-1.71645">
        <ele>3</ele>
        <time>2020-08-29T12:54:43.000Z</time>
      </trkpt>
      <trkpt lat="47.11335" lon="-1.71651">
        <ele>3</ele>
        <time>2020-08-29T12:54:47.000Z</time>
      </trkpt>
      <trkpt lat="47.11319" lon="-1.71661">
        <ele>3.2000000476837</ele>
        <time>2020-08-29T12:54:51.000Z</time>
      </trkpt>
      <trkpt lat="47.11314" lon="-1.71664">
        <ele>3.2000000476837</ele>
        <time>2020-08-29T12:54:52.000Z</time>
      </trkpt>
      <trkpt lat="47.11285" lon="-1.71681">
        <ele>3.7999999523163</ele>
        <time>2020-08-29T12:54:59.000Z</time>
      </trkpt>
      <trkpt lat="47.11281" lon="-1.71682">
        <ele>3.7999999523163</ele>
        <time>2020-08-29T12:55:00.000Z</time>
      </trkpt>
      <trkpt lat="47.11262" lon="-1.71681">
        <ele>4.1999998092651</ele>
        <time>2020-08-29T12:55:04.000Z</time>
      </trkpt>
      <trkpt lat="47.11252" lon="-1.7168">
        <ele>4.1999998092651</ele>
        <time>2020-08-29T12:55:06.000Z</time>
      </trkpt>
      <trkpt lat="47.11242" lon="-1.71683">
        <ele>4.4000000953674</ele>
        <time>2020-08-29T12:55:08.000Z</time>
      </trkpt>
      <trkpt lat="47.11237" lon="-1.71686">
        <ele>4.4000000953674</ele>
        <time>2020-08-29T12:55:09.000Z</time>
      </trkpt>
      <trkpt lat="47.11216" lon="-1.71704">
        <ele>4.5999999046326</ele>
        <time>2020-08-29T12:55:14.000Z</time>
      </trkpt>
      <trkpt lat="47.11207" lon="-1.71711">
        <ele>4.5999999046326</ele>
        <time>2020-08-29T12:55:16.000Z</time>
      </trkpt>
      <trkpt lat="47.11203" lon="-1.71715">
        <ele>4.8000001907349</ele>
        <time>2020-08-29T12:55:17.000Z</time>
      </trkpt>
      <trkpt lat="47.11198" lon="-1.71718">
        <ele>4.8000001907349</ele>
        <time>2020-08-29T12:55:18.000Z</time>
      </trkpt>
      <trkpt lat="47.11189" lon="-1.71726">
        <ele>4.8000001907349</ele>
        <time>2020-08-29T12:55:20.000Z</time>
      </trkpt>
      <trkpt lat="47.11167" lon="-1.71746">
        <ele>5</ele>
        <time>2020-08-29T12:55:25.000Z</time>
      </trkpt>
      <trkpt lat="47.11162" lon="-1.71751">
        <ele>5</ele>
        <time>2020-08-29T12:55:26.000Z</time>
      </trkpt>
      <trkpt lat="47.1113" lon="-1.71779">
        <ele>6</ele>
        <time>2020-08-29T12:55:33.000Z</time>
      </trkpt>
      <trkpt lat="47.1112" lon="-1.71787">
        <ele>6.4000000953674</ele>
        <time>2020-08-29T12:55:35.000Z</time>
      </trkpt>
      <trkpt lat="47.11106" lon="-1.71799">
        <ele>7</ele>
        <time>2020-08-29T12:55:38.000Z</time>
      </trkpt>
      <trkpt lat="47.11082" lon="-1.71823">
        <ele>7.8000001907349</ele>
        <time>2020-08-29T12:55:43.000Z</time>
      </trkpt>
      <trkpt lat="47.11048" lon="-1.71864">
        <ele>8</ele>
        <time>2020-08-29T12:55:50.000Z</time>
      </trkpt>
      <trkpt lat="47.1102" lon="-1.71903">
        <ele>8</ele>
        <time>2020-08-29T12:55:56.000Z</time>
      </trkpt>
      <trkpt lat="47.11006" lon="-1.71923">
        <ele>7.8000001907349</ele>
        <time>2020-08-29T12:55:59.000Z</time>
      </trkpt>
      <trkpt lat="47.11002" lon="-1.7193">
        <ele>7.5999999046326</ele>
        <time>2020-08-29T12:56:00.000Z</time>
      </trkpt>
      <trkpt lat="47.10972" lon="-1.71972">
        <ele>7.1999998092651</ele>
        <time>2020-08-29T12:56:06.000Z</time>
      </trkpt>
      <trkpt lat="47.10962" lon="-1.71986">
        <ele>7</ele>
        <time>2020-08-29T12:56:08.000Z</time>
      </trkpt>
      <trkpt lat="47.10947" lon="-1.72008">
        <ele>6.8000001907349</ele>
        <time>2020-08-29T12:56:12.000Z</time>
      </trkpt>
      <trkpt lat="47.10947" lon="-1.72006">
        <ele>6.8000001907349</ele>
        <time>2020-08-29T12:56:14.000Z</time>
      </trkpt>
      <trkpt lat="47.10948" lon="-1.72002">
        <ele>6.8000001907349</ele>
        <time>2020-08-29T12:56:15.000Z</time>
      </trkpt>
      <trkpt lat="47.1095" lon="-1.71999">
        <ele>6.8000001907349</ele>
        <time>2020-08-29T12:56:16.000Z</time>
      </trkpt>
      <trkpt lat="47.1095" lon="-1.71994">
        <ele>7</ele>
        <time>2020-08-29T12:56:17.000Z</time>
      </trkpt>
      <trkpt lat="47.10948" lon="-1.71986">
        <ele>7</ele>
        <time>2020-08-29T12:56:19.000Z</time>
      </trkpt>
      <trkpt lat="47.10938" lon="-1.71967">
        <ele>7.1999998092651</ele>
        <time>2020-08-29T12:56:23.000Z</time>
      </trkpt>
      <trkpt lat="47.10935" lon="-1.71962">
        <ele>7.4000000953674</ele>
        <time>2020-08-29T12:56:24.000Z</time>
      </trkpt>
      <trkpt lat="47.10932" lon="-1.71956">
        <ele>7.1999998092651</ele>
        <time>2020-08-29T12:56:25.000Z</time>
      </trkpt>
      <trkpt lat="47.10929" lon="-1.7195">
        <ele>7.1999998092651</ele>
        <time>2020-08-29T12:56:26.000Z</time>
      </trkpt>
      <trkpt lat="47.10926" lon="-1.71944">
        <ele>7.1999998092651</ele>
        <time>2020-08-29T12:56:27.000Z</time>
      </trkpt>
      <trkpt lat="47.1092" lon="-1.71931">
        <ele>7.1999998092651</ele>
        <time>2020-08-29T12:56:29.000Z</time>
      </trkpt>
      <trkpt lat="47.10914" lon="-1.71918">
        <ele>7</ele>
        <time>2020-08-29T12:56:31.000Z</time>
      </trkpt>
      <trkpt lat="47.10903" lon="-1.719">
        <ele>6.8000001907349</ele>
        <time>2020-08-29T12:56:34.000Z</time>
      </trkpt>
      <trkpt lat="47.10887" lon="-1.71877">
        <ele>6.4000000953674</ele>
        <time>2020-08-29T12:56:38.000Z</time>
      </trkpt>
      <trkpt lat="47.10871" lon="-1.71853">
        <ele>6.1999998092651</ele>
        <time>2020-08-29T12:56:42.000Z</time>
      </trkpt>
      <trkpt lat="47.10863" lon="-1.71841">
        <ele>6.1999998092651</ele>
        <time>2020-08-29T12:56:44.000Z</time>
      </trkpt>
      <trkpt lat="47.10855" lon="-1.7183">
        <ele>6.1999998092651</ele>
        <time>2020-08-29T12:56:46.000Z</time>
      </trkpt>
      <trkpt lat="47.10842" lon="-1.71814">
        <ele>6.1999998092651</ele>
        <time>2020-08-29T12:56:49.000Z</time>
      </trkpt>
      <trkpt lat="47.10833" lon="-1.71803">
        <ele>6</ele>
        <time>2020-08-29T12:56:51.000Z</time>
      </trkpt>
      <trkpt lat="47.10826" lon="-1.71794">
        <ele>6</ele>
        <time>2020-08-29T12:56:53.000Z</time>
      </trkpt>
      <trkpt lat="47.10823" lon="-1.7179">
        <ele>5.8000001907349</ele>
        <time>2020-08-29T12:56:54.000Z</time>
      </trkpt>
      <trkpt lat="47.10806" lon="-1.71762">
        <ele>5.1999998092651</ele>
        <time>2020-08-29T12:56:59.000Z</time>
      </trkpt>
      <trkpt lat="47.10798" lon="-1.7175">
        <ele>5</ele>
        <time>2020-08-29T12:57:01.000Z</time>
      </trkpt>
      <trkpt lat="47.10793" lon="-1.71744">
        <ele>4.8000001907349</ele>
        <time>2020-08-29T12:57:03.000Z</time>
      </trkpt>
      <trkpt lat="47.10792" lon="-1.71743">
        <ele>4.8000001907349</ele>
        <time>2020-08-29T12:57:05.000Z</time>
      </trkpt>
      <trkpt lat="47.10776" lon="-1.71712">
        <ele>3.7999999523163</ele>
        <time>2020-08-29T13:03:28.000Z</time>
      </trkpt>
      <trkpt lat="47.10756" lon="-1.71673">
        <ele>3.4000000953674</ele>
        <time>2020-08-29T13:03:34.000Z</time>
      </trkpt>
      <trkpt lat="47.10753" lon="-1.71667">
        <ele>3.2000000476837</ele>
        <time>2020-08-29T13:03:35.000Z</time>
      </trkpt>
      <trkpt lat="47.10746" lon="-1.71655">
        <ele>3</ele>
        <time>2020-08-29T13:03:37.000Z</time>
      </trkpt>
      <trkpt lat="47.10743" lon="-1.71649">
        <ele>3</ele>
        <time>2020-08-29T13:03:38.000Z</time>
      </trkpt>
      <trkpt lat="47.10739" lon="-1.71643">
        <ele>2.7999999523163</ele>
        <time>2020-08-29T13:03:39.000Z</time>
      </trkpt>
      <trkpt lat="47.10735" lon="-1.71638">
        <ele>2.7999999523163</ele>
        <time>2020-08-29T13:03:40.000Z</time>
      </trkpt>
      <trkpt lat="47.1073" lon="-1.71634">
        <ele>2.5999999046326</ele>
        <time>2020-08-29T13:03:41.000Z</time>
      </trkpt>
      <trkpt lat="47.10724" lon="-1.71634">
        <ele>2.5999999046326</ele>
        <time>2020-08-29T13:03:42.000Z</time>
      </trkpt>
      <trkpt lat="47.10711" lon="-1.7164">
        <ele>2.4000000953674</ele>
        <time>2020-08-29T13:03:44.000Z</time>
      </trkpt>
      <trkpt lat="47.10698" lon="-1.71646">
        <ele>2.4000000953674</ele>
        <time>2020-08-29T13:03:46.000Z</time>
      </trkpt>
      <trkpt lat="47.10672" lon="-1.71654">
        <ele>2.2000000476837</ele>
        <time>2020-08-29T13:03:50.000Z</time>
      </trkpt>
      <trkpt lat="47.10658" lon="-1.71657">
        <ele>2</ele>
        <time>2020-08-29T13:03:52.000Z</time>
      </trkpt>
      <trkpt lat="47.10645" lon="-1.71662">
        <ele>2.2000000476837</ele>
        <time>2020-08-29T13:03:54.000Z</time>
      </trkpt>
      <trkpt lat="47.10633" lon="-1.71671">
        <ele>2.4000000953674</ele>
        <time>2020-08-29T13:03:56.000Z</time>
      </trkpt>
      <trkpt lat="47.10612" lon="-1.71696">
        <ele>2.5999999046326</ele>
        <time>2020-08-29T13:04:00.000Z</time>
      </trkpt>
      <trkpt lat="47.10607" lon="-1.71703">
        <ele>2.5999999046326</ele>
        <time>2020-08-29T13:04:01.000Z</time>
      </trkpt>
      <trkpt lat="47.10576" lon="-1.71741">
        <ele>3</ele>
        <time>2020-08-29T13:04:07.000Z</time>
      </trkpt>
      <trkpt lat="47.10567" lon="-1.71753">
        <ele>3</ele>
        <time>2020-08-29T13:04:09.000Z</time>
      </trkpt>
      <trkpt lat="47.10563" lon="-1.7177">
        <ele>3.2000000476837</ele>
        <time>2020-08-29T13:04:11.000Z</time>
      </trkpt>
      <trkpt lat="47.10563" lon="-1.71777">
        <ele>3.4000000953674</ele>
        <time>2020-08-29T13:04:12.000Z</time>
      </trkpt>
      <trkpt lat="47.10565" lon="-1.71784">
        <ele>3.4000000953674</ele>
        <time>2020-08-29T13:04:13.000Z</time>
      </trkpt>
      <trkpt lat="47.10568" lon="-1.71792">
        <ele>3.5999999046326</ele>
        <time>2020-08-29T13:04:14.000Z</time>
      </trkpt>
      <trkpt lat="47.10572" lon="-1.71799">
        <ele>3.5999999046326</ele>
        <time>2020-08-29T13:04:15.000Z</time>
      </trkpt>
      <trkpt lat="47.10586" lon="-1.7183">
        <ele>3.7999999523163</ele>
        <time>2020-08-29T13:04:19.000Z</time>
      </trkpt>
      <trkpt lat="47.1059" lon="-1.71837">
        <ele>3.5999999046326</ele>
        <time>2020-08-29T13:04:20.000Z</time>
      </trkpt>
      <trkpt lat="47.10595" lon="-1.71843">
        <ele>3.5999999046326</ele>
        <time>2020-08-29T13:04:21.000Z</time>
      </trkpt>
      <trkpt lat="47.106" lon="-1.71848">
        <ele>3.4000000953674</ele>
        <time>2020-08-29T13:04:22.000Z</time>
      </trkpt>
      <trkpt lat="47.10606" lon="-1.71853">
        <ele>3.2000000476837</ele>
        <time>2020-08-29T13:04:23.000Z</time>
      </trkpt>
      <trkpt lat="47.10612" lon="-1.71856">
        <ele>3.2000000476837</ele>
        <time>2020-08-29T13:04:24.000Z</time>
      </trkpt>
      <trkpt lat="47.10629" lon="-1.7186">
        <ele>3</ele>
        <time>2020-08-29T13:04:27.000Z</time>
      </trkpt>
      <trkpt lat="47.10645" lon="-1.71866">
        <ele>3</ele>
        <time>2020-08-29T13:04:30.000Z</time>
      </trkpt>
      <trkpt lat="47.10654" lon="-1.71875">
        <ele>3</ele>
        <time>2020-08-29T13:04:32.000Z</time>
      </trkpt>
      <trkpt lat="47.10678" lon="-1.71912">
        <ele>3.2000000476837</ele>
        <time>2020-08-29T13:04:38.000Z</time>
      </trkpt>
      <trkpt lat="47.10682" lon="-1.71927">
        <ele>3.2000000476837</ele>
        <time>2020-08-29T13:04:40.000Z</time>
      </trkpt>
      <trkpt lat="47.10684" lon="-1.71943">
        <ele>3.2000000476837</ele>
        <time>2020-08-29T13:04:42.000Z</time>
      </trkpt>
      <trkpt lat="47.10686" lon="-1.7195">
        <ele>3.4000000953674</ele>
        <time>2020-08-29T13:04:43.000Z</time>
      </trkpt>
      <trkpt lat="47.10694" lon="-1.71961">
        <ele>3.4000000953674</ele>
        <time>2020-08-29T13:04:45.000Z</time>
      </trkpt>
      <trkpt lat="47.10706" lon="-1.71971">
        <ele>3.5999999046326</ele>
        <time>2020-08-29T13:04:47.000Z</time>
      </trkpt>
      <trkpt lat="47.10715" lon="-1.71979">
        <ele>3.5999999046326</ele>
        <time>2020-08-29T13:04:49.000Z</time>
      </trkpt>
      <trkpt lat="47.10723" lon="-1.71987">
        <ele>3.7999999523163</ele>
        <time>2020-08-29T13:04:51.000Z</time>
      </trkpt>
      <trkpt lat="47.10748" lon="-1.72009">
        <ele>4</ele>
        <time>2020-08-29T13:04:56.000Z</time>
      </trkpt>
      <trkpt lat="47.10779" lon="-1.72044">
        <ele>4.8000001907349</ele>
        <time>2020-08-29T13:05:03.000Z</time>
      </trkpt>
      <trkpt lat="47.10786" lon="-1.72057">
        <ele>4.5999999046326</ele>
        <time>2020-08-29T13:05:05.000Z</time>
      </trkpt>
      <trkpt lat="47.10797" lon="-1.72084">
        <ele>5</ele>
        <time>2020-08-29T13:05:09.000Z</time>
      </trkpt>
      <trkpt lat="47.10799" lon="-1.72091">
        <ele>5.1999998092651</ele>
        <time>2020-08-29T13:05:10.000Z</time>
      </trkpt>
      <trkpt lat="47.10802" lon="-1.7211">
        <ele>5.4000000953674</ele>
        <time>2020-08-29T13:05:13.000Z</time>
      </trkpt>
      <trkpt lat="47.108" lon="-1.72114">
        <ele>5.4000000953674</ele>
        <time>2020-08-29T13:05:14.000Z</time>
      </trkpt>
      <trkpt lat="47.10797" lon="-1.72115">
        <ele>5.4000000953674</ele>
        <time>2020-08-29T13:05:15.000Z</time>
      </trkpt>
      <trkpt lat="47.1079" lon="-1.72113">
        <ele>5.4000000953674</ele>
        <time>2020-08-29T13:05:17.000Z</time>
      </trkpt>
      <trkpt lat="47.1078" lon="-1.72111">
        <ele>5.4000000953674</ele>
        <time>2020-08-29T13:05:19.000Z</time>
      </trkpt>
      <trkpt lat="47.10769" lon="-1.72111">
        <ele>5.1999998092651</ele>
        <time>2020-08-29T13:05:21.000Z</time>
      </trkpt>
      <trkpt lat="47.10764" lon="-1.7211">
        <ele>5.1999998092651</ele>
        <time>2020-08-29T13:05:22.000Z</time>
      </trkpt>
      <trkpt lat="47.10758" lon="-1.7211">
        <ele>5.1999998092651</ele>
        <time>2020-08-29T13:05:23.000Z</time>
      </trkpt>
      <trkpt lat="47.10736" lon="-1.72111">
        <ele>5</ele>
        <time>2020-08-29T13:05:27.000Z</time>
      </trkpt>
      <trkpt lat="47.10726" lon="-1.72114">
        <ele>5</ele>
        <time>2020-08-29T13:05:29.000Z</time>
      </trkpt>
      <trkpt lat="47.10679" lon="-1.72128">
        <ele>5.4000000953674</ele>
        <time>2020-08-29T13:05:37.000Z</time>
      </trkpt>
      <trkpt lat="47.10633" lon="-1.72142">
        <ele>5</ele>
        <time>2020-08-29T13:05:44.000Z</time>
      </trkpt>
      <trkpt lat="47.10598" lon="-1.72165">
        <ele>4.8000001907349</ele>
        <time>2020-08-29T13:05:49.000Z</time>
      </trkpt>
      <trkpt lat="47.1057" lon="-1.72197">
        <ele>5.4000000953674</ele>
        <time>2020-08-29T13:05:54.000Z</time>
      </trkpt>
      <trkpt lat="47.10547" lon="-1.72232">
        <ele>6.1999998092651</ele>
        <time>2020-08-29T13:06:00.000Z</time>
      </trkpt>
      <trkpt lat="47.10542" lon="-1.72236">
        <ele>6.1999998092651</ele>
        <time>2020-08-29T13:06:03.000Z</time>
      </trkpt>
      <trkpt lat="47.1054" lon="-1.72232">
        <ele>6</ele>
        <time>2020-08-29T13:06:06.000Z</time>
      </trkpt>
      <trkpt lat="47.10539" lon="-1.7223">
        <ele>5.8000001907349</ele>
        <time>2020-08-29T13:06:07.000Z</time>
      </trkpt>
      <trkpt lat="47.10534" lon="-1.72208">
        <ele>5</ele>
        <time>2020-08-29T13:06:12.000Z</time>
      </trkpt>
      <trkpt lat="47.10538" lon="-1.7217">
        <ele>4.1999998092651</ele>
        <time>2020-08-29T13:06:18.000Z</time>
      </trkpt>
      <trkpt lat="47.10542" lon="-1.72146">
        <ele>4</ele>
        <time>2020-08-29T13:06:21.000Z</time>
      </trkpt>
      <trkpt lat="47.10543" lon="-1.72129">
        <ele>4</ele>
        <time>2020-08-29T13:06:23.000Z</time>
      </trkpt>
      <trkpt lat="47.1054" lon="-1.72094">
        <ele>3.5999999046326</ele>
        <time>2020-08-29T13:06:27.000Z</time>
      </trkpt>
      <trkpt lat="47.10537" lon="-1.72086">
        <ele>3.4000000953674</ele>
        <time>2020-08-29T13:06:28.000Z</time>
      </trkpt>
      <trkpt lat="47.10533" lon="-1.7208">
        <ele>3.2000000476837</ele>
        <time>2020-08-29T13:06:29.000Z</time>
      </trkpt>
      <trkpt lat="47.10523" lon="-1.72071">
        <ele>2.7999999523163</ele>
        <time>2020-08-29T13:06:31.000Z</time>
      </trkpt>
      <trkpt lat="47.10512" lon="-1.72069">
        <ele>2.4000000953674</ele>
        <time>2020-08-29T13:06:33.000Z</time>
      </trkpt>
      <trkpt lat="47.105" lon="-1.7207">
        <ele>2.2000000476837</ele>
        <time>2020-08-29T13:06:35.000Z</time>
      </trkpt>
      <trkpt lat="47.10465" lon="-1.72076">
        <ele>2.2000000476837</ele>
        <time>2020-08-29T13:06:41.000Z</time>
      </trkpt>
      <trkpt lat="47.10459" lon="-1.72076">
        <ele>2.2000000476837</ele>
        <time>2020-08-29T13:06:42.000Z</time>
      </trkpt>
      <trkpt lat="47.10441" lon="-1.72076">
        <ele>2.2000000476837</ele>
        <time>2020-08-29T13:06:45.000Z</time>
      </trkpt>
      <trkpt lat="47.10423" lon="-1.72077">
        <ele>2.2000000476837</ele>
        <time>2020-08-29T13:06:48.000Z</time>
      </trkpt>
      <trkpt lat="47.10417" lon="-1.72078">
        <ele>2.2000000476837</ele>
        <time>2020-08-29T13:06:49.000Z</time>
      </trkpt>
      <trkpt lat="47.10405" lon="-1.72081">
        <ele>2.2000000476837</ele>
        <time>2020-08-29T13:06:51.000Z</time>
      </trkpt>
      <trkpt lat="47.10393" lon="-1.72083">
        <ele>2.4000000953674</ele>
        <time>2020-08-29T13:06:53.000Z</time>
      </trkpt>
      <trkpt lat="47.10381" lon="-1.72086">
        <ele>2.5999999046326</ele>
        <time>2020-08-29T13:06:55.000Z</time>
      </trkpt>
      <trkpt lat="47.10375" lon="-1.72087">
        <ele>2.5999999046326</ele>
        <time>2020-08-29T13:06:56.000Z</time>
      </trkpt>
      <trkpt lat="47.10363" lon="-1.72089">
        <ele>2.7999999523163</ele>
        <time>2020-08-29T13:06:58.000Z</time>
      </trkpt>
      <trkpt lat="47.10352" lon="-1.72092">
        <ele>3</ele>
        <time>2020-08-29T13:07:00.000Z</time>
      </trkpt>
      <trkpt lat="47.10339" lon="-1.72094">
        <ele>3.2000000476837</ele>
        <time>2020-08-29T13:07:02.000Z</time>
      </trkpt>
      <trkpt lat="47.10327" lon="-1.72098">
        <ele>3.4000000953674</ele>
        <time>2020-08-29T13:07:04.000Z</time>
      </trkpt>
      <trkpt lat="47.10322" lon="-1.72101">
        <ele>3.4000000953674</ele>
        <time>2020-08-29T13:07:05.000Z</time>
      </trkpt>
      <trkpt lat="47.10306" lon="-1.72114">
        <ele>3.2000000476837</ele>
        <time>2020-08-29T13:07:08.000Z</time>
      </trkpt>
      <trkpt lat="47.1029" lon="-1.72127">
        <ele>3.2000000476837</ele>
        <time>2020-08-29T13:07:11.000Z</time>
      </trkpt>
      <trkpt lat="47.10274" lon="-1.72138">
        <ele>3.2000000476837</ele>
        <time>2020-08-29T13:07:14.000Z</time>
      </trkpt>
      <trkpt lat="47.10259" lon="-1.7215">
        <ele>3.2000000476837</ele>
        <time>2020-08-29T13:07:17.000Z</time>
      </trkpt>
      <trkpt lat="47.10255" lon="-1.72154">
        <ele>3.2000000476837</ele>
        <time>2020-08-29T13:07:18.000Z</time>
      </trkpt>
      <trkpt lat="47.10252" lon="-1.7216">
        <ele>3.2000000476837</ele>
        <time>2020-08-29T13:07:19.000Z</time>
      </trkpt>
      <trkpt lat="47.10247" lon="-1.72171">
        <ele>3.2000000476837</ele>
        <time>2020-08-29T13:07:21.000Z</time>
      </trkpt>
      <trkpt lat="47.10244" lon="-1.72175">
        <ele>3.2000000476837</ele>
        <time>2020-08-29T13:07:22.000Z</time>
      </trkpt>
      <trkpt lat="47.1024" lon="-1.72178">
        <ele>3.4000000953674</ele>
        <time>2020-08-29T13:07:23.000Z</time>
      </trkpt>
      <trkpt lat="47.10236" lon="-1.72181">
        <ele>3.5999999046326</ele>
        <time>2020-08-29T13:07:24.000Z</time>
      </trkpt>
      <trkpt lat="47.10231" lon="-1.72184">
        <ele>3.5999999046326</ele>
        <time>2020-08-29T13:07:25.000Z</time>
      </trkpt>
      <trkpt lat="47.10216" lon="-1.72192">
        <ele>4.1999998092651</ele>
        <time>2020-08-29T13:07:28.000Z</time>
      </trkpt>
      <trkpt lat="47.102" lon="-1.722">
        <ele>4.5999999046326</ele>
        <time>2020-08-29T13:07:31.000Z</time>
      </trkpt>
      <trkpt lat="47.10194" lon="-1.72203">
        <ele>4.8000001907349</ele>
        <time>2020-08-29T13:07:32.000Z</time>
      </trkpt>
      <trkpt lat="47.10172" lon="-1.72217">
        <ele>5.4000000953674</ele>
        <time>2020-08-29T13:07:36.000Z</time>
      </trkpt>
      <trkpt lat="47.10162" lon="-1.72224">
        <ele>5.5999999046326</ele>
        <time>2020-08-29T13:07:38.000Z</time>
      </trkpt>
      <trkpt lat="47.10157" lon="-1.72226">
        <ele>5.8000001907349</ele>
        <time>2020-08-29T13:07:39.000Z</time>
      </trkpt>
      <trkpt lat="47.10148" lon="-1.7223">
        <ele>5.5999999046326</ele>
        <time>2020-08-29T13:07:41.000Z</time>
      </trkpt>
      <trkpt lat="47.10126" lon="-1.72238">
        <ele>5.5999999046326</ele>
        <time>2020-08-29T13:07:45.000Z</time>
      </trkpt>
      <trkpt lat="47.10121" lon="-1.7224">
        <ele>5.5999999046326</ele>
        <time>2020-08-29T13:07:46.000Z</time>
      </trkpt>
      <trkpt lat="47.10115" lon="-1.72243">
        <ele>5.4000000953674</ele>
        <time>2020-08-29T13:07:47.000Z</time>
      </trkpt>
      <trkpt lat="47.10109" lon="-1.72246">
        <ele>5.4000000953674</ele>
        <time>2020-08-29T13:07:48.000Z</time>
      </trkpt>
      <trkpt lat="47.10079" lon="-1.72255">
        <ele>5</ele>
        <time>2020-08-29T13:07:53.000Z</time>
      </trkpt>
      <trkpt lat="47.1005" lon="-1.72262">
        <ele>4.5999999046326</ele>
        <time>2020-08-29T13:07:58.000Z</time>
      </trkpt>
      <trkpt lat="47.10026" lon="-1.72263">
        <ele>4.4000000953674</ele>
        <time>2020-08-29T13:08:02.000Z</time>
      </trkpt>
      <trkpt lat="47.10009" lon="-1.72262">
        <ele>4.1999998092651</ele>
        <time>2020-08-29T13:08:05.000Z</time>
      </trkpt>
      <trkpt lat="47.0998" lon="-1.72259">
        <ele>4</ele>
        <time>2020-08-29T13:08:10.000Z</time>
      </trkpt>
      <trkpt lat="47.0997" lon="-1.72258">
        <ele>4</ele>
        <time>2020-08-29T13:08:12.000Z</time>
      </trkpt>
      <trkpt lat="47.09951" lon="-1.72258">
        <ele>3.7999999523163</ele>
        <time>2020-08-29T13:08:16.000Z</time>
      </trkpt>
      <trkpt lat="47.09947" lon="-1.72257">
        <ele>3.5999999046326</ele>
        <time>2020-08-29T13:08:17.000Z</time>
      </trkpt>
      <trkpt lat="47.09937" lon="-1.72258">
        <ele>3.5999999046326</ele>
        <time>2020-08-29T13:08:19.000Z</time>
      </trkpt>
      <trkpt lat="47.09926" lon="-1.72259">
        <ele>3.4000000953674</ele>
        <time>2020-08-29T13:08:21.000Z</time>
      </trkpt>
      <trkpt lat="47.09885" lon="-1.72259">
        <ele>3.2000000476837</ele>
        <time>2020-08-29T13:08:29.000Z</time>
      </trkpt>
      <trkpt lat="47.09875" lon="-1.72259">
        <ele>3.2000000476837</ele>
        <time>2020-08-29T13:08:31.000Z</time>
      </trkpt>
      <trkpt lat="47.09844" lon="-1.72264">
        <ele>3.4000000953674</ele>
        <time>2020-08-29T13:08:37.000Z</time>
      </trkpt>
      <trkpt lat="47.09815" lon="-1.72282">
        <ele>3.5999999046326</ele>
        <time>2020-08-29T13:08:43.000Z</time>
      </trkpt>
      <trkpt lat="47.0981" lon="-1.7229">
        <ele>3.5999999046326</ele>
        <time>2020-08-29T13:08:45.000Z</time>
      </trkpt>
      <trkpt lat="47.09811" lon="-1.72295">
        <ele>3.5999999046326</ele>
        <time>2020-08-29T13:08:46.000Z</time>
      </trkpt>
      <trkpt lat="47.09815" lon="-1.72311">
        <ele>3.7999999523163</ele>
        <time>2020-08-29T13:08:49.000Z</time>
      </trkpt>
      <trkpt lat="47.09815" lon="-1.72316">
        <ele>4</ele>
        <time>2020-08-29T13:08:50.000Z</time>
      </trkpt>
      <trkpt lat="47.09803" lon="-1.72334">
        <ele>3.7999999523163</ele>
        <time>2020-08-29T13:08:54.000Z</time>
      </trkpt>
      <trkpt lat="47.09778" lon="-1.72361">
        <ele>3.5999999046326</ele>
        <time>2020-08-29T13:09:01.000Z</time>
      </trkpt>
      <trkpt lat="47.09757" lon="-1.72386">
        <ele>3.2000000476837</ele>
        <time>2020-08-29T13:09:07.000Z</time>
      </trkpt>
      <trkpt lat="47.09745" lon="-1.72396">
        <ele>3</ele>
        <time>2020-08-29T13:09:10.000Z</time>
      </trkpt>
      <trkpt lat="47.09732" lon="-1.72403">
        <ele>3.2000000476837</ele>
        <time>2020-08-29T13:09:13.000Z</time>
      </trkpt>
      <trkpt lat="47.09697" lon="-1.72411">
        <ele>3.4000000953674</ele>
        <time>2020-08-29T13:09:20.000Z</time>
      </trkpt>
      <trkpt lat="47.09668" lon="-1.72416">
        <ele>3.7999999523163</ele>
        <time>2020-08-29T13:09:26.000Z</time>
      </trkpt>
      <trkpt lat="47.09663" lon="-1.72417">
        <ele>3.7999999523163</ele>
        <time>2020-08-29T13:09:27.000Z</time>
      </trkpt>
      <trkpt lat="47.09658" lon="-1.72419">
        <ele>3.7999999523163</ele>
        <time>2020-08-29T13:09:28.000Z</time>
      </trkpt>
      <trkpt lat="47.09644" lon="-1.72431">
        <ele>3.2000000476837</ele>
        <time>2020-08-29T13:09:31.000Z</time>
      </trkpt>
      <trkpt lat="47.09636" lon="-1.72436">
        <ele>2.7999999523163</ele>
        <time>2020-08-29T13:09:33.000Z</time>
      </trkpt>
      <trkpt lat="47.09632" lon="-1.72445">
        <ele>2.4000000953674</ele>
        <time>2020-08-29T13:09:35.000Z</time>
      </trkpt>
      <trkpt lat="47.09632" lon="-1.72449">
        <ele>2.4000000953674</ele>
        <time>2020-08-29T13:09:36.000Z</time>
      </trkpt>
      <trkpt lat="47.09633" lon="-1.7246">
        <ele>2.4000000953674</ele>
        <time>2020-08-29T13:09:38.000Z</time>
      </trkpt>
      <trkpt lat="47.09635" lon="-1.72472">
        <ele>2.4000000953674</ele>
        <time>2020-08-29T13:09:40.000Z</time>
      </trkpt>
      <trkpt lat="47.09634" lon="-1.72495">
        <ele>2.2000000476837</ele>
        <time>2020-08-29T13:09:44.000Z</time>
      </trkpt>
      <trkpt lat="47.09633" lon="-1.72501">
        <ele>2.4000000953674</ele>
        <time>2020-08-29T13:09:45.000Z</time>
      </trkpt>
      <trkpt lat="47.09624" lon="-1.72526">
        <ele>2.5999999046326</ele>
        <time>2020-08-29T13:09:49.000Z</time>
      </trkpt>
      <trkpt lat="47.09612" lon="-1.72557">
        <ele>2.7999999523163</ele>
        <time>2020-08-29T13:09:54.000Z</time>
      </trkpt>
      <trkpt lat="47.09612" lon="-1.72564">
        <ele>2.7999999523163</ele>
        <time>2020-08-29T13:09:55.000Z</time>
      </trkpt>
      <trkpt lat="47.09613" lon="-1.72591">
        <ele>3.5999999046326</ele>
        <time>2020-08-29T13:09:59.000Z</time>
      </trkpt>
      <trkpt lat="47.09612" lon="-1.72603">
        <ele>4</ele>
        <time>2020-08-29T13:10:01.000Z</time>
      </trkpt>
      <trkpt lat="47.09605" lon="-1.72621">
        <ele>4.5999999046326</ele>
        <time>2020-08-29T13:10:04.000Z</time>
      </trkpt>
      <trkpt lat="47.09603" lon="-1.72627">
        <ele>4.5999999046326</ele>
        <time>2020-08-29T13:10:05.000Z</time>
      </trkpt>
      <trkpt lat="47.09591" lon="-1.72657">
        <ele>5.1999998092651</ele>
        <time>2020-08-29T13:10:10.000Z</time>
      </trkpt>
      <trkpt lat="47.09587" lon="-1.72669">
        <ele>5</ele>
        <time>2020-08-29T13:10:12.000Z</time>
      </trkpt>
      <trkpt lat="47.09581" lon="-1.72687">
        <ele>4.5999999046326</ele>
        <time>2020-08-29T13:10:16.000Z</time>
      </trkpt>
      <trkpt lat="47.0958" lon="-1.7269">
        <ele>4.5999999046326</ele>
        <time>2020-08-29T13:10:17.000Z</time>
      </trkpt>
      <trkpt lat="47.09578" lon="-1.72692">
        <ele>4.5999999046326</ele>
        <time>2020-08-29T13:10:18.000Z</time>
      </trkpt>
      <trkpt lat="47.09575" lon="-1.72692">
        <ele>4.5999999046326</ele>
        <time>2020-08-29T13:10:19.000Z</time>
      </trkpt>
      <trkpt lat="47.09571" lon="-1.72691">
        <ele>4.5999999046326</ele>
        <time>2020-08-29T13:10:20.000Z</time>
      </trkpt>
      <trkpt lat="47.09567" lon="-1.72689">
        <ele>4.5999999046326</ele>
        <time>2020-08-29T13:10:21.000Z</time>
      </trkpt>
      <trkpt lat="47.09553" lon="-1.72684">
        <ele>4.5999999046326</ele>
        <time>2020-08-29T13:10:24.000Z</time>
      </trkpt>
      <trkpt lat="47.09548" lon="-1.72684">
        <ele>4.5999999046326</ele>
        <time>2020-08-29T13:10:25.000Z</time>
      </trkpt>
      <trkpt lat="47.09543" lon="-1.72685">
        <ele>4.5999999046326</ele>
        <time>2020-08-29T13:10:26.000Z</time>
      </trkpt>
      <trkpt lat="47.09533" lon="-1.7269">
        <ele>4.4000000953674</ele>
        <time>2020-08-29T13:10:28.000Z</time>
      </trkpt>
      <trkpt lat="47.09529" lon="-1.72695">
        <ele>4.4000000953674</ele>
        <time>2020-08-29T13:10:29.000Z</time>
      </trkpt>
      <trkpt lat="47.09525" lon="-1.72701">
        <ele>4.4000000953674</ele>
        <time>2020-08-29T13:10:30.000Z</time>
      </trkpt>
      <trkpt lat="47.09522" lon="-1.72707">
        <ele>4.4000000953674</ele>
        <time>2020-08-29T13:10:31.000Z</time>
      </trkpt>
      <trkpt lat="47.09518" lon="-1.72713">
        <ele>4.1999998092651</ele>
        <time>2020-08-29T13:10:32.000Z</time>
      </trkpt>
      <trkpt lat="47.09512" lon="-1.72727">
        <ele>4.1999998092651</ele>
        <time>2020-08-29T13:10:34.000Z</time>
      </trkpt>
      <trkpt lat="47.09505" lon="-1.7274">
        <ele>4</ele>
        <time>2020-08-29T13:10:36.000Z</time>
      </trkpt>
      <trkpt lat="47.09498" lon="-1.72754">
        <ele>4</ele>
        <time>2020-08-29T13:10:38.000Z</time>
      </trkpt>
      <trkpt lat="47.09485" lon="-1.72782">
        <ele>3.7999999523163</ele>
        <time>2020-08-29T13:10:42.000Z</time>
      </trkpt>
      <trkpt lat="47.09474" lon="-1.72803">
        <ele>3.7999999523163</ele>
        <time>2020-08-29T13:10:45.000Z</time>
      </trkpt>
      <trkpt lat="47.09457" lon="-1.72836">
        <ele>4</ele>
        <time>2020-08-29T13:10:50.000Z</time>
      </trkpt>
      <trkpt lat="47.09454" lon="-1.72843">
        <ele>4</ele>
        <time>2020-08-29T13:10:51.000Z</time>
      </trkpt>
      <trkpt lat="47.0943" lon="-1.72894">
        <ele>5</ele>
        <time>2020-08-29T13:10:59.000Z</time>
      </trkpt>
      <trkpt lat="47.09409" lon="-1.72935">
        <ele>5</ele>
        <time>2020-08-29T13:11:06.000Z</time>
      </trkpt>
      <trkpt lat="47.09404" lon="-1.72947">
        <ele>4.8000001907349</ele>
        <time>2020-08-29T13:11:08.000Z</time>
      </trkpt>
      <trkpt lat="47.09395" lon="-1.72975">
        <ele>4.5999999046326</ele>
        <time>2020-08-29T13:11:12.000Z</time>
      </trkpt>
      <trkpt lat="47.09392" lon="-1.7299">
        <ele>4.5999999046326</ele>
        <time>2020-08-29T13:11:14.000Z</time>
      </trkpt>
      <trkpt lat="47.0939" lon="-1.73005">
        <ele>4.5999999046326</ele>
        <time>2020-08-29T13:11:16.000Z</time>
      </trkpt>
      <trkpt lat="47.09389" lon="-1.73021">
        <ele>4.5999999046326</ele>
        <time>2020-08-29T13:11:18.000Z</time>
      </trkpt>
      <trkpt lat="47.09383" lon="-1.73076">
        <ele>4.1999998092651</ele>
        <time>2020-08-29T13:11:25.000Z</time>
      </trkpt>
      <trkpt lat="47.09378" lon="-1.73089">
        <ele>3.7999999523163</ele>
        <time>2020-08-29T13:11:27.000Z</time>
      </trkpt>
      <trkpt lat="47.09371" lon="-1.73102">
        <ele>3.4000000953674</ele>
        <time>2020-08-29T13:11:29.000Z</time>
      </trkpt>
      <trkpt lat="47.09367" lon="-1.73107">
        <ele>3</ele>
        <time>2020-08-29T13:11:30.000Z</time>
      </trkpt>
      <trkpt lat="47.09337" lon="-1.73135">
        <ele>1.7999999523163</ele>
        <time>2020-08-29T13:11:36.000Z</time>
      </trkpt>
      <trkpt lat="47.09305" lon="-1.73158">
        <ele>1.3999999761581</ele>
        <time>2020-08-29T13:11:42.000Z</time>
      </trkpt>
      <trkpt lat="47.093" lon="-1.73162">
        <ele>1.6000000238419</ele>
        <time>2020-08-29T13:11:43.000Z</time>
      </trkpt>
      <trkpt lat="47.09263" lon="-1.73189">
        <ele>2.2000000476837</ele>
        <time>2020-08-29T13:11:51.000Z</time>
      </trkpt>
      <trkpt lat="47.09236" lon="-1.73215">
        <ele>2.2000000476837</ele>
        <time>2020-08-29T13:11:57.000Z</time>
      </trkpt>
      <trkpt lat="47.09231" lon="-1.73219">
        <ele>2.2000000476837</ele>
        <time>2020-08-29T13:11:58.000Z</time>
      </trkpt>
      <trkpt lat="47.09221" lon="-1.73226">
        <ele>2.2000000476837</ele>
        <time>2020-08-29T13:12:00.000Z</time>
      </trkpt>
      <trkpt lat="47.09207" lon="-1.73238">
        <ele>2</ele>
        <time>2020-08-29T13:12:03.000Z</time>
      </trkpt>
      <trkpt lat="47.09179" lon="-1.7326">
        <ele>2.5999999046326</ele>
        <time>2020-08-29T13:12:08.000Z</time>
      </trkpt>
      <trkpt lat="47.09168" lon="-1.73267">
        <ele>2.7999999523163</ele>
        <time>2020-08-29T13:12:10.000Z</time>
      </trkpt>
      <trkpt lat="47.09137" lon="-1.73294">
        <ele>3.5999999046326</ele>
        <time>2020-08-29T13:12:16.000Z</time>
      </trkpt>
      <trkpt lat="47.09131" lon="-1.73298">
        <ele>3.7999999523163</ele>
        <time>2020-08-29T13:12:17.000Z</time>
      </trkpt>
      <trkpt lat="47.09115" lon="-1.73311">
        <ele>4.4000000953674</ele>
        <time>2020-08-29T13:12:20.000Z</time>
      </trkpt>
      <trkpt lat="47.09105" lon="-1.73321">
        <ele>4.5999999046326</ele>
        <time>2020-08-29T13:12:22.000Z</time>
      </trkpt>
      <trkpt lat="47.09095" lon="-1.73329">
        <ele>4.8000001907349</ele>
        <time>2020-08-29T13:12:24.000Z</time>
      </trkpt>
      <trkpt lat="47.0909" lon="-1.73333">
        <ele>5</ele>
        <time>2020-08-29T13:12:25.000Z</time>
      </trkpt>
      <trkpt lat="47.09086" lon="-1.73337">
        <ele>5</ele>
        <time>2020-08-29T13:12:26.000Z</time>
      </trkpt>
      <trkpt lat="47.09064" lon="-1.73354">
        <ele>5.4000000953674</ele>
        <time>2020-08-29T13:12:31.000Z</time>
      </trkpt>
      <trkpt lat="47.09057" lon="-1.73356">
        <ele>5.4000000953674</ele>
        <time>2020-08-29T13:12:35.000Z</time>
      </trkpt>
      <trkpt lat="47.09048" lon="-1.73347">
        <ele>5.4000000953674</ele>
        <time>2020-08-29T13:12:40.000Z</time>
      </trkpt>
      <trkpt lat="47.09037" lon="-1.73324">
        <ele>5</ele>
        <time>2020-08-29T13:12:44.000Z</time>
      </trkpt>
      <trkpt lat="47.09033" lon="-1.73318">
        <ele>5</ele>
        <time>2020-08-29T13:12:45.000Z</time>
      </trkpt>
      <trkpt lat="47.0902" lon="-1.73291">
        <ele>4.5999999046326</ele>
        <time>2020-08-29T13:12:49.000Z</time>
      </trkpt>
      <trkpt lat="47.09015" lon="-1.73278">
        <ele>4.1999998092651</ele>
        <time>2020-08-29T13:12:51.000Z</time>
      </trkpt>
      <trkpt lat="47.09004" lon="-1.73254">
        <ele>3.5999999046326</ele>
        <time>2020-08-29T13:12:55.000Z</time>
      </trkpt>
      <trkpt lat="47.08998" lon="-1.73248">
        <ele>3.4000000953674</ele>
        <time>2020-08-29T13:12:57.000Z</time>
      </trkpt>
      <trkpt lat="47.08983" lon="-1.73239">
        <ele>2.4000000953674</ele>
        <time>2020-08-29T13:13:01.000Z</time>
      </trkpt>
      <trkpt lat="47.08971" lon="-1.73231">
        <ele>1.2000000476837</ele>
        <time>2020-08-29T13:13:04.000Z</time>
      </trkpt>
      <trkpt lat="47.08954" lon="-1.7322">
        <ele>-0.40000000596046</ele>
        <time>2020-08-29T13:13:08.000Z</time>
      </trkpt>
      <trkpt lat="47.0894" lon="-1.73212">
        <ele>-1.7999999523163</ele>
        <time>2020-08-29T13:13:11.000Z</time>
      </trkpt>
      <trkpt lat="47.08922" lon="-1.73199">
        <ele>-0.40000000596046</ele>
        <time>2020-08-29T13:13:15.000Z</time>
      </trkpt>
      <trkpt lat="47.08909" lon="-1.73188">
        <ele>1.2000000476837</ele>
        <time>2020-08-29T13:13:18.000Z</time>
      </trkpt>
      <trkpt lat="47.08904" lon="-1.73183">
        <ele>1.7999999523163</ele>
        <time>2020-08-29T13:13:19.000Z</time>
      </trkpt>
      <trkpt lat="47.089" lon="-1.73178">
        <ele>2.5999999046326</ele>
        <time>2020-08-29T13:13:20.000Z</time>
      </trkpt>
      <trkpt lat="47.08884" lon="-1.73153">
        <ele>5.1999998092651</ele>
        <time>2020-08-29T13:13:24.000Z</time>
      </trkpt>
      <trkpt lat="47.0887" lon="-1.73128">
        <ele>6.5999999046326</ele>
        <time>2020-08-29T13:13:28.000Z</time>
      </trkpt>
      <trkpt lat="47.0886" lon="-1.73109">
        <ele>6.4000000953674</ele>
        <time>2020-08-29T13:13:31.000Z</time>
      </trkpt>
      <trkpt lat="47.08846" lon="-1.73083">
        <ele>3.7999999523163</ele>
        <time>2020-08-29T13:13:36.000Z</time>
      </trkpt>
      <trkpt lat="47.08843" lon="-1.7308">
        <ele>3.4000000953674</ele>
        <time>2020-08-29T13:13:37.000Z</time>
      </trkpt>
      <trkpt lat="47.0884" lon="-1.73078">
        <ele>3.2000000476837</ele>
        <time>2020-08-29T13:13:38.000Z</time>
      </trkpt>
      <trkpt lat="47.08834" lon="-1.73081">
        <ele>3.2000000476837</ele>
        <time>2020-08-29T13:13:40.000Z</time>
      </trkpt>
      <trkpt lat="47.08818" lon="-1.73099">
        <ele>3.4000000953674</ele>
        <time>2020-08-29T13:13:45.000Z</time>
      </trkpt>
      <trkpt lat="47.08804" lon="-1.73116">
        <ele>3.5999999046326</ele>
        <time>2020-08-29T13:13:49.000Z</time>
      </trkpt>
      <trkpt lat="47.08796" lon="-1.73125">
        <ele>3.7999999523163</ele>
        <time>2020-08-29T13:13:51.000Z</time>
      </trkpt>
      <trkpt lat="47.08789" lon="-1.73133">
        <ele>3.7999999523163</ele>
        <time>2020-08-29T13:13:53.000Z</time>
      </trkpt>
      <trkpt lat="47.0878" lon="-1.73149">
        <ele>4.1999998092651</ele>
        <time>2020-08-29T13:13:58.000Z</time>
      </trkpt>
      <trkpt lat="47.0878" lon="-1.73149">
        <ele>4.1999998092651</ele>
        <time>2020-08-29T13:13:59.000Z</time>
      </trkpt>
      <trkpt lat="47.08644" lon="-1.73305">
        <ele>-1.3999999761581</ele>
        <time>2020-08-29T13:18:07.000Z</time>
      </trkpt>
      <trkpt lat="47.0864" lon="-1.73309">
        <ele>-1.6000000238419</ele>
        <time>2020-08-29T13:18:08.000Z</time>
      </trkpt>
      <trkpt lat="47.0863" lon="-1.73321">
        <ele>-1.3999999761581</ele>
        <time>2020-08-29T13:18:11.000Z</time>
      </trkpt>
      <trkpt lat="47.08618" lon="-1.73335">
        <ele>-0.40000000596046</ele>
        <time>2020-08-29T13:18:14.000Z</time>
      </trkpt>
      <trkpt lat="47.08606" lon="-1.73349">
        <ele>0.80000001192093</ele>
        <time>2020-08-29T13:18:17.000Z</time>
      </trkpt>
      <trkpt lat="47.0859" lon="-1.73366">
        <ele>2.4000000953674</ele>
        <time>2020-08-29T13:18:21.000Z</time>
      </trkpt>
      <trkpt lat="47.08582" lon="-1.73375">
        <ele>3.2000000476837</ele>
        <time>2020-08-29T13:18:23.000Z</time>
      </trkpt>
      <trkpt lat="47.08561" lon="-1.73397">
        <ele>4</ele>
        <time>2020-08-29T13:18:29.000Z</time>
      </trkpt>
      <trkpt lat="47.08551" lon="-1.7341">
        <ele>4.4000000953674</ele>
        <time>2020-08-29T13:18:32.000Z</time>
      </trkpt>
      <trkpt lat="47.08541" lon="-1.73423">
        <ele>5.1999998092651</ele>
        <time>2020-08-29T13:18:35.000Z</time>
      </trkpt>
      <trkpt lat="47.08537" lon="-1.73427">
        <ele>5.4000000953674</ele>
        <time>2020-08-29T13:18:36.000Z</time>
      </trkpt>
      <trkpt lat="47.08525" lon="-1.7344">
        <ele>6.1999998092651</ele>
        <time>2020-08-29T13:18:39.000Z</time>
      </trkpt>
      <trkpt lat="47.0851" lon="-1.73457">
        <ele>7.1999998092651</ele>
        <time>2020-08-29T13:18:43.000Z</time>
      </trkpt>
      <trkpt lat="47.08506" lon="-1.73462">
        <ele>7.4000000953674</ele>
        <time>2020-08-29T13:18:44.000Z</time>
      </trkpt>
      <trkpt lat="47.08492" lon="-1.73477">
        <ele>8.3999996185303</ele>
        <time>2020-08-29T13:18:48.000Z</time>
      </trkpt>
      <trkpt lat="47.08485" lon="-1.73486">
        <ele>8.3999996185303</ele>
        <time>2020-08-29T13:18:50.000Z</time>
      </trkpt>
      <trkpt lat="47.08464" lon="-1.73512">
        <ele>8.1999998092651</ele>
        <time>2020-08-29T13:18:56.000Z</time>
      </trkpt>
      <trkpt lat="47.08458" lon="-1.7352">
        <ele>8</ele>
        <time>2020-08-29T13:18:58.000Z</time>
      </trkpt>
      <trkpt lat="47.08455" lon="-1.73524">
        <ele>8</ele>
        <time>2020-08-29T13:18:59.000Z</time>
      </trkpt>
      <trkpt lat="47.08433" lon="-1.73553">
        <ele>7.4000000953674</ele>
        <time>2020-08-29T13:19:06.000Z</time>
      </trkpt>
      <trkpt lat="47.08407" lon="-1.73586">
        <ele>6.4000000953674</ele>
        <time>2020-08-29T13:19:14.000Z</time>
      </trkpt>
      <trkpt lat="47.08404" lon="-1.7359">
        <ele>6</ele>
        <time>2020-08-29T13:19:15.000Z</time>
      </trkpt>
      <trkpt lat="47.08388" lon="-1.7361">
        <ele>4.5999999046326</ele>
        <time>2020-08-29T13:19:20.000Z</time>
      </trkpt>
      <trkpt lat="47.08377" lon="-1.73622">
        <ele>3.5999999046326</ele>
        <time>2020-08-29T13:19:23.000Z</time>
      </trkpt>
      <trkpt lat="47.08367" lon="-1.73635">
        <ele>2.5999999046326</ele>
        <time>2020-08-29T13:19:26.000Z</time>
      </trkpt>
      <trkpt lat="47.0836" lon="-1.73644">
        <ele>2</ele>
        <time>2020-08-29T13:19:28.000Z</time>
      </trkpt>
      <trkpt lat="47.0835" lon="-1.73659">
        <ele>1.3999999761581</ele>
        <time>2020-08-29T13:19:31.000Z</time>
      </trkpt>
      <trkpt lat="47.08346" lon="-1.73663">
        <ele>1.6000000238419</ele>
        <time>2020-08-29T13:19:32.000Z</time>
      </trkpt>
      <trkpt lat="47.08328" lon="-1.73684">
        <ele>1.7999999523163</ele>
        <time>2020-08-29T13:19:37.000Z</time>
      </trkpt>
      <trkpt lat="47.08324" lon="-1.73689">
        <ele>2.2000000476837</ele>
        <time>2020-08-29T13:19:38.000Z</time>
      </trkpt>
      <trkpt lat="47.0831" lon="-1.73707">
        <ele>3.2000000476837</ele>
        <time>2020-08-29T13:19:42.000Z</time>
      </trkpt>
      <trkpt lat="47.08295" lon="-1.73726">
        <ele>4.4000000953674</ele>
        <time>2020-08-29T13:19:46.000Z</time>
      </trkpt>
      <trkpt lat="47.08266" lon="-1.73763">
        <ele>4.5999999046326</ele>
        <time>2020-08-29T13:19:54.000Z</time>
      </trkpt>
      <trkpt lat="47.08262" lon="-1.73767">
        <ele>4.5999999046326</ele>
        <time>2020-08-29T13:19:55.000Z</time>
      </trkpt>
      <trkpt lat="47.08249" lon="-1.73785">
        <ele>4.4000000953674</ele>
        <time>2020-08-29T13:19:59.000Z</time>
      </trkpt>
      <trkpt lat="47.08231" lon="-1.73806">
        <ele>4.5999999046326</ele>
        <time>2020-08-29T13:20:04.000Z</time>
      </trkpt>
      <trkpt lat="47.08224" lon="-1.73815">
        <ele>4.8000001907349</ele>
        <time>2020-08-29T13:20:06.000Z</time>
      </trkpt>
      <trkpt lat="47.08211" lon="-1.73834">
        <ele>8.1999998092651</ele>
        <time>2020-08-29T13:20:10.000Z</time>
      </trkpt>
      <trkpt lat="47.08203" lon="-1.73843">
        <ele>10.60000038147</ele>
        <time>2020-08-29T13:20:12.000Z</time>
      </trkpt>
      <trkpt lat="47.08192" lon="-1.73857">
        <ele>14.199999809265</ele>
        <time>2020-08-29T13:20:15.000Z</time>
      </trkpt>
      <trkpt lat="47.0818" lon="-1.7387">
        <ele>17.60000038147</ele>
        <time>2020-08-29T13:20:18.000Z</time>
      </trkpt>
      <trkpt lat="47.08152" lon="-1.73905">
        <ele>24</ele>
        <time>2020-08-29T13:20:25.000Z</time>
      </trkpt>
      <trkpt lat="47.08148" lon="-1.73909">
        <ele>23</ele>
        <time>2020-08-29T13:20:26.000Z</time>
      </trkpt>
      <trkpt lat="47.08129" lon="-1.73933">
        <ele>18.200000762939</ele>
        <time>2020-08-29T13:20:31.000Z</time>
      </trkpt>
      <trkpt lat="47.08122" lon="-1.73941">
        <ele>16.39999961853</ele>
        <time>2020-08-29T13:20:33.000Z</time>
      </trkpt>
      <trkpt lat="47.08118" lon="-1.73946">
        <ele>15.39999961853</ele>
        <time>2020-08-29T13:20:34.000Z</time>
      </trkpt>
      <trkpt lat="47.08091" lon="-1.73981">
        <ele>6.8000001907349</ele>
        <time>2020-08-29T13:20:42.000Z</time>
      </trkpt>
      <trkpt lat="47.0808" lon="-1.73995">
        <ele>5.8000001907349</ele>
        <time>2020-08-29T13:20:47.000Z</time>
      </trkpt>
      <trkpt lat="47.08074" lon="-1.74002">
        <ele>6.1999998092651</ele>
        <time>2020-08-29T13:20:52.000Z</time>
      </trkpt>
      <trkpt lat="47.08082" lon="-1.73992">
        <ele>5.5999999046326</ele>
        <time>2020-08-29T13:22:57.000Z</time>
      </trkpt>
      <trkpt lat="47.08086" lon="-1.73988">
        <ele>5.4000000953674</ele>
        <time>2020-08-29T13:22:59.000Z</time>
      </trkpt>
      <trkpt lat="47.08102" lon="-1.73967">
        <ele>10.39999961853</ele>
        <time>2020-08-29T13:23:04.000Z</time>
      </trkpt>
      <trkpt lat="47.08109" lon="-1.73957">
        <ele>12.60000038147</ele>
        <time>2020-08-29T13:23:06.000Z</time>
      </trkpt>
      <trkpt lat="47.08117" lon="-1.73948">
        <ele>15</ele>
        <time>2020-08-29T13:23:08.000Z</time>
      </trkpt>
      <trkpt lat="47.0813" lon="-1.73932">
        <ele>18.39999961853</ele>
        <time>2020-08-29T13:23:11.000Z</time>
      </trkpt>
      <trkpt lat="47.08134" lon="-1.73927">
        <ele>19.60000038147</ele>
        <time>2020-08-29T13:23:12.000Z</time>
      </trkpt>
      <trkpt lat="47.08142" lon="-1.73917">
        <ele>21.60000038147</ele>
        <time>2020-08-29T13:23:14.000Z</time>
      </trkpt>
      <trkpt lat="47.08147" lon="-1.73912">
        <ele>22.60000038147</ele>
        <time>2020-08-29T13:23:15.000Z</time>
      </trkpt>
      <trkpt lat="47.08155" lon="-1.73901">
        <ele>24.200000762939</ele>
        <time>2020-08-29T13:23:17.000Z</time>
      </trkpt>
      <trkpt lat="47.08159" lon="-1.73896">
        <ele>24</ele>
        <time>2020-08-29T13:23:18.000Z</time>
      </trkpt>
      <trkpt lat="47.08167" lon="-1.73886">
        <ele>21.60000038147</ele>
        <time>2020-08-29T13:23:20.000Z</time>
      </trkpt>
      <trkpt lat="47.08171" lon="-1.73881">
        <ele>20.39999961853</ele>
        <time>2020-08-29T13:23:21.000Z</time>
      </trkpt>
      <trkpt lat="47.08179" lon="-1.73871">
        <ele>17.799999237061</ele>
        <time>2020-08-29T13:23:23.000Z</time>
      </trkpt>
      <trkpt lat="47.08183" lon="-1.73866">
        <ele>16.60000038147</ele>
        <time>2020-08-29T13:23:24.000Z</time>
      </trkpt>
      <trkpt lat="47.08187" lon="-1.73861">
        <ele>15.39999961853</ele>
        <time>2020-08-29T13:23:25.000Z</time>
      </trkpt>
      <trkpt lat="47.08191" lon="-1.73857">
        <ele>14.199999809265</ele>
        <time>2020-08-29T13:23:26.000Z</time>
      </trkpt>
      <trkpt lat="47.08195" lon="-1.73852">
        <ele>13</ele>
        <time>2020-08-29T13:23:27.000Z</time>
      </trkpt>
      <trkpt lat="47.08199" lon="-1.73848">
        <ele>11.800000190735</ele>
        <time>2020-08-29T13:23:28.000Z</time>
      </trkpt>
      <trkpt lat="47.08203" lon="-1.73843">
        <ele>10.39999961853</ele>
        <time>2020-08-29T13:23:29.000Z</time>
      </trkpt>
      <trkpt lat="47.08226" lon="-1.73813">
        <ele>4.5999999046326</ele>
        <time>2020-08-29T13:23:35.000Z</time>
      </trkpt>
      <trkpt lat="47.08234" lon="-1.73803">
        <ele>4.5999999046326</ele>
        <time>2020-08-29T13:23:37.000Z</time>
      </trkpt>
      <trkpt lat="47.08267" lon="-1.73764">
        <ele>4.5999999046326</ele>
        <time>2020-08-29T13:23:45.000Z</time>
      </trkpt>
      <trkpt lat="47.0827" lon="-1.73759">
        <ele>4.8000001907349</ele>
        <time>2020-08-29T13:23:46.000Z</time>
      </trkpt>
      <trkpt lat="47.08292" lon="-1.7373">
        <ele>4.5999999046326</ele>
        <time>2020-08-29T13:23:52.000Z</time>
      </trkpt>
      <trkpt lat="47.08296" lon="-1.73726">
        <ele>4.4000000953674</ele>
        <time>2020-08-29T13:23:53.000Z</time>
      </trkpt>
      <trkpt lat="47.08312" lon="-1.73704">
        <ele>3</ele>
        <time>2020-08-29T13:23:58.000Z</time>
      </trkpt>
      <trkpt lat="47.08319" lon="-1.73696">
        <ele>2.5999999046326</ele>
        <time>2020-08-29T13:24:00.000Z</time>
      </trkpt>
      <trkpt lat="47.08326" lon="-1.73686">
        <ele>2</ele>
        <time>2020-08-29T13:24:02.000Z</time>
      </trkpt>
      <trkpt lat="47.08338" lon="-1.73672">
        <ele>1.6000000238419</ele>
        <time>2020-08-29T13:24:05.000Z</time>
      </trkpt>
      <trkpt lat="47.08352" lon="-1.73655">
        <ele>1.2000000476837</ele>
        <time>2020-08-29T13:24:09.000Z</time>
      </trkpt>
      <trkpt lat="47.08365" lon="-1.73637">
        <ele>2.4000000953674</ele>
        <time>2020-08-29T13:24:13.000Z</time>
      </trkpt>
      <trkpt lat="47.08376" lon="-1.73623">
        <ele>3.5999999046326</ele>
        <time>2020-08-29T13:24:16.000Z</time>
      </trkpt>
      <trkpt lat="47.08401" lon="-1.73594">
        <ele>5.8000001907349</ele>
        <time>2020-08-29T13:24:23.000Z</time>
      </trkpt>
      <trkpt lat="47.08433" lon="-1.73554">
        <ele>7.1999998092651</ele>
        <time>2020-08-29T13:24:33.000Z</time>
      </trkpt>
      <trkpt lat="47.08452" lon="-1.7353">
        <ele>8</ele>
        <time>2020-08-29T13:24:39.000Z</time>
      </trkpt>
      <trkpt lat="47.08455" lon="-1.73526">
        <ele>8</ele>
        <time>2020-08-29T13:24:40.000Z</time>
      </trkpt>
      <trkpt lat="47.08479" lon="-1.73496">
        <ele>8.3999996185303</ele>
        <time>2020-08-29T13:24:48.000Z</time>
      </trkpt>
      <trkpt lat="47.08494" lon="-1.73478">
        <ele>8.3999996185303</ele>
        <time>2020-08-29T13:24:53.000Z</time>
      </trkpt>
      <trkpt lat="47.085" lon="-1.73472">
        <ele>8.1999998092651</ele>
        <time>2020-08-29T13:24:55.000Z</time>
      </trkpt>
      <trkpt lat="47.08501" lon="-1.73469">
        <ele>7.8000001907349</ele>
        <time>2020-08-29T13:24:56.000Z</time>
      </trkpt>
      <trkpt lat="47.085" lon="-1.73461">
        <ele>7.4000000953674</ele>
        <time>2020-08-29T13:24:58.000Z</time>
      </trkpt>
      <trkpt lat="47.08498" lon="-1.73458">
        <ele>7.1999998092651</ele>
        <time>2020-08-29T13:24:59.000Z</time>
      </trkpt>
      <trkpt lat="47.08487" lon="-1.73445">
        <ele>6</ele>
        <time>2020-08-29T13:25:03.000Z</time>
      </trkpt>
      <trkpt lat="47.08462" lon="-1.73412">
        <ele>3.7999999523163</ele>
        <time>2020-08-29T13:25:11.000Z</time>
      </trkpt>
      <trkpt lat="47.08448" lon="-1.73393">
        <ele>3.4000000953674</ele>
        <time>2020-08-29T13:25:16.000Z</time>
      </trkpt>
      <trkpt lat="47.08442" lon="-1.73385">
        <ele>3.2000000476837</ele>
        <time>2020-08-29T13:25:18.000Z</time>
      </trkpt>
      <trkpt lat="47.08417" lon="-1.7335">
        <ele>3</ele>
        <time>2020-08-29T13:25:27.000Z</time>
      </trkpt>
      <trkpt lat="47.08412" lon="-1.73344">
        <ele>3</ele>
        <time>2020-08-29T13:25:29.000Z</time>
      </trkpt>
      <trkpt lat="47.08401" lon="-1.73329">
        <ele>3</ele>
        <time>2020-08-29T13:25:33.000Z</time>
      </trkpt>
      <trkpt lat="47.08398" lon="-1.73325">
        <ele>3</ele>
        <time>2020-08-29T13:25:34.000Z</time>
      </trkpt>
      <trkpt lat="47.08395" lon="-1.73322">
        <ele>2.7999999523163</ele>
        <time>2020-08-29T13:25:35.000Z</time>
      </trkpt>
      <trkpt lat="47.08378" lon="-1.73298">
        <ele>2.4000000953674</ele>
        <time>2020-08-29T13:25:42.000Z</time>
      </trkpt>
      <trkpt lat="47.08375" lon="-1.73294">
        <ele>2.2000000476837</ele>
        <time>2020-08-29T13:25:44.000Z</time>
      </trkpt>
      <trkpt lat="47.08374" lon="-1.73292">
        <ele>2.2000000476837</ele>
        <time>2020-08-29T13:25:46.000Z</time>
      </trkpt>
      <trkpt lat="47.08376" lon="-1.73293">
        <ele>2.2000000476837</ele>
        <time>2020-08-29T13:25:48.000Z</time>
      </trkpt>
      <trkpt lat="47.0838" lon="-1.73298">
        <ele>2.4000000953674</ele>
        <time>2020-08-29T13:25:50.000Z</time>
      </trkpt>
      <trkpt lat="47.08394" lon="-1.73317">
        <ele>2.7999999523163</ele>
        <time>2020-08-29T13:25:55.000Z</time>
      </trkpt>
      <trkpt lat="47.08397" lon="-1.73322">
        <ele>2.7999999523163</ele>
        <time>2020-08-29T13:25:56.000Z</time>
      </trkpt>
      <trkpt lat="47.0841" lon="-1.73341">
        <ele>3</ele>
        <time>2020-08-29T13:26:00.000Z</time>
      </trkpt>
      <trkpt lat="47.08413" lon="-1.73345">
        <ele>3</ele>
        <time>2020-08-29T13:26:01.000Z</time>
      </trkpt>
      <trkpt lat="47.08416" lon="-1.73349">
        <ele>3</ele>
        <time>2020-08-29T13:26:02.000Z</time>
      </trkpt>
      <trkpt lat="47.08419" lon="-1.73353">
        <ele>3</ele>
        <time>2020-08-29T13:26:03.000Z</time>
      </trkpt>
      <trkpt lat="47.08439" lon="-1.73379">
        <ele>3</ele>
        <time>2020-08-29T13:26:09.000Z</time>
      </trkpt>
      <trkpt lat="47.08448" lon="-1.73392">
        <ele>3.4000000953674</ele>
        <time>2020-08-29T13:26:12.000Z</time>
      </trkpt>
      <trkpt lat="47.08463" lon="-1.73413">
        <ele>3.7999999523163</ele>
        <time>2020-08-29T13:26:17.000Z</time>
      </trkpt>
      <trkpt lat="47.08466" lon="-1.73417">
        <ele>3.7999999523163</ele>
        <time>2020-08-29T13:26:18.000Z</time>
      </trkpt>
      <trkpt lat="47.08473" lon="-1.73427">
        <ele>4.1999998092651</ele>
        <time>2020-08-29T13:26:20.000Z</time>
      </trkpt>
      <trkpt lat="47.08484" lon="-1.73441">
        <ele>5.5999999046326</ele>
        <time>2020-08-29T13:26:23.000Z</time>
      </trkpt>
      <trkpt lat="47.0849" lon="-1.73451">
        <ele>6.5999999046326</ele>
        <time>2020-08-29T13:26:25.000Z</time>
      </trkpt>
      <trkpt lat="47.08497" lon="-1.7346">
        <ele>7.4000000953674</ele>
        <time>2020-08-29T13:26:27.000Z</time>
      </trkpt>
      <trkpt lat="47.08501" lon="-1.73464">
        <ele>7.5999999046326</ele>
        <time>2020-08-29T13:26:28.000Z</time>
      </trkpt>
      <trkpt lat="47.08509" lon="-1.73464">
        <ele>7.5999999046326</ele>
        <time>2020-08-29T13:26:30.000Z</time>
      </trkpt>
      <trkpt lat="47.08523" lon="-1.73449">
        <ele>6.5999999046326</ele>
        <time>2020-08-29T13:26:34.000Z</time>
      </trkpt>
      <trkpt lat="47.08546" lon="-1.73421">
        <ele>5</ele>
        <time>2020-08-29T13:26:41.000Z</time>
      </trkpt>
      <trkpt lat="47.08582" lon="-1.73378">
        <ele>3.2000000476837</ele>
        <time>2020-08-29T13:26:51.000Z</time>
      </trkpt>
      <trkpt lat="47.08602" lon="-1.73356">
        <ele>1.2000000476837</ele>
        <time>2020-08-29T13:26:57.000Z</time>
      </trkpt>
      <trkpt lat="47.08628" lon="-1.73326">
        <ele>-1.2000000476837</ele>
        <time>2020-08-29T13:27:05.000Z</time>
      </trkpt>
      <trkpt lat="47.08646" lon="-1.73305">
        <ele>-1.7999999523163</ele>
        <time>2020-08-29T13:27:11.000Z</time>
      </trkpt>
      <trkpt lat="47.08652" lon="-1.73299">
        <ele>-1.7999999523163</ele>
        <time>2020-08-29T13:27:13.000Z</time>
      </trkpt>
      <trkpt lat="47.08671" lon="-1.73277">
        <ele>-1.6000000238419</ele>
        <time>2020-08-29T13:27:20.000Z</time>
      </trkpt>
      <trkpt lat="47.08691" lon="-1.73252">
        <ele>-1.3999999761581</ele>
        <time>2020-08-29T13:27:27.000Z</time>
      </trkpt>
      <trkpt lat="47.08707" lon="-1.73235">
        <ele>-1.2000000476837</ele>
        <time>2020-08-29T13:27:32.000Z</time>
      </trkpt>
      <trkpt lat="47.08713" lon="-1.73229">
        <ele>-1.2000000476837</ele>
        <time>2020-08-29T13:27:34.000Z</time>
      </trkpt>
      <trkpt lat="47.0872" lon="-1.73221">
        <ele>-1.2000000476837</ele>
        <time>2020-08-29T13:27:36.000Z</time>
      </trkpt>
      <trkpt lat="47.08733" lon="-1.73206">
        <ele>-1</ele>
        <time>2020-08-29T13:27:40.000Z</time>
      </trkpt>
      <trkpt lat="47.08746" lon="-1.73191">
        <ele>-0.40000000596046</ele>
        <time>2020-08-29T13:27:44.000Z</time>
      </trkpt>
      <trkpt lat="47.08756" lon="-1.7318">
        <ele>1</ele>
        <time>2020-08-29T13:27:47.000Z</time>
      </trkpt>
      <trkpt lat="47.08769" lon="-1.73165">
        <ele>3</ele>
        <time>2020-08-29T13:27:51.000Z</time>
      </trkpt>
      <trkpt lat="47.08793" lon="-1.73137">
        <ele>4.4000000953674</ele>
        <time>2020-08-29T13:27:58.000Z</time>
      </trkpt>
      <trkpt lat="47.08823" lon="-1.731">
        <ele>3.7999999523163</ele>
        <time>2020-08-29T13:28:07.000Z</time>
      </trkpt>
      <trkpt lat="47.0884" lon="-1.73077">
        <ele>3.2000000476837</ele>
        <time>2020-08-29T13:28:13.000Z</time>
      </trkpt>
      <trkpt lat="47.08841" lon="-1.73071">
        <ele>2.7999999523163</ele>
        <time>2020-08-29T13:28:14.000Z</time>
      </trkpt>
      <trkpt lat="47.08839" lon="-1.7306">
        <ele>2</ele>
        <time>2020-08-29T13:28:16.000Z</time>
      </trkpt>
      <trkpt lat="47.08821" lon="-1.73028">
        <ele>1</ele>
        <time>2020-08-29T13:28:22.000Z</time>
      </trkpt>
      <trkpt lat="47.08807" lon="-1.73003">
        <ele>0.20000000298023</ele>
        <time>2020-08-29T13:28:26.000Z</time>
      </trkpt>
      <trkpt lat="47.08793" lon="-1.72977">
        <ele>2.5</ele>
        <time>2020-08-29T13:28:30.000Z</time>
      </trkpt>
      <trkpt lat="47.08771" lon="-1.72936">
        <ele>1.9</ele>
        <time>2020-08-29T13:28:36.000Z</time>
      </trkpt>
      <trkpt lat="47.08764" lon="-1.72922">
        <ele>1.6</ele>
        <time>2020-08-29T13:28:38.000Z</time>
      </trkpt>
      <trkpt lat="47.08737" lon="-1.72867">
        <ele>-0.60000002384186</ele>
        <time>2020-08-29T13:28:46.000Z</time>
      </trkpt>
      <trkpt lat="47.08702" lon="-1.72803">
        <ele>-1.7999999523163</ele>
        <time>2020-08-29T13:28:55.000Z</time>
      </trkpt>
      <trkpt lat="47.08676" lon="-1.72751">
        <ele>-4.4000000953674</ele>
        <time>2020-08-29T13:29:02.000Z</time>
      </trkpt>
      <trkpt lat="47.08672" lon="-1.72744">
        <ele>-4.5999999046326</ele>
        <time>2020-08-29T13:29:03.000Z</time>
      </trkpt>
      <trkpt lat="47.08649" lon="-1.72701">
        <ele>-4.4000000953674</ele>
        <time>2020-08-29T13:29:09.000Z</time>
      </trkpt>
      <trkpt lat="47.08637" lon="-1.72675">
        <ele>-4</ele>
        <time>2020-08-29T13:29:13.000Z</time>
      </trkpt>
      <trkpt lat="47.08631" lon="-1.72663">
        <ele>-3.7999999523163</ele>
        <time>2020-08-29T13:29:15.000Z</time>
      </trkpt>
      <trkpt lat="47.08612" lon="-1.7263">
        <ele>-3.4000000953674</ele>
        <time>2020-08-29T13:29:21.000Z</time>
      </trkpt>
      <trkpt lat="47.0861" lon="-1.72624">
        <ele>-3.4000000953674</ele>
        <time>2020-08-29T13:29:22.000Z</time>
      </trkpt>
      <trkpt lat="47.08606" lon="-1.72614">
        <ele>-3.4000000953674</ele>
        <time>2020-08-29T13:29:24.000Z</time>
      </trkpt>
      <trkpt lat="47.08601" lon="-1.72604">
        <ele>-3.2000000476837</ele>
        <time>2020-08-29T13:29:26.000Z</time>
      </trkpt>
      <trkpt lat="47.08593" lon="-1.7259">
        <ele>-3.2000000476837</ele>
        <time>2020-08-29T13:29:29.000Z</time>
      </trkpt>
      <trkpt lat="47.08581" lon="-1.72568">
        <ele>-3.2000000476837</ele>
        <time>2020-08-29T13:29:34.000Z</time>
      </trkpt>
      <trkpt lat="47.08577" lon="-1.72561">
        <ele>-2.7999999523163</ele>
        <time>2020-08-29T13:29:36.000Z</time>
      </trkpt>
      <trkpt lat="47.08569" lon="-1.72549">
        <ele>-3.5999999046326</ele>
        <time>2020-08-29T13:29:40.000Z</time>
      </trkpt>
      <trkpt lat="47.08563" lon="-1.72541">
        <ele>-4.1999998092651</ele>
        <time>2020-08-29T13:29:43.000Z</time>
      </trkpt>
      <trkpt lat="47.08554" lon="-1.72534">
        <ele>-5.4000000953674</ele>
        <time>2020-08-29T13:29:47.000Z</time>
      </trkpt>
      <trkpt lat="47.08553" lon="-1.72533">
        <ele>-5.5999999046326</ele>
        <time>2020-08-29T13:29:48.000Z</time>
      </trkpt>
      <trkpt lat="47.0855" lon="-1.72534">
        <ele>-6</ele>
        <time>2020-08-29T13:29:50.000Z</time>
      </trkpt>
      <trkpt lat="47.08548" lon="-1.72537">
        <ele>-6.1999998092651</ele>
        <time>2020-08-29T13:29:52.000Z</time>
      </trkpt>
      <trkpt lat="47.08548" lon="-1.72538">
        <ele>-6.4000000953674</ele>
        <time>2020-08-29T13:29:53.000Z</time>
      </trkpt>
      <trkpt lat="47.08547" lon="-1.7254">
        <ele>-6.4000000953674</ele>
        <time>2020-08-29T13:29:57.000Z</time>
      </trkpt>
      <trkpt lat="47.08547" lon="-1.7254">
        <ele>-6.4000000953674</ele>
        <time>2020-08-29T13:29:58.000Z</time>
      </trkpt>
      <trkpt lat="47.08547" lon="-1.7254">
        <ele>-6.4000000953674</ele>
        <time>2020-08-29T13:29:59.000Z</time>
      </trkpt>
      <trkpt lat="47.08548" lon="-1.7254">
        <ele>-6.4000000953674</ele>
        <time>2020-08-29T13:30:02.000Z</time>
      </trkpt>
      <trkpt lat="47.08548" lon="-1.72541">
        <ele>-6.4000000953674</ele>
        <time>2020-08-29T13:30:06.000Z</time>
      </trkpt>
      <trkpt lat="47.08548" lon="-1.72541">
        <ele>-6.4000000953674</ele>
        <time>2020-08-29T13:30:13.000Z</time>
      </trkpt>
      <trkpt lat="47.08548" lon="-1.72542">
        <ele>-6.4000000953674</ele>
        <time>2020-08-29T13:30:21.000Z</time>
      </trkpt>
      <trkpt lat="47.08547" lon="-1.72543">
        <ele>-6.5999999046326</ele>
        <time>2020-08-29T13:30:26.000Z</time>
      </trkpt>
      <trkpt lat="47.08547" lon="-1.72543">
        <ele>-6.5999999046326</ele>
        <time>2020-08-29T13:30:31.000Z</time>
      </trkpt>
      <trkpt lat="47.08547" lon="-1.72542">
        <ele>-6.5999999046326</ele>
        <time>2020-08-29T13:30:40.000Z</time>
      </trkpt>
      <trkpt lat="47.08547" lon="-1.72543">
        <ele>-6.5999999046326</ele>
        <time>2020-08-29T13:30:42.000Z</time>
      </trkpt>
      <trkpt lat="47.08546" lon="-1.72543">
        <ele>-6.5999999046326</ele>
        <time>2020-08-29T13:30:45.000Z</time>
      </trkpt>
      <trkpt lat="47.08546" lon="-1.72543">
        <ele>-6.5999999046326</ele>
        <time>2020-08-29T13:30:50.000Z</time>
      </trkpt>
      <trkpt lat="47.08547" lon="-1.72543">
        <ele>-6.5999999046326</ele>
        <time>2020-08-29T13:30:53.000Z</time>
      </trkpt>
      <trkpt lat="47.0855" lon="-1.72539">
        <ele>-6.1999998092651</ele>
        <time>2020-08-29T13:30:57.000Z</time>
      </trkpt>
      <trkpt lat="47.0855" lon="-1.72535">
        <ele>-6</ele>
        <time>2020-08-29T13:30:59.000Z</time>
      </trkpt>
      <trkpt lat="47.08549" lon="-1.72532">
        <ele>-6</ele>
        <time>2020-08-29T13:31:00.000Z</time>
      </trkpt>
      <trkpt lat="47.08547" lon="-1.72529">
        <ele>-6.1999998092651</ele>
        <time>2020-08-29T13:31:01.000Z</time>
      </trkpt>
      <trkpt lat="47.08537" lon="-1.72522">
        <ele>-6.8000001907349</ele>
        <time>2020-08-29T13:31:04.000Z</time>
      </trkpt>
      <trkpt lat="47.08507" lon="-1.72495">
        <ele>-2.4000000953674</ele>
        <time>2020-08-29T13:31:12.000Z</time>
      </trkpt>
      <trkpt lat="47.08499" lon="-1.72489">
        <ele>-1.2000000476837</ele>
        <time>2020-08-29T13:31:14.000Z</time>
      </trkpt>
      <trkpt lat="47.08486" lon="-1.72478">
        <ele>-1.2000000476837</ele>
        <time>2020-08-29T13:31:17.000Z</time>
      </trkpt>
      <trkpt lat="47.08474" lon="-1.72467">
        <ele>-1.7999999523163</ele>
        <time>2020-08-29T13:31:20.000Z</time>
      </trkpt>
      <trkpt lat="47.0847" lon="-1.72463">
        <ele>-1.7999999523163</ele>
        <time>2020-08-29T13:31:21.000Z</time>
      </trkpt>
      <trkpt lat="47.08446" lon="-1.72438">
        <ele>-2.2000000476837</ele>
        <time>2020-08-29T13:31:27.000Z</time>
      </trkpt>
      <trkpt lat="47.08438" lon="-1.7243">
        <ele>-2</ele>
        <time>2020-08-29T13:31:29.000Z</time>
      </trkpt>
      <trkpt lat="47.08412" lon="-1.72406">
        <ele>-1</ele>
        <time>2020-08-29T13:31:35.000Z</time>
      </trkpt>
      <trkpt lat="47.08394" lon="-1.7239">
        <ele>-2.2000000476837</ele>
        <time>2020-08-29T13:31:39.000Z</time>
      </trkpt>
      <trkpt lat="47.0839" lon="-1.72386">
        <ele>-2.4000000953674</ele>
        <time>2020-08-29T13:31:40.000Z</time>
      </trkpt>
      <trkpt lat="47.08386" lon="-1.72383">
        <ele>-2.7999999523163</ele>
        <time>2020-08-29T13:31:41.000Z</time>
      </trkpt>
      <trkpt lat="47.08382" lon="-1.72379">
        <ele>-3.2000000476837</ele>
        <time>2020-08-29T13:31:42.000Z</time>
      </trkpt>
      <trkpt lat="47.08378" lon="-1.72375">
        <ele>-3.4000000953674</ele>
        <time>2020-08-29T13:31:43.000Z</time>
      </trkpt>
      <trkpt lat="47.08347" lon="-1.72346">
        <ele>-5.4000000953674</ele>
        <time>2020-08-29T13:31:51.000Z</time>
      </trkpt>
      <trkpt lat="47.08336" lon="-1.72336">
        <ele>-6</ele>
        <time>2020-08-29T13:31:54.000Z</time>
      </trkpt>
      <trkpt lat="47.08325" lon="-1.72327">
        <ele>-6.5999999046326</ele>
        <time>2020-08-29T13:31:57.000Z</time>
      </trkpt>
      <trkpt lat="47.08321" lon="-1.72323">
        <ele>-6.5999999046326</ele>
        <time>2020-08-29T13:31:58.000Z</time>
      </trkpt>
      <trkpt lat="47.08318" lon="-1.7232">
        <ele>-6.4000000953674</ele>
        <time>2020-08-29T13:31:59.000Z</time>
      </trkpt>
      <trkpt lat="47.08314" lon="-1.72316">
        <ele>-5.5999999046326</ele>
        <time>2020-08-29T13:32:00.000Z</time>
      </trkpt>
      <trkpt lat="47.08302" lon="-1.72297">
        <ele>-2.2000000476837</ele>
        <time>2020-08-29T13:32:05.000Z</time>
      </trkpt>
      <trkpt lat="47.08295" lon="-1.72282">
        <ele>0.40000000596046</ele>
        <time>2020-08-29T13:32:10.000Z</time>
      </trkpt>
      <trkpt lat="47.08286" lon="-1.72269">
        <ele>1.3999999761581</ele>
        <time>2020-08-29T13:32:16.000Z</time>
      </trkpt>
      <trkpt lat="47.08269" lon="-1.72255">
        <ele>4</ele>
        <time>2020-08-29T13:32:21.000Z</time>
      </trkpt>
      <trkpt lat="47.08238" lon="-1.72229">
        <ele>-2</ele>
        <time>2020-08-29T13:32:29.000Z</time>
      </trkpt>
      <trkpt lat="47.0823" lon="-1.72221">
        <ele>-2.2000000476837</ele>
        <time>2020-08-29T13:32:31.000Z</time>
      </trkpt>
      <trkpt lat="47.08211" lon="-1.72204">
        <ele>-2.4000000953674</ele>
        <time>2020-08-29T13:32:36.000Z</time>
      </trkpt>
      <trkpt lat="47.08191" lon="-1.72186">
        <ele>-1.3999999761581</ele>
        <time>2020-08-29T13:32:41.000Z</time>
      </trkpt>
      <trkpt lat="47.08184" lon="-1.72179">
        <ele>-0.60000002384186</ele>
        <time>2020-08-29T13:32:43.000Z</time>
      </trkpt>
      <trkpt lat="47.08157" lon="-1.72154">
        <ele>2</ele>
        <time>2020-08-29T13:32:50.000Z</time>
      </trkpt>
      <trkpt lat="47.08149" lon="-1.72147">
        <ele>2</ele>
        <time>2020-08-29T13:32:52.000Z</time>
      </trkpt>
      <trkpt lat="47.08141" lon="-1.7214">
        <ele>2</ele>
        <time>2020-08-29T13:32:54.000Z</time>
      </trkpt>
      <trkpt lat="47.08133" lon="-1.72133">
        <ele>2</ele>
        <time>2020-08-29T13:32:56.000Z</time>
      </trkpt>
      <trkpt lat="47.08122" lon="-1.72122">
        <ele>2</ele>
        <time>2020-08-29T13:32:59.000Z</time>
      </trkpt>
      <trkpt lat="47.08108" lon="-1.72105">
        <ele>1.7999999523163</ele>
        <time>2020-08-29T13:33:03.000Z</time>
      </trkpt>
      <trkpt lat="47.08105" lon="-1.721">
        <ele>1.7999999523163</ele>
        <time>2020-08-29T13:33:04.000Z</time>
      </trkpt>
      <trkpt lat="47.08101" lon="-1.72096">
        <ele>1.6000000238419</ele>
        <time>2020-08-29T13:33:05.000Z</time>
      </trkpt>
      <trkpt lat="47.08093" lon="-1.7209">
        <ele>1.3999999761581</ele>
        <time>2020-08-29T13:33:08.000Z</time>
      </trkpt>
      <trkpt lat="47.08091" lon="-1.7209">
        <ele>1.3999999761581</ele>
        <time>2020-08-29T13:33:09.000Z</time>
      </trkpt>
      <trkpt lat="47.08086" lon="-1.72095">
        <ele>1.6000000238419</ele>
        <time>2020-08-29T13:33:12.000Z</time>
      </trkpt>
      <trkpt lat="47.08079" lon="-1.72099">
        <ele>1.6000000238419</ele>
        <time>2020-08-29T13:33:15.000Z</time>
      </trkpt>
      <trkpt lat="47.08076" lon="-1.72098">
        <ele>1.6000000238419</ele>
        <time>2020-08-29T13:33:16.000Z</time>
      </trkpt>
      <trkpt lat="47.08067" lon="-1.7209">
        <ele>1.3</ele>
        <time>2020-08-29T13:33:19.000Z</time>
      </trkpt>
      <trkpt lat="47.08061" lon="-1.72084">
        <ele>-0.80000001192093</ele>
        <time>2020-08-29T13:33:21.000Z</time>
      </trkpt>
      <trkpt lat="47.08034" lon="-1.72056">
        <ele>0.60000002384186</ele>
        <time>2020-08-29T13:33:30.000Z</time>
      </trkpt>
      <trkpt lat="47.08003" lon="-1.72028">
        <ele>1</ele>
        <time>2020-08-29T13:33:39.000Z</time>
      </trkpt>
      <trkpt lat="47.07993" lon="-1.7201">
        <ele>-0.40000000596046</ele>
        <time>2020-08-29T13:33:43.000Z</time>
      </trkpt>
      <trkpt lat="47.07978" lon="-1.71983">
        <ele>-0.80000001192093</ele>
        <time>2020-08-29T13:33:49.000Z</time>
      </trkpt>
      <trkpt lat="47.07974" lon="-1.7198">
        <ele>-0.80000001192093</ele>
        <time>2020-08-29T13:33:50.000Z</time>
      </trkpt>
      <trkpt lat="47.0796" lon="-1.71971">
        <ele>-0.80000001192093</ele>
        <time>2020-08-29T13:33:54.000Z</time>
      </trkpt>
      <trkpt lat="47.0793" lon="-1.71945">
        <ele>-2.4000000953674</ele>
        <time>2020-08-29T13:34:02.000Z</time>
      </trkpt>
      <trkpt lat="47.07901" lon="-1.7192">
        <ele>-5.1999998092651</ele>
        <time>2020-08-29T13:34:09.000Z</time>
      </trkpt>
      <trkpt lat="47.07881" lon="-1.71898">
        <ele>-5</ele>
        <time>2020-08-29T13:34:14.000Z</time>
      </trkpt>
      <trkpt lat="47.07877" lon="-1.71894">
        <ele>-4.5999999046326</ele>
        <time>2020-08-29T13:34:15.000Z</time>
      </trkpt>
      <trkpt lat="47.07873" lon="-1.7189">
        <ele>-4.1999998092651</ele>
        <time>2020-08-29T13:34:16.000Z</time>
      </trkpt>
      <trkpt lat="47.07845" lon="-1.71862">
        <ele>-2.2000000476837</ele>
        <time>2020-08-29T13:34:23.000Z</time>
      </trkpt>
      <trkpt lat="47.07841" lon="-1.71858">
        <ele>-2</ele>
        <time>2020-08-29T13:34:24.000Z</time>
      </trkpt>
      <trkpt lat="47.07837" lon="-1.71854">
        <ele>-1.7999999523163</ele>
        <time>2020-08-29T13:34:25.000Z</time>
      </trkpt>
      <trkpt lat="47.07816" lon="-1.71834">
        <ele>-0.60000002384186</ele>
        <time>2020-08-29T13:34:30.000Z</time>
      </trkpt>
      <trkpt lat="47.07811" lon="-1.71831">
        <ele>-0.20000000298023</ele>
        <time>2020-08-29T13:34:31.000Z</time>
      </trkpt>
      <trkpt lat="47.07798" lon="-1.71821">
        <ele>1.2000000476837</ele>
        <time>2020-08-29T13:34:34.000Z</time>
      </trkpt>
      <trkpt lat="47.07784" lon="-1.71809">
        <ele>3.7999999523163</ele>
        <time>2020-08-29T13:34:38.000Z</time>
      </trkpt>
      <trkpt lat="47.07759" lon="-1.71781">
        <ele>3.5999999046326</ele>
        <time>2020-08-29T13:34:45.000Z</time>
      </trkpt>
      <trkpt lat="47.07747" lon="-1.7177">
        <ele>0.60000002384186</ele>
        <time>2020-08-29T13:34:48.000Z</time>
      </trkpt>
      <trkpt lat="47.07738" lon="-1.71769">
        <ele>-0.40000000596046</ele>
        <time>2020-08-29T13:34:50.000Z</time>
      </trkpt>
      <trkpt lat="47.07729" lon="-1.71778">
        <ele>0.20000000298023</ele>
        <time>2020-08-29T13:34:53.000Z</time>
      </trkpt>
      <trkpt lat="47.07718" lon="-1.71795">
        <ele>1.7999999523163</ele>
        <time>2020-08-29T13:34:57.000Z</time>
      </trkpt>
      <trkpt lat="47.07711" lon="-1.71804">
        <ele>2.4000000953674</ele>
        <time>2020-08-29T13:34:59.000Z</time>
      </trkpt>
      <trkpt lat="47.07697" lon="-1.71821">
        <ele>3.7999999523163</ele>
        <time>2020-08-29T13:35:03.000Z</time>
      </trkpt>
      <trkpt lat="47.0769" lon="-1.7183">
        <ele>3.4000000953674</ele>
        <time>2020-08-29T13:35:05.000Z</time>
      </trkpt>
      <trkpt lat="47.07686" lon="-1.71834">
        <ele>3</ele>
        <time>2020-08-29T13:35:06.000Z</time>
      </trkpt>
      <trkpt lat="47.07682" lon="-1.71839">
        <ele>2.7999999523163</ele>
        <time>2020-08-29T13:35:07.000Z</time>
      </trkpt>
      <trkpt lat="47.07675" lon="-1.71847">
        <ele>2.4000000953674</ele>
        <time>2020-08-29T13:35:09.000Z</time>
      </trkpt>
      <trkpt lat="47.07667" lon="-1.71849">
        <ele>2</ele>
        <time>2020-08-29T13:35:11.000Z</time>
      </trkpt>
      <trkpt lat="47.07657" lon="-1.7184">
        <ele>1.6000000238419</ele>
        <time>2020-08-29T13:35:14.000Z</time>
      </trkpt>
      <trkpt lat="47.07644" lon="-1.71821">
        <ele>1.6000000238419</ele>
        <time>2020-08-29T13:35:18.000Z</time>
      </trkpt>
      <trkpt lat="47.07636" lon="-1.71812">
        <ele>1</ele>
        <time>2020-08-29T13:35:20.000Z</time>
      </trkpt>
      <trkpt lat="47.07626" lon="-1.71798">
        <ele>-0.20000000298023</ele>
        <time>2020-08-29T13:35:23.000Z</time>
      </trkpt>
      <trkpt lat="47.07619" lon="-1.71788">
        <ele>-1</ele>
        <time>2020-08-29T13:35:25.000Z</time>
      </trkpt>
      <trkpt lat="47.07616" lon="-1.71783">
        <ele>-1.2000000476837</ele>
        <time>2020-08-29T13:35:26.000Z</time>
      </trkpt>
      <trkpt lat="47.07612" lon="-1.71778">
        <ele>-1.2000000476837</ele>
        <time>2020-08-29T13:35:27.000Z</time>
      </trkpt>
      <trkpt lat="47.07607" lon="-1.71767">
        <ele>-0.80000001192093</ele>
        <time>2020-08-29T13:35:29.000Z</time>
      </trkpt>
      <trkpt lat="47.07595" lon="-1.71746">
        <ele>1</ele>
        <time>2020-08-29T13:35:33.000Z</time>
      </trkpt>
      <trkpt lat="47.07585" lon="-1.71729">
        <ele>0.60000002384186</ele>
        <time>2020-08-29T13:35:37.000Z</time>
      </trkpt>
      <trkpt lat="47.07583" lon="-1.71726">
        <ele>0.40000000596046</ele>
        <time>2020-08-29T13:35:38.000Z</time>
      </trkpt>
      <trkpt lat="47.07575" lon="-1.71708">
        <ele>-1.2000000476837</ele>
        <time>2020-08-29T13:35:44.000Z</time>
      </trkpt>
      <trkpt lat="47.07569" lon="-1.71699">
        <ele>-1.6000000238419</ele>
        <time>2020-08-29T13:35:48.000Z</time>
      </trkpt>
      <trkpt lat="47.07565" lon="-1.71693">
        <ele>-1.7999999523163</ele>
        <time>2020-08-29T13:35:50.000Z</time>
      </trkpt>
      <trkpt lat="47.07557" lon="-1.71683">
        <ele>-2</ele>
        <time>2020-08-29T13:35:53.000Z</time>
      </trkpt>
      <trkpt lat="47.07552" lon="-1.71674">
        <ele>-2.2000000476837</ele>
        <time>2020-08-29T13:35:55.000Z</time>
      </trkpt>
      <trkpt lat="47.07539" lon="-1.71655">
        <ele>-2.7999999523163</ele>
        <time>2020-08-29T13:35:59.000Z</time>
      </trkpt>
      <trkpt lat="47.07536" lon="-1.71651">
        <ele>-2.4000000953674</ele>
        <time>2020-08-29T13:36:00.000Z</time>
      </trkpt>
      <trkpt lat="47.0753" lon="-1.71641">
        <ele>-0.80000001192093</ele>
        <time>2020-08-29T13:36:02.000Z</time>
      </trkpt>
      <trkpt lat="47.07524" lon="-1.71631">
        <ele>0.80000001192093</ele>
        <time>2020-08-29T13:36:04.000Z</time>
      </trkpt>
      <trkpt lat="47.07515" lon="-1.71616">
        <ele>2.2000000476837</ele>
        <time>2020-08-29T13:36:07.000Z</time>
      </trkpt>
      <trkpt lat="47.07507" lon="-1.71602">
        <ele>3.2000000476837</ele>
        <time>2020-08-29T13:36:10.000Z</time>
      </trkpt>
      <trkpt lat="47.07499" lon="-1.71589">
        <ele>4</ele>
        <time>2020-08-29T13:36:13.000Z</time>
      </trkpt>
      <trkpt lat="47.07487" lon="-1.71567">
        <ele>4.4000000953674</ele>
        <time>2020-08-29T13:36:18.000Z</time>
      </trkpt>
      <trkpt lat="47.07484" lon="-1.71562">
        <ele>4</ele>
        <time>2020-08-29T13:36:19.000Z</time>
      </trkpt>
      <trkpt lat="47.07472" lon="-1.71541">
        <ele>1.7999999523163</ele>
        <time>2020-08-29T13:36:24.000Z</time>
      </trkpt>
      <trkpt lat="47.07467" lon="-1.71532">
        <ele>0.80000001192093</ele>
        <time>2020-08-29T13:36:28.000Z</time>
      </trkpt>
      <trkpt lat="47.07466" lon="-1.71526">
        <ele>0.20000000298023</ele>
        <time>2020-08-29T13:36:32.000Z</time>
      </trkpt>
      <trkpt lat="47.07465" lon="-1.71524">
        <ele>0.20000000298023</ele>
        <time>2020-08-29T13:36:34.000Z</time>
      </trkpt>
      <trkpt lat="47.07463" lon="-1.71524">
        <ele>3.6</ele>
        <time>2020-08-29T13:36:36.000Z</time>
      </trkpt>
      <trkpt lat="47.07459" lon="-1.71527">
        <ele>0.20000000298023</ele>
        <time>2020-08-29T13:36:40.000Z</time>
      </trkpt>
      <trkpt lat="47.07462" lon="-1.71532">
        <ele>0.60000002384186</ele>
        <time>2020-08-29T13:36:43.000Z</time>
      </trkpt>
      <trkpt lat="47.07463" lon="-1.71531">
        <ele>0.60000002384186</ele>
        <time>2020-08-29T13:36:44.000Z</time>
      </trkpt>
      <trkpt lat="47.07468" lon="-1.71526">
        <ele>0.40000000596046</ele>
        <time>2020-08-29T13:36:49.000Z</time>
      </trkpt>
      <trkpt lat="47.07468" lon="-1.71524">
        <ele>0.20000000298023</ele>
        <time>2020-08-29T13:36:59.000Z</time>
      </trkpt>
      <trkpt lat="47.07467" lon="-1.71523">
        <ele>3.6</ele>
        <time>2020-08-29T13:37:03.000Z</time>
      </trkpt>
      <trkpt lat="47.07467" lon="-1.71523">
        <ele>3.6</ele>
        <time>2020-08-29T13:37:08.000Z</time>
      </trkpt>
      <trkpt lat="47.07467" lon="-1.71523">
        <ele>3.6</ele>
        <time>2020-08-29T13:37:09.000Z</time>
      </trkpt>
      <trkpt lat="47.07467" lon="-1.71523">
        <ele>3.6</ele>
        <time>2020-08-29T13:37:10.000Z</time>
      </trkpt>
      <trkpt lat="47.07467" lon="-1.71523">
        <ele>3.6</ele>
        <time>2020-08-29T13:37:11.000Z</time>
      </trkpt>
      <trkpt lat="47.07467" lon="-1.71523">
        <ele>3.6</ele>
        <time>2020-08-29T13:37:13.000Z</time>
      </trkpt>
      <trkpt lat="47.07467" lon="-1.71523">
        <ele>0.20000000298023</ele>
        <time>2020-08-29T13:37:17.000Z</time>
      </trkpt>
      <trkpt lat="47.07467" lon="-1.71525">
        <ele>0.40000000596046</ele>
        <time>2020-08-29T13:37:21.000Z</time>
      </trkpt>
      <trkpt lat="47.07467" lon="-1.71526">
        <ele>0.40000000596046</ele>
        <time>2020-08-29T13:37:28.000Z</time>
      </trkpt>
      <trkpt lat="47.07468" lon="-1.71526">
        <ele>0.40000000596046</ele>
        <time>2020-08-29T13:37:30.000Z</time>
      </trkpt>
      <trkpt lat="47.07467" lon="-1.71526">
        <ele>0.40000000596046</ele>
        <time>2020-08-29T13:37:34.000Z</time>
      </trkpt>
      <trkpt lat="47.07467" lon="-1.71526">
        <ele>0.40000000596046</ele>
        <time>2020-08-29T13:37:39.000Z</time>
      </trkpt>
      <trkpt lat="47.07467" lon="-1.71526">
        <ele>0.40000000596046</ele>
        <time>2020-08-29T13:37:41.000Z</time>
      </trkpt>
      <trkpt lat="47.07467" lon="-1.71526">
        <ele>0.40000000596046</ele>
        <time>2020-08-29T13:37:45.000Z</time>
      </trkpt>
      <trkpt lat="47.07466" lon="-1.71528">
        <ele>0.60000002384186</ele>
        <time>2020-08-29T13:37:47.000Z</time>
      </trkpt>
      <trkpt lat="47.07462" lon="-1.71532">
        <ele>0.80000001192093</ele>
        <time>2020-08-29T13:37:49.000Z</time>
      </trkpt>
      <trkpt lat="47.07449" lon="-1.71547">
        <ele>1.3999999761581</ele>
        <time>2020-08-29T13:37:54.000Z</time>
      </trkpt>
      <trkpt lat="47.07444" lon="-1.71553">
        <ele>1.7999999523163</ele>
        <time>2020-08-29T13:37:56.000Z</time>
      </trkpt>
      <trkpt lat="47.0743" lon="-1.71569">
        <ele>2.5999999046326</ele>
        <time>2020-08-29T13:38:01.000Z</time>
      </trkpt>
      <trkpt lat="47.07415" lon="-1.71585">
        <ele>1</ele>
        <time>2020-08-29T13:38:05.000Z</time>
      </trkpt>
      <trkpt lat="47.07404" lon="-1.71598">
        <ele>0.20000000298023</ele>
        <time>2020-08-29T13:38:08.000Z</time>
      </trkpt>
      <trkpt lat="47.07382" lon="-1.71622">
        <ele>2</ele>
        <time>2020-08-29T13:38:14.000Z</time>
      </trkpt>
      <trkpt lat="47.07374" lon="-1.71631">
        <ele>-0.20000000298023</ele>
        <time>2020-08-29T13:38:16.000Z</time>
      </trkpt>
      <trkpt lat="47.0736" lon="-1.71646">
        <ele>-0.20000000298023</ele>
        <time>2020-08-29T13:38:19.000Z</time>
      </trkpt>
      <trkpt lat="47.07351" lon="-1.71656">
        <ele>0.20000000298023</ele>
        <time>2020-08-29T13:38:21.000Z</time>
      </trkpt>
      <trkpt lat="47.07346" lon="-1.71661">
        <ele>1</ele>
        <time>2020-08-29T13:38:22.000Z</time>
      </trkpt>
      <trkpt lat="47.07336" lon="-1.71672">
        <ele>2.7999999523163</ele>
        <time>2020-08-29T13:38:24.000Z</time>
      </trkpt>
      <trkpt lat="47.07326" lon="-1.71683">
        <ele>4.4000000953674</ele>
        <time>2020-08-29T13:38:26.000Z</time>
      </trkpt>
      <trkpt lat="47.0731" lon="-1.71699">
        <ele>4.8000001907349</ele>
        <time>2020-08-29T13:38:29.000Z</time>
      </trkpt>
      <trkpt lat="47.07299" lon="-1.7171">
        <ele>5.1999998092651</ele>
        <time>2020-08-29T13:38:31.000Z</time>
      </trkpt>
      <trkpt lat="47.07288" lon="-1.71721">
        <ele>5.4000000953674</ele>
        <time>2020-08-29T13:38:33.000Z</time>
      </trkpt>
      <trkpt lat="47.07277" lon="-1.71731">
        <ele>5.5999999046326</ele>
        <time>2020-08-29T13:38:35.000Z</time>
      </trkpt>
      <trkpt lat="47.07262" lon="-1.71748">
        <ele>5.1999998092651</ele>
        <time>2020-08-29T13:38:38.000Z</time>
      </trkpt>
      <trkpt lat="47.07246" lon="-1.71765">
        <ele>4.5999999046326</ele>
        <time>2020-08-29T13:38:41.000Z</time>
      </trkpt>
      <trkpt lat="47.07235" lon="-1.71777">
        <ele>4.5999999046326</ele>
        <time>2020-08-29T13:38:43.000Z</time>
      </trkpt>
      <trkpt lat="47.07224" lon="-1.71788">
        <ele>5</ele>
        <time>2020-08-29T13:38:45.000Z</time>
      </trkpt>
      <trkpt lat="47.07207" lon="-1.71805">
        <ele>5.5999999046326</ele>
        <time>2020-08-29T13:38:48.000Z</time>
      </trkpt>
      <trkpt lat="47.07201" lon="-1.7181">
        <ele>5.8000001907349</ele>
        <time>2020-08-29T13:38:49.000Z</time>
      </trkpt>
      <trkpt lat="47.07195" lon="-1.71816">
        <ele>6</ele>
        <time>2020-08-29T13:38:50.000Z</time>
      </trkpt>
      <trkpt lat="47.0719" lon="-1.71822">
        <ele>6.1999998092651</ele>
        <time>2020-08-29T13:38:51.000Z</time>
      </trkpt>
      <trkpt lat="47.07184" lon="-1.71828">
        <ele>6.1999998092651</ele>
        <time>2020-08-29T13:38:52.000Z</time>
      </trkpt>
      <trkpt lat="47.07151" lon="-1.71862">
        <ele>5.1999998092651</ele>
        <time>2020-08-29T13:38:58.000Z</time>
      </trkpt>
      <trkpt lat="47.07146" lon="-1.71867">
        <ele>4.5999999046326</ele>
        <time>2020-08-29T13:38:59.000Z</time>
      </trkpt>
      <trkpt lat="47.07136" lon="-1.71879">
        <ele>3.7999999523163</ele>
        <time>2020-08-29T13:39:01.000Z</time>
      </trkpt>
      <trkpt lat="47.07109" lon="-1.71908">
        <ele>1.6000000238419</ele>
        <time>2020-08-29T13:39:06.000Z</time>
      </trkpt>
      <trkpt lat="47.07069" lon="-1.71951">
        <ele>1</ele>
        <time>2020-08-29T13:39:14.000Z</time>
      </trkpt>
      <trkpt lat="47.07064" lon="-1.71956">
        <ele>1</ele>
        <time>2020-08-29T13:39:15.000Z</time>
      </trkpt>
      <trkpt lat="47.07034" lon="-1.71988">
        <ele>1</ele>
        <time>2020-08-29T13:39:21.000Z</time>
      </trkpt>
      <trkpt lat="47.07029" lon="-1.71993">
        <ele>0.80000001192093</ele>
        <time>2020-08-29T13:39:22.000Z</time>
      </trkpt>
      <trkpt lat="47.06989" lon="-1.72036">
        <ele>-1.2000000476837</ele>
        <time>2020-08-29T13:39:30.000Z</time>
      </trkpt>
      <trkpt lat="47.06979" lon="-1.72047">
        <ele>-1.2000000476837</ele>
        <time>2020-08-29T13:39:32.000Z</time>
      </trkpt>
      <trkpt lat="47.06939" lon="-1.7209">
        <ele>-2.2000000476837</ele>
        <time>2020-08-29T13:39:40.000Z</time>
      </trkpt>
      <trkpt lat="47.06934" lon="-1.72096">
        <ele>-2.4000000953674</ele>
        <time>2020-08-29T13:39:41.000Z</time>
      </trkpt>
      <trkpt lat="47.06903" lon="-1.72128">
        <ele>-3.5999999046326</ele>
        <time>2020-08-29T13:39:47.000Z</time>
      </trkpt>
      <trkpt lat="47.06871" lon="-1.72162">
        <ele>-4.1999998092651</ele>
        <time>2020-08-29T13:39:53.000Z</time>
      </trkpt>
      <trkpt lat="47.06856" lon="-1.72181">
        <ele>-4</ele>
        <time>2020-08-29T13:39:56.000Z</time>
      </trkpt>
      <trkpt lat="47.06821" lon="-1.7222">
        <ele>-4</ele>
        <time>2020-08-29T13:40:03.000Z</time>
      </trkpt>
      <trkpt lat="47.06817" lon="-1.72225">
        <ele>-4</ele>
        <time>2020-08-29T13:40:04.000Z</time>
      </trkpt>
      <trkpt lat="47.06784" lon="-1.72264">
        <ele>-3.4000000953674</ele>
        <time>2020-08-29T13:40:11.000Z</time>
      </trkpt>
      <trkpt lat="47.06771" lon="-1.72279">
        <ele>-2.7999999523163</ele>
        <time>2020-08-29T13:40:14.000Z</time>
      </trkpt>
      <trkpt lat="47.06748" lon="-1.72303">
        <ele>-2</ele>
        <time>2020-08-29T13:40:20.000Z</time>
      </trkpt>
      <trkpt lat="47.06744" lon="-1.72305">
        <ele>-2</ele>
        <time>2020-08-29T13:40:21.000Z</time>
      </trkpt>
      <trkpt lat="47.0674" lon="-1.72305">
        <ele>-2.2000000476837</ele>
        <time>2020-08-29T13:40:22.000Z</time>
      </trkpt>
      <trkpt lat="47.06733" lon="-1.72298">
        <ele>-3</ele>
        <time>2020-08-29T13:40:24.000Z</time>
      </trkpt>
      <trkpt lat="47.06726" lon="-1.7228">
        <ele>-4.5999999046326</ele>
        <time>2020-08-29T13:40:27.000Z</time>
      </trkpt>
      <trkpt lat="47.06725" lon="-1.72274">
        <ele>-5.1999998092651</ele>
        <time>2020-08-29T13:40:28.000Z</time>
      </trkpt>
      <trkpt lat="47.06719" lon="-1.72257">
        <ele>-6</ele>
        <time>2020-08-29T13:40:31.000Z</time>
      </trkpt>
      <trkpt lat="47.06713" lon="-1.72242">
        <ele>-4.5999999046326</ele>
        <time>2020-08-29T13:40:34.000Z</time>
      </trkpt>
      <trkpt lat="47.06695" lon="-1.72211">
        <ele>-6.4000000953674</ele>
        <time>2020-08-29T13:40:41.000Z</time>
      </trkpt>
      <trkpt lat="47.06679" lon="-1.72179">
        <ele>-4</ele>
        <time>2020-08-29T13:40:47.000Z</time>
      </trkpt>
      <trkpt lat="47.06675" lon="-1.72167">
        <ele>-3</ele>
        <time>2020-08-29T13:40:49.000Z</time>
      </trkpt>
      <trkpt lat="47.0667" lon="-1.72157">
        <ele>-2.2000000476837</ele>
        <time>2020-08-29T13:40:51.000Z</time>
      </trkpt>
      <trkpt lat="47.06661" lon="-1.72138">
        <ele>0.20000000298023</ele>
        <time>2020-08-29T13:40:56.000Z</time>
      </trkpt>
      <trkpt lat="47.06655" lon="-1.72132">
        <ele>0.60000002384186</ele>
        <time>2020-08-29T13:41:00.000Z</time>
      </trkpt>
      <trkpt lat="47.06652" lon="-1.72129">
        <ele>0.80000001192093</ele>
        <time>2020-08-29T13:41:02.000Z</time>
      </trkpt>
      <trkpt lat="47.06642" lon="-1.72121">
        <ele>1.3999999761581</ele>
        <time>2020-08-29T13:41:09.000Z</time>
      </trkpt>
      <trkpt lat="47.0664" lon="-1.72121">
        <ele>1.3999999761581</ele>
        <time>2020-08-29T13:41:10.000Z</time>
      </trkpt>
      <trkpt lat="47.06638" lon="-1.72121">
        <ele>1.6000000238419</ele>
        <time>2020-08-29T13:41:11.000Z</time>
      </trkpt>
      <trkpt lat="47.06633" lon="-1.72121">
        <ele>1.7999999523163</ele>
        <time>2020-08-29T13:41:13.000Z</time>
      </trkpt>
      <trkpt lat="47.0663" lon="-1.72121">
        <ele>1.7999999523163</ele>
        <time>2020-08-29T13:41:14.000Z</time>
      </trkpt>
      <trkpt lat="47.06628" lon="-1.72121">
        <ele>2</ele>
        <time>2020-08-29T13:41:15.000Z</time>
      </trkpt>
      <trkpt lat="47.06624" lon="-1.7212">
        <ele>2</ele>
        <time>2020-08-29T13:41:17.000Z</time>
      </trkpt>
      <trkpt lat="47.06618" lon="-1.7212">
        <ele>2.4000000953674</ele>
        <time>2020-08-29T13:41:20.000Z</time>
      </trkpt>
      <trkpt lat="47.0661" lon="-1.7212">
        <ele>2.5999999046326</ele>
        <time>2020-08-29T13:41:23.000Z</time>
      </trkpt>
      <trkpt lat="47.06608" lon="-1.7212">
        <ele>2.5999999046326</ele>
        <time>2020-08-29T13:41:24.000Z</time>
      </trkpt>
      <trkpt lat="47.06598" lon="-1.72122">
        <ele>2.7999999523163</ele>
        <time>2020-08-29T13:41:30.000Z</time>
      </trkpt>
      <trkpt lat="47.06597" lon="-1.72122">
        <ele>2.7999999523163</ele>
        <time>2020-08-29T13:41:31.000Z</time>
      </trkpt>
      <trkpt lat="47.06588" lon="-1.72127">
        <ele>3</ele>
        <time>2020-08-29T13:41:36.000Z</time>
      </trkpt>
      <trkpt lat="47.06567" lon="-1.72129">
        <ele>3.5999999046326</ele>
        <time>2020-08-29T13:41:42.000Z</time>
      </trkpt>
      <trkpt lat="47.06563" lon="-1.7213">
        <ele>3.5999999046326</ele>
        <time>2020-08-29T13:41:43.000Z</time>
      </trkpt>
      <trkpt lat="47.06554" lon="-1.72133">
        <ele>3.7999999523163</ele>
        <time>2020-08-29T13:41:45.000Z</time>
      </trkpt>
      <trkpt lat="47.06545" lon="-1.72138">
        <ele>4</ele>
        <time>2020-08-29T13:41:47.000Z</time>
      </trkpt>
      <trkpt lat="47.06541" lon="-1.72141">
        <ele>4</ele>
        <time>2020-08-29T13:41:48.000Z</time>
      </trkpt>
      <trkpt lat="47.06528" lon="-1.72151">
        <ele>4.1999998092651</ele>
        <time>2020-08-29T13:41:51.000Z</time>
      </trkpt>
      <trkpt lat="47.06524" lon="-1.72154">
        <ele>4.1999998092651</ele>
        <time>2020-08-29T13:41:52.000Z</time>
      </trkpt>
      <trkpt lat="47.06516" lon="-1.72161">
        <ele>4.4000000953674</ele>
        <time>2020-08-29T13:41:54.000Z</time>
      </trkpt>
      <trkpt lat="47.06505" lon="-1.7217">
        <ele>4.8000001907349</ele>
        <time>2020-08-29T13:41:57.000Z</time>
      </trkpt>
      <trkpt lat="47.06493" lon="-1.72174">
        <ele>5</ele>
        <time>2020-08-29T13:42:00.000Z</time>
      </trkpt>
      <trkpt lat="47.06485" lon="-1.72175">
        <ele>5.4000000953674</ele>
        <time>2020-08-29T13:42:02.000Z</time>
      </trkpt>
      <trkpt lat="47.06474" lon="-1.72174">
        <ele>6.1999998092651</ele>
        <time>2020-08-29T13:42:05.000Z</time>
      </trkpt>
      <trkpt lat="47.06471" lon="-1.72174">
        <ele>6.1999998092651</ele>
        <time>2020-08-29T13:42:06.000Z</time>
      </trkpt>
      <trkpt lat="47.06466" lon="-1.72172">
        <ele>6.5999999046326</ele>
        <time>2020-08-29T13:42:08.000Z</time>
      </trkpt>
      <trkpt lat="47.06459" lon="-1.7217">
        <ele>6.8000001907349</ele>
        <time>2020-08-29T13:42:11.000Z</time>
      </trkpt>
      <trkpt lat="47.06458" lon="-1.7217">
        <ele>6.8000001907349</ele>
        <time>2020-08-29T13:42:12.000Z</time>
      </trkpt>
      <trkpt lat="47.06454" lon="-1.72171">
        <ele>7</ele>
        <time>2020-08-29T13:42:19.000Z</time>
      </trkpt>
      <trkpt lat="47.06458" lon="-1.7217">
        <ele>6.8000001907349</ele>
        <time>2020-08-29T13:42:21.000Z</time>
      </trkpt>
      <trkpt lat="47.06463" lon="-1.72169">
        <ele>6.5999999046326</ele>
        <time>2020-08-29T13:42:23.000Z</time>
      </trkpt>
      <trkpt lat="47.06478" lon="-1.7217">
        <ele>5.8000001907349</ele>
        <time>2020-08-29T13:42:27.000Z</time>
      </trkpt>
      <trkpt lat="47.06487" lon="-1.72171">
        <ele>5.4000000953674</ele>
        <time>2020-08-29T13:42:30.000Z</time>
      </trkpt>
      <trkpt lat="47.06504" lon="-1.72167">
        <ele>4.8000001907349</ele>
        <time>2020-08-29T13:42:36.000Z</time>
      </trkpt>
      <trkpt lat="47.06517" lon="-1.72157">
        <ele>4.4000000953674</ele>
        <time>2020-08-29T13:42:40.000Z</time>
      </trkpt>
      <trkpt lat="47.06528" lon="-1.72146">
        <ele>4.1999998092651</ele>
        <time>2020-08-29T13:42:43.000Z</time>
      </trkpt>
      <trkpt lat="47.06555" lon="-1.72126">
        <ele>3.7999999523163</ele>
        <time>2020-08-29T13:42:49.000Z</time>
      </trkpt>
      <trkpt lat="47.06566" lon="-1.72123">
        <ele>3.5999999046326</ele>
        <time>2020-08-29T13:42:51.000Z</time>
      </trkpt>
      <trkpt lat="47.06582" lon="-1.72122">
        <ele>3.2000000476837</ele>
        <time>2020-08-29T13:42:54.000Z</time>
      </trkpt>
      <trkpt lat="47.06599" lon="-1.72119">
        <ele>2.7999999523163</ele>
        <time>2020-08-29T13:42:58.000Z</time>
      </trkpt>
      <trkpt lat="47.06612" lon="-1.72118">
        <ele>2.5999999046326</ele>
        <time>2020-08-29T13:43:01.000Z</time>
      </trkpt>
      <trkpt lat="47.06636" lon="-1.72122">
        <ele>1.6000000238419</ele>
        <time>2020-08-29T13:43:07.000Z</time>
      </trkpt>
      <trkpt lat="47.06641" lon="-1.72124">
        <ele>1.3999999761581</ele>
        <time>2020-08-29T13:43:08.000Z</time>
      </trkpt>
      <trkpt lat="47.06655" lon="-1.72133">
        <ele>0.60000002384186</ele>
        <time>2020-08-29T13:43:12.000Z</time>
      </trkpt>
      <trkpt lat="47.06662" lon="-1.72139">
        <ele>0.20000000298023</ele>
        <time>2020-08-29T13:43:16.000Z</time>
      </trkpt>
      <trkpt lat="47.06663" lon="-1.72141">
        <ele>2.8</ele>
        <time>2020-08-29T13:43:17.000Z</time>
      </trkpt>
      <trkpt lat="47.06672" lon="-1.72157">
        <ele>-2.4000000953674</ele>
        <time>2020-08-29T13:43:22.000Z</time>
      </trkpt>
      <trkpt lat="47.06681" lon="-1.72178">
        <ele>-4.4000000953674</ele>
        <time>2020-08-29T13:43:26.000Z</time>
      </trkpt>
      <trkpt lat="47.06686" lon="-1.72188">
        <ele>-5.5999999046326</ele>
        <time>2020-08-29T13:43:28.000Z</time>
      </trkpt>
      <trkpt lat="47.06704" lon="-1.72215">
        <ele>-6.1999998092651</ele>
        <time>2020-08-29T13:43:35.000Z</time>
      </trkpt>
      <trkpt lat="47.06702" lon="-1.72215">
        <ele>-6.1999998092651</ele>
        <time>2020-08-29T13:43:38.000Z</time>
      </trkpt>
      <trkpt lat="47.06694" lon="-1.72197">
        <ele>-7.1999998092651</ele>
        <time>2020-08-29T13:43:42.000Z</time>
      </trkpt>
      <trkpt lat="47.06682" lon="-1.72174">
        <ele>-4.5999999046326</ele>
        <time>2020-08-29T13:43:46.000Z</time>
      </trkpt>
      <trkpt lat="47.06676" lon="-1.72161">
        <ele>-3.2000000476837</ele>
        <time>2020-08-29T13:43:48.000Z</time>
      </trkpt>
      <trkpt lat="47.06673" lon="-1.72155">
        <ele>-2.5999999046326</ele>
        <time>2020-08-29T13:43:49.000Z</time>
      </trkpt>
      <trkpt lat="47.06666" lon="-1.72143">
        <ele>-0.20000000298023</ele>
        <time>2020-08-29T13:43:51.000Z</time>
      </trkpt>
      <trkpt lat="47.06659" lon="-1.72133">
        <ele>0.60000002384186</ele>
        <time>2020-08-29T13:43:53.000Z</time>
      </trkpt>
      <trkpt lat="47.06652" lon="-1.72123">
        <ele>1</ele>
        <time>2020-08-29T13:43:55.000Z</time>
      </trkpt>
      <trkpt lat="47.06642" lon="-1.72107">
        <ele>1.7999999523163</ele>
        <time>2020-08-29T13:43:58.000Z</time>
      </trkpt>
      <trkpt lat="47.06638" lon="-1.72098">
        <ele>2.2000000476837</ele>
        <time>2020-08-29T13:44:00.000Z</time>
      </trkpt>
      <trkpt lat="47.06637" lon="-1.72095">
        <ele>2.2000000476837</ele>
        <time>2020-08-29T13:44:01.000Z</time>
      </trkpt>
      <trkpt lat="47.06636" lon="-1.7208">
        <ele>2.4000000953674</ele>
        <time>2020-08-29T13:44:05.000Z</time>
      </trkpt>
      <trkpt lat="47.06638" lon="-1.72061">
        <ele>2.2000000476837</ele>
        <time>2020-08-29T13:44:10.000Z</time>
      </trkpt>
      <trkpt lat="47.06638" lon="-1.72057">
        <ele>2.2000000476837</ele>
        <time>2020-08-29T13:44:11.000Z</time>
      </trkpt>
      <trkpt lat="47.06638" lon="-1.72054">
        <ele>2.2000000476837</ele>
        <time>2020-08-29T13:44:12.000Z</time>
      </trkpt>
      <trkpt lat="47.06638" lon="-1.72049">
        <ele>2</ele>
        <time>2020-08-29T13:44:15.000Z</time>
      </trkpt>
      <trkpt lat="47.06638" lon="-1.72048">
        <ele>2</ele>
        <time>2020-08-29T13:44:16.000Z</time>
      </trkpt>
      <trkpt lat="47.06637" lon="-1.72044">
        <ele>2</ele>
        <time>2020-08-29T13:44:20.000Z</time>
      </trkpt>
      <trkpt lat="47.06636" lon="-1.72039">
        <ele>1.7999999523163</ele>
        <time>2020-08-29T13:44:22.000Z</time>
      </trkpt>
      <trkpt lat="47.06636" lon="-1.72036">
        <ele>1.7999999523163</ele>
        <time>2020-08-29T13:44:23.000Z</time>
      </trkpt>
      <trkpt lat="47.06634" lon="-1.72024">
        <ele>1.6000000238419</ele>
        <time>2020-08-29T13:44:26.000Z</time>
      </trkpt>
      <trkpt lat="47.06627" lon="-1.71999">
        <ele>1.3999999761581</ele>
        <time>2020-08-29T13:44:32.000Z</time>
      </trkpt>
      <trkpt lat="47.06621" lon="-1.71975">
        <ele>1.6000000238419</ele>
        <time>2020-08-29T13:44:38.000Z</time>
      </trkpt>
      <trkpt lat="47.0662" lon="-1.71972">
        <ele>1.6000000238419</ele>
        <time>2020-08-29T13:44:39.000Z</time>
      </trkpt>
      <trkpt lat="47.06616" lon="-1.71965">
        <ele>1.7999999523163</ele>
        <time>2020-08-29T13:44:42.000Z</time>
      </trkpt>
      <trkpt lat="47.06615" lon="-1.71963">
        <ele>1.7999999523163</ele>
        <time>2020-08-29T13:44:45.000Z</time>
      </trkpt>
      <trkpt lat="47.06614" lon="-1.71965">
        <ele>2</ele>
        <time>2020-08-29T13:44:54.000Z</time>
      </trkpt>
      <trkpt lat="47.06614" lon="-1.71965">
        <ele>2</ele>
        <time>2020-08-29T13:44:55.000Z</time>
      </trkpt>
      <trkpt lat="47.06614" lon="-1.71966">
        <ele>1.7999999523163</ele>
        <time>2020-08-29T13:44:56.000Z</time>
      </trkpt>
      <trkpt lat="47.06613" lon="-1.71966">
        <ele>2</ele>
        <time>2020-08-29T13:44:59.000Z</time>
      </trkpt>
      <trkpt lat="47.06613" lon="-1.71966">
        <ele>2</ele>
        <time>2020-08-29T13:45:01.000Z</time>
      </trkpt>
      <trkpt lat="47.06613" lon="-1.71967">
        <ele>2</ele>
        <time>2020-08-29T13:45:02.000Z</time>
      </trkpt>
      <trkpt lat="47.06614" lon="-1.7197">
        <ele>1.7999999523163</ele>
        <time>2020-08-29T13:45:04.000Z</time>
      </trkpt>
      <trkpt lat="47.06618" lon="-1.71977">
        <ele>1.6000000238419</ele>
        <time>2020-08-29T13:45:06.000Z</time>
      </trkpt>
      <trkpt lat="47.06622" lon="-1.71992">
        <ele>1.3999999761581</ele>
        <time>2020-08-29T13:45:09.000Z</time>
      </trkpt>
      <trkpt lat="47.06623" lon="-1.71996">
        <ele>1.3999999761581</ele>
        <time>2020-08-29T13:45:10.000Z</time>
      </trkpt>
      <trkpt lat="47.06624" lon="-1.72">
        <ele>1.3999999761581</ele>
        <time>2020-08-29T13:45:11.000Z</time>
      </trkpt>
      <trkpt lat="47.06625" lon="-1.72003">
        <ele>1.3999999761581</ele>
        <time>2020-08-29T13:45:12.000Z</time>
      </trkpt>
      <trkpt lat="47.06626" lon="-1.72006">
        <ele>1.3999999761581</ele>
        <time>2020-08-29T13:45:13.000Z</time>
      </trkpt>
      <trkpt lat="47.06627" lon="-1.72009">
        <ele>1.3999999761581</ele>
        <time>2020-08-29T13:45:14.000Z</time>
      </trkpt>
      <trkpt lat="47.0663" lon="-1.72017">
        <ele>1.3999999761581</ele>
        <time>2020-08-29T13:45:16.000Z</time>
      </trkpt>
      <trkpt lat="47.06631" lon="-1.72021">
        <ele>1.3999999761581</ele>
        <time>2020-08-29T13:45:17.000Z</time>
      </trkpt>
      <trkpt lat="47.06633" lon="-1.72025">
        <ele>1.6000000238419</ele>
        <time>2020-08-29T13:45:18.000Z</time>
      </trkpt>
      <trkpt lat="47.06636" lon="-1.72045">
        <ele>2</ele>
        <time>2020-08-29T13:45:23.000Z</time>
      </trkpt>
      <trkpt lat="47.06637" lon="-1.7205">
        <ele>2</ele>
        <time>2020-08-29T13:45:25.000Z</time>
      </trkpt>
      <trkpt lat="47.06638" lon="-1.72058">
        <ele>2.2000000476837</ele>
        <time>2020-08-29T13:45:27.000Z</time>
      </trkpt>
      <trkpt lat="47.06639" lon="-1.72067">
        <ele>2.4000000953674</ele>
        <time>2020-08-29T13:45:29.000Z</time>
      </trkpt>
      <trkpt lat="47.06638" lon="-1.72082">
        <ele>2.4000000953674</ele>
        <time>2020-08-29T13:45:32.000Z</time>
      </trkpt>
      <trkpt lat="47.06638" lon="-1.72087">
        <ele>2.4000000953674</ele>
        <time>2020-08-29T13:45:33.000Z</time>
      </trkpt>
      <trkpt lat="47.06637" lon="-1.72092">
        <ele>2.2000000476837</ele>
        <time>2020-08-29T13:45:34.000Z</time>
      </trkpt>
      <trkpt lat="47.06635" lon="-1.72096">
        <ele>2.2000000476837</ele>
        <time>2020-08-29T13:45:35.000Z</time>
      </trkpt>
      <trkpt lat="47.06633" lon="-1.72101">
        <ele>2.2000000476837</ele>
        <time>2020-08-29T13:45:36.000Z</time>
      </trkpt>
      <trkpt lat="47.06624" lon="-1.7211">
        <ele>2.4000000953674</ele>
        <time>2020-08-29T13:45:39.000Z</time>
      </trkpt>
      <trkpt lat="47.06614" lon="-1.72117">
        <ele>2.5999999046326</ele>
        <time>2020-08-29T13:45:42.000Z</time>
      </trkpt>
      <trkpt lat="47.06603" lon="-1.72121">
        <ele>2.7999999523163</ele>
        <time>2020-08-29T13:45:45.000Z</time>
      </trkpt>
      <trkpt lat="47.06591" lon="-1.72123">
        <ele>3</ele>
        <time>2020-08-29T13:45:48.000Z</time>
      </trkpt>
      <trkpt lat="47.06576" lon="-1.72125">
        <ele>3.4000000953674</ele>
        <time>2020-08-29T13:45:52.000Z</time>
      </trkpt>
      <trkpt lat="47.06568" lon="-1.72126">
        <ele>3.5999999046326</ele>
        <time>2020-08-29T13:45:54.000Z</time>
      </trkpt>
      <trkpt lat="47.06564" lon="-1.72127">
        <ele>3.5999999046326</ele>
        <time>2020-08-29T13:45:55.000Z</time>
      </trkpt>
      <trkpt lat="47.06556" lon="-1.72131">
        <ele>3.7999999523163</ele>
        <time>2020-08-29T13:45:57.000Z</time>
      </trkpt>
      <trkpt lat="47.06552" lon="-1.72133">
        <ele>3.7999999523163</ele>
        <time>2020-08-29T13:45:58.000Z</time>
      </trkpt>
      <trkpt lat="47.0654" lon="-1.72141">
        <ele>4</ele>
        <time>2020-08-29T13:46:01.000Z</time>
      </trkpt>
      <trkpt lat="47.06525" lon="-1.72153">
        <ele>4.1999998092651</ele>
        <time>2020-08-29T13:46:05.000Z</time>
      </trkpt>
      <trkpt lat="47.06514" lon="-1.72162">
        <ele>4.4000000953674</ele>
        <time>2020-08-29T13:46:08.000Z</time>
      </trkpt>
      <trkpt lat="47.06497" lon="-1.72174">
        <ele>4.8000001907349</ele>
        <time>2020-08-29T13:46:13.000Z</time>
      </trkpt>
      <trkpt lat="47.06482" lon="-1.72175">
        <ele>5.5999999046326</ele>
        <time>2020-08-29T13:46:17.000Z</time>
      </trkpt>
      <trkpt lat="47.06474" lon="-1.72174">
        <ele>6.1999998092651</ele>
        <time>2020-08-29T13:46:19.000Z</time>
      </trkpt>
      <trkpt lat="47.0647" lon="-1.72173">
        <ele>6.4000000953674</ele>
        <time>2020-08-29T13:46:20.000Z</time>
      </trkpt>
      <trkpt lat="47.06451" lon="-1.72177">
        <ele>7.4000000953674</ele>
        <time>2020-08-29T13:46:25.000Z</time>
      </trkpt>
      <trkpt lat="47.06444" lon="-1.72184">
        <ele>7.5999999046326</ele>
        <time>2020-08-29T13:46:27.000Z</time>
      </trkpt>
      <trkpt lat="47.06436" lon="-1.72198">
        <ele>8.1999998092651</ele>
        <time>2020-08-29T13:46:30.000Z</time>
      </trkpt>
      <trkpt lat="47.06429" lon="-1.72213">
        <ele>8.8000001907349</ele>
        <time>2020-08-29T13:46:33.000Z</time>
      </trkpt>
      <trkpt lat="47.0642" lon="-1.72233">
        <ele>9.3999996185303</ele>
        <time>2020-08-29T13:46:37.000Z</time>
      </trkpt>
      <trkpt lat="47.06417" lon="-1.72238">
        <ele>9.3999996185303</ele>
        <time>2020-08-29T13:46:38.000Z</time>
      </trkpt>
      <trkpt lat="47.06396" lon="-1.72281">
        <ele>8.8000001907349</ele>
        <time>2020-08-29T13:46:47.000Z</time>
      </trkpt>
      <trkpt lat="47.0639" lon="-1.7229">
        <ele>8.8000001907349</ele>
        <time>2020-08-29T13:46:49.000Z</time>
      </trkpt>
      <trkpt lat="47.06378" lon="-1.72307">
        <ele>8.6000003814697</ele>
        <time>2020-08-29T13:46:53.000Z</time>
      </trkpt>
      <trkpt lat="47.06374" lon="-1.72312">
        <ele>8.6000003814697</ele>
        <time>2020-08-29T13:46:54.000Z</time>
      </trkpt>
      <trkpt lat="47.06371" lon="-1.72316">
        <ele>8.6000003814697</ele>
        <time>2020-08-29T13:46:55.000Z</time>
      </trkpt>
      <trkpt lat="47.06363" lon="-1.72325">
        <ele>8.6000003814697</ele>
        <time>2020-08-29T13:46:57.000Z</time>
      </trkpt>
      <trkpt lat="47.06351" lon="-1.72336">
        <ele>8.8000001907349</ele>
        <time>2020-08-29T13:47:00.000Z</time>
      </trkpt>
      <trkpt lat="47.06343" lon="-1.72343">
        <ele>8.8000001907349</ele>
        <time>2020-08-29T13:47:02.000Z</time>
      </trkpt>
      <trkpt lat="47.06339" lon="-1.72347">
        <ele>9</ele>
        <time>2020-08-29T13:47:03.000Z</time>
      </trkpt>
      <trkpt lat="47.0633" lon="-1.72354">
        <ele>9</ele>
        <time>2020-08-29T13:47:05.000Z</time>
      </trkpt>
      <trkpt lat="47.06318" lon="-1.72364">
        <ele>9.3999996185303</ele>
        <time>2020-08-29T13:47:08.000Z</time>
      </trkpt>
      <trkpt lat="47.06305" lon="-1.72375">
        <ele>9.8000001907349</ele>
        <time>2020-08-29T13:47:11.000Z</time>
      </trkpt>
      <trkpt lat="47.063" lon="-1.72377">
        <ele>9.8000001907349</ele>
        <time>2020-08-29T13:47:12.000Z</time>
      </trkpt>
      <trkpt lat="47.06279" lon="-1.72386">
        <ele>10.60000038147</ele>
        <time>2020-08-29T13:47:17.000Z</time>
      </trkpt>
      <trkpt lat="47.06261" lon="-1.7238">
        <ele>11.60000038147</ele>
        <time>2020-08-29T13:47:22.000Z</time>
      </trkpt>
      <trkpt lat="47.06225" lon="-1.72366">
        <ele>12.60000038147</ele>
        <time>2020-08-29T13:47:30.000Z</time>
      </trkpt>
      <trkpt lat="47.06221" lon="-1.72364">
        <ele>12.800000190735</ele>
        <time>2020-08-29T13:47:31.000Z</time>
      </trkpt>
      <trkpt lat="47.06215" lon="-1.7236">
        <ele>13</ele>
        <time>2020-08-29T13:47:33.000Z</time>
      </trkpt>
      <trkpt lat="47.06214" lon="-1.72356">
        <ele>13</ele>
        <time>2020-08-29T13:47:34.000Z</time>
      </trkpt>
      <trkpt lat="47.06214" lon="-1.72351">
        <ele>13</ele>
        <time>2020-08-29T13:47:35.000Z</time>
      </trkpt>
      <trkpt lat="47.06217" lon="-1.72341">
        <ele>12.800000190735</ele>
        <time>2020-08-29T13:47:37.000Z</time>
      </trkpt>
      <trkpt lat="47.0622" lon="-1.72335">
        <ele>12.800000190735</ele>
        <time>2020-08-29T13:47:38.000Z</time>
      </trkpt>
      <trkpt lat="47.06232" lon="-1.72314">
        <ele>12.199999809265</ele>
        <time>2020-08-29T13:47:42.000Z</time>
      </trkpt>
      <trkpt lat="47.06239" lon="-1.72303">
        <ele>12</ele>
        <time>2020-08-29T13:47:44.000Z</time>
      </trkpt>
      <trkpt lat="47.06245" lon="-1.72293">
        <ele>12</ele>
        <time>2020-08-29T13:47:46.000Z</time>
      </trkpt>
      <trkpt lat="47.06248" lon="-1.72287">
        <ele>12</ele>
        <time>2020-08-29T13:47:47.000Z</time>
      </trkpt>
      <trkpt lat="47.06254" lon="-1.72277">
        <ele>11.800000190735</ele>
        <time>2020-08-29T13:47:49.000Z</time>
      </trkpt>
      <trkpt lat="47.0626" lon="-1.72266">
        <ele>11.800000190735</ele>
        <time>2020-08-29T13:47:51.000Z</time>
      </trkpt>
      <trkpt lat="47.0627" lon="-1.72249">
        <ele>11.60000038147</ele>
        <time>2020-08-29T13:47:54.000Z</time>
      </trkpt>
      <trkpt lat="47.06281" lon="-1.72232">
        <ele>11.60000038147</ele>
        <time>2020-08-29T13:47:57.000Z</time>
      </trkpt>
      <trkpt lat="47.06287" lon="-1.72221">
        <ele>11.39999961853</ele>
        <time>2020-08-29T13:47:59.000Z</time>
      </trkpt>
      <trkpt lat="47.06294" lon="-1.7221">
        <ele>11.39999961853</ele>
        <time>2020-08-29T13:48:01.000Z</time>
      </trkpt>
      <trkpt lat="47.06306" lon="-1.72186">
        <ele>11.199999809265</ele>
        <time>2020-08-29T13:48:05.000Z</time>
      </trkpt>
      <trkpt lat="47.06308" lon="-1.7218">
        <ele>11.199999809265</ele>
        <time>2020-08-29T13:48:06.000Z</time>
      </trkpt>
      <trkpt lat="47.0631" lon="-1.72174">
        <ele>11.199999809265</ele>
        <time>2020-08-29T13:48:07.000Z</time>
      </trkpt>
      <trkpt lat="47.06318" lon="-1.72138">
        <ele>11</ele>
        <time>2020-08-29T13:48:12.000Z</time>
      </trkpt>
      <trkpt lat="47.0632" lon="-1.7213">
        <ele>10.800000190735</ele>
        <time>2020-08-29T13:48:13.000Z</time>
      </trkpt>
      <trkpt lat="47.06327" lon="-1.72094">
        <ele>10.199999809265</ele>
        <time>2020-08-29T13:48:18.000Z</time>
      </trkpt>
      <trkpt lat="47.06331" lon="-1.7208">
        <ele>10</ele>
        <time>2020-08-29T13:48:20.000Z</time>
      </trkpt>
      <trkpt lat="47.06344" lon="-1.72007">
        <ele>8.8000001907349</ele>
        <time>2020-08-29T13:48:29.000Z</time>
      </trkpt>
      <trkpt lat="47.06345" lon="-1.71954">
        <ele>8.1999998092651</ele>
        <time>2020-08-29T13:48:35.000Z</time>
      </trkpt>
      <trkpt lat="47.06344" lon="-1.71945">
        <ele>8</ele>
        <time>2020-08-29T13:48:36.000Z</time>
      </trkpt>
      <trkpt lat="47.06343" lon="-1.71936">
        <ele>8</ele>
        <time>2020-08-29T13:48:37.000Z</time>
      </trkpt>
      <trkpt lat="47.06342" lon="-1.71918">
        <ele>7.8000001907349</ele>
        <time>2020-08-29T13:48:39.000Z</time>
      </trkpt>
      <trkpt lat="47.06336" lon="-1.71882">
        <ele>7.8000001907349</ele>
        <time>2020-08-29T13:48:43.000Z</time>
      </trkpt>
      <trkpt lat="47.06335" lon="-1.71874">
        <ele>7.5999999046326</ele>
        <time>2020-08-29T13:48:44.000Z</time>
      </trkpt>
      <trkpt lat="47.06322" lon="-1.71805">
        <ele>6.8000001907349</ele>
        <time>2020-08-29T13:48:52.000Z</time>
      </trkpt>
      <trkpt lat="47.06309" lon="-1.71735">
        <ele>5.8000001907349</ele>
        <time>2020-08-29T13:49:00.000Z</time>
      </trkpt>
      <trkpt lat="47.06304" lon="-1.71707">
        <ele>5.4000000953674</ele>
        <time>2020-08-29T13:49:03.000Z</time>
      </trkpt>
      <trkpt lat="47.06286" lon="-1.71634">
        <ele>4.8000001907349</ele>
        <time>2020-08-29T13:49:11.000Z</time>
      </trkpt>
      <trkpt lat="47.06281" lon="-1.71621">
        <ele>4.5999999046326</ele>
        <time>2020-08-29T13:49:13.000Z</time>
      </trkpt>
      <trkpt lat="47.06272" lon="-1.71608">
        <ele>4.1999998092651</ele>
        <time>2020-08-29T13:49:16.000Z</time>
      </trkpt>
      <trkpt lat="47.06267" lon="-1.71601">
        <ele>4</ele>
        <time>2020-08-29T13:49:18.000Z</time>
      </trkpt>
      <trkpt lat="47.06262" lon="-1.71594">
        <ele>3.7999999523163</ele>
        <time>2020-08-29T13:49:20.000Z</time>
      </trkpt>
      <trkpt lat="47.06251" lon="-1.71581">
        <ele>3.4000000953674</ele>
        <time>2020-08-29T13:49:24.000Z</time>
      </trkpt>
      <trkpt lat="47.06244" lon="-1.71573">
        <ele>3</ele>
        <time>2020-08-29T13:49:26.000Z</time>
      </trkpt>
      <trkpt lat="47.06232" lon="-1.7156">
        <ele>3</ele>
        <time>2020-08-29T13:49:29.000Z</time>
      </trkpt>
      <trkpt lat="47.06224" lon="-1.7155">
        <ele>3</ele>
        <time>2020-08-29T13:49:31.000Z</time>
      </trkpt>
      <trkpt lat="47.06208" lon="-1.71532">
        <ele>3</ele>
        <time>2020-08-29T13:49:35.000Z</time>
      </trkpt>
      <trkpt lat="47.06204" lon="-1.71529">
        <ele>3</ele>
        <time>2020-08-29T13:49:36.000Z</time>
      </trkpt>
      <trkpt lat="47.06199" lon="-1.71528">
        <ele>3</ele>
        <time>2020-08-29T13:49:37.000Z</time>
      </trkpt>
      <trkpt lat="47.06194" lon="-1.71528">
        <ele>3</ele>
        <time>2020-08-29T13:49:38.000Z</time>
      </trkpt>
      <trkpt lat="47.0619" lon="-1.7153">
        <ele>3.2000000476837</ele>
        <time>2020-08-29T13:49:39.000Z</time>
      </trkpt>
      <trkpt lat="47.06186" lon="-1.71534">
        <ele>3.2000000476837</ele>
        <time>2020-08-29T13:49:40.000Z</time>
      </trkpt>
      <trkpt lat="47.06168" lon="-1.71567">
        <ele>3.7999999523163</ele>
        <time>2020-08-29T13:49:46.000Z</time>
      </trkpt>
      <trkpt lat="47.06165" lon="-1.71573">
        <ele>4</ele>
        <time>2020-08-29T13:49:47.000Z</time>
      </trkpt>
      <trkpt lat="47.06162" lon="-1.71579">
        <ele>3.7999999523163</ele>
        <time>2020-08-29T13:49:48.000Z</time>
      </trkpt>
      <trkpt lat="47.06155" lon="-1.71591">
        <ele>3.7999999523163</ele>
        <time>2020-08-29T13:49:50.000Z</time>
      </trkpt>
      <trkpt lat="47.06145" lon="-1.71609">
        <ele>3.7999999523163</ele>
        <time>2020-08-29T13:49:53.000Z</time>
      </trkpt>
      <trkpt lat="47.06142" lon="-1.71615">
        <ele>3.5999999046326</ele>
        <time>2020-08-29T13:49:54.000Z</time>
      </trkpt>
      <trkpt lat="47.06129" lon="-1.71639">
        <ele>3.5999999046326</ele>
        <time>2020-08-29T13:49:58.000Z</time>
      </trkpt>
      <trkpt lat="47.06123" lon="-1.7165">
        <ele>3.4000000953674</ele>
        <time>2020-08-29T13:50:00.000Z</time>
      </trkpt>
      <trkpt lat="47.0612" lon="-1.71656">
        <ele>3.5999999046326</ele>
        <time>2020-08-29T13:50:01.000Z</time>
      </trkpt>
      <trkpt lat="47.06117" lon="-1.71663">
        <ele>3.5999999046326</ele>
        <time>2020-08-29T13:50:02.000Z</time>
      </trkpt>
      <trkpt lat="47.06111" lon="-1.71675">
        <ele>3.7999999523163</ele>
        <time>2020-08-29T13:50:04.000Z</time>
      </trkpt>
      <trkpt lat="47.06101" lon="-1.71692">
        <ele>4.1999998092651</ele>
        <time>2020-08-29T13:50:07.000Z</time>
      </trkpt>
      <trkpt lat="47.06094" lon="-1.71704">
        <ele>4.4000000953674</ele>
        <time>2020-08-29T13:50:09.000Z</time>
      </trkpt>
      <trkpt lat="47.06091" lon="-1.71709">
        <ele>4.4000000953674</ele>
        <time>2020-08-29T13:50:10.000Z</time>
      </trkpt>
      <trkpt lat="47.06082" lon="-1.71726">
        <ele>4.8000001907349</ele>
        <time>2020-08-29T13:50:13.000Z</time>
      </trkpt>
      <trkpt lat="47.06075" lon="-1.71732">
        <ele>5</ele>
        <time>2020-08-29T13:50:15.000Z</time>
      </trkpt>
      <trkpt lat="47.06071" lon="-1.71731">
        <ele>5</ele>
        <time>2020-08-29T13:50:16.000Z</time>
      </trkpt>
      <trkpt lat="47.06066" lon="-1.71721">
        <ele>5</ele>
        <time>2020-08-29T13:50:18.000Z</time>
      </trkpt>
      <trkpt lat="47.06057" lon="-1.71692">
        <ele>4.5999999046326</ele>
        <time>2020-08-29T13:50:22.000Z</time>
      </trkpt>
      <trkpt lat="47.06055" lon="-1.71684">
        <ele>4.5999999046326</ele>
        <time>2020-08-29T13:50:23.000Z</time>
      </trkpt>
      <trkpt lat="47.06042" lon="-1.71617">
        <ele>4</ele>
        <time>2020-08-29T13:50:31.000Z</time>
      </trkpt>
      <trkpt lat="47.0604" lon="-1.71608">
        <ele>3.7999999523163</ele>
        <time>2020-08-29T13:50:32.000Z</time>
      </trkpt>
      <trkpt lat="47.06036" lon="-1.71583">
        <ele>3.5999999046326</ele>
        <time>2020-08-29T13:50:35.000Z</time>
      </trkpt>
      <trkpt lat="47.0603" lon="-1.71548">
        <ele>3</ele>
        <time>2020-08-29T13:50:39.000Z</time>
      </trkpt>
      <trkpt lat="47.06018" lon="-1.71491">
        <ele>3</ele>
        <time>2020-08-29T13:50:46.000Z</time>
      </trkpt>
      <trkpt lat="47.06012" lon="-1.71467">
        <ele>3.4000000953674</ele>
        <time>2020-08-29T13:50:49.000Z</time>
      </trkpt>
      <trkpt lat="47.06001" lon="-1.71427">
        <ele>3</ele>
        <time>2020-08-29T13:50:54.000Z</time>
      </trkpt>
      <trkpt lat="47.05997" lon="-1.71411">
        <ele>3</ele>
        <time>2020-08-29T13:50:56.000Z</time>
      </trkpt>
      <trkpt lat="47.05988" lon="-1.71378">
        <ele>2.5999999046326</ele>
        <time>2020-08-29T13:51:00.000Z</time>
      </trkpt>
      <trkpt lat="47.05984" lon="-1.71362">
        <ele>2.2000000476837</ele>
        <time>2020-08-29T13:51:02.000Z</time>
      </trkpt>
      <trkpt lat="47.05981" lon="-1.71348">
        <ele>2</ele>
        <time>2020-08-29T13:51:04.000Z</time>
      </trkpt>
      <trkpt lat="47.05979" lon="-1.71336">
        <ele>1.7999999523163</ele>
        <time>2020-08-29T13:51:06.000Z</time>
      </trkpt>
      <trkpt lat="47.05978" lon="-1.7133">
        <ele>1.7999999523163</ele>
        <time>2020-08-29T13:51:07.000Z</time>
      </trkpt>
      <trkpt lat="47.05977" lon="-1.71317">
        <ele>1.7999999523163</ele>
        <time>2020-08-29T13:51:09.000Z</time>
      </trkpt>
      <trkpt lat="47.05977" lon="-1.7131">
        <ele>1.7999999523163</ele>
        <time>2020-08-29T13:51:10.000Z</time>
      </trkpt>
      <trkpt lat="47.05978" lon="-1.71296">
        <ele>2</ele>
        <time>2020-08-29T13:51:12.000Z</time>
      </trkpt>
      <trkpt lat="47.05979" lon="-1.71289">
        <ele>2</ele>
        <time>2020-08-29T13:51:13.000Z</time>
      </trkpt>
      <trkpt lat="47.05981" lon="-1.71265">
        <ele>2.2000000476837</ele>
        <time>2020-08-29T13:51:16.000Z</time>
      </trkpt>
      <trkpt lat="47.05985" lon="-1.71241">
        <ele>2.2000000476837</ele>
        <time>2020-08-29T13:51:19.000Z</time>
      </trkpt>
      <trkpt lat="47.05989" lon="-1.71217">
        <ele>2.4000000953674</ele>
        <time>2020-08-29T13:51:22.000Z</time>
      </trkpt>
      <trkpt lat="47.05991" lon="-1.712">
        <ele>2.5999999046326</ele>
        <time>2020-08-29T13:51:24.000Z</time>
      </trkpt>
      <trkpt lat="47.0599" lon="-1.71192">
        <ele>2.5999999046326</ele>
        <time>2020-08-29T13:51:25.000Z</time>
      </trkpt>
      <trkpt lat="47.0599" lon="-1.71184">
        <ele>2.7999999523163</ele>
        <time>2020-08-29T13:51:26.000Z</time>
      </trkpt>
      <trkpt lat="47.05983" lon="-1.71126">
        <ele>3.4000000953674</ele>
        <time>2020-08-29T13:51:33.000Z</time>
      </trkpt>
      <trkpt lat="47.05978" lon="-1.71079">
        <ele>3.5999999046326</ele>
        <time>2020-08-29T13:51:39.000Z</time>
      </trkpt>
      <trkpt lat="47.05974" lon="-1.71056">
        <ele>3.4000000953674</ele>
        <time>2020-08-29T13:51:42.000Z</time>
      </trkpt>
      <trkpt lat="47.05963" lon="-1.71013">
        <ele>3.4000000953674</ele>
        <time>2020-08-29T13:51:48.000Z</time>
      </trkpt>
      <trkpt lat="47.05962" lon="-1.71008">
        <ele>3.4000000953674</ele>
        <time>2020-08-29T13:51:49.000Z</time>
      </trkpt>
      <trkpt lat="47.0596" lon="-1.71003">
        <ele>3.4000000953674</ele>
        <time>2020-08-29T13:51:51.000Z</time>
      </trkpt>
      <trkpt lat="47.0596" lon="-1.71003">
        <ele>3.4000000953674</ele>
        <time>2020-08-29T13:51:52.000Z</time>
      </trkpt>
      <trkpt lat="47.05959" lon="-1.71008">
        <ele>3.4000000953674</ele>
        <time>2020-08-29T13:51:57.000Z</time>
      </trkpt>
      <trkpt lat="47.05964" lon="-1.71021">
        <ele>3.4000000953674</ele>
        <time>2020-08-29T13:52:02.000Z</time>
      </trkpt>
      <trkpt lat="47.05965" lon="-1.71026">
        <ele>3.4000000953674</ele>
        <time>2020-08-29T13:52:03.000Z</time>
      </trkpt>
      <trkpt lat="47.05972" lon="-1.71055">
        <ele>3.5999999046326</ele>
        <time>2020-08-29T13:52:08.000Z</time>
      </trkpt>
      <trkpt lat="47.05981" lon="-1.71101">
        <ele>3.4000000953674</ele>
        <time>2020-08-29T13:52:15.000Z</time>
      </trkpt>
      <trkpt lat="47.05991" lon="-1.71157">
        <ele>3</ele>
        <time>2020-08-29T13:52:23.000Z</time>
      </trkpt>
      <trkpt lat="47.05992" lon="-1.71164">
        <ele>2.7999999523163</ele>
        <time>2020-08-29T13:52:24.000Z</time>
      </trkpt>
      <trkpt lat="47.05994" lon="-1.71178">
        <ele>2.5999999046326</ele>
        <time>2020-08-29T13:52:26.000Z</time>
      </trkpt>
      <trkpt lat="47.05995" lon="-1.71185">
        <ele>2.5999999046326</ele>
        <time>2020-08-29T13:52:27.000Z</time>
      </trkpt>
      <trkpt lat="47.05995" lon="-1.71192">
        <ele>2.5999999046326</ele>
        <time>2020-08-29T13:52:28.000Z</time>
      </trkpt>
      <trkpt lat="47.05995" lon="-1.71205">
        <ele>2.4000000953674</ele>
        <time>2020-08-29T13:52:30.000Z</time>
      </trkpt>
      <trkpt lat="47.05994" lon="-1.71219">
        <ele>2.2000000476837</ele>
        <time>2020-08-29T13:52:32.000Z</time>
      </trkpt>
      <trkpt lat="47.05991" lon="-1.71234">
        <ele>2</ele>
        <time>2020-08-29T13:52:34.000Z</time>
      </trkpt>
      <trkpt lat="47.05989" lon="-1.7125">
        <ele>2</ele>
        <time>2020-08-29T13:52:36.000Z</time>
      </trkpt>
      <trkpt lat="47.05984" lon="-1.71281">
        <ele>2</ele>
        <time>2020-08-29T13:52:40.000Z</time>
      </trkpt>
      <trkpt lat="47.05983" lon="-1.71288">
        <ele>1.7999999523163</ele>
        <time>2020-08-29T13:52:41.000Z</time>
      </trkpt>
      <trkpt lat="47.05981" lon="-1.71308">
        <ele>1.7999999523163</ele>
        <time>2020-08-29T13:52:44.000Z</time>
      </trkpt>
      <trkpt lat="47.05981" lon="-1.71336">
        <ele>1.7999999523163</ele>
        <time>2020-08-29T13:52:49.000Z</time>
      </trkpt>
      <trkpt lat="47.05984" lon="-1.71352">
        <ele>2</ele>
        <time>2020-08-29T13:52:54.000Z</time>
      </trkpt>
      <trkpt lat="47.05984" lon="-1.71353">
        <ele>2.2000000476837</ele>
        <time>2020-08-29T13:53:00.000Z</time>
      </trkpt>
      <trkpt lat="47.05983" lon="-1.71351">
        <ele>2</ele>
        <time>2020-08-29T13:53:03.000Z</time>
      </trkpt>
      <trkpt lat="47.05981" lon="-1.71346">
        <ele>2</ele>
        <time>2020-08-29T13:53:05.000Z</time>
      </trkpt>
      <trkpt lat="47.0598" lon="-1.71342">
        <ele>2</ele>
        <time>2020-08-29T13:53:06.000Z</time>
      </trkpt>
      <trkpt lat="47.05979" lon="-1.71337">
        <ele>1.7999999523163</ele>
        <time>2020-08-29T13:53:07.000Z</time>
      </trkpt>
      <trkpt lat="47.05978" lon="-1.71332">
        <ele>1.7999999523163</ele>
        <time>2020-08-29T13:53:08.000Z</time>
      </trkpt>
      <trkpt lat="47.05977" lon="-1.71323">
        <ele>1.7999999523163</ele>
        <time>2020-08-29T13:53:10.000Z</time>
      </trkpt>
      <trkpt lat="47.05977" lon="-1.71319">
        <ele>1.7999999523163</ele>
        <time>2020-08-29T13:53:11.000Z</time>
      </trkpt>
      <trkpt lat="47.05977" lon="-1.71308">
        <ele>1.7999999523163</ele>
        <time>2020-08-29T13:53:14.000Z</time>
      </trkpt>
      <trkpt lat="47.05977" lon="-1.71294">
        <ele>2</ele>
        <time>2020-08-29T13:53:17.000Z</time>
      </trkpt>
      <trkpt lat="47.05977" lon="-1.71281">
        <ele>2.2000000476837</ele>
        <time>2020-08-29T13:53:19.000Z</time>
      </trkpt>
      <trkpt lat="47.05981" lon="-1.7126">
        <ele>2.4000000953674</ele>
        <time>2020-08-29T13:53:22.000Z</time>
      </trkpt>
      <trkpt lat="47.05985" lon="-1.71231">
        <ele>2.4000000953674</ele>
        <time>2020-08-29T13:53:26.000Z</time>
      </trkpt>
      <trkpt lat="47.05988" lon="-1.71215">
        <ele>2.4000000953674</ele>
        <time>2020-08-29T13:53:28.000Z</time>
      </trkpt>
      <trkpt lat="47.05988" lon="-1.71206">
        <ele>2.5999999046326</ele>
        <time>2020-08-29T13:53:29.000Z</time>
      </trkpt>
      <trkpt lat="47.05985" lon="-1.71164">
        <ele>3.2000000476837</ele>
        <time>2020-08-29T13:53:34.000Z</time>
      </trkpt>
      <trkpt lat="47.05984" lon="-1.71155">
        <ele>3.2000000476837</ele>
        <time>2020-08-29T13:53:35.000Z</time>
      </trkpt>
      <trkpt lat="47.05981" lon="-1.7113">
        <ele>3.4000000953674</ele>
        <time>2020-08-29T13:53:38.000Z</time>
      </trkpt>
      <trkpt lat="47.05979" lon="-1.71097">
        <ele>3.5999999046326</ele>
        <time>2020-08-29T13:53:42.000Z</time>
      </trkpt>
      <trkpt lat="47.05976" lon="-1.71072">
        <ele>3.5999999046326</ele>
        <time>2020-08-29T13:53:45.000Z</time>
      </trkpt>
      <trkpt lat="47.05975" lon="-1.71064">
        <ele>3.5999999046326</ele>
        <time>2020-08-29T13:53:46.000Z</time>
      </trkpt>
      <trkpt lat="47.05973" lon="-1.71057">
        <ele>3.5999999046326</ele>
        <time>2020-08-29T13:53:47.000Z</time>
      </trkpt>
      <trkpt lat="47.0597" lon="-1.71042">
        <ele>3.4000000953674</ele>
        <time>2020-08-29T13:53:49.000Z</time>
      </trkpt>
      <trkpt lat="47.0596" lon="-1.71006">
        <ele>3.4000000953674</ele>
        <time>2020-08-29T13:53:55.000Z</time>
      </trkpt>
      <trkpt lat="47.05956" lon="-1.71001">
        <ele>3.4000000953674</ele>
        <time>2020-08-29T13:53:57.000Z</time>
      </trkpt>
      <trkpt lat="47.05953" lon="-1.71">
        <ele>3.5999999046326</ele>
        <time>2020-08-29T13:53:59.000Z</time>
      </trkpt>
      <trkpt lat="47.0595" lon="-1.70999">
        <ele>3.5999999046326</ele>
        <time>2020-08-29T13:54:01.000Z</time>
      </trkpt>
      <trkpt lat="47.05949" lon="-1.71">
        <ele>3.7999999523163</ele>
        <time>2020-08-29T13:54:02.000Z</time>
      </trkpt>
      <trkpt lat="47.05949" lon="-1.71001">
        <ele>3.7999999523163</ele>
        <time>2020-08-29T13:54:03.000Z</time>
      </trkpt>
      <trkpt lat="47.05948" lon="-1.71001">
        <ele>3.7999999523163</ele>
        <time>2020-08-29T13:54:04.000Z</time>
      </trkpt>
      <trkpt lat="47.05952" lon="-1.70996">
        <ele>3.5999999046326</ele>
        <time>2020-08-29T13:54:10.000Z</time>
      </trkpt>
      <trkpt lat="47.05953" lon="-1.70995">
        <ele>3.5999999046326</ele>
        <time>2020-08-29T13:54:11.000Z</time>
      </trkpt>
      <trkpt lat="47.05954" lon="-1.70993">
        <ele>3.4000000953674</ele>
        <time>2020-08-29T13:54:13.000Z</time>
      </trkpt>
      <trkpt lat="47.05956" lon="-1.70992">
        <ele>3.4000000953674</ele>
        <time>2020-08-29T13:54:20.000Z</time>
      </trkpt>
      <trkpt lat="47.05961" lon="-1.70998">
        <ele>3.2000000476837</ele>
        <time>2020-08-29T13:54:28.000Z</time>
      </trkpt>
      <trkpt lat="47.0596" lon="-1.71001">
        <ele>3.4000000953674</ele>
        <time>2020-08-29T13:54:33.000Z</time>
      </trkpt>
      <trkpt lat="47.0596" lon="-1.71002">
        <ele>3.4000000953674</ele>
        <time>2020-08-29T13:54:35.000Z</time>
      </trkpt>
      <trkpt lat="47.05954" lon="-1.71">
        <ele>3.5999999046326</ele>
        <time>2020-08-29T13:54:44.000Z</time>
      </trkpt>
      <trkpt lat="47.05953" lon="-1.71002">
        <ele>3.5999999046326</ele>
        <time>2020-08-29T13:54:46.000Z</time>
      </trkpt>
      <trkpt lat="47.05952" lon="-1.71004">
        <ele>3.5999999046326</ele>
        <time>2020-08-29T13:54:48.000Z</time>
      </trkpt>
      <trkpt lat="47.05951" lon="-1.71004">
        <ele>3.7999999523163</ele>
        <time>2020-08-29T13:54:50.000Z</time>
      </trkpt>
      <trkpt lat="47.05924" lon="-1.70949">
        <ele>4</ele>
        <time>2020-08-29T13:56:16.000Z</time>
      </trkpt>
      <trkpt lat="47.05923" lon="-1.70948">
        <ele>4</ele>
        <time>2020-08-29T13:56:17.000Z</time>
      </trkpt>
      <trkpt lat="47.05922" lon="-1.70947">
        <ele>4</ele>
        <time>2020-08-29T13:56:19.000Z</time>
      </trkpt>
      <trkpt lat="47.05916" lon="-1.70937">
        <ele>4.5999999046326</ele>
        <time>2020-08-29T13:56:25.000Z</time>
      </trkpt>
      <trkpt lat="47.05907" lon="-1.70926">
        <ele>5</ele>
        <time>2020-08-29T13:56:30.000Z</time>
      </trkpt>
      <trkpt lat="47.05905" lon="-1.70924">
        <ele>5</ele>
        <time>2020-08-29T13:56:31.000Z</time>
      </trkpt>
      <trkpt lat="47.05903" lon="-1.70922">
        <ele>5</ele>
        <time>2020-08-29T13:56:32.000Z</time>
      </trkpt>
      <trkpt lat="47.05899" lon="-1.7092">
        <ele>5</ele>
        <time>2020-08-29T13:56:36.000Z</time>
      </trkpt>
      <trkpt lat="47.05892" lon="-1.70912">
        <ele>5.1999998092651</ele>
        <time>2020-08-29T13:56:43.000Z</time>
      </trkpt>
      <trkpt lat="47.05891" lon="-1.7091">
        <ele>5.1999998092651</ele>
        <time>2020-08-29T13:56:47.000Z</time>
      </trkpt>
      <trkpt lat="47.0589" lon="-1.70907">
        <ele>5.1999998092651</ele>
        <time>2020-08-29T13:56:49.000Z</time>
      </trkpt>
      <trkpt lat="47.05889" lon="-1.709">
        <ele>5.1999998092651</ele>
        <time>2020-08-29T13:56:58.000Z</time>
      </trkpt>
      <trkpt lat="47.05885" lon="-1.70895">
        <ele>5</ele>
        <time>2020-08-29T13:57:00.000Z</time>
      </trkpt>
      <trkpt lat="47.0588" lon="-1.7089">
        <ele>4.8000001907349</ele>
        <time>2020-08-29T13:57:02.000Z</time>
      </trkpt>
      <trkpt lat="47.05871" lon="-1.70882">
        <ele>4.5999999046326</ele>
        <time>2020-08-29T13:57:05.000Z</time>
      </trkpt>
      <trkpt lat="47.05862" lon="-1.70874">
        <ele>4.5999999046326</ele>
        <time>2020-08-29T13:57:08.000Z</time>
      </trkpt>
      <trkpt lat="47.05852" lon="-1.70866">
        <ele>4.5999999046326</ele>
        <time>2020-08-29T13:57:11.000Z</time>
      </trkpt>
      <trkpt lat="47.05846" lon="-1.7086">
        <ele>4.8000001907349</ele>
        <time>2020-08-29T13:57:13.000Z</time>
      </trkpt>
      <trkpt lat="47.05833" lon="-1.70854">
        <ele>5.1999998092651</ele>
        <time>2020-08-29T13:57:17.000Z</time>
      </trkpt>
      <trkpt lat="47.0583" lon="-1.70853">
        <ele>5.1999998092651</ele>
        <time>2020-08-29T13:57:18.000Z</time>
      </trkpt>
      <trkpt lat="47.05823" lon="-1.7085">
        <ele>5.4000000953674</ele>
        <time>2020-08-29T13:57:20.000Z</time>
      </trkpt>
      <trkpt lat="47.05819" lon="-1.7085">
        <ele>5.1999998092651</ele>
        <time>2020-08-29T13:57:21.000Z</time>
      </trkpt>
      <trkpt lat="47.05812" lon="-1.70848">
        <ele>5.1999998092651</ele>
        <time>2020-08-29T13:57:23.000Z</time>
      </trkpt>
      <trkpt lat="47.05808" lon="-1.70846">
        <ele>5</ele>
        <time>2020-08-29T13:57:25.000Z</time>
      </trkpt>
      <trkpt lat="47.05807" lon="-1.70843">
        <ele>5</ele>
        <time>2020-08-29T13:57:26.000Z</time>
      </trkpt>
      <trkpt lat="47.05803" lon="-1.70827">
        <ele>5</ele>
        <time>2020-08-29T13:57:30.000Z</time>
      </trkpt>
      <trkpt lat="47.058" lon="-1.70819">
        <ele>5</ele>
        <time>2020-08-29T13:57:32.000Z</time>
      </trkpt>
      <trkpt lat="47.05795" lon="-1.70818">
        <ele>5</ele>
        <time>2020-08-29T13:57:34.000Z</time>
      </trkpt>
      <trkpt lat="47.05786" lon="-1.70824">
        <ele>5</ele>
        <time>2020-08-29T13:57:37.000Z</time>
      </trkpt>
      <trkpt lat="47.05777" lon="-1.70831">
        <ele>5</ele>
        <time>2020-08-29T13:57:40.000Z</time>
      </trkpt>
      <trkpt lat="47.05766" lon="-1.70841">
        <ele>5</ele>
        <time>2020-08-29T13:57:44.000Z</time>
      </trkpt>
      <trkpt lat="47.05762" lon="-1.70842">
        <ele>5</ele>
        <time>2020-08-29T13:57:46.000Z</time>
      </trkpt>
      <trkpt lat="47.0576" lon="-1.7084">
        <ele>5</ele>
        <time>2020-08-29T13:57:48.000Z</time>
      </trkpt>
      <trkpt lat="47.05757" lon="-1.70834">
        <ele>5</ele>
        <time>2020-08-29T13:57:51.000Z</time>
      </trkpt>
      <trkpt lat="47.05755" lon="-1.70824">
        <ele>5</ele>
        <time>2020-08-29T13:57:55.000Z</time>
      </trkpt>
      <trkpt lat="47.05756" lon="-1.70817">
        <ele>5</ele>
        <time>2020-08-29T13:57:57.000Z</time>
      </trkpt>
      <trkpt lat="47.05764" lon="-1.70798">
        <ele>4.8000001907349</ele>
        <time>2020-08-29T13:58:02.000Z</time>
      </trkpt>
      <trkpt lat="47.05775" lon="-1.70783">
        <ele>4.5999999046326</ele>
        <time>2020-08-29T13:58:07.000Z</time>
      </trkpt>
      <trkpt lat="47.05778" lon="-1.70781">
        <ele>4.4000000953674</ele>
        <time>2020-08-29T13:58:08.000Z</time>
      </trkpt>
      <trkpt lat="47.05783" lon="-1.70775">
        <ele>4.4000000953674</ele>
        <time>2020-08-29T13:58:10.000Z</time>
      </trkpt>
      <trkpt lat="47.05788" lon="-1.70765">
        <ele>4.1999998092651</ele>
        <time>2020-08-29T13:58:13.000Z</time>
      </trkpt>
      <trkpt lat="47.05789" lon="-1.70761">
        <ele>4.1999998092651</ele>
        <time>2020-08-29T13:58:14.000Z</time>
      </trkpt>
      <trkpt lat="47.05793" lon="-1.70744">
        <ele>3.7999999523163</ele>
        <time>2020-08-29T13:58:18.000Z</time>
      </trkpt>
      <trkpt lat="47.05792" lon="-1.7074">
        <ele>3.5999999046326</ele>
        <time>2020-08-29T13:58:19.000Z</time>
      </trkpt>
      <trkpt lat="47.05789" lon="-1.70723">
        <ele>2.4000000953674</ele>
        <time>2020-08-29T13:58:23.000Z</time>
      </trkpt>
      <trkpt lat="47.05788" lon="-1.70719">
        <ele>2</ele>
        <time>2020-08-29T13:58:24.000Z</time>
      </trkpt>
      <trkpt lat="47.05787" lon="-1.70704">
        <ele>0.80000001192093</ele>
        <time>2020-08-29T13:58:27.000Z</time>
      </trkpt>
      <trkpt lat="47.05787" lon="-1.70657">
        <ele>-0.60000002384186</ele>
        <time>2020-08-29T13:58:36.000Z</time>
      </trkpt>
      <trkpt lat="47.05788" lon="-1.70647">
        <ele>-0.40000000596046</ele>
        <time>2020-08-29T13:58:38.000Z</time>
      </trkpt>
      <trkpt lat="47.05788" lon="-1.70642">
        <ele>-0.20000000298023</ele>
        <time>2020-08-29T13:58:39.000Z</time>
      </trkpt>
      <trkpt lat="47.05788" lon="-1.70636">
        <ele>1.7</ele>
        <time>2020-08-29T13:58:40.000Z</time>
      </trkpt>
      <trkpt lat="47.05788" lon="-1.70631">
        <ele>0.40000000596046</ele>
        <time>2020-08-29T13:58:41.000Z</time>
      </trkpt>
      <trkpt lat="47.05789" lon="-1.70626">
        <ele>0.60000002384186</ele>
        <time>2020-08-29T13:58:42.000Z</time>
      </trkpt>
      <trkpt lat="47.05789" lon="-1.70621">
        <ele>0.80000001192093</ele>
        <time>2020-08-29T13:58:43.000Z</time>
      </trkpt>
      <trkpt lat="47.05789" lon="-1.70616">
        <ele>1</ele>
        <time>2020-08-29T13:58:44.000Z</time>
      </trkpt>
      <trkpt lat="47.05788" lon="-1.70596">
        <ele>1.3999999761581</ele>
        <time>2020-08-29T13:58:50.000Z</time>
      </trkpt>
      <trkpt lat="47.05787" lon="-1.70592">
        <ele>1.3999999761581</ele>
        <time>2020-08-29T13:58:55.000Z</time>
      </trkpt>
      <trkpt lat="47.05788" lon="-1.70591">
        <ele>1.3999999761581</ele>
        <time>2020-08-29T13:58:56.000Z</time>
      </trkpt>
      <trkpt lat="47.05788" lon="-1.7059">
        <ele>1.3999999761581</ele>
        <time>2020-08-29T13:58:58.000Z</time>
      </trkpt>
      <trkpt lat="47.0579" lon="-1.70587">
        <ele>1.3999999761581</ele>
        <time>2020-08-29T13:59:01.000Z</time>
      </trkpt>
      <trkpt lat="47.05791" lon="-1.70584">
        <ele>1.3999999761581</ele>
        <time>2020-08-29T13:59:02.000Z</time>
      </trkpt>
      <trkpt lat="47.05791" lon="-1.70582">
        <ele>1.3999999761581</ele>
        <time>2020-08-29T13:59:03.000Z</time>
      </trkpt>
      <trkpt lat="47.05788" lon="-1.70572">
        <ele>1.3999999761581</ele>
        <time>2020-08-29T13:59:06.000Z</time>
      </trkpt>
      <trkpt lat="47.05788" lon="-1.70568">
        <ele>1.3999999761581</ele>
        <time>2020-08-29T13:59:07.000Z</time>
      </trkpt>
      <trkpt lat="47.05787" lon="-1.70565">
        <ele>1</ele>
        <time>2020-08-29T13:59:08.000Z</time>
      </trkpt>
      <trkpt lat="47.05787" lon="-1.70562">
        <ele>0.80000001192093</ele>
        <time>2020-08-29T13:59:09.000Z</time>
      </trkpt>
      <trkpt lat="47.05787" lon="-1.70555">
        <ele>0.40000000596046</ele>
        <time>2020-08-29T13:59:11.000Z</time>
      </trkpt>
      <trkpt lat="47.05789" lon="-1.70551">
        <ele>1.7</ele>
        <time>2020-08-29T13:59:12.000Z</time>
      </trkpt>
      <trkpt lat="47.05794" lon="-1.70522">
        <ele>-2</ele>
        <time>2020-08-29T13:59:18.000Z</time>
      </trkpt>
      <trkpt lat="47.05795" lon="-1.70517">
        <ele>-2.4000000953674</ele>
        <time>2020-08-29T13:59:19.000Z</time>
      </trkpt>
      <trkpt lat="47.05795" lon="-1.70511">
        <ele>-2.4000000953674</ele>
        <time>2020-08-29T13:59:20.000Z</time>
      </trkpt>
      <trkpt lat="47.05795" lon="-1.70506">
        <ele>-2.4000000953674</ele>
        <time>2020-08-29T13:59:21.000Z</time>
      </trkpt>
      <trkpt lat="47.05796" lon="-1.70483">
        <ele>-2.5999999046326</ele>
        <time>2020-08-29T13:59:25.000Z</time>
      </trkpt>
      <trkpt lat="47.05796" lon="-1.70477">
        <ele>-2.7999999523163</ele>
        <time>2020-08-29T13:59:26.000Z</time>
      </trkpt>
      <trkpt lat="47.05796" lon="-1.7046">
        <ele>-3.2000000476837</ele>
        <time>2020-08-29T13:59:29.000Z</time>
      </trkpt>
      <trkpt lat="47.05796" lon="-1.70438">
        <ele>-3.5999999046326</ele>
        <time>2020-08-29T13:59:33.000Z</time>
      </trkpt>
      <trkpt lat="47.05792" lon="-1.704">
        <ele>-2.7999999523163</ele>
        <time>2020-08-29T13:59:40.000Z</time>
      </trkpt>
      <trkpt lat="47.05784" lon="-1.70365">
        <ele>-1.6000000238419</ele>
        <time>2020-08-29T13:59:47.000Z</time>
      </trkpt>
      <trkpt lat="47.05781" lon="-1.70356">
        <ele>-1.3999999761581</ele>
        <time>2020-08-29T13:59:49.000Z</time>
      </trkpt>
      <trkpt lat="47.05769" lon="-1.70332">
        <ele>-1.3999999761581</ele>
        <time>2020-08-29T13:59:55.000Z</time>
      </trkpt>
      <trkpt lat="47.05764" lon="-1.70325">
        <ele>-1.3999999761581</ele>
        <time>2020-08-29T13:59:57.000Z</time>
      </trkpt>
      <trkpt lat="47.05755" lon="-1.70315">
        <ele>-1</ele>
        <time>2020-08-29T14:00:00.000Z</time>
      </trkpt>
      <trkpt lat="47.05752" lon="-1.70312">
        <ele>-0.60000002384186</ele>
        <time>2020-08-29T14:00:01.000Z</time>
      </trkpt>
      <trkpt lat="47.05742" lon="-1.70298">
        <ele>-0.20000000298023</ele>
        <time>2020-08-29T14:00:05.000Z</time>
      </trkpt>
      <trkpt lat="47.0574" lon="-1.70293">
        <ele>-0.20000000298023</ele>
        <time>2020-08-29T14:00:06.000Z</time>
      </trkpt>
      <trkpt lat="47.05738" lon="-1.70277">
        <ele>-0.40000000596046</ele>
        <time>2020-08-29T14:00:09.000Z</time>
      </trkpt>
      <trkpt lat="47.05735" lon="-1.70258">
        <ele>-0.40000000596046</ele>
        <time>2020-08-29T14:00:13.000Z</time>
      </trkpt>
      <trkpt lat="47.05733" lon="-1.70227">
        <ele>-0.20000000298023</ele>
        <time>2020-08-29T14:00:20.000Z</time>
      </trkpt>
      <trkpt lat="47.05739" lon="-1.702">
        <ele>-0.40000000596046</ele>
        <time>2020-08-29T14:00:26.000Z</time>
      </trkpt>
      <trkpt lat="47.05744" lon="-1.70183">
        <ele>-0.40000000596046</ele>
        <time>2020-08-29T14:00:30.000Z</time>
      </trkpt>
      <trkpt lat="47.05747" lon="-1.70169">
        <ele>-0.20000000298023</ele>
        <time>2020-08-29T14:00:33.000Z</time>
      </trkpt>
      <trkpt lat="47.05751" lon="-1.70157">
        <ele>-0.20000000298023</ele>
        <time>2020-08-29T14:00:36.000Z</time>
      </trkpt>
      <trkpt lat="47.0575" lon="-1.70148">
        <ele>0.20000000298023</ele>
        <time>2020-08-29T14:00:38.000Z</time>
      </trkpt>
      <trkpt lat="47.0574" lon="-1.70134">
        <ele>0.40000000596046</ele>
        <time>2020-08-29T14:00:42.000Z</time>
      </trkpt>
      <trkpt lat="47.05722" lon="-1.70122">
        <ele>1.2000000476837</ele>
        <time>2020-08-29T14:00:48.000Z</time>
      </trkpt>
      <trkpt lat="47.05709" lon="-1.70109">
        <ele>1.7999999523163</ele>
        <time>2020-08-29T14:00:53.000Z</time>
      </trkpt>
      <trkpt lat="47.05705" lon="-1.70104">
        <ele>2</ele>
        <time>2020-08-29T14:00:55.000Z</time>
      </trkpt>
      <trkpt lat="47.05696" lon="-1.70091">
        <ele>2.2000000476837</ele>
        <time>2020-08-29T14:00:59.000Z</time>
      </trkpt>
      <trkpt lat="47.05695" lon="-1.70087">
        <ele>2.2000000476837</ele>
        <time>2020-08-29T14:01:00.000Z</time>
      </trkpt>
      <trkpt lat="47.05684" lon="-1.70065">
        <ele>2.5999999046326</ele>
        <time>2020-08-29T14:01:06.000Z</time>
      </trkpt>
      <trkpt lat="47.05677" lon="-1.70058">
        <ele>2.7999999523163</ele>
        <time>2020-08-29T14:01:09.000Z</time>
      </trkpt>
      <trkpt lat="47.05669" lon="-1.70051">
        <ele>3.2000000476837</ele>
        <time>2020-08-29T14:01:12.000Z</time>
      </trkpt>
      <trkpt lat="47.05664" lon="-1.70046">
        <ele>3.2000000476837</ele>
        <time>2020-08-29T14:01:14.000Z</time>
      </trkpt>
      <trkpt lat="47.05659" lon="-1.70041">
        <ele>3.4000000953674</ele>
        <time>2020-08-29T14:01:16.000Z</time>
      </trkpt>
      <trkpt lat="47.05647" lon="-1.70031">
        <ele>3.7999999523163</ele>
        <time>2020-08-29T14:01:20.000Z</time>
      </trkpt>
      <trkpt lat="47.05631" lon="-1.70014">
        <ele>4.5999999046326</ele>
        <time>2020-08-29T14:01:26.000Z</time>
      </trkpt>
      <trkpt lat="47.05631" lon="-1.70009">
        <ele>4.5999999046326</ele>
        <time>2020-08-29T14:01:27.000Z</time>
      </trkpt>
      <trkpt lat="47.05637" lon="-1.69991">
        <ele>4</ele>
        <time>2020-08-29T14:01:31.000Z</time>
      </trkpt>
      <trkpt lat="47.05643" lon="-1.69967">
        <ele>4.1999998092651</ele>
        <time>2020-08-29T14:01:36.000Z</time>
      </trkpt>
      <trkpt lat="47.05645" lon="-1.69963">
        <ele>4.1999998092651</ele>
        <time>2020-08-29T14:01:37.000Z</time>
      </trkpt>
      <trkpt lat="47.05647" lon="-1.69947">
        <ele>4.4000000953674</ele>
        <time>2020-08-29T14:01:41.000Z</time>
      </trkpt>
      <trkpt lat="47.05647" lon="-1.69944">
        <ele>4.5999999046326</ele>
        <time>2020-08-29T14:01:42.000Z</time>
      </trkpt>
      <trkpt lat="47.05643" lon="-1.69926">
        <ele>4.8000001907349</ele>
        <time>2020-08-29T14:01:47.000Z</time>
      </trkpt>
      <trkpt lat="47.05642" lon="-1.69918">
        <ele>4.8000001907349</ele>
        <time>2020-08-29T14:01:49.000Z</time>
      </trkpt>
      <trkpt lat="47.05639" lon="-1.69906">
        <ele>4.8000001907349</ele>
        <time>2020-08-29T14:01:52.000Z</time>
      </trkpt>
      <trkpt lat="47.05633" lon="-1.69897">
        <ele>4.5999999046326</ele>
        <time>2020-08-29T14:01:55.000Z</time>
      </trkpt>
      <trkpt lat="47.05619" lon="-1.69875">
        <ele>4.1999998092651</ele>
        <time>2020-08-29T14:02:02.000Z</time>
      </trkpt>
      <trkpt lat="47.05618" lon="-1.69866">
        <ele>4</ele>
        <time>2020-08-29T14:02:04.000Z</time>
      </trkpt>
      <trkpt lat="47.05614" lon="-1.69849">
        <ele>4</ele>
        <time>2020-08-29T14:02:09.000Z</time>
      </trkpt>
      <trkpt lat="47.05611" lon="-1.69834">
        <ele>4</ele>
        <time>2020-08-29T14:02:13.000Z</time>
      </trkpt>
      <trkpt lat="47.05609" lon="-1.69823">
        <ele>4</ele>
        <time>2020-08-29T14:02:15.000Z</time>
      </trkpt>
      <trkpt lat="47.05607" lon="-1.69811">
        <ele>3.7999999523163</ele>
        <time>2020-08-29T14:02:17.000Z</time>
      </trkpt>
      <trkpt lat="47.056" lon="-1.69784">
        <ele>3.5999999046326</ele>
        <time>2020-08-29T14:02:22.000Z</time>
      </trkpt>
      <trkpt lat="47.05598" lon="-1.69772">
        <ele>3.4000000953674</ele>
        <time>2020-08-29T14:02:25.000Z</time>
      </trkpt>
      <trkpt lat="47.05591" lon="-1.69749">
        <ele>3.2000000476837</ele>
        <time>2020-08-29T14:02:30.000Z</time>
      </trkpt>
      <trkpt lat="47.05588" lon="-1.69737">
        <ele>3</ele>
        <time>2020-08-29T14:02:35.000Z</time>
      </trkpt>
      <trkpt lat="47.05586" lon="-1.6973">
        <ele>3</ele>
        <time>2020-08-29T14:02:40.000Z</time>
      </trkpt>
      <trkpt lat="47.05585" lon="-1.69727">
        <ele>2.7999999523163</ele>
        <time>2020-08-29T14:02:42.000Z</time>
      </trkpt>
      <trkpt lat="47.05585" lon="-1.69727">
        <ele>2.7999999523163</ele>
        <time>2020-08-29T14:02:43.000Z</time>
      </trkpt>
      <trkpt lat="47.05585" lon="-1.69725">
        <ele>2.7999999523163</ele>
        <time>2020-08-29T14:02:45.000Z</time>
      </trkpt>
      <trkpt lat="47.05583" lon="-1.6972">
        <ele>3</ele>
        <time>2020-08-29T14:02:48.000Z</time>
      </trkpt>
      <trkpt lat="47.05579" lon="-1.69716">
        <ele>3</ele>
        <time>2020-08-29T14:02:51.000Z</time>
      </trkpt>
      <trkpt lat="47.05575" lon="-1.69705">
        <ele>3</ele>
        <time>2020-08-29T14:02:54.000Z</time>
      </trkpt>
      <trkpt lat="47.05574" lon="-1.69701">
        <ele>3</ele>
        <time>2020-08-29T14:02:55.000Z</time>
      </trkpt>
      <trkpt lat="47.05568" lon="-1.69671">
        <ele>3</ele>
        <time>2020-08-29T14:03:01.000Z</time>
      </trkpt>
      <trkpt lat="47.05566" lon="-1.69658">
        <ele>3</ele>
        <time>2020-08-29T14:03:03.000Z</time>
      </trkpt>
      <trkpt lat="47.05565" lon="-1.69652">
        <ele>3</ele>
        <time>2020-08-29T14:03:04.000Z</time>
      </trkpt>
      <trkpt lat="47.05562" lon="-1.6964">
        <ele>2.5999999046326</ele>
        <time>2020-08-29T14:03:06.000Z</time>
      </trkpt>
      <trkpt lat="47.05561" lon="-1.69635">
        <ele>2.5999999046326</ele>
        <time>2020-08-29T14:03:07.000Z</time>
      </trkpt>
      <trkpt lat="47.0556" lon="-1.69629">
        <ele>2.4000000953674</ele>
        <time>2020-08-29T14:03:08.000Z</time>
      </trkpt>
      <trkpt lat="47.05555" lon="-1.69602">
        <ele>1.7999999523163</ele>
        <time>2020-08-29T14:03:13.000Z</time>
      </trkpt>
      <trkpt lat="47.05554" lon="-1.6959">
        <ele>1.6000000238419</ele>
        <time>2020-08-29T14:03:15.000Z</time>
      </trkpt>
      <trkpt lat="47.0555" lon="-1.69567">
        <ele>2</ele>
        <time>2020-08-29T14:03:19.000Z</time>
      </trkpt>
      <trkpt lat="47.05546" lon="-1.6956">
        <ele>2.4000000953674</ele>
        <time>2020-08-29T14:03:21.000Z</time>
      </trkpt>
      <trkpt lat="47.0553" lon="-1.69549">
        <ele>3.2000000476837</ele>
        <time>2020-08-29T14:03:26.000Z</time>
      </trkpt>
      <trkpt lat="47.05524" lon="-1.69548">
        <ele>3.4000000953674</ele>
        <time>2020-08-29T14:03:28.000Z</time>
      </trkpt>
      <trkpt lat="47.05514" lon="-1.69546">
        <ele>3.7999999523163</ele>
        <time>2020-08-29T14:03:32.000Z</time>
      </trkpt>
      <trkpt lat="47.05506" lon="-1.69541">
        <ele>3.7999999523163</ele>
        <time>2020-08-29T14:03:37.000Z</time>
      </trkpt>
      <trkpt lat="47.05502" lon="-1.69539">
        <ele>3.7999999523163</ele>
        <time>2020-08-29T14:03:43.000Z</time>
      </trkpt>
      <trkpt lat="47.05501" lon="-1.69538">
        <ele>3.7999999523163</ele>
        <time>2020-08-29T14:03:44.000Z</time>
      </trkpt>
      <trkpt lat="47.055" lon="-1.69536">
        <ele>4</ele>
        <time>2020-08-29T14:03:50.000Z</time>
      </trkpt>
      <trkpt lat="47.05498" lon="-1.69536">
        <ele>4</ele>
        <time>2020-08-29T14:03:52.000Z</time>
      </trkpt>
      <trkpt lat="47.05494" lon="-1.69535">
        <ele>4</ele>
        <time>2020-08-29T14:03:54.000Z</time>
      </trkpt>
      <trkpt lat="47.05486" lon="-1.69538">
        <ele>4</ele>
        <time>2020-08-29T14:03:58.000Z</time>
      </trkpt>
      <trkpt lat="47.05482" lon="-1.69539">
        <ele>4</ele>
        <time>2020-08-29T14:03:59.000Z</time>
      </trkpt>
      <trkpt lat="47.0546" lon="-1.69537">
        <ele>4</ele>
        <time>2020-08-29T14:04:05.000Z</time>
      </trkpt>
      <trkpt lat="47.05441" lon="-1.69538">
        <ele>4</ele>
        <time>2020-08-29T14:04:11.000Z</time>
      </trkpt>
      <trkpt lat="47.05438" lon="-1.69537">
        <ele>4</ele>
        <time>2020-08-29T14:04:12.000Z</time>
      </trkpt>
      <trkpt lat="47.05433" lon="-1.69527">
        <ele>4.1999998092651</ele>
        <time>2020-08-29T14:04:15.000Z</time>
      </trkpt>
      <trkpt lat="47.05427" lon="-1.6951">
        <ele>4.5999999046326</ele>
        <time>2020-08-29T14:04:20.000Z</time>
      </trkpt>
      <trkpt lat="47.05426" lon="-1.69509">
        <ele>4.5999999046326</ele>
        <time>2020-08-29T14:04:21.000Z</time>
      </trkpt>
      <trkpt lat="47.05424" lon="-1.69507">
        <ele>4.5999999046326</ele>
        <time>2020-08-29T14:04:27.000Z</time>
      </trkpt>
      <trkpt lat="47.05423" lon="-1.69506">
        <ele>4.5999999046326</ele>
        <time>2020-08-29T14:04:31.000Z</time>
      </trkpt>
      <trkpt lat="47.0542" lon="-1.69507">
        <ele>4.5999999046326</ele>
        <time>2020-08-29T14:04:33.000Z</time>
      </trkpt>
      <trkpt lat="47.05414" lon="-1.69509">
        <ele>4.5999999046326</ele>
        <time>2020-08-29T14:04:36.000Z</time>
      </trkpt>
      <trkpt lat="47.05408" lon="-1.6951">
        <ele>4.8000001907349</ele>
        <time>2020-08-29T14:04:38.000Z</time>
      </trkpt>
      <trkpt lat="47.05406" lon="-1.69512">
        <ele>4.8000001907349</ele>
        <time>2020-08-29T14:04:39.000Z</time>
      </trkpt>
      <trkpt lat="47.05388" lon="-1.69523">
        <ele>4.5999999046326</ele>
        <time>2020-08-29T14:04:45.000Z</time>
      </trkpt>
      <trkpt lat="47.05367" lon="-1.69539">
        <ele>4.4000000953674</ele>
        <time>2020-08-29T14:04:52.000Z</time>
      </trkpt>
      <trkpt lat="47.0535" lon="-1.69554">
        <ele>4.1999998092651</ele>
        <time>2020-08-29T14:04:57.000Z</time>
      </trkpt>
      <trkpt lat="47.05341" lon="-1.69561">
        <ele>4.1999998092651</ele>
        <time>2020-08-29T14:05:00.000Z</time>
      </trkpt>
      <trkpt lat="47.0533" lon="-1.69572">
        <ele>4</ele>
        <time>2020-08-29T14:05:05.000Z</time>
      </trkpt>
      <trkpt lat="47.05327" lon="-1.69572">
        <ele>4</ele>
        <time>2020-08-29T14:05:09.000Z</time>
      </trkpt>
      <trkpt lat="47.05333" lon="-1.6956">
        <ele>4</ele>
        <time>2020-08-29T14:05:12.000Z</time>
      </trkpt>
      <trkpt lat="47.05332" lon="-1.69547">
        <ele>4</ele>
        <time>2020-08-29T14:05:14.000Z</time>
      </trkpt>
      <trkpt lat="47.0533" lon="-1.69541">
        <ele>4</ele>
        <time>2020-08-29T14:05:15.000Z</time>
      </trkpt>
      <trkpt lat="47.05324" lon="-1.69532">
        <ele>4</ele>
        <time>2020-08-29T14:05:17.000Z</time>
      </trkpt>
      <trkpt lat="47.05317" lon="-1.69526">
        <ele>3.7999999523163</ele>
        <time>2020-08-29T14:05:19.000Z</time>
      </trkpt>
      <trkpt lat="47.05294" lon="-1.69516">
        <ele>3.5999999046326</ele>
        <time>2020-08-29T14:05:24.000Z</time>
      </trkpt>
      <trkpt lat="47.0529" lon="-1.69513">
        <ele>3.5999999046326</ele>
        <time>2020-08-29T14:05:25.000Z</time>
      </trkpt>
      <trkpt lat="47.05286" lon="-1.69509">
        <ele>3.5999999046326</ele>
        <time>2020-08-29T14:05:26.000Z</time>
      </trkpt>
      <trkpt lat="47.05279" lon="-1.69499">
        <ele>3.4000000953674</ele>
        <time>2020-08-29T14:05:28.000Z</time>
      </trkpt>
      <trkpt lat="47.05272" lon="-1.69489">
        <ele>3.4000000953674</ele>
        <time>2020-08-29T14:05:30.000Z</time>
      </trkpt>
      <trkpt lat="47.05246" lon="-1.69449">
        <ele>3</ele>
        <time>2020-08-29T14:05:38.000Z</time>
      </trkpt>
      <trkpt lat="47.05221" lon="-1.69412">
        <ele>3.5999999046326</ele>
        <time>2020-08-29T14:05:45.000Z</time>
      </trkpt>
      <trkpt lat="47.05194" lon="-1.69375">
        <ele>3.7999999523163</ele>
        <time>2020-08-29T14:05:52.000Z</time>
      </trkpt>
      <trkpt lat="47.05176" lon="-1.69349">
        <ele>3.5999999046326</ele>
        <time>2020-08-29T14:05:57.000Z</time>
      </trkpt>
      <trkpt lat="47.05168" lon="-1.69339">
        <ele>3.4000000953674</ele>
        <time>2020-08-29T14:05:59.000Z</time>
      </trkpt>
      <trkpt lat="47.05164" lon="-1.69334">
        <ele>3.2000000476837</ele>
        <time>2020-08-29T14:06:00.000Z</time>
      </trkpt>
      <trkpt lat="47.05149" lon="-1.69313">
        <ele>3.2000000476837</ele>
        <time>2020-08-29T14:06:05.000Z</time>
      </trkpt>
      <trkpt lat="47.05147" lon="-1.6931">
        <ele>3.2000000476837</ele>
        <time>2020-08-29T14:06:06.000Z</time>
      </trkpt>
      <trkpt lat="47.05139" lon="-1.69309">
        <ele>3.2000000476837</ele>
        <time>2020-08-29T14:06:10.000Z</time>
      </trkpt>
      <trkpt lat="47.05139" lon="-1.6931">
        <ele>3.2000000476837</ele>
        <time>2020-08-29T14:06:12.000Z</time>
      </trkpt>
      <trkpt lat="47.05139" lon="-1.6931">
        <ele>3.2000000476837</ele>
        <time>2020-08-29T14:06:15.000Z</time>
      </trkpt>
      <trkpt lat="47.05138" lon="-1.6931">
        <ele>3.2000000476837</ele>
        <time>2020-08-29T14:06:18.000Z</time>
      </trkpt>
      <trkpt lat="47.05137" lon="-1.6931">
        <ele>3.2000000476837</ele>
        <time>2020-08-29T14:06:21.000Z</time>
      </trkpt>
      <trkpt lat="47.05135" lon="-1.69311">
        <ele>3.2000000476837</ele>
        <time>2020-08-29T14:06:23.000Z</time>
      </trkpt>
      <trkpt lat="47.05133" lon="-1.69311">
        <ele>3.4000000953674</ele>
        <time>2020-08-29T14:06:25.000Z</time>
      </trkpt>
      <trkpt lat="47.05127" lon="-1.69305">
        <ele>3.4000000953674</ele>
        <time>2020-08-29T14:06:28.000Z</time>
      </trkpt>
      <trkpt lat="47.05121" lon="-1.69299">
        <ele>3.4000000953674</ele>
        <time>2020-08-29T14:06:30.000Z</time>
      </trkpt>
      <trkpt lat="47.0511" lon="-1.69284">
        <ele>3.5999999046326</ele>
        <time>2020-08-29T14:06:34.000Z</time>
      </trkpt>
      <trkpt lat="47.051" lon="-1.69273">
        <ele>3.4000000953674</ele>
        <time>2020-08-29T14:06:37.000Z</time>
      </trkpt>
      <trkpt lat="47.05094" lon="-1.69266">
        <ele>3.4000000953674</ele>
        <time>2020-08-29T14:06:39.000Z</time>
      </trkpt>
      <trkpt lat="47.05089" lon="-1.69258">
        <ele>3.2000000476837</ele>
        <time>2020-08-29T14:06:41.000Z</time>
      </trkpt>
      <trkpt lat="47.05083" lon="-1.69251">
        <ele>3.2000000476837</ele>
        <time>2020-08-29T14:06:43.000Z</time>
      </trkpt>
      <trkpt lat="47.05073" lon="-1.69237">
        <ele>3.2000000476837</ele>
        <time>2020-08-29T14:06:47.000Z</time>
      </trkpt>
      <trkpt lat="47.0507" lon="-1.69234">
        <ele>3.2000000476837</ele>
        <time>2020-08-29T14:06:48.000Z</time>
      </trkpt>
      <trkpt lat="47.05066" lon="-1.69228">
        <ele>3.5999999046326</ele>
        <time>2020-08-29T14:06:50.000Z</time>
      </trkpt>
      <trkpt lat="47.05059" lon="-1.6922">
        <ele>4</ele>
        <time>2020-08-29T14:06:53.000Z</time>
      </trkpt>
      <trkpt lat="47.05055" lon="-1.69214">
        <ele>4.1999998092651</ele>
        <time>2020-08-29T14:06:55.000Z</time>
      </trkpt>
      <trkpt lat="47.05053" lon="-1.6921">
        <ele>4.4000000953674</ele>
        <time>2020-08-29T14:06:56.000Z</time>
      </trkpt>
      <trkpt lat="47.05043" lon="-1.69198">
        <ele>5</ele>
        <time>2020-08-29T14:07:01.000Z</time>
      </trkpt>
      <trkpt lat="47.05041" lon="-1.69196">
        <ele>5.1999998092651</ele>
        <time>2020-08-29T14:07:02.000Z</time>
      </trkpt>
      <trkpt lat="47.05034" lon="-1.69186">
        <ele>5.5999999046326</ele>
        <time>2020-08-29T14:07:09.000Z</time>
      </trkpt>
      <trkpt lat="47.05029" lon="-1.69175">
        <ele>5.5999999046326</ele>
        <time>2020-08-29T14:07:18.000Z</time>
      </trkpt>
      <trkpt lat="47.05028" lon="-1.69171">
        <ele>5.5999999046326</ele>
        <time>2020-08-29T14:07:22.000Z</time>
      </trkpt>
      <trkpt lat="47.05031" lon="-1.69164">
        <ele>5.5999999046326</ele>
        <time>2020-08-29T14:07:26.000Z</time>
      </trkpt>
      <trkpt lat="47.05032" lon="-1.69162">
        <ele>5.5999999046326</ele>
        <time>2020-08-29T14:07:27.000Z</time>
      </trkpt>
      <trkpt lat="47.05046" lon="-1.6915">
        <ele>5.4000000953674</ele>
        <time>2020-08-29T14:07:32.000Z</time>
      </trkpt>
      <trkpt lat="47.05059" lon="-1.6914">
        <ele>5</ele>
        <time>2020-08-29T14:07:36.000Z</time>
      </trkpt>
      <trkpt lat="47.05068" lon="-1.69133">
        <ele>4.8000001907349</ele>
        <time>2020-08-29T14:07:39.000Z</time>
      </trkpt>
      <trkpt lat="47.05071" lon="-1.6913">
        <ele>4.8000001907349</ele>
        <time>2020-08-29T14:07:40.000Z</time>
      </trkpt>
      <trkpt lat="47.05083" lon="-1.6912">
        <ele>4.5999999046326</ele>
        <time>2020-08-29T14:07:44.000Z</time>
      </trkpt>
      <trkpt lat="47.05094" lon="-1.69113">
        <ele>4.4000000953674</ele>
        <time>2020-08-29T14:07:47.000Z</time>
      </trkpt>
      <trkpt lat="47.05127" lon="-1.69092">
        <ele>3.5999999046326</ele>
        <time>2020-08-29T14:07:54.000Z</time>
      </trkpt>
      <trkpt lat="47.05147" lon="-1.69081">
        <ele>3.2000000476837</ele>
        <time>2020-08-29T14:07:58.000Z</time>
      </trkpt>
      <trkpt lat="47.05163" lon="-1.69072">
        <ele>3</ele>
        <time>2020-08-29T14:08:01.000Z</time>
      </trkpt>
      <trkpt lat="47.05201" lon="-1.6905">
        <ele>4</ele>
        <time>2020-08-29T14:08:08.000Z</time>
      </trkpt>
      <trkpt lat="47.05241" lon="-1.69026">
        <ele>5</ele>
        <time>2020-08-29T14:08:15.000Z</time>
      </trkpt>
      <trkpt lat="47.05284" lon="-1.69001">
        <ele>4</ele>
        <time>2020-08-29T14:08:23.000Z</time>
      </trkpt>
      <trkpt lat="47.05287" lon="-1.68997">
        <ele>4</ele>
        <time>2020-08-29T14:08:24.000Z</time>
      </trkpt>
      <trkpt lat="47.0529" lon="-1.68986">
        <ele>3.7999999523163</ele>
        <time>2020-08-29T14:08:26.000Z</time>
      </trkpt>
      <trkpt lat="47.05289" lon="-1.68973">
        <ele>3.7999999523163</ele>
        <time>2020-08-29T14:08:28.000Z</time>
      </trkpt>
      <trkpt lat="47.05285" lon="-1.68957">
        <ele>3.5999999046326</ele>
        <time>2020-08-29T14:08:30.000Z</time>
      </trkpt>
      <trkpt lat="47.0527" lon="-1.68909">
        <ele>2.7999999523163</ele>
        <time>2020-08-29T14:08:37.000Z</time>
      </trkpt>
      <trkpt lat="47.05268" lon="-1.68903">
        <ele>2.5999999046326</ele>
        <time>2020-08-29T14:08:38.000Z</time>
      </trkpt>
      <trkpt lat="47.05256" lon="-1.68868">
        <ele>1.3999999761581</ele>
        <time>2020-08-29T14:08:43.000Z</time>
      </trkpt>
      <trkpt lat="47.05247" lon="-1.68836">
        <ele>1.2000000476837</ele>
        <time>2020-08-29T14:08:47.000Z</time>
      </trkpt>
      <trkpt lat="47.05233" lon="-1.68783">
        <ele>1.3999999761581</ele>
        <time>2020-08-29T14:08:54.000Z</time>
      </trkpt>
      <trkpt lat="47.05227" lon="-1.68762">
        <ele>1.7999999523163</ele>
        <time>2020-08-29T14:08:57.000Z</time>
      </trkpt>
      <trkpt lat="47.05222" lon="-1.68752">
        <ele>2</ele>
        <time>2020-08-29T14:08:59.000Z</time>
      </trkpt>
      <trkpt lat="47.05212" lon="-1.68715">
        <ele>2</ele>
        <time>2020-08-29T14:09:05.000Z</time>
      </trkpt>
      <trkpt lat="47.05201" lon="-1.68674">
        <ele>2.4000000953674</ele>
        <time>2020-08-29T14:09:11.000Z</time>
      </trkpt>
      <trkpt lat="47.05198" lon="-1.68661">
        <ele>2.5999999046326</ele>
        <time>2020-08-29T14:09:13.000Z</time>
      </trkpt>
      <trkpt lat="47.05196" lon="-1.68644">
        <ele>2.7999999523163</ele>
        <time>2020-08-29T14:09:17.000Z</time>
      </trkpt>
      <trkpt lat="47.05189" lon="-1.68617">
        <ele>3.4000000953674</ele>
        <time>2020-08-29T14:09:25.000Z</time>
      </trkpt>
      <trkpt lat="47.0518" lon="-1.68586">
        <ele>4</ele>
        <time>2020-08-29T14:09:32.000Z</time>
      </trkpt>
      <trkpt lat="47.05179" lon="-1.68581">
        <ele>4.1999998092651</ele>
        <time>2020-08-29T14:09:33.000Z</time>
      </trkpt>
      <trkpt lat="47.05172" lon="-1.68543">
        <ele>4.5999999046326</ele>
        <time>2020-08-29T14:09:39.000Z</time>
      </trkpt>
      <trkpt lat="47.05171" lon="-1.68537">
        <ele>4.5999999046326</ele>
        <time>2020-08-29T14:09:40.000Z</time>
      </trkpt>
      <trkpt lat="47.05166" lon="-1.68518">
        <ele>4.8000001907349</ele>
        <time>2020-08-29T14:09:43.000Z</time>
      </trkpt>
      <trkpt lat="47.05159" lon="-1.68495">
        <ele>5</ele>
        <time>2020-08-29T14:09:47.000Z</time>
      </trkpt>
      <trkpt lat="47.05149" lon="-1.6846">
        <ele>5.4000000953674</ele>
        <time>2020-08-29T14:09:54.000Z</time>
      </trkpt>
      <trkpt lat="47.05144" lon="-1.68445">
        <ele>5.5999999046326</ele>
        <time>2020-08-29T14:09:58.000Z</time>
      </trkpt>
      <trkpt lat="47.05138" lon="-1.68423">
        <ele>6</ele>
        <time>2020-08-29T14:10:03.000Z</time>
      </trkpt>
      <trkpt lat="47.05131" lon="-1.68395">
        <ele>5.8000001907349</ele>
        <time>2020-08-29T14:10:09.000Z</time>
      </trkpt>
      <trkpt lat="47.05128" lon="-1.68381">
        <ele>5.8000001907349</ele>
        <time>2020-08-29T14:10:12.000Z</time>
      </trkpt>
      <trkpt lat="47.05116" lon="-1.68341">
        <ele>6</ele>
        <time>2020-08-29T14:10:19.000Z</time>
      </trkpt>
      <trkpt lat="47.05106" lon="-1.68303">
        <ele>5.1999998092651</ele>
        <time>2020-08-29T14:10:26.000Z</time>
      </trkpt>
      <trkpt lat="47.05098" lon="-1.68283">
        <ele>4.4000000953674</ele>
        <time>2020-08-29T14:10:31.000Z</time>
      </trkpt>
      <trkpt lat="47.05095" lon="-1.68282">
        <ele>4.4000000953674</ele>
        <time>2020-08-29T14:10:32.000Z</time>
      </trkpt>
      <trkpt lat="47.0508" lon="-1.68286">
        <ele>4.1999998092651</ele>
        <time>2020-08-29T14:10:36.000Z</time>
      </trkpt>
      <trkpt lat="47.05064" lon="-1.68294">
        <ele>4.4000000953674</ele>
        <time>2020-08-29T14:10:40.000Z</time>
      </trkpt>
      <trkpt lat="47.05053" lon="-1.68298">
        <ele>4.4000000953674</ele>
        <time>2020-08-29T14:10:43.000Z</time>
      </trkpt>
      <trkpt lat="47.05038" lon="-1.68306">
        <ele>4.5999999046326</ele>
        <time>2020-08-29T14:10:47.000Z</time>
      </trkpt>
      <trkpt lat="47.0502" lon="-1.68314">
        <ele>4.8000001907349</ele>
        <time>2020-08-29T14:10:52.000Z</time>
      </trkpt>
      <trkpt lat="47.05" lon="-1.68324">
        <ele>5</ele>
        <time>2020-08-29T14:10:58.000Z</time>
      </trkpt>
      <trkpt lat="47.04976" lon="-1.68339">
        <ele>5.4000000953674</ele>
        <time>2020-08-29T14:11:05.000Z</time>
      </trkpt>
      <trkpt lat="47.04972" lon="-1.68341">
        <ele>5.4000000953674</ele>
        <time>2020-08-29T14:11:06.000Z</time>
      </trkpt>
      <trkpt lat="47.0495" lon="-1.68355">
        <ele>6.1999998092651</ele>
        <time>2020-08-29T14:11:12.000Z</time>
      </trkpt>
      <trkpt lat="47.04938" lon="-1.68362">
        <ele>6.4000000953674</ele>
        <time>2020-08-29T14:11:15.000Z</time>
      </trkpt>
      <trkpt lat="47.04923" lon="-1.68371">
        <ele>6.8000001907349</ele>
        <time>2020-08-29T14:11:19.000Z</time>
      </trkpt>
      <trkpt lat="47.0492" lon="-1.68374">
        <ele>7</ele>
        <time>2020-08-29T14:11:20.000Z</time>
      </trkpt>
      <trkpt lat="47.04909" lon="-1.68382">
        <ele>7.1999998092651</ele>
        <time>2020-08-29T14:11:23.000Z</time>
      </trkpt>
      <trkpt lat="47.04883" lon="-1.684">
        <ele>7</ele>
        <time>2020-08-29T14:11:30.000Z</time>
      </trkpt>
      <trkpt lat="47.04879" lon="-1.68401">
        <ele>7</ele>
        <time>2020-08-29T14:11:31.000Z</time>
      </trkpt>
      <trkpt lat="47.0486" lon="-1.68409">
        <ele>7</ele>
        <time>2020-08-29T14:11:36.000Z</time>
      </trkpt>
      <trkpt lat="47.04827" lon="-1.68427">
        <ele>7.1999998092651</ele>
        <time>2020-08-29T14:11:45.000Z</time>
      </trkpt>
      <trkpt lat="47.04812" lon="-1.68436">
        <ele>7.5999999046326</ele>
        <time>2020-08-29T14:11:51.000Z</time>
      </trkpt>
      <trkpt lat="47.0481" lon="-1.68434">
        <ele>7.5999999046326</ele>
        <time>2020-08-29T14:11:54.000Z</time>
      </trkpt>
      <trkpt lat="47.0481" lon="-1.68434">
        <ele>7.5999999046326</ele>
        <time>2020-08-29T14:11:59.000Z</time>
      </trkpt>
      <trkpt lat="47.04809" lon="-1.68434">
        <ele>7.5999999046326</ele>
        <time>2020-08-29T14:12:01.000Z</time>
      </trkpt>
      <trkpt lat="47.04808" lon="-1.68434">
        <ele>7.5999999046326</ele>
        <time>2020-08-29T14:12:02.000Z</time>
      </trkpt>
      <trkpt lat="47.04804" lon="-1.68434">
        <ele>7.5999999046326</ele>
        <time>2020-08-29T14:12:05.000Z</time>
      </trkpt>
      <trkpt lat="47.048" lon="-1.68431">
        <ele>7.5999999046326</ele>
        <time>2020-08-29T14:12:07.000Z</time>
      </trkpt>
      <trkpt lat="47.04799" lon="-1.68428">
        <ele>7.5999999046326</ele>
        <time>2020-08-29T14:12:08.000Z</time>
      </trkpt>
      <trkpt lat="47.04797" lon="-1.6842">
        <ele>7.8000001907349</ele>
        <time>2020-08-29T14:12:10.000Z</time>
      </trkpt>
      <trkpt lat="47.04795" lon="-1.68415">
        <ele>7.8000001907349</ele>
        <time>2020-08-29T14:12:11.000Z</time>
      </trkpt>
      <trkpt lat="47.04793" lon="-1.68409">
        <ele>7.8000001907349</ele>
        <time>2020-08-29T14:12:12.000Z</time>
      </trkpt>
      <trkpt lat="47.04786" lon="-1.68387">
        <ele>8.1999998092651</ele>
        <time>2020-08-29T14:12:16.000Z</time>
      </trkpt>
      <trkpt lat="47.04778" lon="-1.6836">
        <ele>8.6000003814697</ele>
        <time>2020-08-29T14:12:22.000Z</time>
      </trkpt>
      <trkpt lat="47.04778" lon="-1.68359">
        <ele>8.6000003814697</ele>
        <time>2020-08-29T14:12:23.000Z</time>
      </trkpt>
      <trkpt lat="47.0478" lon="-1.68358">
        <ele>8.6000003814697</ele>
        <time>2020-08-29T14:12:25.000Z</time>
      </trkpt>
      <trkpt lat="47.04781" lon="-1.68364">
        <ele>8.6000003814697</ele>
        <time>2020-08-29T14:12:27.000Z</time>
      </trkpt>
      <trkpt lat="47.04783" lon="-1.68372">
        <ele>8.3999996185303</ele>
        <time>2020-08-29T14:12:29.000Z</time>
      </trkpt>
      <trkpt lat="47.04796" lon="-1.68412">
        <ele>7.8000001907349</ele>
        <time>2020-08-29T14:12:37.000Z</time>
      </trkpt>
      <trkpt lat="47.04799" lon="-1.68422">
        <ele>7.5999999046326</ele>
        <time>2020-08-29T14:12:39.000Z</time>
      </trkpt>
      <trkpt lat="47.048" lon="-1.68428">
        <ele>7.5999999046326</ele>
        <time>2020-08-29T14:12:40.000Z</time>
      </trkpt>
      <trkpt lat="47.04799" lon="-1.68433">
        <ele>7.5999999046326</ele>
        <time>2020-08-29T14:12:41.000Z</time>
      </trkpt>
      <trkpt lat="47.04799" lon="-1.68438">
        <ele>7.8000001907349</ele>
        <time>2020-08-29T14:12:42.000Z</time>
      </trkpt>
      <trkpt lat="47.04794" lon="-1.68446">
        <ele>7.8000001907349</ele>
        <time>2020-08-29T14:12:44.000Z</time>
      </trkpt>
      <trkpt lat="47.04791" lon="-1.68449">
        <ele>8</ele>
        <time>2020-08-29T14:12:45.000Z</time>
      </trkpt>
      <trkpt lat="47.04767" lon="-1.68463">
        <ele>8.3999996185303</ele>
        <time>2020-08-29T14:12:51.000Z</time>
      </trkpt>
      <trkpt lat="47.04754" lon="-1.6847">
        <ele>8.8000001907349</ele>
        <time>2020-08-29T14:12:54.000Z</time>
      </trkpt>
      <trkpt lat="47.04723" lon="-1.68487">
        <ele>9.3999996185303</ele>
        <time>2020-08-29T14:13:01.000Z</time>
      </trkpt>
      <trkpt lat="47.0471" lon="-1.68495">
        <ele>9.8000001907349</ele>
        <time>2020-08-29T14:13:05.000Z</time>
      </trkpt>
      <trkpt lat="47.04705" lon="-1.68498">
        <ele>10</ele>
        <time>2020-08-29T14:13:07.000Z</time>
      </trkpt>
      <trkpt lat="47.04698" lon="-1.68501">
        <ele>10</ele>
        <time>2020-08-29T14:13:11.000Z</time>
      </trkpt>
      <trkpt lat="47.04695" lon="-1.68502">
        <ele>10.199999809265</ele>
        <time>2020-08-29T14:13:12.000Z</time>
      </trkpt>
      <trkpt lat="47.04673" lon="-1.68515">
        <ele>10.60000038147</ele>
        <time>2020-08-29T14:13:18.000Z</time>
      </trkpt>
      <trkpt lat="47.04657" lon="-1.68524">
        <ele>11</ele>
        <time>2020-08-29T14:13:22.000Z</time>
      </trkpt>
      <trkpt lat="47.04631" lon="-1.68537">
        <ele>11</ele>
        <time>2020-08-29T14:13:28.000Z</time>
      </trkpt>
      <trkpt lat="47.04592" lon="-1.68559">
        <ele>11</ele>
        <time>2020-08-29T14:13:37.000Z</time>
      </trkpt>
      <trkpt lat="47.04584" lon="-1.68564">
        <ele>11</ele>
        <time>2020-08-29T14:13:39.000Z</time>
      </trkpt>
      <trkpt lat="47.04566" lon="-1.68575">
        <ele>11.199999809265</ele>
        <time>2020-08-29T14:13:43.000Z</time>
      </trkpt>
      <trkpt lat="47.04558" lon="-1.6858">
        <ele>11.39999961853</ele>
        <time>2020-08-29T14:13:45.000Z</time>
      </trkpt>
      <trkpt lat="47.04536" lon="-1.68594">
        <ele>12</ele>
        <time>2020-08-29T14:13:50.000Z</time>
      </trkpt>
      <trkpt lat="47.04531" lon="-1.68596">
        <ele>12</ele>
        <time>2020-08-29T14:13:51.000Z</time>
      </trkpt>
      <trkpt lat="47.04517" lon="-1.68604">
        <ele>12.39999961853</ele>
        <time>2020-08-29T14:13:54.000Z</time>
      </trkpt>
      <trkpt lat="47.04503" lon="-1.68613">
        <ele>12.800000190735</ele>
        <time>2020-08-29T14:13:57.000Z</time>
      </trkpt>
      <trkpt lat="47.04483" lon="-1.68624">
        <ele>13.39999961853</ele>
        <time>2020-08-29T14:14:01.000Z</time>
      </trkpt>
      <trkpt lat="47.04473" lon="-1.6863">
        <ele>13.800000190735</ele>
        <time>2020-08-29T14:14:03.000Z</time>
      </trkpt>
      <trkpt lat="47.04452" lon="-1.68641">
        <ele>14.39999961853</ele>
        <time>2020-08-29T14:14:07.000Z</time>
      </trkpt>
      <trkpt lat="47.04433" lon="-1.68653">
        <ele>15.199999809265</ele>
        <time>2020-08-29T14:14:11.000Z</time>
      </trkpt>
      <trkpt lat="47.04418" lon="-1.68661">
        <ele>15.800000190735</ele>
        <time>2020-08-29T14:14:14.000Z</time>
      </trkpt>
      <trkpt lat="47.04385" lon="-1.6868">
        <ele>18</ele>
        <time>2020-08-29T14:14:21.000Z</time>
      </trkpt>
      <trkpt lat="47.04376" lon="-1.68685">
        <ele>18.799999237061</ele>
        <time>2020-08-29T14:14:23.000Z</time>
      </trkpt>
      <trkpt lat="47.04362" lon="-1.68692">
        <ele>19.39999961853</ele>
        <time>2020-08-29T14:14:26.000Z</time>
      </trkpt>
      <trkpt lat="47.04344" lon="-1.68703">
        <ele>20.60000038147</ele>
        <time>2020-08-29T14:14:30.000Z</time>
      </trkpt>
      <trkpt lat="47.04325" lon="-1.68713">
        <ele>21.60000038147</ele>
        <time>2020-08-29T14:14:34.000Z</time>
      </trkpt>
      <trkpt lat="47.04304" lon="-1.68726">
        <ele>23.200000762939</ele>
        <time>2020-08-29T14:14:39.000Z</time>
      </trkpt>
      <trkpt lat="47.04299" lon="-1.68728">
        <ele>23.39999961853</ele>
        <time>2020-08-29T14:14:40.000Z</time>
      </trkpt>
      <trkpt lat="47.04283" lon="-1.68739">
        <ele>24.60000038147</ele>
        <time>2020-08-29T14:14:44.000Z</time>
      </trkpt>
      <trkpt lat="47.04274" lon="-1.68744">
        <ele>25.200000762939</ele>
        <time>2020-08-29T14:14:46.000Z</time>
      </trkpt>
      <trkpt lat="47.04265" lon="-1.6875">
        <ele>25.799999237061</ele>
        <time>2020-08-29T14:14:48.000Z</time>
      </trkpt>
      <trkpt lat="47.04256" lon="-1.68756">
        <ele>26.39999961853</ele>
        <time>2020-08-29T14:14:50.000Z</time>
      </trkpt>
      <trkpt lat="47.04243" lon="-1.68764">
        <ele>27.39999961853</ele>
        <time>2020-08-29T14:14:53.000Z</time>
      </trkpt>
      <trkpt lat="47.04224" lon="-1.68775">
        <ele>26.60000038147</ele>
        <time>2020-08-29T14:14:57.000Z</time>
      </trkpt>
      <trkpt lat="47.04205" lon="-1.68786">
        <ele>25.60000038147</ele>
        <time>2020-08-29T14:15:01.000Z</time>
      </trkpt>
      <trkpt lat="47.04196" lon="-1.68791">
        <ele>25.200000762939</ele>
        <time>2020-08-29T14:15:03.000Z</time>
      </trkpt>
      <trkpt lat="47.04191" lon="-1.68794">
        <ele>25</ele>
        <time>2020-08-29T14:15:04.000Z</time>
      </trkpt>
      <trkpt lat="47.04181" lon="-1.68799">
        <ele>24.60000038147</ele>
        <time>2020-08-29T14:15:06.000Z</time>
      </trkpt>
      <trkpt lat="47.04166" lon="-1.68808">
        <ele>24</ele>
        <time>2020-08-29T14:15:09.000Z</time>
      </trkpt>
      <trkpt lat="47.04161" lon="-1.6881">
        <ele>23.799999237061</ele>
        <time>2020-08-29T14:15:10.000Z</time>
      </trkpt>
      <trkpt lat="47.04152" lon="-1.68816">
        <ele>23.60000038147</ele>
        <time>2020-08-29T14:15:12.000Z</time>
      </trkpt>
      <trkpt lat="47.04143" lon="-1.68821">
        <ele>23.60000038147</ele>
        <time>2020-08-29T14:15:14.000Z</time>
      </trkpt>
      <trkpt lat="47.04134" lon="-1.68827">
        <ele>23.39999961853</ele>
        <time>2020-08-29T14:15:16.000Z</time>
      </trkpt>
      <trkpt lat="47.04124" lon="-1.68833">
        <ele>23.39999961853</ele>
        <time>2020-08-29T14:15:18.000Z</time>
      </trkpt>
      <trkpt lat="47.04115" lon="-1.68838">
        <ele>23.200000762939</ele>
        <time>2020-08-29T14:15:20.000Z</time>
      </trkpt>
      <trkpt lat="47.04098" lon="-1.68847">
        <ele>22.799999237061</ele>
        <time>2020-08-29T14:15:24.000Z</time>
      </trkpt>
      <trkpt lat="47.04086" lon="-1.68852">
        <ele>22.60000038147</ele>
        <time>2020-08-29T14:15:27.000Z</time>
      </trkpt>
      <trkpt lat="47.04071" lon="-1.68861">
        <ele>22.60000038147</ele>
        <time>2020-08-29T14:15:31.000Z</time>
      </trkpt>
      <trkpt lat="47.04058" lon="-1.68868">
        <ele>23.200000762939</ele>
        <time>2020-08-29T14:15:34.000Z</time>
      </trkpt>
      <trkpt lat="47.04045" lon="-1.68876">
        <ele>23.799999237061</ele>
        <time>2020-08-29T14:15:37.000Z</time>
      </trkpt>
      <trkpt lat="47.04037" lon="-1.6888">
        <ele>24.200000762939</ele>
        <time>2020-08-29T14:15:39.000Z</time>
      </trkpt>
      <trkpt lat="47.04027" lon="-1.68885">
        <ele>24.60000038147</ele>
        <time>2020-08-29T14:15:42.000Z</time>
      </trkpt>
      <trkpt lat="47.04019" lon="-1.68878">
        <ele>24.799999237061</ele>
        <time>2020-08-29T14:15:45.000Z</time>
      </trkpt>
      <trkpt lat="47.04017" lon="-1.68873">
        <ele>24.60000038147</ele>
        <time>2020-08-29T14:15:46.000Z</time>
      </trkpt>
      <trkpt lat="47.04013" lon="-1.68846">
        <ele>24.200000762939</ele>
        <time>2020-08-29T14:15:50.000Z</time>
      </trkpt>
      <trkpt lat="47.04012" lon="-1.6884">
        <ele>24</ele>
        <time>2020-08-29T14:15:51.000Z</time>
      </trkpt>
      <trkpt lat="47.04003" lon="-1.68807">
        <ele>23.60000038147</ele>
        <time>2020-08-29T14:15:57.000Z</time>
      </trkpt>
      <trkpt lat="47.04" lon="-1.68797">
        <ele>23.39999961853</ele>
        <time>2020-08-29T14:15:59.000Z</time>
      </trkpt>
      <trkpt lat="47.0399" lon="-1.68774">
        <ele>23</ele>
        <time>2020-08-29T14:16:04.000Z</time>
      </trkpt>
      <trkpt lat="47.03985" lon="-1.68765">
        <ele>22.799999237061</ele>
        <time>2020-08-29T14:16:06.000Z</time>
      </trkpt>
      <trkpt lat="47.03983" lon="-1.68759">
        <ele>22.60000038147</ele>
        <time>2020-08-29T14:16:07.000Z</time>
      </trkpt>
      <trkpt lat="47.0398" lon="-1.68755">
        <ele>22.60000038147</ele>
        <time>2020-08-29T14:16:08.000Z</time>
      </trkpt>
      <trkpt lat="47.03975" lon="-1.68745">
        <ele>22.60000038147</ele>
        <time>2020-08-29T14:16:10.000Z</time>
      </trkpt>
      <trkpt lat="47.0397" lon="-1.68735">
        <ele>22.799999237061</ele>
        <time>2020-08-29T14:16:12.000Z</time>
      </trkpt>
      <trkpt lat="47.03968" lon="-1.6873">
        <ele>23</ele>
        <time>2020-08-29T14:16:13.000Z</time>
      </trkpt>
      <trkpt lat="47.03963" lon="-1.6872">
        <ele>23.200000762939</ele>
        <time>2020-08-29T14:16:15.000Z</time>
      </trkpt>
      <trkpt lat="47.03958" lon="-1.68711">
        <ele>23.60000038147</ele>
        <time>2020-08-29T14:16:17.000Z</time>
      </trkpt>
      <trkpt lat="47.03951" lon="-1.68698">
        <ele>24</ele>
        <time>2020-08-29T14:16:20.000Z</time>
      </trkpt>
      <trkpt lat="47.03948" lon="-1.68694">
        <ele>24.200000762939</ele>
        <time>2020-08-29T14:16:21.000Z</time>
      </trkpt>
      <trkpt lat="47.03946" lon="-1.68691">
        <ele>24.39999961853</ele>
        <time>2020-08-29T14:16:22.000Z</time>
      </trkpt>
      <trkpt lat="47.03944" lon="-1.68687">
        <ele>24.799999237061</ele>
        <time>2020-08-29T14:16:23.000Z</time>
      </trkpt>
      <trkpt lat="47.03935" lon="-1.68673">
        <ele>25.799999237061</ele>
        <time>2020-08-29T14:16:27.000Z</time>
      </trkpt>
      <trkpt lat="47.03931" lon="-1.68668">
        <ele>26.200000762939</ele>
        <time>2020-08-29T14:16:29.000Z</time>
      </trkpt>
      <trkpt lat="47.03922" lon="-1.68655">
        <ele>27.200000762939</ele>
        <time>2020-08-29T14:16:33.000Z</time>
      </trkpt>
      <trkpt lat="47.0392" lon="-1.68652">
        <ele>27.39999961853</ele>
        <time>2020-08-29T14:16:34.000Z</time>
      </trkpt>
      <trkpt lat="47.03912" lon="-1.68633">
        <ele>28.799999237061</ele>
        <time>2020-08-29T14:16:39.000Z</time>
      </trkpt>
      <trkpt lat="47.03908" lon="-1.6862">
        <ele>29.60000038147</ele>
        <time>2020-08-29T14:16:42.000Z</time>
      </trkpt>
      <trkpt lat="47.03907" lon="-1.68616">
        <ele>29.799999237061</ele>
        <time>2020-08-29T14:16:43.000Z</time>
      </trkpt>
      <trkpt lat="47.039" lon="-1.68592">
        <ele>30.60000038147</ele>
        <time>2020-08-29T14:16:48.000Z</time>
      </trkpt>
      <trkpt lat="47.03894" lon="-1.68577">
        <ele>31.200000762939</ele>
        <time>2020-08-29T14:16:51.000Z</time>
      </trkpt>
      <trkpt lat="47.03887" lon="-1.68558">
        <ele>32</ele>
        <time>2020-08-29T14:16:55.000Z</time>
      </trkpt>
      <trkpt lat="47.0388" lon="-1.68539">
        <ele>32.400001525879</ele>
        <time>2020-08-29T14:16:59.000Z</time>
      </trkpt>
      <trkpt lat="47.03877" lon="-1.68529">
        <ele>32.599998474121</ele>
        <time>2020-08-29T14:17:01.000Z</time>
      </trkpt>
      <trkpt lat="47.03868" lon="-1.68507">
        <ele>33</ele>
        <time>2020-08-29T14:17:06.000Z</time>
      </trkpt>
      <trkpt lat="47.03866" lon="-1.68503">
        <ele>33</ele>
        <time>2020-08-29T14:17:07.000Z</time>
      </trkpt>
      <trkpt lat="47.03848" lon="-1.68463">
        <ele>32.799999237061</ele>
        <time>2020-08-29T14:17:15.000Z</time>
      </trkpt>
      <trkpt lat="47.03832" lon="-1.6842">
        <ele>33.599998474121</ele>
        <time>2020-08-29T14:17:23.000Z</time>
      </trkpt>
      <trkpt lat="47.03811" lon="-1.68367">
        <ele>34</ele>
        <time>2020-08-29T14:17:32.000Z</time>
      </trkpt>
      <trkpt lat="47.03805" lon="-1.68355">
        <ele>34</ele>
        <time>2020-08-29T14:17:34.000Z</time>
      </trkpt>
      <trkpt lat="47.03797" lon="-1.6833">
        <ele>33.799999237061</ele>
        <time>2020-08-29T14:17:38.000Z</time>
      </trkpt>
      <trkpt lat="47.03792" lon="-1.68318">
        <ele>33.599998474121</ele>
        <time>2020-08-29T14:17:40.000Z</time>
      </trkpt>
      <trkpt lat="47.03788" lon="-1.68298">
        <ele>32.400001525879</ele>
        <time>2020-08-29T14:17:43.000Z</time>
      </trkpt>
      <trkpt lat="47.03786" lon="-1.68292">
        <ele>32.200000762939</ele>
        <time>2020-08-29T14:17:44.000Z</time>
      </trkpt>
      <trkpt lat="47.03782" lon="-1.68279">
        <ele>31.39999961853</ele>
        <time>2020-08-29T14:17:46.000Z</time>
      </trkpt>
      <trkpt lat="47.03779" lon="-1.68272">
        <ele>31</ele>
        <time>2020-08-29T14:17:47.000Z</time>
      </trkpt>
      <trkpt lat="47.03761" lon="-1.68219">
        <ele>27.799999237061</ele>
        <time>2020-08-29T14:17:55.000Z</time>
      </trkpt>
      <trkpt lat="47.03755" lon="-1.68205">
        <ele>27.60000038147</ele>
        <time>2020-08-29T14:17:57.000Z</time>
      </trkpt>
      <trkpt lat="47.03741" lon="-1.68165">
        <ele>27.200000762939</ele>
        <time>2020-08-29T14:18:03.000Z</time>
      </trkpt>
      <trkpt lat="47.03732" lon="-1.68136">
        <ele>26.799999237061</ele>
        <time>2020-08-29T14:18:08.000Z</time>
      </trkpt>
      <trkpt lat="47.0373" lon="-1.6813">
        <ele>26.799999237061</ele>
        <time>2020-08-29T14:18:09.000Z</time>
      </trkpt>
      <trkpt lat="47.03714" lon="-1.6809">
        <ele>26.200000762939</ele>
        <time>2020-08-29T14:18:15.000Z</time>
      </trkpt>
      <trkpt lat="47.03701" lon="-1.68055">
        <ele>25.799999237061</ele>
        <time>2020-08-29T14:18:20.000Z</time>
      </trkpt>
      <trkpt lat="47.03694" lon="-1.68033">
        <ele>25.60000038147</ele>
        <time>2020-08-29T14:18:23.000Z</time>
      </trkpt>
      <trkpt lat="47.03689" lon="-1.68019">
        <ele>25.60000038147</ele>
        <time>2020-08-29T14:18:25.000Z</time>
      </trkpt>
      <trkpt lat="47.03674" lon="-1.6798">
        <ele>25.799999237061</ele>
        <time>2020-08-29T14:18:31.000Z</time>
      </trkpt>
      <trkpt lat="47.03671" lon="-1.67968">
        <ele>25.60000038147</ele>
        <time>2020-08-29T14:18:33.000Z</time>
      </trkpt>
      <trkpt lat="47.03665" lon="-1.67956">
        <ele>25.39999961853</ele>
        <time>2020-08-29T14:18:36.000Z</time>
      </trkpt>
      <trkpt lat="47.03663" lon="-1.67952">
        <ele>25.200000762939</ele>
        <time>2020-08-29T14:18:37.000Z</time>
      </trkpt>
      <trkpt lat="47.03657" lon="-1.67931">
        <ele>24.60000038147</ele>
        <time>2020-08-29T14:18:41.000Z</time>
      </trkpt>
      <trkpt lat="47.03652" lon="-1.67904">
        <ele>24.200000762939</ele>
        <time>2020-08-29T14:18:45.000Z</time>
      </trkpt>
      <trkpt lat="47.03649" lon="-1.6789">
        <ele>24.39999961853</ele>
        <time>2020-08-29T14:18:47.000Z</time>
      </trkpt>
      <trkpt lat="47.03642" lon="-1.67866">
        <ele>24.799999237061</ele>
        <time>2020-08-29T14:18:51.000Z</time>
      </trkpt>
      <trkpt lat="47.03638" lon="-1.6785">
        <ele>25.200000762939</ele>
        <time>2020-08-29T14:18:54.000Z</time>
      </trkpt>
      <trkpt lat="47.03636" lon="-1.67845">
        <ele>25.200000762939</ele>
        <time>2020-08-29T14:18:55.000Z</time>
      </trkpt>
      <trkpt lat="47.0363" lon="-1.6782">
        <ele>25.60000038147</ele>
        <time>2020-08-29T14:18:59.000Z</time>
      </trkpt>
      <trkpt lat="47.03628" lon="-1.67814">
        <ele>25.799999237061</ele>
        <time>2020-08-29T14:19:00.000Z</time>
      </trkpt>
      <trkpt lat="47.03616" lon="-1.67768">
        <ele>25.39999961853</ele>
        <time>2020-08-29T14:19:07.000Z</time>
      </trkpt>
      <trkpt lat="47.03603" lon="-1.67726">
        <ele>23.60000038147</ele>
        <time>2020-08-29T14:19:13.000Z</time>
      </trkpt>
      <trkpt lat="47.03602" lon="-1.67718">
        <ele>23.60000038147</ele>
        <time>2020-08-29T14:19:14.000Z</time>
      </trkpt>
      <trkpt lat="47.03597" lon="-1.67676">
        <ele>23.60000038147</ele>
        <time>2020-08-29T14:19:19.000Z</time>
      </trkpt>
      <trkpt lat="47.03596" lon="-1.67658">
        <ele>23.39999961853</ele>
        <time>2020-08-29T14:19:21.000Z</time>
      </trkpt>
      <trkpt lat="47.03596" lon="-1.67625">
        <ele>22.799999237061</ele>
        <time>2020-08-29T14:19:25.000Z</time>
      </trkpt>
      <trkpt lat="47.03596" lon="-1.67617">
        <ele>22.60000038147</ele>
        <time>2020-08-29T14:19:26.000Z</time>
      </trkpt>
      <trkpt lat="47.036" lon="-1.67565">
        <ele>21.39999961853</ele>
        <time>2020-08-29T14:19:32.000Z</time>
      </trkpt>
      <trkpt lat="47.036" lon="-1.67557">
        <ele>21.200000762939</ele>
        <time>2020-08-29T14:19:33.000Z</time>
      </trkpt>
      <trkpt lat="47.03604" lon="-1.67526">
        <ele>20.200000762939</ele>
        <time>2020-08-29T14:19:37.000Z</time>
      </trkpt>
      <trkpt lat="47.03603" lon="-1.67517">
        <ele>20</ele>
        <time>2020-08-29T14:19:38.000Z</time>
      </trkpt>
      <trkpt lat="47.03599" lon="-1.67466">
        <ele>18.799999237061</ele>
        <time>2020-08-29T14:19:43.000Z</time>
      </trkpt>
      <trkpt lat="47.03595" lon="-1.67427">
        <ele>17.799999237061</ele>
        <time>2020-08-29T14:19:47.000Z</time>
      </trkpt>
      <trkpt lat="47.03593" lon="-1.67408">
        <ele>17.39999961853</ele>
        <time>2020-08-29T14:19:49.000Z</time>
      </trkpt>
      <trkpt lat="47.03592" lon="-1.67399">
        <ele>17</ele>
        <time>2020-08-29T14:19:50.000Z</time>
      </trkpt>
      <trkpt lat="47.03591" lon="-1.67391">
        <ele>16.799999237061</ele>
        <time>2020-08-29T14:19:51.000Z</time>
      </trkpt>
      <trkpt lat="47.03583" lon="-1.67343">
        <ele>16.200000762939</ele>
        <time>2020-08-29T14:19:57.000Z</time>
      </trkpt>
      <trkpt lat="47.03581" lon="-1.67337">
        <ele>16.200000762939</ele>
        <time>2020-08-29T14:19:58.000Z</time>
      </trkpt>
      <trkpt lat="47.03563" lon="-1.6729">
        <ele>16.60000038147</ele>
        <time>2020-08-29T14:20:05.000Z</time>
      </trkpt>
      <trkpt lat="47.0355" lon="-1.67263">
        <ele>17.200000762939</ele>
        <time>2020-08-29T14:20:10.000Z</time>
      </trkpt>
      <trkpt lat="47.03547" lon="-1.67259">
        <ele>17.39999961853</ele>
        <time>2020-08-29T14:20:11.000Z</time>
      </trkpt>
      <trkpt lat="47.03531" lon="-1.67231">
        <ele>18</ele>
        <time>2020-08-29T14:20:19.000Z</time>
      </trkpt>
      <trkpt lat="47.03523" lon="-1.67217">
        <ele>18.39999961853</ele>
        <time>2020-08-29T14:20:23.000Z</time>
      </trkpt>
      <trkpt lat="47.03517" lon="-1.67206">
        <ele>18.39999961853</ele>
        <time>2020-08-29T14:20:26.000Z</time>
      </trkpt>
      <trkpt lat="47.03514" lon="-1.67186">
        <ele>18.39999961853</ele>
        <time>2020-08-29T14:20:29.000Z</time>
      </trkpt>
      <trkpt lat="47.03513" lon="-1.67179">
        <ele>18.39999961853</ele>
        <time>2020-08-29T14:20:30.000Z</time>
      </trkpt>
      <trkpt lat="47.03503" lon="-1.67114">
        <ele>18.39999961853</ele>
        <time>2020-08-29T14:20:38.000Z</time>
      </trkpt>
      <trkpt lat="47.03497" lon="-1.6708">
        <ele>18.60000038147</ele>
        <time>2020-08-29T14:20:42.000Z</time>
      </trkpt>
      <trkpt lat="47.03496" lon="-1.67072">
        <ele>18.799999237061</ele>
        <time>2020-08-29T14:20:43.000Z</time>
      </trkpt>
      <trkpt lat="47.03494" lon="-1.67064">
        <ele>18.799999237061</ele>
        <time>2020-08-29T14:20:44.000Z</time>
      </trkpt>
      <trkpt lat="47.03493" lon="-1.67055">
        <ele>19</ele>
        <time>2020-08-29T14:20:45.000Z</time>
      </trkpt>
      <trkpt lat="47.03491" lon="-1.67038">
        <ele>19.200000762939</ele>
        <time>2020-08-29T14:20:47.000Z</time>
      </trkpt>
      <trkpt lat="47.03483" lon="-1.66997">
        <ele>19.60000038147</ele>
        <time>2020-08-29T14:20:52.000Z</time>
      </trkpt>
      <trkpt lat="47.0348" lon="-1.6696">
        <ele>19.200000762939</ele>
        <time>2020-08-29T14:20:56.000Z</time>
      </trkpt>
      <trkpt lat="47.0348" lon="-1.6695">
        <ele>19</ele>
        <time>2020-08-29T14:20:57.000Z</time>
      </trkpt>
      <trkpt lat="47.03479" lon="-1.66941">
        <ele>18.60000038147</ele>
        <time>2020-08-29T14:20:58.000Z</time>
      </trkpt>
      <trkpt lat="47.0348" lon="-1.66922">
        <ele>18.200000762939</ele>
        <time>2020-08-29T14:21:00.000Z</time>
      </trkpt>
      <trkpt lat="47.03482" lon="-1.66877">
        <ele>17.799999237061</ele>
        <time>2020-08-29T14:21:05.000Z</time>
      </trkpt>
      <trkpt lat="47.03484" lon="-1.66864">
        <ele>17.799999237061</ele>
        <time>2020-08-29T14:21:07.000Z</time>
      </trkpt>
      <trkpt lat="47.03489" lon="-1.66858">
        <ele>17.60000038147</ele>
        <time>2020-08-29T14:21:09.000Z</time>
      </trkpt>
      <trkpt lat="47.03505" lon="-1.66862">
        <ele>17</ele>
        <time>2020-08-29T14:21:12.000Z</time>
      </trkpt>
      <trkpt lat="47.03512" lon="-1.66863">
        <ele>16.799999237061</ele>
        <time>2020-08-29T14:21:13.000Z</time>
      </trkpt>
      <trkpt lat="47.03542" lon="-1.66863">
        <ele>15.800000190735</ele>
        <time>2020-08-29T14:21:17.000Z</time>
      </trkpt>
      <trkpt lat="47.03556" lon="-1.66859">
        <ele>15.39999961853</ele>
        <time>2020-08-29T14:21:19.000Z</time>
      </trkpt>
      <trkpt lat="47.03568" lon="-1.66849">
        <ele>15.199999809265</ele>
        <time>2020-08-29T14:21:21.000Z</time>
      </trkpt>
      <trkpt lat="47.03574" lon="-1.66843">
        <ele>15</ele>
        <time>2020-08-29T14:21:22.000Z</time>
      </trkpt>
      <trkpt lat="47.03578" lon="-1.66837">
        <ele>15</ele>
        <time>2020-08-29T14:21:23.000Z</time>
      </trkpt>
      <trkpt lat="47.03586" lon="-1.66823">
        <ele>14.800000190735</ele>
        <time>2020-08-29T14:21:25.000Z</time>
      </trkpt>
      <trkpt lat="47.0361" lon="-1.66777">
        <ele>14.199999809265</ele>
        <time>2020-08-29T14:21:31.000Z</time>
      </trkpt>
      <trkpt lat="47.03615" lon="-1.6677">
        <ele>14.199999809265</ele>
        <time>2020-08-29T14:21:32.000Z</time>
      </trkpt>
      <trkpt lat="47.03624" lon="-1.66756">
        <ele>14</ele>
        <time>2020-08-29T14:21:34.000Z</time>
      </trkpt>
      <trkpt lat="47.03641" lon="-1.66738">
        <ele>13.60000038147</ele>
        <time>2020-08-29T14:21:37.000Z</time>
      </trkpt>
      <trkpt lat="47.03646" lon="-1.66733">
        <ele>13.39999961853</ele>
        <time>2020-08-29T14:21:38.000Z</time>
      </trkpt>
      <trkpt lat="47.03652" lon="-1.66728">
        <ele>13.199999809265</ele>
        <time>2020-08-29T14:21:39.000Z</time>
      </trkpt>
      <trkpt lat="47.03658" lon="-1.66723">
        <ele>12.800000190735</ele>
        <time>2020-08-29T14:21:40.000Z</time>
      </trkpt>
      <trkpt lat="47.03664" lon="-1.66718">
        <ele>12.800000190735</ele>
        <time>2020-08-29T14:21:41.000Z</time>
      </trkpt>
      <trkpt lat="47.03676" lon="-1.66709">
        <ele>12.60000038147</ele>
        <time>2020-08-29T14:21:43.000Z</time>
      </trkpt>
      <trkpt lat="47.03683" lon="-1.66705">
        <ele>12.60000038147</ele>
        <time>2020-08-29T14:21:44.000Z</time>
      </trkpt>
      <trkpt lat="47.03698" lon="-1.667">
        <ele>12.60000038147</ele>
        <time>2020-08-29T14:21:46.000Z</time>
      </trkpt>
      <trkpt lat="47.03706" lon="-1.667">
        <ele>12.60000038147</ele>
        <time>2020-08-29T14:21:47.000Z</time>
      </trkpt>
      <trkpt lat="47.03714" lon="-1.66701">
        <ele>12.60000038147</ele>
        <time>2020-08-29T14:21:48.000Z</time>
      </trkpt>
      <trkpt lat="47.03729" lon="-1.66702">
        <ele>12.60000038147</ele>
        <time>2020-08-29T14:21:50.000Z</time>
      </trkpt>
      <trkpt lat="47.03737" lon="-1.66703">
        <ele>12.60000038147</ele>
        <time>2020-08-29T14:21:51.000Z</time>
      </trkpt>
      <trkpt lat="47.03752" lon="-1.66701">
        <ele>12.39999961853</ele>
        <time>2020-08-29T14:21:53.000Z</time>
      </trkpt>
      <trkpt lat="47.03768" lon="-1.66697">
        <ele>12</ele>
        <time>2020-08-29T14:21:55.000Z</time>
      </trkpt>
      <trkpt lat="47.03818" lon="-1.66676">
        <ele>10.199999809265</ele>
        <time>2020-08-29T14:22:02.000Z</time>
      </trkpt>
      <trkpt lat="47.03824" lon="-1.66671">
        <ele>10</ele>
        <time>2020-08-29T14:22:03.000Z</time>
      </trkpt>
      <trkpt lat="47.03854" lon="-1.66643">
        <ele>9.6000003814697</ele>
        <time>2020-08-29T14:22:08.000Z</time>
      </trkpt>
      <trkpt lat="47.03864" lon="-1.6663">
        <ele>9.6000003814697</ele>
        <time>2020-08-29T14:22:10.000Z</time>
      </trkpt>
      <trkpt lat="47.03875" lon="-1.66617">
        <ele>9.6000003814697</ele>
        <time>2020-08-29T14:22:12.000Z</time>
      </trkpt>
      <trkpt lat="47.03892" lon="-1.66597">
        <ele>9.8000001907349</ele>
        <time>2020-08-29T14:22:15.000Z</time>
      </trkpt>
      <trkpt lat="47.03904" lon="-1.66584">
        <ele>9.8000001907349</ele>
        <time>2020-08-29T14:22:17.000Z</time>
      </trkpt>
      <trkpt lat="47.03916" lon="-1.66571">
        <ele>9.8000001907349</ele>
        <time>2020-08-29T14:22:19.000Z</time>
      </trkpt>
      <trkpt lat="47.03941" lon="-1.66547">
        <ele>8.8000001907349</ele>
        <time>2020-08-29T14:22:23.000Z</time>
      </trkpt>
      <trkpt lat="47.03947" lon="-1.66542">
        <ele>8.3999996185303</ele>
        <time>2020-08-29T14:22:24.000Z</time>
      </trkpt>
      <trkpt lat="47.03965" lon="-1.66528">
        <ele>7.5999999046326</ele>
        <time>2020-08-29T14:22:27.000Z</time>
      </trkpt>
      <trkpt lat="47.03986" lon="-1.66513">
        <ele>6.8000001907349</ele>
        <time>2020-08-29T14:22:30.000Z</time>
      </trkpt>
      <trkpt lat="47.04014" lon="-1.66492">
        <ele>6.1999998092651</ele>
        <time>2020-08-29T14:22:34.000Z</time>
      </trkpt>
      <trkpt lat="47.04029" lon="-1.66482">
        <ele>6</ele>
        <time>2020-08-29T14:22:36.000Z</time>
      </trkpt>
      <trkpt lat="47.04066" lon="-1.66461">
        <ele>6.4000000953674</ele>
        <time>2020-08-29T14:22:41.000Z</time>
      </trkpt>
      <trkpt lat="47.04074" lon="-1.66457">
        <ele>6.4000000953674</ele>
        <time>2020-08-29T14:22:42.000Z</time>
      </trkpt>
      <trkpt lat="47.0409" lon="-1.66452">
        <ele>6.1999998092651</ele>
        <time>2020-08-29T14:22:44.000Z</time>
      </trkpt>
      <trkpt lat="47.04105" lon="-1.66449">
        <ele>6</ele>
        <time>2020-08-29T14:22:46.000Z</time>
      </trkpt>
      <trkpt lat="47.04146" lon="-1.66446">
        <ele>5.5999999046326</ele>
        <time>2020-08-29T14:22:52.000Z</time>
      </trkpt>
      <trkpt lat="47.0417" lon="-1.66444">
        <ele>5.4000000953674</ele>
        <time>2020-08-29T14:22:57.000Z</time>
      </trkpt>
      <trkpt lat="47.04172" lon="-1.66439">
        <ele>5.4000000953674</ele>
        <time>2020-08-29T14:22:58.000Z</time>
      </trkpt>
      <trkpt lat="47.04172" lon="-1.66433">
        <ele>5.4000000953674</ele>
        <time>2020-08-29T14:22:59.000Z</time>
      </trkpt>
      <trkpt lat="47.04169" lon="-1.66421">
        <ele>5.5999999046326</ele>
        <time>2020-08-29T14:23:01.000Z</time>
      </trkpt>
      <trkpt lat="47.04163" lon="-1.66401">
        <ele>6</ele>
        <time>2020-08-29T14:23:04.000Z</time>
      </trkpt>
      <trkpt lat="47.04161" lon="-1.66394">
        <ele>5.8000001907349</ele>
        <time>2020-08-29T14:23:05.000Z</time>
      </trkpt>
      <trkpt lat="47.04154" lon="-1.66372">
        <ele>5.5999999046326</ele>
        <time>2020-08-29T14:23:08.000Z</time>
      </trkpt>
      <trkpt lat="47.04139" lon="-1.66314">
        <ele>5.4000000953674</ele>
        <time>2020-08-29T14:23:15.000Z</time>
      </trkpt>
      <trkpt lat="47.04122" lon="-1.66253">
        <ele>6</ele>
        <time>2020-08-29T14:23:22.000Z</time>
      </trkpt>
      <trkpt lat="47.04115" lon="-1.66229">
        <ele>6</ele>
        <time>2020-08-29T14:23:25.000Z</time>
      </trkpt>
      <trkpt lat="47.04097" lon="-1.66165">
        <ele>6</ele>
        <time>2020-08-29T14:23:33.000Z</time>
      </trkpt>
      <trkpt lat="47.0408" lon="-1.66104">
        <ele>6.5999999046326</ele>
        <time>2020-08-29T14:23:40.000Z</time>
      </trkpt>
      <trkpt lat="47.04062" lon="-1.66034">
        <ele>7.8000001907349</ele>
        <time>2020-08-29T14:23:48.000Z</time>
      </trkpt>
      <trkpt lat="47.04053" lon="-1.65998">
        <ele>8.3999996185303</ele>
        <time>2020-08-29T14:23:52.000Z</time>
      </trkpt>
      <trkpt lat="47.04042" lon="-1.65962">
        <ele>9</ele>
        <time>2020-08-29T14:23:56.000Z</time>
      </trkpt>
      <trkpt lat="47.04023" lon="-1.65894">
        <ele>8.8000001907349</ele>
        <time>2020-08-29T14:24:03.000Z</time>
      </trkpt>
      <trkpt lat="47.04" lon="-1.65814">
        <ele>7.8000001907349</ele>
        <time>2020-08-29T14:24:11.000Z</time>
      </trkpt>
      <trkpt lat="47.03998" lon="-1.65804">
        <ele>7.5999999046326</ele>
        <time>2020-08-29T14:24:12.000Z</time>
      </trkpt>
      <trkpt lat="47.03975" lon="-1.65726">
        <ele>6.1999998092651</ele>
        <time>2020-08-29T14:24:20.000Z</time>
      </trkpt>
      <trkpt lat="47.0397" lon="-1.65707">
        <ele>5.8000001907349</ele>
        <time>2020-08-29T14:24:22.000Z</time>
      </trkpt>
      <trkpt lat="47.03956" lon="-1.65658">
        <ele>5</ele>
        <time>2020-08-29T14:24:27.000Z</time>
      </trkpt>
      <trkpt lat="47.03948" lon="-1.65629">
        <ele>5.4000000953674</ele>
        <time>2020-08-29T14:24:30.000Z</time>
      </trkpt>
      <trkpt lat="47.03927" lon="-1.65554">
        <ele>4.5999999046326</ele>
        <time>2020-08-29T14:24:38.000Z</time>
      </trkpt>
      <trkpt lat="47.03908" lon="-1.65483">
        <ele>6</ele>
        <time>2020-08-29T14:24:46.000Z</time>
      </trkpt>
      <trkpt lat="47.03886" lon="-1.65404">
        <ele>6.5999999046326</ele>
        <time>2020-08-29T14:24:55.000Z</time>
      </trkpt>
      <trkpt lat="47.03866" lon="-1.65349">
        <ele>5.5999999046326</ele>
        <time>2020-08-29T14:25:02.000Z</time>
      </trkpt>
      <trkpt lat="47.03858" lon="-1.65337">
        <ele>5.8000001907349</ele>
        <time>2020-08-29T14:25:04.000Z</time>
      </trkpt>
      <trkpt lat="47.03849" lon="-1.65329">
        <ele>5.8000001907349</ele>
        <time>2020-08-29T14:25:06.000Z</time>
      </trkpt>
      <trkpt lat="47.03847" lon="-1.65324">
        <ele>6</ele>
        <time>2020-08-29T14:25:07.000Z</time>
      </trkpt>
      <trkpt lat="47.03846" lon="-1.65318">
        <ele>6</ele>
        <time>2020-08-29T14:25:08.000Z</time>
      </trkpt>
      <trkpt lat="47.0385" lon="-1.65305">
        <ele>5.8000001907349</ele>
        <time>2020-08-29T14:25:10.000Z</time>
      </trkpt>
      <trkpt lat="47.03862" lon="-1.65287">
        <ele>5.5999999046326</ele>
        <time>2020-08-29T14:25:13.000Z</time>
      </trkpt>
      <trkpt lat="47.03867" lon="-1.65282">
        <ele>5.5999999046326</ele>
        <time>2020-08-29T14:25:14.000Z</time>
      </trkpt>
      <trkpt lat="47.03901" lon="-1.65258">
        <ele>5.1999998092651</ele>
        <time>2020-08-29T14:25:20.000Z</time>
      </trkpt>
      <trkpt lat="47.03948" lon="-1.65228">
        <ele>5.1999998092651</ele>
        <time>2020-08-29T14:25:28.000Z</time>
      </trkpt>
      <trkpt lat="47.03977" lon="-1.65207">
        <ele>5.1999998092651</ele>
        <time>2020-08-29T14:25:33.000Z</time>
      </trkpt>
      <trkpt lat="47.03995" lon="-1.65196">
        <ele>5</ele>
        <time>2020-08-29T14:25:36.000Z</time>
      </trkpt>
      <trkpt lat="47.04038" lon="-1.65166">
        <ele>4.4000000953674</ele>
        <time>2020-08-29T14:25:43.000Z</time>
      </trkpt>
      <trkpt lat="47.04088" lon="-1.65132">
        <ele>4</ele>
        <time>2020-08-29T14:25:51.000Z</time>
      </trkpt>
      <trkpt lat="47.04131" lon="-1.65104">
        <ele>3.4000000953674</ele>
        <time>2020-08-29T14:25:58.000Z</time>
      </trkpt>
      <trkpt lat="47.04137" lon="-1.651">
        <ele>3.4000000953674</ele>
        <time>2020-08-29T14:25:59.000Z</time>
      </trkpt>
      <trkpt lat="47.04149" lon="-1.65092">
        <ele>3.4000000953674</ele>
        <time>2020-08-29T14:26:01.000Z</time>
      </trkpt>
      <trkpt lat="47.0416" lon="-1.65085">
        <ele>3.4000000953674</ele>
        <time>2020-08-29T14:26:03.000Z</time>
      </trkpt>
      <trkpt lat="47.04178" lon="-1.65073">
        <ele>2.7999999523163</ele>
        <time>2020-08-29T14:26:06.000Z</time>
      </trkpt>
      <trkpt lat="47.04184" lon="-1.65069">
        <ele>2.7999999523163</ele>
        <time>2020-08-29T14:26:07.000Z</time>
      </trkpt>
      <trkpt lat="47.04235" lon="-1.65034">
        <ele>2.5999999046326</ele>
        <time>2020-08-29T14:26:16.000Z</time>
      </trkpt>
      <trkpt lat="47.0424" lon="-1.6503">
        <ele>2.4000000953674</ele>
        <time>2020-08-29T14:26:17.000Z</time>
      </trkpt>
      <trkpt lat="47.04252" lon="-1.65022">
        <ele>2.4000000953674</ele>
        <time>2020-08-29T14:26:19.000Z</time>
      </trkpt>
      <trkpt lat="47.04286" lon="-1.64998">
        <ele>1.7999999523163</ele>
        <time>2020-08-29T14:26:25.000Z</time>
      </trkpt>
      <trkpt lat="47.04297" lon="-1.6499">
        <ele>1.6000000238419</ele>
        <time>2020-08-29T14:26:27.000Z</time>
      </trkpt>
      <trkpt lat="47.04328" lon="-1.64965">
        <ele>1.3999999761581</ele>
        <time>2020-08-29T14:26:33.000Z</time>
      </trkpt>
      <trkpt lat="47.04368" lon="-1.64932">
        <ele>3.2000000476837</ele>
        <time>2020-08-29T14:26:41.000Z</time>
      </trkpt>
      <trkpt lat="47.04394" lon="-1.64908">
        <ele>4.4000000953674</ele>
        <time>2020-08-29T14:26:47.000Z</time>
      </trkpt>
      <trkpt lat="47.04398" lon="-1.64904">
        <ele>4.5999999046326</ele>
        <time>2020-08-29T14:26:48.000Z</time>
      </trkpt>
      <trkpt lat="47.04417" lon="-1.64892">
        <ele>4.8000001907349</ele>
        <time>2020-08-29T14:26:52.000Z</time>
      </trkpt>
      <trkpt lat="47.04428" lon="-1.64891">
        <ele>4.8000001907349</ele>
        <time>2020-08-29T14:26:54.000Z</time>
      </trkpt>
      <trkpt lat="47.04433" lon="-1.64891">
        <ele>4.8000001907349</ele>
        <time>2020-08-29T14:26:55.000Z</time>
      </trkpt>
      <trkpt lat="47.04448" lon="-1.64898">
        <ele>4.8000001907349</ele>
        <time>2020-08-29T14:26:58.000Z</time>
      </trkpt>
      <trkpt lat="47.04468" lon="-1.6491">
        <ele>4.8000001907349</ele>
        <time>2020-08-29T14:27:02.000Z</time>
      </trkpt>
      <trkpt lat="47.04472" lon="-1.6491">
        <ele>4.8000001907349</ele>
        <time>2020-08-29T14:27:03.000Z</time>
      </trkpt>
      <trkpt lat="47.04475" lon="-1.64909">
        <ele>4.8000001907349</ele>
        <time>2020-08-29T14:27:04.000Z</time>
      </trkpt>
      <trkpt lat="47.04478" lon="-1.64901">
        <ele>5</ele>
        <time>2020-08-29T14:27:06.000Z</time>
      </trkpt>
      <trkpt lat="47.04474" lon="-1.64884">
        <ele>4.5999999046326</ele>
        <time>2020-08-29T14:27:10.000Z</time>
      </trkpt>
      <trkpt lat="47.04466" lon="-1.64874">
        <ele>4.4000000953674</ele>
        <time>2020-08-29T14:27:13.000Z</time>
      </trkpt>
      <trkpt lat="47.04459" lon="-1.64864">
        <ele>4</ele>
        <time>2020-08-29T14:27:16.000Z</time>
      </trkpt>
      <trkpt lat="47.04464" lon="-1.64853">
        <ele>3.7999999523163</ele>
        <time>2020-08-29T14:27:19.000Z</time>
      </trkpt>
      <trkpt lat="47.04483" lon="-1.64827">
        <ele>3.2000000476837</ele>
        <time>2020-08-29T14:27:26.000Z</time>
      </trkpt>
      <trkpt lat="47.04492" lon="-1.64816">
        <ele>3</ele>
        <time>2020-08-29T14:27:29.000Z</time>
      </trkpt>
      <trkpt lat="47.04501" lon="-1.64801">
        <ele>2.7999999523163</ele>
        <time>2020-08-29T14:27:33.000Z</time>
      </trkpt>
      <trkpt lat="47.04506" lon="-1.64793">
        <ele>2.5999999046326</ele>
        <time>2020-08-29T14:27:35.000Z</time>
      </trkpt>
      <trkpt lat="47.04515" lon="-1.6477">
        <ele>2.4000000953674</ele>
        <time>2020-08-29T14:27:40.000Z</time>
      </trkpt>
      <trkpt lat="47.0452" lon="-1.64754">
        <ele>2.2000000476837</ele>
        <time>2020-08-29T14:27:44.000Z</time>
      </trkpt>
      <trkpt lat="47.04531" lon="-1.64737">
        <ele>2</ele>
        <time>2020-08-29T14:27:48.000Z</time>
      </trkpt>
      <trkpt lat="47.04537" lon="-1.64728">
        <ele>2</ele>
        <time>2020-08-29T14:27:50.000Z</time>
      </trkpt>
      <trkpt lat="47.04546" lon="-1.64712">
        <ele>2.2000000476837</ele>
        <time>2020-08-29T14:27:53.000Z</time>
      </trkpt>
      <trkpt lat="47.04556" lon="-1.64699">
        <ele>2.4000000953674</ele>
        <time>2020-08-29T14:27:56.000Z</time>
      </trkpt>
      <trkpt lat="47.04559" lon="-1.64697">
        <ele>2.4000000953674</ele>
        <time>2020-08-29T14:27:57.000Z</time>
      </trkpt>
      <trkpt lat="47.04567" lon="-1.64694">
        <ele>2.5999999046326</ele>
        <time>2020-08-29T14:27:59.000Z</time>
      </trkpt>
      <trkpt lat="47.04571" lon="-1.6469">
        <ele>2.5999999046326</ele>
        <time>2020-08-29T14:28:00.000Z</time>
      </trkpt>
      <trkpt lat="47.04575" lon="-1.64685">
        <ele>2.5999999046326</ele>
        <time>2020-08-29T14:28:01.000Z</time>
      </trkpt>
      <trkpt lat="47.04581" lon="-1.64675">
        <ele>2.7999999523163</ele>
        <time>2020-08-29T14:28:03.000Z</time>
      </trkpt>
      <trkpt lat="47.04587" lon="-1.64663">
        <ele>2.7999999523163</ele>
        <time>2020-08-29T14:28:05.000Z</time>
      </trkpt>
      <trkpt lat="47.04596" lon="-1.64644">
        <ele>3</ele>
        <time>2020-08-29T14:28:08.000Z</time>
      </trkpt>
      <trkpt lat="47.04613" lon="-1.64614">
        <ele>2.5999999046326</ele>
        <time>2020-08-29T14:28:13.000Z</time>
      </trkpt>
      <trkpt lat="47.04638" lon="-1.64565">
        <ele>2.2000000476837</ele>
        <time>2020-08-29T14:28:20.000Z</time>
      </trkpt>
      <trkpt lat="47.04642" lon="-1.64558">
        <ele>2</ele>
        <time>2020-08-29T14:28:21.000Z</time>
      </trkpt>
      <trkpt lat="47.04662" lon="-1.64507">
        <ele>1.2000000476837</ele>
        <time>2020-08-29T14:28:28.000Z</time>
      </trkpt>
      <trkpt lat="47.04678" lon="-1.64465">
        <ele>0.60000002384186</ele>
        <time>2020-08-29T14:28:34.000Z</time>
      </trkpt>
      <trkpt lat="47.04684" lon="-1.64453">
        <ele>0.60000002384186</ele>
        <time>2020-08-29T14:28:36.000Z</time>
      </trkpt>
      <trkpt lat="47.04695" lon="-1.64436">
        <ele>0.40000000596046</ele>
        <time>2020-08-29T14:28:39.000Z</time>
      </trkpt>
      <trkpt lat="47.04698" lon="-1.64431">
        <ele>0.20000000298023</ele>
        <time>2020-08-29T14:28:40.000Z</time>
      </trkpt>
      <trkpt lat="47.04721" lon="-1.64392">
        <ele>2.5</ele>
        <time>2020-08-29T14:28:47.000Z</time>
      </trkpt>
      <trkpt lat="47.04723" lon="-1.64387">
        <ele>2.5</ele>
        <time>2020-08-29T14:28:48.000Z</time>
      </trkpt>
      <trkpt lat="47.04726" lon="-1.64381">
        <ele>0.20000000298023</ele>
        <time>2020-08-29T14:28:49.000Z</time>
      </trkpt>
      <trkpt lat="47.04729" lon="-1.64372">
        <ele>0.20000000298023</ele>
        <time>2020-08-29T14:28:51.000Z</time>
      </trkpt>
      <trkpt lat="47.04731" lon="-1.64364">
        <ele>0.40000000596046</ele>
        <time>2020-08-29T14:28:53.000Z</time>
      </trkpt>
      <trkpt lat="47.04728" lon="-1.64345">
        <ele>0.80000001192093</ele>
        <time>2020-08-29T14:28:58.000Z</time>
      </trkpt>
      <trkpt lat="47.04728" lon="-1.64328">
        <ele>1.3999999761581</ele>
        <time>2020-08-29T14:29:02.000Z</time>
      </trkpt>
      <trkpt lat="47.0473" lon="-1.64325">
        <ele>1.3999999761581</ele>
        <time>2020-08-29T14:29:03.000Z</time>
      </trkpt>
      <trkpt lat="47.04733" lon="-1.64322">
        <ele>1.3999999761581</ele>
        <time>2020-08-29T14:29:04.000Z</time>
      </trkpt>
      <trkpt lat="47.04739" lon="-1.64323">
        <ele>1</ele>
        <time>2020-08-29T14:29:06.000Z</time>
      </trkpt>
      <trkpt lat="47.04748" lon="-1.64332">
        <ele>0.60000002384186</ele>
        <time>2020-08-29T14:29:10.000Z</time>
      </trkpt>
      <trkpt lat="47.04749" lon="-1.64334">
        <ele>0.60000002384186</ele>
        <time>2020-08-29T14:29:11.000Z</time>
      </trkpt>
      <trkpt lat="47.04754" lon="-1.64336">
        <ele>0.60000002384186</ele>
        <time>2020-08-29T14:29:15.000Z</time>
      </trkpt>
      <trkpt lat="47.04761" lon="-1.64345">
        <ele>0.40000000596046</ele>
        <time>2020-08-29T14:29:20.000Z</time>
      </trkpt>
      <trkpt lat="47.04771" lon="-1.64359">
        <ele>1.2</ele>
        <time>2020-08-29T14:29:26.000Z</time>
      </trkpt>
      <trkpt lat="47.04778" lon="-1.6437">
        <ele>-0.20000000298023</ele>
        <time>2020-08-29T14:29:30.000Z</time>
      </trkpt>
      <trkpt lat="47.0478" lon="-1.64373">
        <ele>1.3</ele>
        <time>2020-08-29T14:29:31.000Z</time>
      </trkpt>
      <trkpt lat="47.04784" lon="-1.6438">
        <ele>0.20000000298023</ele>
        <time>2020-08-29T14:29:33.000Z</time>
      </trkpt>
      <trkpt lat="47.04791" lon="-1.64388">
        <ele>0.60000002384186</ele>
        <time>2020-08-29T14:29:36.000Z</time>
      </trkpt>
      <trkpt lat="47.04796" lon="-1.64396">
        <ele>0.80000001192093</ele>
        <time>2020-08-29T14:29:38.000Z</time>
      </trkpt>
      <trkpt lat="47.04802" lon="-1.64404">
        <ele>1.2000000476837</ele>
        <time>2020-08-29T14:29:40.000Z</time>
      </trkpt>
      <trkpt lat="47.04828" lon="-1.64444">
        <ele>2</ele>
        <time>2020-08-29T14:29:48.000Z</time>
      </trkpt>
      <trkpt lat="47.04854" lon="-1.64484">
        <ele>2</ele>
        <time>2020-08-29T14:29:56.000Z</time>
      </trkpt>
      <trkpt lat="47.04864" lon="-1.64499">
        <ele>2.4000000953674</ele>
        <time>2020-08-29T14:29:59.000Z</time>
      </trkpt>
      <trkpt lat="47.04876" lon="-1.64516">
        <ele>2.7999999523163</ele>
        <time>2020-08-29T14:30:03.000Z</time>
      </trkpt>
      <trkpt lat="47.04881" lon="-1.64541">
        <ele>2.5999999046326</ele>
        <time>2020-08-29T14:30:08.000Z</time>
      </trkpt>
      <trkpt lat="47.04883" lon="-1.64571">
        <ele>2.5999999046326</ele>
        <time>2020-08-29T14:30:13.000Z</time>
      </trkpt>
      <trkpt lat="47.04884" lon="-1.6458">
        <ele>2.4000000953674</ele>
        <time>2020-08-29T14:30:15.000Z</time>
      </trkpt>
      <trkpt lat="47.04886" lon="-1.64615">
        <ele>2.2000000476837</ele>
        <time>2020-08-29T14:30:21.000Z</time>
      </trkpt>
      <trkpt lat="47.04885" lon="-1.64636">
        <ele>2.5999999046326</ele>
        <time>2020-08-29T14:30:24.000Z</time>
      </trkpt>
      <trkpt lat="47.04888" lon="-1.64662">
        <ele>2.7999999523163</ele>
        <time>2020-08-29T14:30:28.000Z</time>
      </trkpt>
      <trkpt lat="47.04891" lon="-1.64675">
        <ele>3</ele>
        <time>2020-08-29T14:30:30.000Z</time>
      </trkpt>
      <trkpt lat="47.04895" lon="-1.64692">
        <ele>2.5999999046326</ele>
        <time>2020-08-29T14:30:33.000Z</time>
      </trkpt>
      <trkpt lat="47.04895" lon="-1.64718">
        <ele>2.4000000953674</ele>
        <time>2020-08-29T14:30:37.000Z</time>
      </trkpt>
      <trkpt lat="47.04895" lon="-1.64725">
        <ele>2.2000000476837</ele>
        <time>2020-08-29T14:30:38.000Z</time>
      </trkpt>
      <trkpt lat="47.04895" lon="-1.64755">
        <ele>2.4000000953674</ele>
        <time>2020-08-29T14:30:42.000Z</time>
      </trkpt>
      <trkpt lat="47.04896" lon="-1.64778">
        <ele>3</ele>
        <time>2020-08-29T14:30:45.000Z</time>
      </trkpt>
      <trkpt lat="47.04899" lon="-1.64796">
        <ele>3.4000000953674</ele>
        <time>2020-08-29T14:30:47.000Z</time>
      </trkpt>
      <trkpt lat="47.04908" lon="-1.64818">
        <ele>4</ele>
        <time>2020-08-29T14:30:50.000Z</time>
      </trkpt>
      <trkpt lat="47.04932" lon="-1.64855">
        <ele>2.5999999046326</ele>
        <time>2020-08-29T14:30:57.000Z</time>
      </trkpt>
      <trkpt lat="47.0494" lon="-1.64856">
        <ele>2.4000000953674</ele>
        <time>2020-08-29T14:30:59.000Z</time>
      </trkpt>
      <trkpt lat="47.04944" lon="-1.64854">
        <ele>2.4000000953674</ele>
        <time>2020-08-29T14:31:00.000Z</time>
      </trkpt>
      <trkpt lat="47.04955" lon="-1.64834">
        <ele>2.5999999046326</ele>
        <time>2020-08-29T14:31:04.000Z</time>
      </trkpt>
      <trkpt lat="47.04962" lon="-1.64824">
        <ele>2.5999999046326</ele>
        <time>2020-08-29T14:31:06.000Z</time>
      </trkpt>
      <trkpt lat="47.04976" lon="-1.64804">
        <ele>2.2000000476837</ele>
        <time>2020-08-29T14:31:10.000Z</time>
      </trkpt>
      <trkpt lat="47.04995" lon="-1.64777">
        <ele>1.6000000238419</ele>
        <time>2020-08-29T14:31:16.000Z</time>
      </trkpt>
      <trkpt lat="47.04998" lon="-1.64773">
        <ele>1.6000000238419</ele>
        <time>2020-08-29T14:31:17.000Z</time>
      </trkpt>
      <trkpt lat="47.04999" lon="-1.6477">
        <ele>1.6000000238419</ele>
        <time>2020-08-29T14:31:23.000Z</time>
      </trkpt>
      <trkpt lat="47.05001" lon="-1.64768">
        <ele>1.6000000238419</ele>
        <time>2020-08-29T14:31:28.000Z</time>
      </trkpt>
      <trkpt lat="47.05003" lon="-1.64765">
        <ele>1.7999999523163</ele>
        <time>2020-08-29T14:31:34.000Z</time>
      </trkpt>
      <trkpt lat="47.05005" lon="-1.64762">
        <ele>1.7999999523163</ele>
        <time>2020-08-29T14:31:36.000Z</time>
      </trkpt>
      <trkpt lat="47.05007" lon="-1.64759">
        <ele>1.7999999523163</ele>
        <time>2020-08-29T14:31:41.000Z</time>
      </trkpt>
      <trkpt lat="47.05009" lon="-1.64756">
        <ele>1.7999999523163</ele>
        <time>2020-08-29T14:31:44.000Z</time>
      </trkpt>
      <trkpt lat="47.0501" lon="-1.64753">
        <ele>1.7999999523163</ele>
        <time>2020-08-29T14:31:46.000Z</time>
      </trkpt>
      <trkpt lat="47.05012" lon="-1.6475">
        <ele>1.7999999523163</ele>
        <time>2020-08-29T14:31:47.000Z</time>
      </trkpt>
      <trkpt lat="47.05014" lon="-1.64747">
        <ele>2</ele>
        <time>2020-08-29T14:31:49.000Z</time>
      </trkpt>
      <trkpt lat="47.05016" lon="-1.64744">
        <ele>2</ele>
        <time>2020-08-29T14:31:52.000Z</time>
      </trkpt>
      <trkpt lat="47.05018" lon="-1.64742">
        <ele>2</ele>
        <time>2020-08-29T14:31:56.000Z</time>
      </trkpt>
      <trkpt lat="47.05019" lon="-1.64739">
        <ele>2</ele>
        <time>2020-08-29T14:31:58.000Z</time>
      </trkpt>
      <trkpt lat="47.05021" lon="-1.64736">
        <ele>2</ele>
        <time>2020-08-29T14:32:03.000Z</time>
      </trkpt>
      <trkpt lat="47.05023" lon="-1.64733">
        <ele>2</ele>
        <time>2020-08-29T14:32:04.000Z</time>
      </trkpt>
      <trkpt lat="47.05025" lon="-1.6473">
        <ele>2.2000000476837</ele>
        <time>2020-08-29T14:32:13.000Z</time>
      </trkpt>
      <trkpt lat="47.05027" lon="-1.64727">
        <ele>2.2000000476837</ele>
        <time>2020-08-29T14:34:17.000Z</time>
      </trkpt>
      <trkpt lat="47.05029" lon="-1.64724">
        <ele>2.2000000476837</ele>
        <time>2020-08-29T14:34:18.000Z</time>
      </trkpt>
      <trkpt lat="47.05032" lon="-1.64719">
        <ele>2.4000000953674</ele>
        <time>2020-08-29T14:34:19.000Z</time>
      </trkpt>
      <trkpt lat="47.05042" lon="-1.64704">
        <ele>2.7999999523163</ele>
        <time>2020-08-29T14:34:22.000Z</time>
      </trkpt>
      <trkpt lat="47.05046" lon="-1.64698">
        <ele>3</ele>
        <time>2020-08-29T14:34:23.000Z</time>
      </trkpt>
      <trkpt lat="47.05053" lon="-1.64688">
        <ele>3.2000000476837</ele>
        <time>2020-08-29T14:34:25.000Z</time>
      </trkpt>
      <trkpt lat="47.0506" lon="-1.64677">
        <ele>3.4000000953674</ele>
        <time>2020-08-29T14:34:27.000Z</time>
      </trkpt>
      <trkpt lat="47.05063" lon="-1.64671">
        <ele>3.5999999046326</ele>
        <time>2020-08-29T14:34:28.000Z</time>
      </trkpt>
      <trkpt lat="47.05072" lon="-1.64657">
        <ele>3.7999999523163</ele>
        <time>2020-08-29T14:34:31.000Z</time>
      </trkpt>
      <trkpt lat="47.05074" lon="-1.64654">
        <ele>4</ele>
        <time>2020-08-29T14:34:32.000Z</time>
      </trkpt>
      <trkpt lat="47.05075" lon="-1.64653">
        <ele>4</ele>
        <time>2020-08-29T14:34:33.000Z</time>
      </trkpt>
      <trkpt lat="47.05078" lon="-1.64652">
        <ele>4</ele>
        <time>2020-08-29T14:34:36.000Z</time>
      </trkpt>
      <trkpt lat="47.0508" lon="-1.64654">
        <ele>4</ele>
        <time>2020-08-29T14:34:38.000Z</time>
      </trkpt>
      <trkpt lat="47.05085" lon="-1.6466">
        <ele>3.7999999523163</ele>
        <time>2020-08-29T14:34:41.000Z</time>
      </trkpt>
      <trkpt lat="47.05088" lon="-1.64664">
        <ele>3.7999999523163</ele>
        <time>2020-08-29T14:34:42.000Z</time>
      </trkpt>
      <trkpt lat="47.05105" lon="-1.64688">
        <ele>3.4000000953674</ele>
        <time>2020-08-29T14:34:47.000Z</time>
      </trkpt>
      <trkpt lat="47.05121" lon="-1.6471">
        <ele>3.4000000953674</ele>
        <time>2020-08-29T14:34:51.000Z</time>
      </trkpt>
      <trkpt lat="47.05138" lon="-1.64732">
        <ele>4</ele>
        <time>2020-08-29T14:34:55.000Z</time>
      </trkpt>
      <trkpt lat="47.05177" lon="-1.64788">
        <ele>4</ele>
        <time>2020-08-29T14:35:04.000Z</time>
      </trkpt>
      <trkpt lat="47.05181" lon="-1.64794">
        <ele>4</ele>
        <time>2020-08-29T14:35:05.000Z</time>
      </trkpt>
      <trkpt lat="47.05195" lon="-1.64813">
        <ele>4</ele>
        <time>2020-08-29T14:35:08.000Z</time>
      </trkpt>
      <trkpt lat="47.05204" lon="-1.64825">
        <ele>4</ele>
        <time>2020-08-29T14:35:10.000Z</time>
      </trkpt>
      <trkpt lat="47.05209" lon="-1.64831">
        <ele>4</ele>
        <time>2020-08-29T14:35:11.000Z</time>
      </trkpt>
      <trkpt lat="47.05213" lon="-1.64837">
        <ele>4</ele>
        <time>2020-08-29T14:35:12.000Z</time>
      </trkpt>
      <trkpt lat="47.05225" lon="-1.64857">
        <ele>3.7999999523163</ele>
        <time>2020-08-29T14:35:15.000Z</time>
      </trkpt>
      <trkpt lat="47.05246" lon="-1.64888">
        <ele>3.2000000476837</ele>
        <time>2020-08-29T14:35:20.000Z</time>
      </trkpt>
      <trkpt lat="47.05251" lon="-1.64893">
        <ele>3</ele>
        <time>2020-08-29T14:35:21.000Z</time>
      </trkpt>
      <trkpt lat="47.05268" lon="-1.64906">
        <ele>2.5999999046326</ele>
        <time>2020-08-29T14:35:25.000Z</time>
      </trkpt>
      <trkpt lat="47.0528" lon="-1.64914">
        <ele>2.5999999046326</ele>
        <time>2020-08-29T14:35:28.000Z</time>
      </trkpt>
      <trkpt lat="47.05288" lon="-1.64922">
        <ele>2.4000000953674</ele>
        <time>2020-08-29T14:35:30.000Z</time>
      </trkpt>
      <trkpt lat="47.0529" lon="-1.64928">
        <ele>2.4000000953674</ele>
        <time>2020-08-29T14:35:31.000Z</time>
      </trkpt>
      <trkpt lat="47.05291" lon="-1.64935">
        <ele>2.4000000953674</ele>
        <time>2020-08-29T14:35:32.000Z</time>
      </trkpt>
      <trkpt lat="47.05295" lon="-1.64967">
        <ele>2.4000000953674</ele>
        <time>2020-08-29T14:35:36.000Z</time>
      </trkpt>
      <trkpt lat="47.05296" lon="-1.64976">
        <ele>2.4000000953674</ele>
        <time>2020-08-29T14:35:37.000Z</time>
      </trkpt>
      <trkpt lat="47.05298" lon="-1.64984">
        <ele>2.4000000953674</ele>
        <time>2020-08-29T14:35:38.000Z</time>
      </trkpt>
      <trkpt lat="47.05311" lon="-1.65017">
        <ele>1.7999999523163</ele>
        <time>2020-08-29T14:35:42.000Z</time>
      </trkpt>
      <trkpt lat="47.05333" lon="-1.65068">
        <ele>2</ele>
        <time>2020-08-29T14:35:48.000Z</time>
      </trkpt>
      <trkpt lat="47.05339" lon="-1.65084">
        <ele>1.7999999523163</ele>
        <time>2020-08-29T14:35:50.000Z</time>
      </trkpt>
      <trkpt lat="47.05344" lon="-1.651">
        <ele>1.6000000238419</ele>
        <time>2020-08-29T14:35:52.000Z</time>
      </trkpt>
      <trkpt lat="47.05356" lon="-1.6512">
        <ele>1.3999999761581</ele>
        <time>2020-08-29T14:35:55.000Z</time>
      </trkpt>
      <trkpt lat="47.05386" lon="-1.6516">
        <ele>1.6000000238419</ele>
        <time>2020-08-29T14:36:02.000Z</time>
      </trkpt>
      <trkpt lat="47.05408" lon="-1.65188">
        <ele>1.6000000238419</ele>
        <time>2020-08-29T14:36:07.000Z</time>
      </trkpt>
      <trkpt lat="47.05423" lon="-1.65211">
        <ele>1.6000000238419</ele>
        <time>2020-08-29T14:36:11.000Z</time>
      </trkpt>
      <trkpt lat="47.05451" lon="-1.6525">
        <ele>1.3999999761581</ele>
        <time>2020-08-29T14:36:18.000Z</time>
      </trkpt>
      <trkpt lat="47.05479" lon="-1.65289">
        <ele>1.6000000238419</ele>
        <time>2020-08-29T14:36:25.000Z</time>
      </trkpt>
      <trkpt lat="47.05486" lon="-1.653">
        <ele>1.7999999523163</ele>
        <time>2020-08-29T14:36:27.000Z</time>
      </trkpt>
      <trkpt lat="47.0549" lon="-1.65305">
        <ele>2</ele>
        <time>2020-08-29T14:36:28.000Z</time>
      </trkpt>
      <trkpt lat="47.05498" lon="-1.65316">
        <ele>2</ele>
        <time>2020-08-29T14:36:30.000Z</time>
      </trkpt>
      <trkpt lat="47.05505" lon="-1.65328">
        <ele>1.7999999523163</ele>
        <time>2020-08-29T14:36:32.000Z</time>
      </trkpt>
      <trkpt lat="47.05509" lon="-1.65333">
        <ele>1.6000000238419</ele>
        <time>2020-08-29T14:36:33.000Z</time>
      </trkpt>
      <trkpt lat="47.05512" lon="-1.65339">
        <ele>1.6000000238419</ele>
        <time>2020-08-29T14:36:34.000Z</time>
      </trkpt>
      <trkpt lat="47.0554" lon="-1.65377">
        <ele>1.2000000476837</ele>
        <time>2020-08-29T14:36:41.000Z</time>
      </trkpt>
      <trkpt lat="47.05555" lon="-1.654">
        <ele>1.3999999761581</ele>
        <time>2020-08-29T14:36:45.000Z</time>
      </trkpt>
      <trkpt lat="47.05563" lon="-1.65412">
        <ele>1.7999999523163</ele>
        <time>2020-08-29T14:36:47.000Z</time>
      </trkpt>
      <trkpt lat="47.05592" lon="-1.6545">
        <ele>2</ele>
        <time>2020-08-29T14:36:54.000Z</time>
      </trkpt>
      <trkpt lat="47.05612" lon="-1.65478">
        <ele>2.4000000953674</ele>
        <time>2020-08-29T14:36:59.000Z</time>
      </trkpt>
      <trkpt lat="47.0562" lon="-1.65489">
        <ele>2.4000000953674</ele>
        <time>2020-08-29T14:37:01.000Z</time>
      </trkpt>
      <trkpt lat="47.05633" lon="-1.65506">
        <ele>2.4000000953674</ele>
        <time>2020-08-29T14:37:04.000Z</time>
      </trkpt>
      <trkpt lat="47.05649" lon="-1.6553">
        <ele>2.4000000953674</ele>
        <time>2020-08-29T14:37:08.000Z</time>
      </trkpt>
      <trkpt lat="47.05687" lon="-1.65583">
        <ele>2</ele>
        <time>2020-08-29T14:37:17.000Z</time>
      </trkpt>
      <trkpt lat="47.05699" lon="-1.656">
        <ele>2</ele>
        <time>2020-08-29T14:37:20.000Z</time>
      </trkpt>
      <trkpt lat="47.05706" lon="-1.6561">
        <ele>2</ele>
        <time>2020-08-29T14:37:22.000Z</time>
      </trkpt>
      <trkpt lat="47.05714" lon="-1.65621">
        <ele>2</ele>
        <time>2020-08-29T14:37:24.000Z</time>
      </trkpt>
      <trkpt lat="47.05725" lon="-1.65638">
        <ele>2</ele>
        <time>2020-08-29T14:37:27.000Z</time>
      </trkpt>
      <trkpt lat="47.05732" lon="-1.65648">
        <ele>2</ele>
        <time>2020-08-29T14:37:29.000Z</time>
      </trkpt>
      <trkpt lat="47.0574" lon="-1.65659">
        <ele>2</ele>
        <time>2020-08-29T14:37:31.000Z</time>
      </trkpt>
      <trkpt lat="47.05747" lon="-1.6567">
        <ele>1.7999999523163</ele>
        <time>2020-08-29T14:37:33.000Z</time>
      </trkpt>
      <trkpt lat="47.0577" lon="-1.65703">
        <ele>1.7999999523163</ele>
        <time>2020-08-29T14:37:39.000Z</time>
      </trkpt>
      <trkpt lat="47.05782" lon="-1.65719">
        <ele>1.6000000238419</ele>
        <time>2020-08-29T14:37:42.000Z</time>
      </trkpt>
      <trkpt lat="47.05801" lon="-1.65746">
        <ele>1.6000000238419</ele>
        <time>2020-08-29T14:37:47.000Z</time>
      </trkpt>
      <trkpt lat="47.05805" lon="-1.65752">
        <ele>1.6000000238419</ele>
        <time>2020-08-29T14:37:48.000Z</time>
      </trkpt>
      <trkpt lat="47.05824" lon="-1.65779">
        <ele>2</ele>
        <time>2020-08-29T14:37:53.000Z</time>
      </trkpt>
      <trkpt lat="47.05842" lon="-1.65805">
        <ele>2</ele>
        <time>2020-08-29T14:37:58.000Z</time>
      </trkpt>
      <trkpt lat="47.05853" lon="-1.65821">
        <ele>2</ele>
        <time>2020-08-29T14:38:01.000Z</time>
      </trkpt>
      <trkpt lat="47.05861" lon="-1.65831">
        <ele>2</ele>
        <time>2020-08-29T14:38:03.000Z</time>
      </trkpt>
      <trkpt lat="47.05871" lon="-1.65835">
        <ele>2</ele>
        <time>2020-08-29T14:38:05.000Z</time>
      </trkpt>
      <trkpt lat="47.05881" lon="-1.65832">
        <ele>2</ele>
        <time>2020-08-29T14:38:07.000Z</time>
      </trkpt>
      <trkpt lat="47.05886" lon="-1.65829">
        <ele>2</ele>
        <time>2020-08-29T14:38:08.000Z</time>
      </trkpt>
      <trkpt lat="47.05912" lon="-1.65809">
        <ele>2</ele>
        <time>2020-08-29T14:38:14.000Z</time>
      </trkpt>
      <trkpt lat="47.0592" lon="-1.65803">
        <ele>2</ele>
        <time>2020-08-29T14:38:16.000Z</time>
      </trkpt>
      <trkpt lat="47.05924" lon="-1.65801">
        <ele>2</ele>
        <time>2020-08-29T14:38:17.000Z</time>
      </trkpt>
      <trkpt lat="47.05947" lon="-1.65792">
        <ele>2.2000000476837</ele>
        <time>2020-08-29T14:38:23.000Z</time>
      </trkpt>
      <trkpt lat="47.05949" lon="-1.65797">
        <ele>2.2000000476837</ele>
        <time>2020-08-29T14:38:25.000Z</time>
      </trkpt>
      <trkpt lat="47.05948" lon="-1.65798">
        <ele>2.2000000476837</ele>
        <time>2020-08-29T14:38:26.000Z</time>
      </trkpt>
      <trkpt lat="47.05948" lon="-1.65793">
        <ele>2.2000000476837</ele>
        <time>2020-08-29T14:38:29.000Z</time>
      </trkpt>
      <trkpt lat="47.05949" lon="-1.6579">
        <ele>2.2000000476837</ele>
        <time>2020-08-29T14:38:30.000Z</time>
      </trkpt>
      <trkpt lat="47.05952" lon="-1.65788">
        <ele>2.2000000476837</ele>
        <time>2020-08-29T14:38:31.000Z</time>
      </trkpt>
      <trkpt lat="47.05962" lon="-1.65779">
        <ele>2.2000000476837</ele>
        <time>2020-08-29T14:38:34.000Z</time>
      </trkpt>
      <trkpt lat="47.0599" lon="-1.65757">
        <ele>2.2000000476837</ele>
        <time>2020-08-29T14:38:41.000Z</time>
      </trkpt>
      <trkpt lat="47.06012" lon="-1.65739">
        <ele>2</ele>
        <time>2020-08-29T14:38:47.000Z</time>
      </trkpt>
      <trkpt lat="47.06014" lon="-1.6574">
        <ele>2</ele>
        <time>2020-08-29T14:38:48.000Z</time>
      </trkpt>
      <trkpt lat="47.06015" lon="-1.65741">
        <ele>2</ele>
        <time>2020-08-29T14:38:49.000Z</time>
      </trkpt>
      <trkpt lat="47.06018" lon="-1.65742">
        <ele>2</ele>
        <time>2020-08-29T14:38:51.000Z</time>
      </trkpt>
      <trkpt lat="47.0602" lon="-1.65741">
        <ele>2</ele>
        <time>2020-08-29T14:38:53.000Z</time>
      </trkpt>
      <trkpt lat="47.06024" lon="-1.65734">
        <ele>2</ele>
        <time>2020-08-29T14:38:56.000Z</time>
      </trkpt>
      <trkpt lat="47.06034" lon="-1.65708">
        <ele>2.4000000953674</ele>
        <time>2020-08-29T14:39:01.000Z</time>
      </trkpt>
      <trkpt lat="47.06048" lon="-1.6568">
        <ele>2.5999999046326</ele>
        <time>2020-08-29T14:39:06.000Z</time>
      </trkpt>
      <trkpt lat="47.06051" lon="-1.65674">
        <ele>2.7999999523163</ele>
        <time>2020-08-29T14:39:07.000Z</time>
      </trkpt>
      <trkpt lat="47.06057" lon="-1.65662">
        <ele>2.7999999523163</ele>
        <time>2020-08-29T14:39:09.000Z</time>
      </trkpt>
      <trkpt lat="47.06073" lon="-1.6563">
        <ele>2.4000000953674</ele>
        <time>2020-08-29T14:39:14.000Z</time>
      </trkpt>
      <trkpt lat="47.06098" lon="-1.65574">
        <ele>1.2000000476837</ele>
        <time>2020-08-29T14:39:22.000Z</time>
      </trkpt>
      <trkpt lat="47.06115" lon="-1.65522">
        <ele>2.5999999046326</ele>
        <time>2020-08-29T14:39:29.000Z</time>
      </trkpt>
      <trkpt lat="47.06129" lon="-1.65464">
        <ele>4.4000000953674</ele>
        <time>2020-08-29T14:39:36.000Z</time>
      </trkpt>
      <trkpt lat="47.06136" lon="-1.65433">
        <ele>5.5999999046326</ele>
        <time>2020-08-29T14:39:40.000Z</time>
      </trkpt>
      <trkpt lat="47.06141" lon="-1.65412">
        <ele>6.4000000953674</ele>
        <time>2020-08-29T14:39:43.000Z</time>
      </trkpt>
      <trkpt lat="47.06143" lon="-1.65406">
        <ele>6.5999999046326</ele>
        <time>2020-08-29T14:39:44.000Z</time>
      </trkpt>
      <trkpt lat="47.06146" lon="-1.65402">
        <ele>6.5999999046326</ele>
        <time>2020-08-29T14:39:46.000Z</time>
      </trkpt>
      <trkpt lat="47.06155" lon="-1.65394">
        <ele>6.5999999046326</ele>
        <time>2020-08-29T14:39:51.000Z</time>
      </trkpt>
      <trkpt lat="47.06158" lon="-1.65392">
        <ele>6.5999999046326</ele>
        <time>2020-08-29T14:39:52.000Z</time>
      </trkpt>
      <trkpt lat="47.06178" lon="-1.65377">
        <ele>6.4000000953674</ele>
        <time>2020-08-29T14:39:58.000Z</time>
      </trkpt>
      <trkpt lat="47.06212" lon="-1.65355">
        <ele>6</ele>
        <time>2020-08-29T14:40:05.000Z</time>
      </trkpt>
      <trkpt lat="47.06222" lon="-1.65348">
        <ele>5.8000001907349</ele>
        <time>2020-08-29T14:40:07.000Z</time>
      </trkpt>
      <trkpt lat="47.06242" lon="-1.65331">
        <ele>5.4000000953674</ele>
        <time>2020-08-29T14:40:11.000Z</time>
      </trkpt>
      <trkpt lat="47.06251" lon="-1.65321">
        <ele>4.8000001907349</ele>
        <time>2020-08-29T14:40:13.000Z</time>
      </trkpt>
      <trkpt lat="47.06279" lon="-1.65276">
        <ele>3.4000000953674</ele>
        <time>2020-08-29T14:40:20.000Z</time>
      </trkpt>
      <trkpt lat="47.0631" lon="-1.65219">
        <ele>2</ele>
        <time>2020-08-29T14:40:28.000Z</time>
      </trkpt>
      <trkpt lat="47.06345" lon="-1.65158">
        <ele>1.7999999523163</ele>
        <time>2020-08-29T14:40:37.000Z</time>
      </trkpt>
      <trkpt lat="47.06349" lon="-1.65152">
        <ele>1.7999999523163</ele>
        <time>2020-08-29T14:40:38.000Z</time>
      </trkpt>
      <trkpt lat="47.06368" lon="-1.65118">
        <ele>2.4000000953674</ele>
        <time>2020-08-29T14:40:43.000Z</time>
      </trkpt>
      <trkpt lat="47.06379" lon="-1.65099">
        <ele>2.5999999046326</ele>
        <time>2020-08-29T14:40:46.000Z</time>
      </trkpt>
      <trkpt lat="47.06409" lon="-1.65049">
        <ele>3</ele>
        <time>2020-08-29T14:40:54.000Z</time>
      </trkpt>
      <trkpt lat="47.06442" lon="-1.64991">
        <ele>3</ele>
        <time>2020-08-29T14:41:03.000Z</time>
      </trkpt>
      <trkpt lat="47.06479" lon="-1.64933">
        <ele>1.7999999523163</ele>
        <time>2020-08-29T14:41:12.000Z</time>
      </trkpt>
      <trkpt lat="47.06486" lon="-1.64921">
        <ele>1.3999999761581</ele>
        <time>2020-08-29T14:41:14.000Z</time>
      </trkpt>
      <trkpt lat="47.06504" lon="-1.6489">
        <ele>1.2000000476837</ele>
        <time>2020-08-29T14:41:19.000Z</time>
      </trkpt>
      <trkpt lat="47.06507" lon="-1.64885">
        <ele>1.2000000476837</ele>
        <time>2020-08-29T14:41:20.000Z</time>
      </trkpt>
      <trkpt lat="47.06511" lon="-1.64881">
        <ele>1.2000000476837</ele>
        <time>2020-08-29T14:41:21.000Z</time>
      </trkpt>
      <trkpt lat="47.06517" lon="-1.64877">
        <ele>1.3999999761581</ele>
        <time>2020-08-29T14:41:23.000Z</time>
      </trkpt>
      <trkpt lat="47.06523" lon="-1.64872">
        <ele>1.3999999761581</ele>
        <time>2020-08-29T14:41:27.000Z</time>
      </trkpt>
      <trkpt lat="47.06524" lon="-1.6487">
        <ele>1.3999999761581</ele>
        <time>2020-08-29T14:41:29.000Z</time>
      </trkpt>
      <trkpt lat="47.06525" lon="-1.64865">
        <ele>1.6000000238419</ele>
        <time>2020-08-29T14:41:32.000Z</time>
      </trkpt>
      <trkpt lat="47.06528" lon="-1.6486">
        <ele>1.6000000238419</ele>
        <time>2020-08-29T14:41:34.000Z</time>
      </trkpt>
      <trkpt lat="47.06535" lon="-1.64848">
        <ele>1.7999999523163</ele>
        <time>2020-08-29T14:41:37.000Z</time>
      </trkpt>
      <trkpt lat="47.06553" lon="-1.64816">
        <ele>2.2000000476837</ele>
        <time>2020-08-29T14:41:43.000Z</time>
      </trkpt>
      <trkpt lat="47.06567" lon="-1.64793">
        <ele>2.2000000476837</ele>
        <time>2020-08-29T14:41:47.000Z</time>
      </trkpt>
      <trkpt lat="47.06584" lon="-1.64764">
        <ele>2</ele>
        <time>2020-08-29T14:41:52.000Z</time>
      </trkpt>
      <trkpt lat="47.06601" lon="-1.64736">
        <ele>1.7999999523163</ele>
        <time>2020-08-29T14:41:57.000Z</time>
      </trkpt>
      <trkpt lat="47.06604" lon="-1.6473">
        <ele>1.7999999523163</ele>
        <time>2020-08-29T14:41:58.000Z</time>
      </trkpt>
      <trkpt lat="47.06626" lon="-1.64692">
        <ele>2</ele>
        <time>2020-08-29T14:42:05.000Z</time>
      </trkpt>
      <trkpt lat="47.06629" lon="-1.64689">
        <ele>2</ele>
        <time>2020-08-29T14:42:06.000Z</time>
      </trkpt>
      <trkpt lat="47.06633" lon="-1.64688">
        <ele>1.7999999523163</ele>
        <time>2020-08-29T14:42:07.000Z</time>
      </trkpt>
      <trkpt lat="47.06641" lon="-1.64692">
        <ele>1.7999999523163</ele>
        <time>2020-08-29T14:42:09.000Z</time>
      </trkpt>
      <trkpt lat="47.06652" lon="-1.64702">
        <ele>1.3999999761581</ele>
        <time>2020-08-29T14:42:12.000Z</time>
      </trkpt>
      <trkpt lat="47.0666" lon="-1.6471">
        <ele>1.3999999761581</ele>
        <time>2020-08-29T14:42:14.000Z</time>
      </trkpt>
      <trkpt lat="47.06676" lon="-1.64725">
        <ele>1.3999999761581</ele>
        <time>2020-08-29T14:42:18.000Z</time>
      </trkpt>
      <trkpt lat="47.06689" lon="-1.64736">
        <ele>2.4000000953674</ele>
        <time>2020-08-29T14:42:21.000Z</time>
      </trkpt>
      <trkpt lat="47.06711" lon="-1.64756">
        <ele>4.1999998092651</ele>
        <time>2020-08-29T14:42:26.000Z</time>
      </trkpt>
      <trkpt lat="47.06733" lon="-1.64777">
        <ele>5.1999998092651</ele>
        <time>2020-08-29T14:42:31.000Z</time>
      </trkpt>
      <trkpt lat="47.06744" lon="-1.6478">
        <ele>5.5999999046326</ele>
        <time>2020-08-29T14:42:33.000Z</time>
      </trkpt>
      <trkpt lat="47.06752" lon="-1.64774">
        <ele>5.4000000953674</ele>
        <time>2020-08-29T14:42:35.000Z</time>
      </trkpt>
      <trkpt lat="47.06757" lon="-1.6477">
        <ele>5.1999998092651</ele>
        <time>2020-08-29T14:42:36.000Z</time>
      </trkpt>
      <trkpt lat="47.06769" lon="-1.64759">
        <ele>5</ele>
        <time>2020-08-29T14:42:39.000Z</time>
      </trkpt>
      <trkpt lat="47.06782" lon="-1.64747">
        <ele>4.5999999046326</ele>
        <time>2020-08-29T14:42:42.000Z</time>
      </trkpt>
      <trkpt lat="47.0681" lon="-1.64726">
        <ele>4.4000000953674</ele>
        <time>2020-08-29T14:42:48.000Z</time>
      </trkpt>
      <trkpt lat="47.06814" lon="-1.64722">
        <ele>4.4000000953674</ele>
        <time>2020-08-29T14:42:49.000Z</time>
      </trkpt>
      <trkpt lat="47.06843" lon="-1.64684">
        <ele>4.1999998092651</ele>
        <time>2020-08-29T14:42:57.000Z</time>
      </trkpt>
      <trkpt lat="47.06856" lon="-1.64665">
        <ele>4.1999998092651</ele>
        <time>2020-08-29T14:43:01.000Z</time>
      </trkpt>
      <trkpt lat="47.06863" lon="-1.64661">
        <ele>4</ele>
        <time>2020-08-29T14:43:03.000Z</time>
      </trkpt>
      <trkpt lat="47.06878" lon="-1.64655">
        <ele>3.7999999523163</ele>
        <time>2020-08-29T14:43:09.000Z</time>
      </trkpt>
      <trkpt lat="47.06881" lon="-1.64652">
        <ele>3.5999999046326</ele>
        <time>2020-08-29T14:43:11.000Z</time>
      </trkpt>
      <trkpt lat="47.06883" lon="-1.64645">
        <ele>3.7999999523163</ele>
        <time>2020-08-29T14:43:14.000Z</time>
      </trkpt>
      <trkpt lat="47.06891" lon="-1.64625">
        <ele>3.7999999523163</ele>
        <time>2020-08-29T14:43:20.000Z</time>
      </trkpt>
      <trkpt lat="47.06893" lon="-1.64621">
        <ele>3.7999999523163</ele>
        <time>2020-08-29T14:43:21.000Z</time>
      </trkpt>
      <trkpt lat="47.069" lon="-1.64602">
        <ele>3.7999999523163</ele>
        <time>2020-08-29T14:43:25.000Z</time>
      </trkpt>
      <trkpt lat="47.06908" lon="-1.64588">
        <ele>3.7999999523163</ele>
        <time>2020-08-29T14:43:29.000Z</time>
      </trkpt>
      <trkpt lat="47.06927" lon="-1.64567">
        <ele>4.1999998092651</ele>
        <time>2020-08-29T14:43:37.000Z</time>
      </trkpt>
      <trkpt lat="47.06935" lon="-1.64562">
        <ele>4.5999999046326</ele>
        <time>2020-08-29T14:43:41.000Z</time>
      </trkpt>
      <trkpt lat="47.06938" lon="-1.6456">
        <ele>4.5999999046326</ele>
        <time>2020-08-29T14:43:42.000Z</time>
      </trkpt>
      <trkpt lat="47.06951" lon="-1.6456">
        <ele>4.8000001907349</ele>
        <time>2020-08-29T14:43:44.000Z</time>
      </trkpt>
      <trkpt lat="47.06957" lon="-1.64563">
        <ele>4.8000001907349</ele>
        <time>2020-08-29T14:43:45.000Z</time>
      </trkpt>
      <trkpt lat="47.06978" lon="-1.64576">
        <ele>4.8000001907349</ele>
        <time>2020-08-29T14:43:49.000Z</time>
      </trkpt>
      <trkpt lat="47.06995" lon="-1.64589">
        <ele>4</ele>
        <time>2020-08-29T14:43:52.000Z</time>
      </trkpt>
      <trkpt lat="47.07005" lon="-1.64598">
        <ele>2.7999999523163</ele>
        <time>2020-08-29T14:43:54.000Z</time>
      </trkpt>
      <trkpt lat="47.07011" lon="-1.64603">
        <ele>2.4000000953674</ele>
        <time>2020-08-29T14:43:55.000Z</time>
      </trkpt>
      <trkpt lat="47.07047" lon="-1.64632">
        <ele>1.2000000476837</ele>
        <time>2020-08-29T14:44:01.000Z</time>
      </trkpt>
      <trkpt lat="47.07054" lon="-1.64637">
        <ele>1.3999999761581</ele>
        <time>2020-08-29T14:44:02.000Z</time>
      </trkpt>
      <trkpt lat="47.07102" lon="-1.64676">
        <ele>2.4000000953674</ele>
        <time>2020-08-29T14:44:10.000Z</time>
      </trkpt>
      <trkpt lat="47.07134" lon="-1.64703">
        <ele>2.4000000953674</ele>
        <time>2020-08-29T14:44:16.000Z</time>
      </trkpt>
      <trkpt lat="47.07154" lon="-1.64722">
        <ele>2.2000000476837</ele>
        <time>2020-08-29T14:44:20.000Z</time>
      </trkpt>
      <trkpt lat="47.07177" lon="-1.64741">
        <ele>1.6000000238419</ele>
        <time>2020-08-29T14:44:24.000Z</time>
      </trkpt>
      <trkpt lat="47.07199" lon="-1.6476">
        <ele>1</ele>
        <time>2020-08-29T14:44:28.000Z</time>
      </trkpt>
      <trkpt lat="47.07209" lon="-1.6477">
        <ele>0.80000001192093</ele>
        <time>2020-08-29T14:44:30.000Z</time>
      </trkpt>
      <trkpt lat="47.07214" lon="-1.64774">
        <ele>0.60000002384186</ele>
        <time>2020-08-29T14:44:31.000Z</time>
      </trkpt>
      <trkpt lat="47.0724" lon="-1.64796">
        <ele>2</ele>
        <time>2020-08-29T14:44:36.000Z</time>
      </trkpt>
      <trkpt lat="47.07263" lon="-1.64818">
        <ele>2.2</ele>
        <time>2020-08-29T14:44:41.000Z</time>
      </trkpt>
      <trkpt lat="47.07264" lon="-1.64823">
        <ele>2.3</ele>
        <time>2020-08-29T14:44:42.000Z</time>
      </trkpt>
      <trkpt lat="47.07265" lon="-1.64828">
        <ele>2.4</ele>
        <time>2020-08-29T14:44:43.000Z</time>
      </trkpt>
      <trkpt lat="47.07263" lon="-1.64834">
        <ele>2</ele>
        <time>2020-08-29T14:44:44.000Z</time>
      </trkpt>
      <trkpt lat="47.07261" lon="-1.64839">
        <ele>2</ele>
        <time>2020-08-29T14:44:45.000Z</time>
      </trkpt>
      <trkpt lat="47.07258" lon="-1.64845">
        <ele>2</ele>
        <time>2020-08-29T14:44:46.000Z</time>
      </trkpt>
      <trkpt lat="47.07255" lon="-1.6485">
        <ele>2</ele>
        <time>2020-08-29T14:44:47.000Z</time>
      </trkpt>
      <trkpt lat="47.07245" lon="-1.64867">
        <ele>2.5</ele>
        <time>2020-08-29T14:44:50.000Z</time>
      </trkpt>
      <trkpt lat="47.07231" lon="-1.64889">
        <ele>0.40000000596046</ele>
        <time>2020-08-29T14:44:54.000Z</time>
      </trkpt>
      <trkpt lat="47.07219" lon="-1.64904">
        <ele>0.80000001192093</ele>
        <time>2020-08-29T14:44:57.000Z</time>
      </trkpt>
      <trkpt lat="47.07215" lon="-1.64909">
        <ele>1</ele>
        <time>2020-08-29T14:44:58.000Z</time>
      </trkpt>
      <trkpt lat="47.0721" lon="-1.64922">
        <ele>1.2000000476837</ele>
        <time>2020-08-29T14:45:00.000Z</time>
      </trkpt>
      <trkpt lat="47.0721" lon="-1.64929">
        <ele>1.2000000476837</ele>
        <time>2020-08-29T14:45:01.000Z</time>
      </trkpt>
      <trkpt lat="47.07212" lon="-1.64944">
        <ele>1.3999999761581</ele>
        <time>2020-08-29T14:45:03.000Z</time>
      </trkpt>
      <trkpt lat="47.07214" lon="-1.64964">
        <ele>1.7999999523163</ele>
        <time>2020-08-29T14:45:06.000Z</time>
      </trkpt>
      <trkpt lat="47.07209" lon="-1.64986">
        <ele>2.4000000953674</ele>
        <time>2020-08-29T14:45:11.000Z</time>
      </trkpt>
      <trkpt lat="47.07207" lon="-1.64992">
        <ele>2.2000000476837</ele>
        <time>2020-08-29T14:45:14.000Z</time>
      </trkpt>
      <trkpt lat="47.07206" lon="-1.64992">
        <ele>2.2000000476837</ele>
        <time>2020-08-29T14:45:16.000Z</time>
      </trkpt>
      <trkpt lat="47.07205" lon="-1.64992">
        <ele>2.2000000476837</ele>
        <time>2020-08-29T14:45:21.000Z</time>
      </trkpt>
      <trkpt lat="47.07205" lon="-1.64986">
        <ele>2.4000000953674</ele>
        <time>2020-08-29T14:45:23.000Z</time>
      </trkpt>
      <trkpt lat="47.07205" lon="-1.64983">
        <ele>2.4000000953674</ele>
        <time>2020-08-29T14:45:24.000Z</time>
      </trkpt>
      <trkpt lat="47.07206" lon="-1.64979">
        <ele>2.2000000476837</ele>
        <time>2020-08-29T14:45:25.000Z</time>
      </trkpt>
      <trkpt lat="47.07209" lon="-1.64963">
        <ele>1.7999999523163</ele>
        <time>2020-08-29T14:45:29.000Z</time>
      </trkpt>
      <trkpt lat="47.07208" lon="-1.64959">
        <ele>1.7999999523163</ele>
        <time>2020-08-29T14:45:30.000Z</time>
      </trkpt>
      <trkpt lat="47.07204" lon="-1.64947">
        <ele>1.6000000238419</ele>
        <time>2020-08-29T14:45:33.000Z</time>
      </trkpt>
      <trkpt lat="47.07201" lon="-1.6493">
        <ele>1.6000000238419</ele>
        <time>2020-08-29T14:45:36.000Z</time>
      </trkpt>
      <trkpt lat="47.07201" lon="-1.64923">
        <ele>1.6000000238419</ele>
        <time>2020-08-29T14:45:37.000Z</time>
      </trkpt>
      <trkpt lat="47.07204" lon="-1.64912">
        <ele>1.3999999761581</ele>
        <time>2020-08-29T14:45:39.000Z</time>
      </trkpt>
      <trkpt lat="47.07206" lon="-1.64907">
        <ele>1.3999999761581</ele>
        <time>2020-08-29T14:45:40.000Z</time>
      </trkpt>
      <trkpt lat="47.07209" lon="-1.64901">
        <ele>1.2000000476837</ele>
        <time>2020-08-29T14:45:41.000Z</time>
      </trkpt>
      <trkpt lat="47.07223" lon="-1.64877">
        <ele>0.80000001192093</ele>
        <time>2020-08-29T14:45:46.000Z</time>
      </trkpt>
      <trkpt lat="47.07244" lon="-1.64845">
        <ele>2.4</ele>
        <time>2020-08-29T14:45:52.000Z</time>
      </trkpt>
      <trkpt lat="47.07251" lon="-1.64835">
        <ele>2</ele>
        <time>2020-08-29T14:45:54.000Z</time>
      </trkpt>
      <trkpt lat="47.07257" lon="-1.64821">
        <ele>2.1</ele>
        <time>2020-08-29T14:45:57.000Z</time>
      </trkpt>
      <trkpt lat="47.07256" lon="-1.64818">
        <ele>2.1</ele>
        <time>2020-08-29T14:45:58.000Z</time>
      </trkpt>
      <trkpt lat="47.07233" lon="-1.64794">
        <ele>0.20000000298023</ele>
        <time>2020-08-29T14:46:02.000Z</time>
      </trkpt>
      <trkpt lat="47.07212" lon="-1.64774">
        <ele>0.80000001192093</ele>
        <time>2020-08-29T14:48:49.000Z</time>
      </trkpt>
      <trkpt lat="47.0719" lon="-1.64754">
        <ele>1.2000000476837</ele>
        <time>2020-08-29T14:48:50.000Z</time>
      </trkpt>
      <trkpt lat="47.07175" lon="-1.6474">
        <ele>1.6000000238419</ele>
        <time>2020-08-29T14:48:53.000Z</time>
      </trkpt>
      <trkpt lat="47.07159" lon="-1.64727">
        <ele>2.2000000476837</ele>
        <time>2020-08-29T14:48:56.000Z</time>
      </trkpt>
      <trkpt lat="47.07154" lon="-1.64722">
        <ele>2.2000000476837</ele>
        <time>2020-08-29T14:48:57.000Z</time>
      </trkpt>
      <trkpt lat="47.07149" lon="-1.64717">
        <ele>2.2000000476837</ele>
        <time>2020-08-29T14:48:58.000Z</time>
      </trkpt>
      <trkpt lat="47.07128" lon="-1.64699">
        <ele>2.4000000953674</ele>
        <time>2020-08-29T14:49:02.000Z</time>
      </trkpt>
      <trkpt lat="47.07116" lon="-1.64688">
        <ele>2.4000000953674</ele>
        <time>2020-08-29T14:49:05.000Z</time>
      </trkpt>
      <trkpt lat="47.07115" lon="-1.64686">
        <ele>2.4000000953674</ele>
        <time>2020-08-29T14:49:06.000Z</time>
      </trkpt>
      <trkpt lat="47.07117" lon="-1.64688">
        <ele>2.4000000953674</ele>
        <time>2020-08-29T14:49:08.000Z</time>
      </trkpt>
      <trkpt lat="47.07119" lon="-1.6469">
        <ele>2.5999999046326</ele>
        <time>2020-08-29T14:49:09.000Z</time>
      </trkpt>
      <trkpt lat="47.07125" lon="-1.64695">
        <ele>2.4000000953674</ele>
        <time>2020-08-29T14:49:11.000Z</time>
      </trkpt>
      <trkpt lat="47.07129" lon="-1.64695">
        <ele>2.4000000953674</ele>
        <time>2020-08-29T14:49:12.000Z</time>
      </trkpt>
      <trkpt lat="47.07133" lon="-1.64693">
        <ele>2.5999999046326</ele>
        <time>2020-08-29T14:49:13.000Z</time>
      </trkpt>
      <trkpt lat="47.0714" lon="-1.64685">
        <ele>2.5999999046326</ele>
        <time>2020-08-29T14:49:15.000Z</time>
      </trkpt>
      <trkpt lat="47.07157" lon="-1.64663">
        <ele>2.7999999523163</ele>
        <time>2020-08-29T14:49:20.000Z</time>
      </trkpt>
      <trkpt lat="47.07166" lon="-1.64649">
        <ele>2.7999999523163</ele>
        <time>2020-08-29T14:49:23.000Z</time>
      </trkpt>
      <trkpt lat="47.0717" lon="-1.64644">
        <ele>2.7999999523163</ele>
        <time>2020-08-29T14:49:24.000Z</time>
      </trkpt>
      <trkpt lat="47.07176" lon="-1.64635">
        <ele>2.5999999046326</ele>
        <time>2020-08-29T14:49:26.000Z</time>
      </trkpt>
      <trkpt lat="47.0719" lon="-1.64618">
        <ele>2.2000000476837</ele>
        <time>2020-08-29T14:49:30.000Z</time>
      </trkpt>
      <trkpt lat="47.072" lon="-1.64605">
        <ele>1.7999999523163</ele>
        <time>2020-08-29T14:49:33.000Z</time>
      </trkpt>
      <trkpt lat="47.07215" lon="-1.64586">
        <ele>1.3999999761581</ele>
        <time>2020-08-29T14:49:38.000Z</time>
      </trkpt>
      <trkpt lat="47.07226" lon="-1.6456">
        <ele>1.2000000476837</ele>
        <time>2020-08-29T14:49:43.000Z</time>
      </trkpt>
      <trkpt lat="47.07238" lon="-1.64533">
        <ele>1.3999999761581</ele>
        <time>2020-08-29T14:49:49.000Z</time>
      </trkpt>
      <trkpt lat="47.07241" lon="-1.64528">
        <ele>1.3999999761581</ele>
        <time>2020-08-29T14:49:50.000Z</time>
      </trkpt>
      <trkpt lat="47.0725" lon="-1.64503">
        <ele>1.7999999523163</ele>
        <time>2020-08-29T14:49:56.000Z</time>
      </trkpt>
      <trkpt lat="47.07262" lon="-1.6448">
        <ele>2.4000000953674</ele>
        <time>2020-08-29T14:50:02.000Z</time>
      </trkpt>
      <trkpt lat="47.07274" lon="-1.64461">
        <ele>3.2000000476837</ele>
        <time>2020-08-29T14:50:08.000Z</time>
      </trkpt>
      <trkpt lat="47.07281" lon="-1.6444">
        <ele>4.1999998092651</ele>
        <time>2020-08-29T14:50:14.000Z</time>
      </trkpt>
      <trkpt lat="47.07279" lon="-1.64433">
        <ele>4.5999999046326</ele>
        <time>2020-08-29T14:50:16.000Z</time>
      </trkpt>
      <trkpt lat="47.07277" lon="-1.64431">
        <ele>4.5999999046326</ele>
        <time>2020-08-29T14:50:17.000Z</time>
      </trkpt>
      <trkpt lat="47.07274" lon="-1.64428">
        <ele>4.8000001907349</ele>
        <time>2020-08-29T14:50:18.000Z</time>
      </trkpt>
      <trkpt lat="47.07248" lon="-1.64404">
        <ele>6</ele>
        <time>2020-08-29T14:50:26.000Z</time>
      </trkpt>
      <trkpt lat="47.0724" lon="-1.64396">
        <ele>6.1999998092651</ele>
        <time>2020-08-29T14:50:28.000Z</time>
      </trkpt>
      <trkpt lat="47.0723" lon="-1.64387">
        <ele>6.1999998092651</ele>
        <time>2020-08-29T14:50:30.000Z</time>
      </trkpt>
      <trkpt lat="47.0722" lon="-1.64377">
        <ele>6.4000000953674</ele>
        <time>2020-08-29T14:50:32.000Z</time>
      </trkpt>
      <trkpt lat="47.07186" lon="-1.64343">
        <ele>5.5999999046326</ele>
        <time>2020-08-29T14:50:39.000Z</time>
      </trkpt>
      <trkpt lat="47.07162" lon="-1.64318">
        <ele>4.1999998092651</ele>
        <time>2020-08-29T14:50:44.000Z</time>
      </trkpt>
      <trkpt lat="47.07147" lon="-1.64306">
        <ele>4</ele>
        <time>2020-08-29T14:50:47.000Z</time>
      </trkpt>
      <trkpt lat="47.07141" lon="-1.64303">
        <ele>4</ele>
        <time>2020-08-29T14:50:48.000Z</time>
      </trkpt>
      <trkpt lat="47.0713" lon="-1.64301">
        <ele>3.7999999523163</ele>
        <time>2020-08-29T14:50:50.000Z</time>
      </trkpt>
      <trkpt lat="47.07125" lon="-1.64302">
        <ele>3.7999999523163</ele>
        <time>2020-08-29T14:50:51.000Z</time>
      </trkpt>
      <trkpt lat="47.07109" lon="-1.64304">
        <ele>3.5999999046326</ele>
        <time>2020-08-29T14:50:54.000Z</time>
      </trkpt>
      <trkpt lat="47.071" lon="-1.64301">
        <ele>3.5999999046326</ele>
        <time>2020-08-29T14:50:56.000Z</time>
      </trkpt>
      <trkpt lat="47.0709" lon="-1.64294">
        <ele>3.4000000953674</ele>
        <time>2020-08-29T14:50:58.000Z</time>
      </trkpt>
      <trkpt lat="47.07077" lon="-1.64279">
        <ele>3.4000000953674</ele>
        <time>2020-08-29T14:51:01.000Z</time>
      </trkpt>
      <trkpt lat="47.07039" lon="-1.64238">
        <ele>3.2000000476837</ele>
        <time>2020-08-29T14:51:09.000Z</time>
      </trkpt>
      <trkpt lat="47.07025" lon="-1.64222">
        <ele>3</ele>
        <time>2020-08-29T14:51:12.000Z</time>
      </trkpt>
      <trkpt lat="47.07011" lon="-1.64206">
        <ele>3</ele>
        <time>2020-08-29T14:51:15.000Z</time>
      </trkpt>
      <trkpt lat="47.07006" lon="-1.642">
        <ele>2.7999999523163</ele>
        <time>2020-08-29T14:51:16.000Z</time>
      </trkpt>
      <trkpt lat="47.06967" lon="-1.64149">
        <ele>2.5999999046326</ele>
        <time>2020-08-29T14:51:25.000Z</time>
      </trkpt>
      <trkpt lat="47.06932" lon="-1.64106">
        <ele>2</ele>
        <time>2020-08-29T14:51:33.000Z</time>
      </trkpt>
      <trkpt lat="47.069" lon="-1.64067">
        <ele>1</ele>
        <time>2020-08-29T14:51:40.000Z</time>
      </trkpt>
      <trkpt lat="47.06896" lon="-1.64062">
        <ele>1</ele>
        <time>2020-08-29T14:51:41.000Z</time>
      </trkpt>
      <trkpt lat="47.0686" lon="-1.6402">
        <ele>1.3999999761581</ele>
        <time>2020-08-29T14:51:49.000Z</time>
      </trkpt>
      <trkpt lat="47.06828" lon="-1.63982">
        <ele>1</ele>
        <time>2020-08-29T14:51:56.000Z</time>
      </trkpt>
      <trkpt lat="47.06789" lon="-1.63935">
        <ele>2</ele>
        <time>2020-08-29T14:52:05.000Z</time>
      </trkpt>
      <trkpt lat="47.06756" lon="-1.63891">
        <ele>2.2000000476837</ele>
        <time>2020-08-29T14:52:13.000Z</time>
      </trkpt>
      <trkpt lat="47.06731" lon="-1.6386">
        <ele>2.2000000476837</ele>
        <time>2020-08-29T14:52:19.000Z</time>
      </trkpt>
      <trkpt lat="47.06725" lon="-1.63849">
        <ele>2.2000000476837</ele>
        <time>2020-08-29T14:52:21.000Z</time>
      </trkpt>
      <trkpt lat="47.06723" lon="-1.63836">
        <ele>2.2000000476837</ele>
        <time>2020-08-29T14:52:23.000Z</time>
      </trkpt>
      <trkpt lat="47.06724" lon="-1.6383">
        <ele>2.2000000476837</ele>
        <time>2020-08-29T14:52:24.000Z</time>
      </trkpt>
      <trkpt lat="47.06728" lon="-1.63826">
        <ele>2.2000000476837</ele>
        <time>2020-08-29T14:52:25.000Z</time>
      </trkpt>
      <trkpt lat="47.06737" lon="-1.63817">
        <ele>2</ele>
        <time>2020-08-29T14:52:27.000Z</time>
      </trkpt>
      <trkpt lat="47.06775" lon="-1.6378">
        <ele>2.4000000953674</ele>
        <time>2020-08-29T14:52:35.000Z</time>
      </trkpt>
      <trkpt lat="47.06811" lon="-1.63749">
        <ele>2.7999999523163</ele>
        <time>2020-08-29T14:52:42.000Z</time>
      </trkpt>
      <trkpt lat="47.06839" lon="-1.63713">
        <ele>2.7999999523163</ele>
        <time>2020-08-29T14:52:48.000Z</time>
      </trkpt>
      <trkpt lat="47.06851" lon="-1.63673">
        <ele>2.2000000476837</ele>
        <time>2020-08-29T14:52:53.000Z</time>
      </trkpt>
      <trkpt lat="47.06857" lon="-1.63608">
        <ele>2.5999999046326</ele>
        <time>2020-08-29T14:53:00.000Z</time>
      </trkpt>
      <trkpt lat="47.0686" lon="-1.63561">
        <ele>3</ele>
        <time>2020-08-29T14:53:05.000Z</time>
      </trkpt>
      <trkpt lat="47.06863" lon="-1.63542">
        <ele>3</ele>
        <time>2020-08-29T14:53:07.000Z</time>
      </trkpt>
      <trkpt lat="47.06881" lon="-1.63482">
        <ele>3</ele>
        <time>2020-08-29T14:53:14.000Z</time>
      </trkpt>
      <trkpt lat="47.06905" lon="-1.63454">
        <ele>3.4000000953674</ele>
        <time>2020-08-29T14:53:19.000Z</time>
      </trkpt>
      <trkpt lat="47.06946" lon="-1.6343">
        <ele>4</ele>
        <time>2020-08-29T14:53:26.000Z</time>
      </trkpt>
      <trkpt lat="47.06957" lon="-1.63422">
        <ele>4.4000000953674</ele>
        <time>2020-08-29T14:53:28.000Z</time>
      </trkpt>
      <trkpt lat="47.06978" lon="-1.63403">
        <ele>4.8000001907349</ele>
        <time>2020-08-29T14:53:32.000Z</time>
      </trkpt>
      <trkpt lat="47.07028" lon="-1.63355">
        <ele>4.1999998092651</ele>
        <time>2020-08-29T14:53:42.000Z</time>
      </trkpt>
      <trkpt lat="47.07061" lon="-1.63317">
        <ele>3.4000000953674</ele>
        <time>2020-08-29T14:53:49.000Z</time>
      </trkpt>
      <trkpt lat="47.07079" lon="-1.63279">
        <ele>3.4000000953674</ele>
        <time>2020-08-29T14:53:54.000Z</time>
      </trkpt>
      <trkpt lat="47.0709" lon="-1.63224">
        <ele>4.1999998092651</ele>
        <time>2020-08-29T14:54:00.000Z</time>
      </trkpt>
      <trkpt lat="47.07092" lon="-1.63207">
        <ele>4.1999998092651</ele>
        <time>2020-08-29T14:54:02.000Z</time>
      </trkpt>
      <trkpt lat="47.07096" lon="-1.63178">
        <ele>4.1999998092651</ele>
        <time>2020-08-29T14:54:06.000Z</time>
      </trkpt>
      <trkpt lat="47.07094" lon="-1.63165">
        <ele>4.1999998092651</ele>
        <time>2020-08-29T14:54:10.000Z</time>
      </trkpt>
      <trkpt lat="47.07092" lon="-1.63164">
        <ele>4.1999998092651</ele>
        <time>2020-08-29T14:54:11.000Z</time>
      </trkpt>
      <trkpt lat="47.07083" lon="-1.63159">
        <ele>4</ele>
        <time>2020-08-29T14:54:14.000Z</time>
      </trkpt>
      <trkpt lat="47.07078" lon="-1.63155">
        <ele>4</ele>
        <time>2020-08-29T14:54:16.000Z</time>
      </trkpt>
      <trkpt lat="47.07073" lon="-1.63152">
        <ele>4</ele>
        <time>2020-08-29T14:54:18.000Z</time>
      </trkpt>
      <trkpt lat="47.07065" lon="-1.63145">
        <ele>4</ele>
        <time>2020-08-29T14:54:21.000Z</time>
      </trkpt>
      <trkpt lat="47.07052" lon="-1.63133">
        <ele>4.1999998092651</ele>
        <time>2020-08-29T14:54:26.000Z</time>
      </trkpt>
      <trkpt lat="47.07048" lon="-1.63133">
        <ele>4.1999998092651</ele>
        <time>2020-08-29T14:54:27.000Z</time>
      </trkpt>
      <trkpt lat="47.07042" lon="-1.63137">
        <ele>4.1999998092651</ele>
        <time>2020-08-29T14:54:29.000Z</time>
      </trkpt>
      <trkpt lat="47.07029" lon="-1.63158">
        <ele>4</ele>
        <time>2020-08-29T14:54:34.000Z</time>
      </trkpt>
      <trkpt lat="47.07012" lon="-1.63194">
        <ele>4.5999999046326</ele>
        <time>2020-08-29T14:54:42.000Z</time>
      </trkpt>
      <trkpt lat="47.07001" lon="-1.63202">
        <ele>4.5999999046326</ele>
        <time>2020-08-29T14:54:46.000Z</time>
      </trkpt>
      <trkpt lat="47.06989" lon="-1.6319">
        <ele>4.4000000953674</ele>
        <time>2020-08-29T14:54:50.000Z</time>
      </trkpt>
      <trkpt lat="47.06965" lon="-1.6316">
        <ele>3.5999999046326</ele>
        <time>2020-08-29T14:54:58.000Z</time>
      </trkpt>
      <trkpt lat="47.06942" lon="-1.63133">
        <ele>3.4000000953674</ele>
        <time>2020-08-29T14:55:05.000Z</time>
      </trkpt>
      <trkpt lat="47.06919" lon="-1.6311">
        <ele>3.5999999046326</ele>
        <time>2020-08-29T14:55:13.000Z</time>
      </trkpt>
      <trkpt lat="47.0693" lon="-1.63121">
        <ele>3.4000000953674</ele>
        <time>2020-08-29T14:55:17.000Z</time>
      </trkpt>
      <trkpt lat="47.06947" lon="-1.63135">
        <ele>3.4000000953674</ele>
        <time>2020-08-29T14:57:59.000Z</time>
      </trkpt>
      <trkpt lat="47.06965" lon="-1.6315">
        <ele>3.5999999046326</ele>
        <time>2020-08-29T14:58:00.000Z</time>
      </trkpt>
      <trkpt lat="47.06969" lon="-1.63154">
        <ele>3.7999999523163</ele>
        <time>2020-08-29T14:58:01.000Z</time>
      </trkpt>
      <trkpt lat="47.06973" lon="-1.63159">
        <ele>3.7999999523163</ele>
        <time>2020-08-29T14:58:02.000Z</time>
      </trkpt>
      <trkpt lat="47.06977" lon="-1.63164">
        <ele>3.7999999523163</ele>
        <time>2020-08-29T14:58:03.000Z</time>
      </trkpt>
      <trkpt lat="47.06985" lon="-1.63175">
        <ele>4</ele>
        <time>2020-08-29T14:58:05.000Z</time>
      </trkpt>
      <trkpt lat="47.06992" lon="-1.63186">
        <ele>4.4000000953674</ele>
        <time>2020-08-29T14:58:07.000Z</time>
      </trkpt>
      <trkpt lat="47.06996" lon="-1.6319">
        <ele>4.4000000953674</ele>
        <time>2020-08-29T14:58:08.000Z</time>
      </trkpt>
      <trkpt lat="47.07" lon="-1.63194">
        <ele>4.5999999046326</ele>
        <time>2020-08-29T14:58:09.000Z</time>
      </trkpt>
      <trkpt lat="47.07005" lon="-1.63196">
        <ele>4.5999999046326</ele>
        <time>2020-08-29T14:58:10.000Z</time>
      </trkpt>
      <trkpt lat="47.07009" lon="-1.63196">
        <ele>4.5999999046326</ele>
        <time>2020-08-29T14:58:11.000Z</time>
      </trkpt>
      <trkpt lat="47.07016" lon="-1.63191">
        <ele>4.4000000953674</ele>
        <time>2020-08-29T14:58:13.000Z</time>
      </trkpt>
      <trkpt lat="47.07018" lon="-1.63186">
        <ele>4.4000000953674</ele>
        <time>2020-08-29T14:58:14.000Z</time>
      </trkpt>
      <trkpt lat="47.07021" lon="-1.63181">
        <ele>4.4000000953674</ele>
        <time>2020-08-29T14:58:15.000Z</time>
      </trkpt>
      <trkpt lat="47.07033" lon="-1.63148">
        <ele>4</ele>
        <time>2020-08-29T14:58:21.000Z</time>
      </trkpt>
      <trkpt lat="47.07046" lon="-1.63122">
        <ele>4.4000000953674</ele>
        <time>2020-08-29T14:58:27.000Z</time>
      </trkpt>
      <trkpt lat="47.07047" lon="-1.63122">
        <ele>4.4000000953674</ele>
        <time>2020-08-29T14:58:28.000Z</time>
      </trkpt>
      <trkpt lat="47.07051" lon="-1.63126">
        <ele>4.4000000953674</ele>
        <time>2020-08-29T14:58:31.000Z</time>
      </trkpt>
      <trkpt lat="47.07058" lon="-1.63134">
        <ele>4.1999998092651</ele>
        <time>2020-08-29T14:58:35.000Z</time>
      </trkpt>
      <trkpt lat="47.07062" lon="-1.63141">
        <ele>4.1999998092651</ele>
        <time>2020-08-29T14:58:37.000Z</time>
      </trkpt>
      <trkpt lat="47.07068" lon="-1.63146">
        <ele>4</ele>
        <time>2020-08-29T14:58:39.000Z</time>
      </trkpt>
      <trkpt lat="47.07076" lon="-1.63153">
        <ele>4</ele>
        <time>2020-08-29T14:58:43.000Z</time>
      </trkpt>
      <trkpt lat="47.07078" lon="-1.63155">
        <ele>4</ele>
        <time>2020-08-29T14:58:44.000Z</time>
      </trkpt>
      <trkpt lat="47.0709" lon="-1.63162">
        <ele>4.1999998092651</ele>
        <time>2020-08-29T14:58:49.000Z</time>
      </trkpt>
      <trkpt lat="47.07098" lon="-1.63155">
        <ele>4.1999998092651</ele>
        <time>2020-08-29T14:58:53.000Z</time>
      </trkpt>
      <trkpt lat="47.07108" lon="-1.63145">
        <ele>4.4000000953674</ele>
        <time>2020-08-29T14:58:57.000Z</time>
      </trkpt>
      <trkpt lat="47.07115" lon="-1.6314">
        <ele>4.4000000953674</ele>
        <time>2020-08-29T14:58:59.000Z</time>
      </trkpt>
      <trkpt lat="47.07148" lon="-1.63126">
        <ele>4.8000001907349</ele>
        <time>2020-08-29T14:59:07.000Z</time>
      </trkpt>
      <trkpt lat="47.07153" lon="-1.63125">
        <ele>5</ele>
        <time>2020-08-29T14:59:08.000Z</time>
      </trkpt>
      <trkpt lat="47.07173" lon="-1.63126">
        <ele>5.4000000953674</ele>
        <time>2020-08-29T14:59:12.000Z</time>
      </trkpt>
      <trkpt lat="47.07184" lon="-1.63127">
        <ele>5.5999999046326</ele>
        <time>2020-08-29T14:59:14.000Z</time>
      </trkpt>
      <trkpt lat="47.07194" lon="-1.63128">
        <ele>5.8000001907349</ele>
        <time>2020-08-29T14:59:16.000Z</time>
      </trkpt>
      <trkpt lat="47.07203" lon="-1.63131">
        <ele>5.8000001907349</ele>
        <time>2020-08-29T14:59:18.000Z</time>
      </trkpt>
      <trkpt lat="47.07208" lon="-1.63134">
        <ele>5.8000001907349</ele>
        <time>2020-08-29T14:59:19.000Z</time>
      </trkpt>
      <trkpt lat="47.07217" lon="-1.6314">
        <ele>5.8000001907349</ele>
        <time>2020-08-29T14:59:21.000Z</time>
      </trkpt>
      <trkpt lat="47.07231" lon="-1.6315">
        <ele>5.8000001907349</ele>
        <time>2020-08-29T14:59:24.000Z</time>
      </trkpt>
      <trkpt lat="47.07235" lon="-1.63153">
        <ele>5.8000001907349</ele>
        <time>2020-08-29T14:59:25.000Z</time>
      </trkpt>
      <trkpt lat="47.07249" lon="-1.63163">
        <ele>5.8000001907349</ele>
        <time>2020-08-29T14:59:28.000Z</time>
      </trkpt>
      <trkpt lat="47.07271" lon="-1.63183">
        <ele>5.1999998092651</ele>
        <time>2020-08-29T14:59:33.000Z</time>
      </trkpt>
      <trkpt lat="47.07279" lon="-1.63194">
        <ele>5</ele>
        <time>2020-08-29T14:59:35.000Z</time>
      </trkpt>
      <trkpt lat="47.07296" lon="-1.6322">
        <ele>4.8000001907349</ele>
        <time>2020-08-29T14:59:39.000Z</time>
      </trkpt>
      <trkpt lat="47.073" lon="-1.63226">
        <ele>4.8000001907349</ele>
        <time>2020-08-29T14:59:40.000Z</time>
      </trkpt>
      <trkpt lat="47.07324" lon="-1.6326">
        <ele>5.1999998092651</ele>
        <time>2020-08-29T14:59:46.000Z</time>
      </trkpt>
      <trkpt lat="47.07342" lon="-1.63279">
        <ele>5.8000001907349</ele>
        <time>2020-08-29T14:59:50.000Z</time>
      </trkpt>
      <trkpt lat="47.07356" lon="-1.63291">
        <ele>6</ele>
        <time>2020-08-29T14:59:53.000Z</time>
      </trkpt>
      <trkpt lat="47.07381" lon="-1.63308">
        <ele>6</ele>
        <time>2020-08-29T14:59:58.000Z</time>
      </trkpt>
      <trkpt lat="47.07396" lon="-1.63319">
        <ele>6</ele>
        <time>2020-08-29T15:00:01.000Z</time>
      </trkpt>
      <trkpt lat="47.07406" lon="-1.63326">
        <ele>5.8000001907349</ele>
        <time>2020-08-29T15:00:03.000Z</time>
      </trkpt>
      <trkpt lat="47.07442" lon="-1.6335">
        <ele>4.8000001907349</ele>
        <time>2020-08-29T15:00:10.000Z</time>
      </trkpt>
      <trkpt lat="47.07453" lon="-1.63357">
        <ele>4.5999999046326</ele>
        <time>2020-08-29T15:00:12.000Z</time>
      </trkpt>
      <trkpt lat="47.07481" lon="-1.63374">
        <ele>4.5999999046326</ele>
        <time>2020-08-29T15:00:17.000Z</time>
      </trkpt>
      <trkpt lat="47.07502" lon="-1.63388">
        <ele>4.1999998092651</ele>
        <time>2020-08-29T15:00:21.000Z</time>
      </trkpt>
      <trkpt lat="47.07529" lon="-1.63405">
        <ele>4</ele>
        <time>2020-08-29T15:00:26.000Z</time>
      </trkpt>
      <trkpt lat="47.07546" lon="-1.63415">
        <ele>3.7999999523163</ele>
        <time>2020-08-29T15:00:29.000Z</time>
      </trkpt>
      <trkpt lat="47.07586" lon="-1.63434">
        <ele>4.1999998092651</ele>
        <time>2020-08-29T15:00:36.000Z</time>
      </trkpt>
      <trkpt lat="47.07592" lon="-1.63436">
        <ele>4</ele>
        <time>2020-08-29T15:00:37.000Z</time>
      </trkpt>
      <trkpt lat="47.07604" lon="-1.63436">
        <ele>3.7999999523163</ele>
        <time>2020-08-29T15:00:39.000Z</time>
      </trkpt>
      <trkpt lat="47.0761" lon="-1.63435">
        <ele>3.5999999046326</ele>
        <time>2020-08-29T15:00:40.000Z</time>
      </trkpt>
      <trkpt lat="47.07644" lon="-1.63426">
        <ele>2.7999999523163</ele>
        <time>2020-08-29T15:00:46.000Z</time>
      </trkpt>
      <trkpt lat="47.0766" lon="-1.6342">
        <ele>2.4000000953674</ele>
        <time>2020-08-29T15:00:49.000Z</time>
      </trkpt>
      <trkpt lat="47.07684" lon="-1.63414">
        <ele>3.2000000476837</ele>
        <time>2020-08-29T15:00:54.000Z</time>
      </trkpt>
      <trkpt lat="47.07694" lon="-1.63412">
        <ele>3.4000000953674</ele>
        <time>2020-08-29T15:00:56.000Z</time>
      </trkpt>
      <trkpt lat="47.07703" lon="-1.63406">
        <ele>3.5999999046326</ele>
        <time>2020-08-29T15:00:58.000Z</time>
      </trkpt>
      <trkpt lat="47.07728" lon="-1.63376">
        <ele>4.8000001907349</ele>
        <time>2020-08-29T15:01:04.000Z</time>
      </trkpt>
      <trkpt lat="47.07764" lon="-1.63332">
        <ele>6.4000000953674</ele>
        <time>2020-08-29T15:01:12.000Z</time>
      </trkpt>
      <trkpt lat="47.07795" lon="-1.63294">
        <ele>7</ele>
        <time>2020-08-29T15:01:19.000Z</time>
      </trkpt>
      <trkpt lat="47.07804" lon="-1.63283">
        <ele>7</ele>
        <time>2020-08-29T15:01:21.000Z</time>
      </trkpt>
      <trkpt lat="47.07813" lon="-1.63272">
        <ele>7.1999998092651</ele>
        <time>2020-08-29T15:01:23.000Z</time>
      </trkpt>
      <trkpt lat="47.07817" lon="-1.63265">
        <ele>7.1999998092651</ele>
        <time>2020-08-29T15:01:24.000Z</time>
      </trkpt>
      <trkpt lat="47.07825" lon="-1.63252">
        <ele>7.1999998092651</ele>
        <time>2020-08-29T15:01:26.000Z</time>
      </trkpt>
      <trkpt lat="47.07829" lon="-1.63235">
        <ele>7</ele>
        <time>2020-08-29T15:01:28.000Z</time>
      </trkpt>
      <trkpt lat="47.0783" lon="-1.63218">
        <ele>6.5999999046326</ele>
        <time>2020-08-29T15:01:30.000Z</time>
      </trkpt>
      <trkpt lat="47.07826" lon="-1.63202">
        <ele>6.1999998092651</ele>
        <time>2020-08-29T15:01:32.000Z</time>
      </trkpt>
      <trkpt lat="47.07823" lon="-1.63194">
        <ele>6</ele>
        <time>2020-08-29T15:01:33.000Z</time>
      </trkpt>
      <trkpt lat="47.07809" lon="-1.63164">
        <ele>5</ele>
        <time>2020-08-29T15:01:37.000Z</time>
      </trkpt>
      <trkpt lat="47.078" lon="-1.63142">
        <ele>5</ele>
        <time>2020-08-29T15:01:40.000Z</time>
      </trkpt>
      <trkpt lat="47.07799" lon="-1.63127">
        <ele>5</ele>
        <time>2020-08-29T15:01:42.000Z</time>
      </trkpt>
      <trkpt lat="47.07801" lon="-1.63123">
        <ele>5</ele>
        <time>2020-08-29T15:01:43.000Z</time>
      </trkpt>
      <trkpt lat="47.07806" lon="-1.63121">
        <ele>5</ele>
        <time>2020-08-29T15:01:44.000Z</time>
      </trkpt>
      <trkpt lat="47.0781" lon="-1.63121">
        <ele>5</ele>
        <time>2020-08-29T15:01:45.000Z</time>
      </trkpt>
      <trkpt lat="47.07844" lon="-1.6312">
        <ele>5</ele>
        <time>2020-08-29T15:01:51.000Z</time>
      </trkpt>
      <trkpt lat="47.07867" lon="-1.63119">
        <ele>5</ele>
        <time>2020-08-29T15:01:55.000Z</time>
      </trkpt>
      <trkpt lat="47.07896" lon="-1.63118">
        <ele>5</ele>
        <time>2020-08-29T15:02:00.000Z</time>
      </trkpt>
      <trkpt lat="47.07913" lon="-1.63118">
        <ele>5</ele>
        <time>2020-08-29T15:02:03.000Z</time>
      </trkpt>
      <trkpt lat="47.07936" lon="-1.63117">
        <ele>5.4000000953674</ele>
        <time>2020-08-29T15:02:07.000Z</time>
      </trkpt>
      <trkpt lat="47.0797" lon="-1.63113">
        <ele>5.8000001907349</ele>
        <time>2020-08-29T15:02:13.000Z</time>
      </trkpt>
      <trkpt lat="47.07982" lon="-1.63114">
        <ele>5.8000001907349</ele>
        <time>2020-08-29T15:02:15.000Z</time>
      </trkpt>
      <trkpt lat="47.07988" lon="-1.63113">
        <ele>6</ele>
        <time>2020-08-29T15:02:16.000Z</time>
      </trkpt>
      <trkpt lat="47.07993" lon="-1.63113">
        <ele>6</ele>
        <time>2020-08-29T15:02:17.000Z</time>
      </trkpt>
      <trkpt lat="47.07999" lon="-1.63112">
        <ele>5.8000001907349</ele>
        <time>2020-08-29T15:02:18.000Z</time>
      </trkpt>
      <trkpt lat="47.0801" lon="-1.63111">
        <ele>5.5999999046326</ele>
        <time>2020-08-29T15:02:20.000Z</time>
      </trkpt>
      <trkpt lat="47.08016" lon="-1.63111">
        <ele>5.4000000953674</ele>
        <time>2020-08-29T15:02:21.000Z</time>
      </trkpt>
      <trkpt lat="47.08022" lon="-1.6311">
        <ele>5.4000000953674</ele>
        <time>2020-08-29T15:02:22.000Z</time>
      </trkpt>
      <trkpt lat="47.08034" lon="-1.63109">
        <ele>5</ele>
        <time>2020-08-29T15:02:24.000Z</time>
      </trkpt>
      <trkpt lat="47.08039" lon="-1.63108">
        <ele>5</ele>
        <time>2020-08-29T15:02:25.000Z</time>
      </trkpt>
      <trkpt lat="47.08051" lon="-1.63106">
        <ele>4.8000001907349</ele>
        <time>2020-08-29T15:02:27.000Z</time>
      </trkpt>
      <trkpt lat="47.08062" lon="-1.63105">
        <ele>4.5999999046326</ele>
        <time>2020-08-29T15:02:29.000Z</time>
      </trkpt>
      <trkpt lat="47.08068" lon="-1.63104">
        <ele>4.5999999046326</ele>
        <time>2020-08-29T15:02:30.000Z</time>
      </trkpt>
      <trkpt lat="47.08092" lon="-1.63102">
        <ele>4.4000000953674</ele>
        <time>2020-08-29T15:02:34.000Z</time>
      </trkpt>
      <trkpt lat="47.08116" lon="-1.631">
        <ele>4.4000000953674</ele>
        <time>2020-08-29T15:02:38.000Z</time>
      </trkpt>
      <trkpt lat="47.08159" lon="-1.63096">
        <ele>4</ele>
        <time>2020-08-29T15:02:45.000Z</time>
      </trkpt>
      <trkpt lat="47.08165" lon="-1.63096">
        <ele>4</ele>
        <time>2020-08-29T15:02:46.000Z</time>
      </trkpt>
      <trkpt lat="47.08171" lon="-1.63095">
        <ele>4</ele>
        <time>2020-08-29T15:02:47.000Z</time>
      </trkpt>
      <trkpt lat="47.08189" lon="-1.63093">
        <ele>4</ele>
        <time>2020-08-29T15:02:50.000Z</time>
      </trkpt>
      <trkpt lat="47.08201" lon="-1.63092">
        <ele>4</ele>
        <time>2020-08-29T15:02:52.000Z</time>
      </trkpt>
      <trkpt lat="47.08207" lon="-1.63091">
        <ele>4</ele>
        <time>2020-08-29T15:02:53.000Z</time>
      </trkpt>
      <trkpt lat="47.08219" lon="-1.6309">
        <ele>4</ele>
        <time>2020-08-29T15:02:55.000Z</time>
      </trkpt>
      <trkpt lat="47.08231" lon="-1.6309">
        <ele>3.7999999523163</ele>
        <time>2020-08-29T15:02:57.000Z</time>
      </trkpt>
      <trkpt lat="47.0825" lon="-1.63088">
        <ele>3.7999999523163</ele>
        <time>2020-08-29T15:03:00.000Z</time>
      </trkpt>
      <trkpt lat="47.08263" lon="-1.63087">
        <ele>3.7999999523163</ele>
        <time>2020-08-29T15:03:02.000Z</time>
      </trkpt>
      <trkpt lat="47.08269" lon="-1.63087">
        <ele>3.7999999523163</ele>
        <time>2020-08-29T15:03:03.000Z</time>
      </trkpt>
      <trkpt lat="47.08288" lon="-1.63085">
        <ele>3.7999999523163</ele>
        <time>2020-08-29T15:03:06.000Z</time>
      </trkpt>
      <trkpt lat="47.08294" lon="-1.63085">
        <ele>3.7999999523163</ele>
        <time>2020-08-29T15:03:07.000Z</time>
      </trkpt>
      <trkpt lat="47.08307" lon="-1.63084">
        <ele>3.7999999523163</ele>
        <time>2020-08-29T15:03:09.000Z</time>
      </trkpt>
      <trkpt lat="47.08332" lon="-1.63083">
        <ele>4.1999998092651</ele>
        <time>2020-08-29T15:03:13.000Z</time>
      </trkpt>
      <trkpt lat="47.08338" lon="-1.63083">
        <ele>4.5999999046326</ele>
        <time>2020-08-29T15:03:14.000Z</time>
      </trkpt>
      <trkpt lat="47.08344" lon="-1.63082">
        <ele>4.8000001907349</ele>
        <time>2020-08-29T15:03:15.000Z</time>
      </trkpt>
      <trkpt lat="47.08357" lon="-1.63081">
        <ele>5.4000000953674</ele>
        <time>2020-08-29T15:03:17.000Z</time>
      </trkpt>
      <trkpt lat="47.08377" lon="-1.63079">
        <ele>6.4000000953674</ele>
        <time>2020-08-29T15:03:20.000Z</time>
      </trkpt>
      <trkpt lat="47.08389" lon="-1.63076">
        <ele>7</ele>
        <time>2020-08-29T15:03:22.000Z</time>
      </trkpt>
      <trkpt lat="47.08406" lon="-1.63067">
        <ele>7.8000001907349</ele>
        <time>2020-08-29T15:03:25.000Z</time>
      </trkpt>
      <trkpt lat="47.08422" lon="-1.63053">
        <ele>8</ele>
        <time>2020-08-29T15:03:28.000Z</time>
      </trkpt>
      <trkpt lat="47.08426" lon="-1.63047">
        <ele>8.1999998092651</ele>
        <time>2020-08-29T15:03:29.000Z</time>
      </trkpt>
      <trkpt lat="47.0843" lon="-1.63042">
        <ele>8.1999998092651</ele>
        <time>2020-08-29T15:03:30.000Z</time>
      </trkpt>
      <trkpt lat="47.08447" lon="-1.63011">
        <ele>8.1999998092651</ele>
        <time>2020-08-29T15:03:35.000Z</time>
      </trkpt>
      <trkpt lat="47.08469" lon="-1.6297">
        <ele>8.1999998092651</ele>
        <time>2020-08-29T15:03:42.000Z</time>
      </trkpt>
      <trkpt lat="47.08483" lon="-1.62946">
        <ele>8.1999998092651</ele>
        <time>2020-08-29T15:03:46.000Z</time>
      </trkpt>
      <trkpt lat="47.08494" lon="-1.62929">
        <ele>8.3999996185303</ele>
        <time>2020-08-29T15:03:49.000Z</time>
      </trkpt>
      <trkpt lat="47.08514" lon="-1.62899">
        <ele>8.1999998092651</ele>
        <time>2020-08-29T15:03:54.000Z</time>
      </trkpt>
      <trkpt lat="47.08527" lon="-1.62883">
        <ele>8.1999998092651</ele>
        <time>2020-08-29T15:03:57.000Z</time>
      </trkpt>
      <trkpt lat="47.0854" lon="-1.62865">
        <ele>8.1999998092651</ele>
        <time>2020-08-29T15:04:00.000Z</time>
      </trkpt>
      <trkpt lat="47.08551" lon="-1.62846">
        <ele>8</ele>
        <time>2020-08-29T15:04:03.000Z</time>
      </trkpt>
      <trkpt lat="47.08556" lon="-1.62841">
        <ele>8</ele>
        <time>2020-08-29T15:04:04.000Z</time>
      </trkpt>
      <trkpt lat="47.08582" lon="-1.62822">
        <ele>8.1999998092651</ele>
        <time>2020-08-29T15:04:09.000Z</time>
      </trkpt>
      <trkpt lat="47.08596" lon="-1.62818">
        <ele>9</ele>
        <time>2020-08-29T15:04:12.000Z</time>
      </trkpt>
      <trkpt lat="47.08605" lon="-1.62816">
        <ele>9.3999996185303</ele>
        <time>2020-08-29T15:04:14.000Z</time>
      </trkpt>
      <trkpt lat="47.08614" lon="-1.62816">
        <ele>9.8000001907349</ele>
        <time>2020-08-29T15:04:16.000Z</time>
      </trkpt>
      <trkpt lat="47.08636" lon="-1.62821">
        <ele>10.800000190735</ele>
        <time>2020-08-29T15:04:20.000Z</time>
      </trkpt>
      <trkpt lat="47.08669" lon="-1.62827">
        <ele>11.800000190735</ele>
        <time>2020-08-29T15:04:26.000Z</time>
      </trkpt>
      <trkpt lat="47.08675" lon="-1.62828">
        <ele>11.800000190735</ele>
        <time>2020-08-29T15:04:27.000Z</time>
      </trkpt>
      <trkpt lat="47.08699" lon="-1.62834">
        <ele>11.60000038147</ele>
        <time>2020-08-29T15:04:31.000Z</time>
      </trkpt>
      <trkpt lat="47.08718" lon="-1.62839">
        <ele>11.60000038147</ele>
        <time>2020-08-29T15:04:34.000Z</time>
      </trkpt>
      <trkpt lat="47.08741" lon="-1.62846">
        <ele>11.39999961853</ele>
        <time>2020-08-29T15:04:38.000Z</time>
      </trkpt>
      <trkpt lat="47.08769" lon="-1.62853">
        <ele>10.60000038147</ele>
        <time>2020-08-29T15:04:43.000Z</time>
      </trkpt>
      <trkpt lat="47.0879" lon="-1.62859">
        <ele>10</ele>
        <time>2020-08-29T15:04:48.000Z</time>
      </trkpt>
      <trkpt lat="47.08801" lon="-1.62861">
        <ele>10</ele>
        <time>2020-08-29T15:04:53.000Z</time>
      </trkpt>
      <trkpt lat="47.08808" lon="-1.62864">
        <ele>10</ele>
        <time>2020-08-29T15:04:56.000Z</time>
      </trkpt>
      <trkpt lat="47.08813" lon="-1.62866">
        <ele>10</ele>
        <time>2020-08-29T15:04:58.000Z</time>
      </trkpt>
      <trkpt lat="47.08819" lon="-1.62868">
        <ele>10</ele>
        <time>2020-08-29T15:05:00.000Z</time>
      </trkpt>
      <trkpt lat="47.08827" lon="-1.62871">
        <ele>10</ele>
        <time>2020-08-29T15:05:02.000Z</time>
      </trkpt>
      <trkpt lat="47.08836" lon="-1.62874">
        <ele>10.199999809265</ele>
        <time>2020-08-29T15:05:04.000Z</time>
      </trkpt>
      <trkpt lat="47.08842" lon="-1.62875">
        <ele>10.199999809265</ele>
        <time>2020-08-29T15:05:05.000Z</time>
      </trkpt>
      <trkpt lat="47.08873" lon="-1.62882">
        <ele>10</ele>
        <time>2020-08-29T15:05:11.000Z</time>
      </trkpt>
      <trkpt lat="47.08914" lon="-1.62893">
        <ele>9</ele>
        <time>2020-08-29T15:05:18.000Z</time>
      </trkpt>
      <trkpt lat="47.0892" lon="-1.62895">
        <ele>8.6000003814697</ele>
        <time>2020-08-29T15:05:19.000Z</time>
      </trkpt>
      <trkpt lat="47.08944" lon="-1.629">
        <ele>8.1999998092651</ele>
        <time>2020-08-29T15:05:23.000Z</time>
      </trkpt>
      <trkpt lat="47.0895" lon="-1.62901">
        <ele>8</ele>
        <time>2020-08-29T15:05:24.000Z</time>
      </trkpt>
      <trkpt lat="47.08976" lon="-1.62907">
        <ele>7.4000000953674</ele>
        <time>2020-08-29T15:05:28.000Z</time>
      </trkpt>
      <trkpt lat="47.08989" lon="-1.6291">
        <ele>7</ele>
        <time>2020-08-29T15:05:30.000Z</time>
      </trkpt>
      <trkpt lat="47.09022" lon="-1.62918">
        <ele>6.4000000953674</ele>
        <time>2020-08-29T15:05:35.000Z</time>
      </trkpt>
      <trkpt lat="47.09035" lon="-1.6292">
        <ele>6.1999998092651</ele>
        <time>2020-08-29T15:05:37.000Z</time>
      </trkpt>
      <trkpt lat="47.09078" lon="-1.62929">
        <ele>5.4000000953674</ele>
        <time>2020-08-29T15:05:44.000Z</time>
      </trkpt>
      <trkpt lat="47.09115" lon="-1.62938">
        <ele>5.1999998092651</ele>
        <time>2020-08-29T15:05:50.000Z</time>
      </trkpt>
      <trkpt lat="47.09128" lon="-1.62941">
        <ele>5.4000000953674</ele>
        <time>2020-08-29T15:05:52.000Z</time>
      </trkpt>
      <trkpt lat="47.09153" lon="-1.62947">
        <ele>6.1999998092651</ele>
        <time>2020-08-29T15:05:56.000Z</time>
      </trkpt>
      <trkpt lat="47.09177" lon="-1.62956">
        <ele>6.8000001907349</ele>
        <time>2020-08-29T15:06:00.000Z</time>
      </trkpt>
      <trkpt lat="47.09194" lon="-1.62965">
        <ele>7</ele>
        <time>2020-08-29T15:06:03.000Z</time>
      </trkpt>
      <trkpt lat="47.0921" lon="-1.62977">
        <ele>7</ele>
        <time>2020-08-29T15:06:06.000Z</time>
      </trkpt>
      <trkpt lat="47.09226" lon="-1.62991">
        <ele>7</ele>
        <time>2020-08-29T15:06:09.000Z</time>
      </trkpt>
      <trkpt lat="47.09241" lon="-1.63004">
        <ele>6.8000001907349</ele>
        <time>2020-08-29T15:06:12.000Z</time>
      </trkpt>
      <trkpt lat="47.09246" lon="-1.63009">
        <ele>6.5999999046326</ele>
        <time>2020-08-29T15:06:13.000Z</time>
      </trkpt>
      <trkpt lat="47.09258" lon="-1.63019">
        <ele>6.4000000953674</ele>
        <time>2020-08-29T15:06:15.000Z</time>
      </trkpt>
      <trkpt lat="47.09269" lon="-1.63029">
        <ele>6.1999998092651</ele>
        <time>2020-08-29T15:06:17.000Z</time>
      </trkpt>
      <trkpt lat="47.0928" lon="-1.63039">
        <ele>6</ele>
        <time>2020-08-29T15:06:19.000Z</time>
      </trkpt>
      <trkpt lat="47.09286" lon="-1.63044">
        <ele>6.1999998092651</ele>
        <time>2020-08-29T15:06:20.000Z</time>
      </trkpt>
      <trkpt lat="47.09297" lon="-1.63054">
        <ele>6.4000000953674</ele>
        <time>2020-08-29T15:06:22.000Z</time>
      </trkpt>
      <trkpt lat="47.09313" lon="-1.63069">
        <ele>6.8000001907349</ele>
        <time>2020-08-29T15:06:25.000Z</time>
      </trkpt>
      <trkpt lat="47.09324" lon="-1.63079">
        <ele>7</ele>
        <time>2020-08-29T15:06:27.000Z</time>
      </trkpt>
      <trkpt lat="47.09329" lon="-1.63084">
        <ele>7.1999998092651</ele>
        <time>2020-08-29T15:06:28.000Z</time>
      </trkpt>
      <trkpt lat="47.0935" lon="-1.63104">
        <ele>7.4000000953674</ele>
        <time>2020-08-29T15:06:32.000Z</time>
      </trkpt>
      <trkpt lat="47.09356" lon="-1.63109">
        <ele>7.4000000953674</ele>
        <time>2020-08-29T15:06:33.000Z</time>
      </trkpt>
      <trkpt lat="47.0939" lon="-1.63149">
        <ele>6.5999999046326</ele>
        <time>2020-08-29T15:06:40.000Z</time>
      </trkpt>
      <trkpt lat="47.09399" lon="-1.63161">
        <ele>6.1999998092651</ele>
        <time>2020-08-29T15:06:42.000Z</time>
      </trkpt>
      <trkpt lat="47.09427" lon="-1.63199">
        <ele>6.5999999046326</ele>
        <time>2020-08-29T15:06:48.000Z</time>
      </trkpt>
      <trkpt lat="47.09449" lon="-1.63231">
        <ele>6.5999999046326</ele>
        <time>2020-08-29T15:06:53.000Z</time>
      </trkpt>
      <trkpt lat="47.09454" lon="-1.63237">
        <ele>6.5999999046326</ele>
        <time>2020-08-29T15:06:54.000Z</time>
      </trkpt>
      <trkpt lat="47.09459" lon="-1.63243">
        <ele>6.5999999046326</ele>
        <time>2020-08-29T15:06:55.000Z</time>
      </trkpt>
      <trkpt lat="47.09463" lon="-1.63249">
        <ele>6.5999999046326</ele>
        <time>2020-08-29T15:06:56.000Z</time>
      </trkpt>
      <trkpt lat="47.09468" lon="-1.63255">
        <ele>6.8000001907349</ele>
        <time>2020-08-29T15:06:57.000Z</time>
      </trkpt>
      <trkpt lat="47.09472" lon="-1.63261">
        <ele>6.8000001907349</ele>
        <time>2020-08-29T15:06:58.000Z</time>
      </trkpt>
      <trkpt lat="47.09476" lon="-1.63268">
        <ele>6.8000001907349</ele>
        <time>2020-08-29T15:06:59.000Z</time>
      </trkpt>
      <trkpt lat="47.09481" lon="-1.63274">
        <ele>6.8000001907349</ele>
        <time>2020-08-29T15:07:00.000Z</time>
      </trkpt>
      <trkpt lat="47.09489" lon="-1.63286">
        <ele>6.8000001907349</ele>
        <time>2020-08-29T15:07:02.000Z</time>
      </trkpt>
      <trkpt lat="47.09494" lon="-1.63292">
        <ele>6.5999999046326</ele>
        <time>2020-08-29T15:07:03.000Z</time>
      </trkpt>
      <trkpt lat="47.09517" lon="-1.63323">
        <ele>7</ele>
        <time>2020-08-29T15:07:08.000Z</time>
      </trkpt>
      <trkpt lat="47.0953" lon="-1.63341">
        <ele>6.8000001907349</ele>
        <time>2020-08-29T15:07:11.000Z</time>
      </trkpt>
      <trkpt lat="47.09549" lon="-1.63366">
        <ele>6.4000000953674</ele>
        <time>2020-08-29T15:07:15.000Z</time>
      </trkpt>
      <trkpt lat="47.09558" lon="-1.63377">
        <ele>6.1999998092651</ele>
        <time>2020-08-29T15:07:17.000Z</time>
      </trkpt>
      <trkpt lat="47.09572" lon="-1.63395">
        <ele>6</ele>
        <time>2020-08-29T15:07:20.000Z</time>
      </trkpt>
      <trkpt lat="47.09581" lon="-1.63408">
        <ele>6</ele>
        <time>2020-08-29T15:07:22.000Z</time>
      </trkpt>
      <trkpt lat="47.096" lon="-1.63435">
        <ele>5.8000001907349</ele>
        <time>2020-08-29T15:07:26.000Z</time>
      </trkpt>
      <trkpt lat="47.09604" lon="-1.63441">
        <ele>5.8000001907349</ele>
        <time>2020-08-29T15:07:27.000Z</time>
      </trkpt>
      <trkpt lat="47.09616" lon="-1.6346">
        <ele>6</ele>
        <time>2020-08-29T15:07:30.000Z</time>
      </trkpt>
      <trkpt lat="47.09619" lon="-1.63466">
        <ele>6</ele>
        <time>2020-08-29T15:07:31.000Z</time>
      </trkpt>
      <trkpt lat="47.09622" lon="-1.63482">
        <ele>6</ele>
        <time>2020-08-29T15:07:33.000Z</time>
      </trkpt>
      <trkpt lat="47.09623" lon="-1.63491">
        <ele>6</ele>
        <time>2020-08-29T15:07:34.000Z</time>
      </trkpt>
      <trkpt lat="47.09629" lon="-1.63536">
        <ele>5.5999999046326</ele>
        <time>2020-08-29T15:07:39.000Z</time>
      </trkpt>
      <trkpt lat="47.09629" lon="-1.63545">
        <ele>5.5999999046326</ele>
        <time>2020-08-29T15:07:40.000Z</time>
      </trkpt>
      <trkpt lat="47.09634" lon="-1.6358">
        <ele>5.4000000953674</ele>
        <time>2020-08-29T15:07:44.000Z</time>
      </trkpt>
      <trkpt lat="47.09635" lon="-1.63598">
        <ele>5.4000000953674</ele>
        <time>2020-08-29T15:07:46.000Z</time>
      </trkpt>
      <trkpt lat="47.09636" lon="-1.63606">
        <ele>5.4000000953674</ele>
        <time>2020-08-29T15:07:47.000Z</time>
      </trkpt>
      <trkpt lat="47.09637" lon="-1.63615">
        <ele>5.4000000953674</ele>
        <time>2020-08-29T15:07:48.000Z</time>
      </trkpt>
      <trkpt lat="47.0964" lon="-1.63651">
        <ele>5.5999999046326</ele>
        <time>2020-08-29T15:07:52.000Z</time>
      </trkpt>
      <trkpt lat="47.09647" lon="-1.63704">
        <ele>5.4000000953674</ele>
        <time>2020-08-29T15:07:58.000Z</time>
      </trkpt>
      <trkpt lat="47.09647" lon="-1.63713">
        <ele>5.1999998092651</ele>
        <time>2020-08-29T15:07:59.000Z</time>
      </trkpt>
      <trkpt lat="47.09652" lon="-1.63756">
        <ele>4.8000001907349</ele>
        <time>2020-08-29T15:08:04.000Z</time>
      </trkpt>
      <trkpt lat="47.09656" lon="-1.6378">
        <ele>4.5999999046326</ele>
        <time>2020-08-29T15:08:07.000Z</time>
      </trkpt>
      <trkpt lat="47.09658" lon="-1.63804">
        <ele>4.1999998092651</ele>
        <time>2020-08-29T15:08:10.000Z</time>
      </trkpt>
      <trkpt lat="47.09663" lon="-1.6384">
        <ele>3.4000000953674</ele>
        <time>2020-08-29T15:08:15.000Z</time>
      </trkpt>
      <trkpt lat="47.09668" lon="-1.63865">
        <ele>2.7999999523163</ele>
        <time>2020-08-29T15:08:19.000Z</time>
      </trkpt>
      <trkpt lat="47.09672" lon="-1.63874">
        <ele>2.5999999046326</ele>
        <time>2020-08-29T15:08:21.000Z</time>
      </trkpt>
      <trkpt lat="47.09676" lon="-1.63879">
        <ele>2.4000000953674</ele>
        <time>2020-08-29T15:08:23.000Z</time>
      </trkpt>
      <trkpt lat="47.09677" lon="-1.63881">
        <ele>2.4000000953674</ele>
        <time>2020-08-29T15:08:24.000Z</time>
      </trkpt>
      <trkpt lat="47.09678" lon="-1.63883">
        <ele>2.2000000476837</ele>
        <time>2020-08-29T15:08:25.000Z</time>
      </trkpt>
      <trkpt lat="47.09677" lon="-1.63885">
        <ele>2.2000000476837</ele>
        <time>2020-08-29T15:08:26.000Z</time>
      </trkpt>
      <trkpt lat="47.09676" lon="-1.63887">
        <ele>2.2000000476837</ele>
        <time>2020-08-29T15:08:27.000Z</time>
      </trkpt>
      <trkpt lat="47.09673" lon="-1.63891">
        <ele>2</ele>
        <time>2020-08-29T15:08:29.000Z</time>
      </trkpt>
      <trkpt lat="47.09672" lon="-1.63894">
        <ele>2</ele>
        <time>2020-08-29T15:08:30.000Z</time>
      </trkpt>
      <trkpt lat="47.0967" lon="-1.63899">
        <ele>1.7999999523163</ele>
        <time>2020-08-29T15:08:32.000Z</time>
      </trkpt>
      <trkpt lat="47.09669" lon="-1.63907">
        <ele>1.7999999523163</ele>
        <time>2020-08-29T15:08:34.000Z</time>
      </trkpt>
      <trkpt lat="47.09667" lon="-1.63911">
        <ele>1.7999999523163</ele>
        <time>2020-08-29T15:08:35.000Z</time>
      </trkpt>
      <trkpt lat="47.09665" lon="-1.63915">
        <ele>1.7999999523163</ele>
        <time>2020-08-29T15:08:36.000Z</time>
      </trkpt>
      <trkpt lat="47.09664" lon="-1.6392">
        <ele>2</ele>
        <time>2020-08-29T15:08:37.000Z</time>
      </trkpt>
      <trkpt lat="47.09662" lon="-1.63926">
        <ele>2</ele>
        <time>2020-08-29T15:08:38.000Z</time>
      </trkpt>
      <trkpt lat="47.0966" lon="-1.63932">
        <ele>2</ele>
        <time>2020-08-29T15:08:39.000Z</time>
      </trkpt>
      <trkpt lat="47.09657" lon="-1.63942">
        <ele>2</ele>
        <time>2020-08-29T15:08:41.000Z</time>
      </trkpt>
      <trkpt lat="47.09654" lon="-1.63947">
        <ele>2</ele>
        <time>2020-08-29T15:08:42.000Z</time>
      </trkpt>
      <trkpt lat="47.09642" lon="-1.63969">
        <ele>2</ele>
        <time>2020-08-29T15:08:47.000Z</time>
      </trkpt>
      <trkpt lat="47.09639" lon="-1.63974">
        <ele>2</ele>
        <time>2020-08-29T15:08:48.000Z</time>
      </trkpt>
      <trkpt lat="47.09627" lon="-1.64002">
        <ele>2</ele>
        <time>2020-08-29T15:08:53.000Z</time>
      </trkpt>
      <trkpt lat="47.09612" lon="-1.6403">
        <ele>2</ele>
        <time>2020-08-29T15:08:59.000Z</time>
      </trkpt>
      <trkpt lat="47.09599" lon="-1.64047">
        <ele>2</ele>
        <time>2020-08-29T15:09:04.000Z</time>
      </trkpt>
      <trkpt lat="47.09594" lon="-1.64052">
        <ele>2</ele>
        <time>2020-08-29T15:09:06.000Z</time>
      </trkpt>
      <trkpt lat="47.09592" lon="-1.64055">
        <ele>2</ele>
        <time>2020-08-29T15:09:07.000Z</time>
      </trkpt>
      <trkpt lat="47.09589" lon="-1.64058">
        <ele>2</ele>
        <time>2020-08-29T15:09:08.000Z</time>
      </trkpt>
      <trkpt lat="47.09582" lon="-1.64063">
        <ele>2</ele>
        <time>2020-08-29T15:09:10.000Z</time>
      </trkpt>
      <trkpt lat="47.09572" lon="-1.64071">
        <ele>1.7999999523163</ele>
        <time>2020-08-29T15:09:13.000Z</time>
      </trkpt>
      <trkpt lat="47.09568" lon="-1.64072">
        <ele>1.6000000238419</ele>
        <time>2020-08-29T15:09:14.000Z</time>
      </trkpt>
      <trkpt lat="47.09556" lon="-1.64074">
        <ele>1.2000000476837</ele>
        <time>2020-08-29T15:09:17.000Z</time>
      </trkpt>
      <trkpt lat="47.09552" lon="-1.64075">
        <ele>1</ele>
        <time>2020-08-29T15:09:18.000Z</time>
      </trkpt>
      <trkpt lat="47.09547" lon="-1.64075">
        <ele>1</ele>
        <time>2020-08-29T15:09:19.000Z</time>
      </trkpt>
      <trkpt lat="47.09538" lon="-1.64076">
        <ele>0.60000002384186</ele>
        <time>2020-08-29T15:09:21.000Z</time>
      </trkpt>
      <trkpt lat="47.09512" lon="-1.64077">
        <ele>-0.40000000596046</ele>
        <time>2020-08-29T15:09:27.000Z</time>
      </trkpt>
      <trkpt lat="47.0949" lon="-1.64078">
        <ele>-1</ele>
        <time>2020-08-29T15:09:33.000Z</time>
      </trkpt>
      <trkpt lat="47.09476" lon="-1.64079">
        <ele>-0.80000001192093</ele>
        <time>2020-08-29T15:09:37.000Z</time>
      </trkpt>
      <trkpt lat="47.0947" lon="-1.64077">
        <ele>-0.80000001192093</ele>
        <time>2020-08-29T15:09:39.000Z</time>
      </trkpt>
      <trkpt lat="47.09455" lon="-1.64069">
        <ele>-1</ele>
        <time>2020-08-29T15:09:44.000Z</time>
      </trkpt>
      <trkpt lat="47.09501" lon="-1.64072">
        <ele>-0.80000001192093</ele>
        <time>2020-08-29T15:25:58.000Z</time>
      </trkpt>
      <trkpt lat="47.09505" lon="-1.64072">
        <ele>-0.60000002384186</ele>
        <time>2020-08-29T15:25:59.000Z</time>
      </trkpt>
      <trkpt lat="47.09508" lon="-1.64072">
        <ele>-0.40000000596046</ele>
        <time>2020-08-29T15:26:00.000Z</time>
      </trkpt>
      <trkpt lat="47.09512" lon="-1.64072">
        <ele>-0.40000000596046</ele>
        <time>2020-08-29T15:26:01.000Z</time>
      </trkpt>
      <trkpt lat="47.09521" lon="-1.64072">
        <ele>2.3</ele>
        <time>2020-08-29T15:26:03.000Z</time>
      </trkpt>
      <trkpt lat="47.0954" lon="-1.64071">
        <ele>0.60000002384186</ele>
        <time>2020-08-29T15:26:07.000Z</time>
      </trkpt>
      <trkpt lat="47.09555" lon="-1.64071">
        <ele>1.2000000476837</ele>
        <time>2020-08-29T15:26:10.000Z</time>
      </trkpt>
      <trkpt lat="47.09568" lon="-1.64068">
        <ele>1.6000000238419</ele>
        <time>2020-08-29T15:26:13.000Z</time>
      </trkpt>
      <trkpt lat="47.0958" lon="-1.64062">
        <ele>2</ele>
        <time>2020-08-29T15:26:16.000Z</time>
      </trkpt>
      <trkpt lat="47.09584" lon="-1.6406">
        <ele>2</ele>
        <time>2020-08-29T15:26:17.000Z</time>
      </trkpt>
      <trkpt lat="47.09592" lon="-1.64054">
        <ele>2</ele>
        <time>2020-08-29T15:26:19.000Z</time>
      </trkpt>
      <trkpt lat="47.096" lon="-1.64043">
        <ele>2</ele>
        <time>2020-08-29T15:26:22.000Z</time>
      </trkpt>
      <trkpt lat="47.09611" lon="-1.64029">
        <ele>2</ele>
        <time>2020-08-29T15:26:26.000Z</time>
      </trkpt>
      <trkpt lat="47.09616" lon="-1.64021">
        <ele>2</ele>
        <time>2020-08-29T15:26:28.000Z</time>
      </trkpt>
      <trkpt lat="47.09619" lon="-1.64017">
        <ele>2</ele>
        <time>2020-08-29T15:26:29.000Z</time>
      </trkpt>
      <trkpt lat="47.09621" lon="-1.64012">
        <ele>2</ele>
        <time>2020-08-29T15:26:30.000Z</time>
      </trkpt>
      <trkpt lat="47.09629" lon="-1.63996">
        <ele>2</ele>
        <time>2020-08-29T15:26:33.000Z</time>
      </trkpt>
      <trkpt lat="47.09631" lon="-1.6399">
        <ele>2</ele>
        <time>2020-08-29T15:26:34.000Z</time>
      </trkpt>
      <trkpt lat="47.09639" lon="-1.63965">
        <ele>2</ele>
        <time>2020-08-29T15:26:38.000Z</time>
      </trkpt>
      <trkpt lat="47.09642" lon="-1.63958">
        <ele>2</ele>
        <time>2020-08-29T15:26:39.000Z</time>
      </trkpt>
      <trkpt lat="47.09644" lon="-1.63951">
        <ele>2</ele>
        <time>2020-08-29T15:26:40.000Z</time>
      </trkpt>
      <trkpt lat="47.09661" lon="-1.63907">
        <ele>2</ele>
        <time>2020-08-29T15:26:47.000Z</time>
      </trkpt>
      <trkpt lat="47.09665" lon="-1.63895">
        <ele>2.2000000476837</ele>
        <time>2020-08-29T15:26:49.000Z</time>
      </trkpt>
      <trkpt lat="47.09667" lon="-1.63884">
        <ele>2.4000000953674</ele>
        <time>2020-08-29T15:26:51.000Z</time>
      </trkpt>
      <trkpt lat="47.09667" lon="-1.63878">
        <ele>2.4000000953674</ele>
        <time>2020-08-29T15:26:52.000Z</time>
      </trkpt>
      <trkpt lat="47.09666" lon="-1.63861">
        <ele>3</ele>
        <time>2020-08-29T15:26:55.000Z</time>
      </trkpt>
      <trkpt lat="47.09664" lon="-1.6385">
        <ele>3.2000000476837</ele>
        <time>2020-08-29T15:26:57.000Z</time>
      </trkpt>
      <trkpt lat="47.09664" lon="-1.63845">
        <ele>3.4000000953674</ele>
        <time>2020-08-29T15:26:58.000Z</time>
      </trkpt>
      <trkpt lat="47.09662" lon="-1.63836">
        <ele>3.5999999046326</ele>
        <time>2020-08-29T15:27:00.000Z</time>
      </trkpt>
      <trkpt lat="47.09659" lon="-1.63819">
        <ele>4</ele>
        <time>2020-08-29T15:27:04.000Z</time>
      </trkpt>
      <trkpt lat="47.09659" lon="-1.63811">
        <ele>4.1999998092651</ele>
        <time>2020-08-29T15:27:06.000Z</time>
      </trkpt>
      <trkpt lat="47.09661" lon="-1.63807">
        <ele>4.1999998092651</ele>
        <time>2020-08-29T15:27:08.000Z</time>
      </trkpt>
      <trkpt lat="47.09667" lon="-1.63805">
        <ele>4.1999998092651</ele>
        <time>2020-08-29T15:27:11.000Z</time>
      </trkpt>
      <trkpt lat="47.09668" lon="-1.63804">
        <ele>4.1999998092651</ele>
        <time>2020-08-29T15:27:12.000Z</time>
      </trkpt>
      <trkpt lat="47.09667" lon="-1.63803">
        <ele>4.1999998092651</ele>
        <time>2020-08-29T15:27:14.000Z</time>
      </trkpt>
      <trkpt lat="47.09666" lon="-1.63804">
        <ele>4.1999998092651</ele>
        <time>2020-08-29T15:27:15.000Z</time>
      </trkpt>
      <trkpt lat="47.09661" lon="-1.63812">
        <ele>4.1999998092651</ele>
        <time>2020-08-29T15:27:18.000Z</time>
      </trkpt>
      <trkpt lat="47.09661" lon="-1.63815">
        <ele>4</ele>
        <time>2020-08-29T15:27:19.000Z</time>
      </trkpt>
      <trkpt lat="47.09661" lon="-1.63818">
        <ele>4</ele>
        <time>2020-08-29T15:27:20.000Z</time>
      </trkpt>
      <trkpt lat="47.09664" lon="-1.63824">
        <ele>3.7999999523163</ele>
        <time>2020-08-29T15:27:22.000Z</time>
      </trkpt>
      <trkpt lat="47.09667" lon="-1.63824">
        <ele>3.7999999523163</ele>
        <time>2020-08-29T15:27:23.000Z</time>
      </trkpt>
      <trkpt lat="47.09671" lon="-1.63821">
        <ele>3.7999999523163</ele>
        <time>2020-08-29T15:27:25.000Z</time>
      </trkpt>
      <trkpt lat="47.09682" lon="-1.63816">
        <ele>3.7999999523163</ele>
        <time>2020-08-29T15:27:29.000Z</time>
      </trkpt>
      <trkpt lat="47.09689" lon="-1.63813">
        <ele>3.7999999523163</ele>
        <time>2020-08-29T15:27:31.000Z</time>
      </trkpt>
      <trkpt lat="47.09699" lon="-1.63811">
        <ele>3.7999999523163</ele>
        <time>2020-08-29T15:27:35.000Z</time>
      </trkpt>
      <trkpt lat="47.097" lon="-1.6381">
        <ele>3.7999999523163</ele>
        <time>2020-08-29T15:27:36.000Z</time>
      </trkpt>
      <trkpt lat="47.09701" lon="-1.63808">
        <ele>3.7999999523163</ele>
        <time>2020-08-29T15:27:37.000Z</time>
      </trkpt>
      <trkpt lat="47.09702" lon="-1.63806">
        <ele>4</ele>
        <time>2020-08-29T15:27:38.000Z</time>
      </trkpt>
      <trkpt lat="47.09702" lon="-1.63803">
        <ele>4</ele>
        <time>2020-08-29T15:27:40.000Z</time>
      </trkpt>
      <trkpt lat="47.097" lon="-1.63795">
        <ele>4.4000000953674</ele>
        <time>2020-08-29T15:27:43.000Z</time>
      </trkpt>
      <trkpt lat="47.09698" lon="-1.63788">
        <ele>4.5999999046326</ele>
        <time>2020-08-29T15:27:45.000Z</time>
      </trkpt>
      <trkpt lat="47.09697" lon="-1.63783">
        <ele>4.8000001907349</ele>
        <time>2020-08-29T15:27:46.000Z</time>
      </trkpt>
      <trkpt lat="47.09696" lon="-1.63774">
        <ele>5</ele>
        <time>2020-08-29T15:27:48.000Z</time>
      </trkpt>
      <trkpt lat="47.09696" lon="-1.63769">
        <ele>5</ele>
        <time>2020-08-29T15:27:49.000Z</time>
      </trkpt>
      <trkpt lat="47.09696" lon="-1.63765">
        <ele>5</ele>
        <time>2020-08-29T15:27:50.000Z</time>
      </trkpt>
      <trkpt lat="47.09696" lon="-1.63762">
        <ele>5.1999998092651</ele>
        <time>2020-08-29T15:27:51.000Z</time>
      </trkpt>
      <trkpt lat="47.09698" lon="-1.6376">
        <ele>5.1999998092651</ele>
        <time>2020-08-29T15:27:52.000Z</time>
      </trkpt>
      <trkpt lat="47.097" lon="-1.63759">
        <ele>5.1999998092651</ele>
        <time>2020-08-29T15:27:53.000Z</time>
      </trkpt>
      <trkpt lat="47.09706" lon="-1.63758">
        <ele>5.1999998092651</ele>
        <time>2020-08-29T15:27:55.000Z</time>
      </trkpt>
      <trkpt lat="47.09724" lon="-1.63758">
        <ele>5.4000000953674</ele>
        <time>2020-08-29T15:28:00.000Z</time>
      </trkpt>
      <trkpt lat="47.09732" lon="-1.63759">
        <ele>5.1999998092651</ele>
        <time>2020-08-29T15:28:02.000Z</time>
      </trkpt>
      <trkpt lat="47.09753" lon="-1.63764">
        <ele>5</ele>
        <time>2020-08-29T15:28:08.000Z</time>
      </trkpt>
      <trkpt lat="47.0976" lon="-1.63766">
        <ele>5.1999998092651</ele>
        <time>2020-08-29T15:28:10.000Z</time>
      </trkpt>
      <trkpt lat="47.09763" lon="-1.63767">
        <ele>5.1999998092651</ele>
        <time>2020-08-29T15:28:11.000Z</time>
      </trkpt>
      <trkpt lat="47.09771" lon="-1.63768">
        <ele>5.1999998092651</ele>
        <time>2020-08-29T15:28:13.000Z</time>
      </trkpt>
      <trkpt lat="47.09779" lon="-1.6377">
        <ele>5.1999998092651</ele>
        <time>2020-08-29T15:28:15.000Z</time>
      </trkpt>
      <trkpt lat="47.09803" lon="-1.63781">
        <ele>5.5999999046326</ele>
        <time>2020-08-29T15:28:21.000Z</time>
      </trkpt>
      <trkpt lat="47.09807" lon="-1.63783">
        <ele>5.8000001907349</ele>
        <time>2020-08-29T15:28:22.000Z</time>
      </trkpt>
      <trkpt lat="47.09815" lon="-1.63788">
        <ele>6</ele>
        <time>2020-08-29T15:28:24.000Z</time>
      </trkpt>
      <trkpt lat="47.09841" lon="-1.63803">
        <ele>6.8000001907349</ele>
        <time>2020-08-29T15:28:31.000Z</time>
      </trkpt>
      <trkpt lat="47.09855" lon="-1.6381">
        <ele>7</ele>
        <time>2020-08-29T15:28:35.000Z</time>
      </trkpt>
      <trkpt lat="47.09863" lon="-1.63809">
        <ele>7</ele>
        <time>2020-08-29T15:28:37.000Z</time>
      </trkpt>
      <trkpt lat="47.0987" lon="-1.63806">
        <ele>7.4000000953674</ele>
        <time>2020-08-29T15:28:39.000Z</time>
      </trkpt>
      <trkpt lat="47.09876" lon="-1.63803">
        <ele>7.5999999046326</ele>
        <time>2020-08-29T15:28:41.000Z</time>
      </trkpt>
      <trkpt lat="47.09882" lon="-1.63801">
        <ele>7.8000001907349</ele>
        <time>2020-08-29T15:28:43.000Z</time>
      </trkpt>
      <trkpt lat="47.09885" lon="-1.638">
        <ele>7.8000001907349</ele>
        <time>2020-08-29T15:28:44.000Z</time>
      </trkpt>
      <trkpt lat="47.09894" lon="-1.63798">
        <ele>8.1999998092651</ele>
        <time>2020-08-29T15:28:47.000Z</time>
      </trkpt>
      <trkpt lat="47.09902" lon="-1.63796">
        <ele>8.3999996185303</ele>
        <time>2020-08-29T15:28:50.000Z</time>
      </trkpt>
      <trkpt lat="47.09905" lon="-1.63781">
        <ele>8.8000001907349</ele>
        <time>2020-08-29T15:28:53.000Z</time>
      </trkpt>
      <trkpt lat="47.09905" lon="-1.63756">
        <ele>9.3999996185303</ele>
        <time>2020-08-29T15:28:58.000Z</time>
      </trkpt>
      <trkpt lat="47.09904" lon="-1.63731">
        <ele>9.8000001907349</ele>
        <time>2020-08-29T15:29:04.000Z</time>
      </trkpt>
      <trkpt lat="47.09899" lon="-1.63698">
        <ele>10.60000038147</ele>
        <time>2020-08-29T15:29:10.000Z</time>
      </trkpt>
      <trkpt lat="47.09899" lon="-1.63687">
        <ele>10.800000190735</ele>
        <time>2020-08-29T15:29:12.000Z</time>
      </trkpt>
      <trkpt lat="47.09902" lon="-1.63671">
        <ele>11.199999809265</ele>
        <time>2020-08-29T15:29:15.000Z</time>
      </trkpt>
      <trkpt lat="47.09904" lon="-1.6366">
        <ele>11.60000038147</ele>
        <time>2020-08-29T15:29:17.000Z</time>
      </trkpt>
      <trkpt lat="47.09907" lon="-1.63646">
        <ele>12</ele>
        <time>2020-08-29T15:29:20.000Z</time>
      </trkpt>
      <trkpt lat="47.0991" lon="-1.63629">
        <ele>12</ele>
        <time>2020-08-29T15:29:24.000Z</time>
      </trkpt>
      <trkpt lat="47.09913" lon="-1.63619">
        <ele>11.800000190735</ele>
        <time>2020-08-29T15:29:26.000Z</time>
      </trkpt>
      <trkpt lat="47.09915" lon="-1.63614">
        <ele>11.800000190735</ele>
        <time>2020-08-29T15:29:27.000Z</time>
      </trkpt>
      <trkpt lat="47.0992" lon="-1.63604">
        <ele>11.60000038147</ele>
        <time>2020-08-29T15:29:29.000Z</time>
      </trkpt>
      <trkpt lat="47.09922" lon="-1.63599">
        <ele>11.39999961853</ele>
        <time>2020-08-29T15:29:30.000Z</time>
      </trkpt>
      <trkpt lat="47.09926" lon="-1.63577">
        <ele>11.199999809265</ele>
        <time>2020-08-29T15:29:34.000Z</time>
      </trkpt>
      <trkpt lat="47.09926" lon="-1.6357">
        <ele>11.199999809265</ele>
        <time>2020-08-29T15:29:35.000Z</time>
      </trkpt>
      <trkpt lat="47.09925" lon="-1.63549">
        <ele>10.800000190735</ele>
        <time>2020-08-29T15:29:39.000Z</time>
      </trkpt>
      <trkpt lat="47.09935" lon="-1.63529">
        <ele>9.8000001907349</ele>
        <time>2020-08-29T15:29:43.000Z</time>
      </trkpt>
      <trkpt lat="47.09955" lon="-1.63491">
        <ele>8</ele>
        <time>2020-08-29T15:29:50.000Z</time>
      </trkpt>
      <trkpt lat="47.09959" lon="-1.63479">
        <ele>7.5999999046326</ele>
        <time>2020-08-29T15:29:52.000Z</time>
      </trkpt>
      <trkpt lat="47.09964" lon="-1.63461">
        <ele>7.1999998092651</ele>
        <time>2020-08-29T15:29:55.000Z</time>
      </trkpt>
      <trkpt lat="47.09968" lon="-1.63451">
        <ele>6.8000001907349</ele>
        <time>2020-08-29T15:29:57.000Z</time>
      </trkpt>
      <trkpt lat="47.0997" lon="-1.63446">
        <ele>6.5999999046326</ele>
        <time>2020-08-29T15:29:58.000Z</time>
      </trkpt>
      <trkpt lat="47.09984" lon="-1.63422">
        <ele>5.5999999046326</ele>
        <time>2020-08-29T15:30:02.000Z</time>
      </trkpt>
      <trkpt lat="47.09987" lon="-1.63415">
        <ele>5.4000000953674</ele>
        <time>2020-08-29T15:30:03.000Z</time>
      </trkpt>
      <trkpt lat="47.09992" lon="-1.63401">
        <ele>5</ele>
        <time>2020-08-29T15:30:05.000Z</time>
      </trkpt>
      <trkpt lat="47.09995" lon="-1.63386">
        <ele>5</ele>
        <time>2020-08-29T15:30:07.000Z</time>
      </trkpt>
      <trkpt lat="47.09997" lon="-1.63378">
        <ele>5</ele>
        <time>2020-08-29T15:30:08.000Z</time>
      </trkpt>
      <trkpt lat="47.09999" lon="-1.63347">
        <ele>4.8000001907349</ele>
        <time>2020-08-29T15:30:12.000Z</time>
      </trkpt>
      <trkpt lat="47.09999" lon="-1.63338">
        <ele>4.8000001907349</ele>
        <time>2020-08-29T15:30:13.000Z</time>
      </trkpt>
      <trkpt lat="47.1" lon="-1.63323">
        <ele>4.8000001907349</ele>
        <time>2020-08-29T15:30:15.000Z</time>
      </trkpt>
      <trkpt lat="47.09998" lon="-1.63298">
        <ele>5</ele>
        <time>2020-08-29T15:30:18.000Z</time>
      </trkpt>
      <trkpt lat="47.09995" lon="-1.63259">
        <ele>5</ele>
        <time>2020-08-29T15:30:23.000Z</time>
      </trkpt>
      <trkpt lat="47.09993" lon="-1.63235">
        <ele>5</ele>
        <time>2020-08-29T15:30:26.000Z</time>
      </trkpt>
      <trkpt lat="47.09991" lon="-1.63226">
        <ele>5.1999998092651</ele>
        <time>2020-08-29T15:30:27.000Z</time>
      </trkpt>
      <trkpt lat="47.09985" lon="-1.63187">
        <ele>6.4000000953674</ele>
        <time>2020-08-29T15:30:32.000Z</time>
      </trkpt>
      <trkpt lat="47.09968" lon="-1.63134">
        <ele>7.8000001907349</ele>
        <time>2020-08-29T15:30:40.000Z</time>
      </trkpt>
      <trkpt lat="47.09964" lon="-1.63121">
        <ele>8</ele>
        <time>2020-08-29T15:30:42.000Z</time>
      </trkpt>
      <trkpt lat="47.09951" lon="-1.63095">
        <ele>8.3999996185303</ele>
        <time>2020-08-29T15:30:47.000Z</time>
      </trkpt>
      <trkpt lat="47.09944" lon="-1.63082">
        <ele>8.3999996185303</ele>
        <time>2020-08-29T15:30:52.000Z</time>
      </trkpt>
      <trkpt lat="47.09931" lon="-1.63064">
        <ele>8</ele>
        <time>2020-08-29T15:31:00.000Z</time>
      </trkpt>
      <trkpt lat="47.09918" lon="-1.63067">
        <ele>8</ele>
        <time>2020-08-29T15:31:05.000Z</time>
      </trkpt>
      <trkpt lat="47.09895" lon="-1.63085">
        <ele>7.8000001907349</ele>
        <time>2020-08-29T15:31:14.000Z</time>
      </trkpt>
      <trkpt lat="47.09882" lon="-1.63092">
        <ele>7.5999999046326</ele>
        <time>2020-08-29T15:31:18.000Z</time>
      </trkpt>
      <trkpt lat="47.09878" lon="-1.63093">
        <ele>7.5999999046326</ele>
        <time>2020-08-29T15:31:19.000Z</time>
      </trkpt>
      <trkpt lat="47.0987" lon="-1.63094">
        <ele>7.4000000953674</ele>
        <time>2020-08-29T15:31:21.000Z</time>
      </trkpt>
      <trkpt lat="47.09848" lon="-1.63109">
        <ele>7</ele>
        <time>2020-08-29T15:31:27.000Z</time>
      </trkpt>
      <trkpt lat="47.09837" lon="-1.63119">
        <ele>6.8000001907349</ele>
        <time>2020-08-29T15:31:30.000Z</time>
      </trkpt>
      <trkpt lat="47.09831" lon="-1.63124">
        <ele>6.8000001907349</ele>
        <time>2020-08-29T15:31:32.000Z</time>
      </trkpt>
      <trkpt lat="47.09826" lon="-1.63127">
        <ele>6.5999999046326</ele>
        <time>2020-08-29T15:31:34.000Z</time>
      </trkpt>
      <trkpt lat="47.09822" lon="-1.63125">
        <ele>6.5999999046326</ele>
        <time>2020-08-29T15:31:35.000Z</time>
      </trkpt>
      <trkpt lat="47.0982" lon="-1.63123">
        <ele>6.5999999046326</ele>
        <time>2020-08-29T15:31:36.000Z</time>
      </trkpt>
      <trkpt lat="47.09816" lon="-1.63118">
        <ele>6.4000000953674</ele>
        <time>2020-08-29T15:31:37.000Z</time>
      </trkpt>
      <trkpt lat="47.09809" lon="-1.63106">
        <ele>6.1999998092651</ele>
        <time>2020-08-29T15:31:39.000Z</time>
      </trkpt>
      <trkpt lat="47.09806" lon="-1.631">
        <ele>6.1999998092651</ele>
        <time>2020-08-29T15:31:40.000Z</time>
      </trkpt>
      <trkpt lat="47.09803" lon="-1.63095">
        <ele>6</ele>
        <time>2020-08-29T15:31:41.000Z</time>
      </trkpt>
      <trkpt lat="47.09784" lon="-1.63055">
        <ele>5.8000001907349</ele>
        <time>2020-08-29T15:31:47.000Z</time>
      </trkpt>
      <trkpt lat="47.09768" lon="-1.63007">
        <ele>4.8000001907349</ele>
        <time>2020-08-29T15:31:54.000Z</time>
      </trkpt>
      <trkpt lat="47.09756" lon="-1.6297">
        <ele>4.1999998092651</ele>
        <time>2020-08-29T15:31:59.000Z</time>
      </trkpt>
      <trkpt lat="47.0975" lon="-1.62952">
        <ele>3.7999999523163</ele>
        <time>2020-08-29T15:32:01.000Z</time>
      </trkpt>
      <trkpt lat="47.09746" lon="-1.62932">
        <ele>3.4000000953674</ele>
        <time>2020-08-29T15:32:04.000Z</time>
      </trkpt>
      <trkpt lat="47.09746" lon="-1.62928">
        <ele>3.4000000953674</ele>
        <time>2020-08-29T15:32:05.000Z</time>
      </trkpt>
      <trkpt lat="47.09746" lon="-1.62924">
        <ele>3.4000000953674</ele>
        <time>2020-08-29T15:32:07.000Z</time>
      </trkpt>
      <trkpt lat="47.09748" lon="-1.62921">
        <ele>3.4000000953674</ele>
        <time>2020-08-29T15:32:09.000Z</time>
      </trkpt>
      <trkpt lat="47.09748" lon="-1.62917">
        <ele>3.2000000476837</ele>
        <time>2020-08-29T15:32:10.000Z</time>
      </trkpt>
      <trkpt lat="47.09742" lon="-1.62901">
        <ele>3</ele>
        <time>2020-08-29T15:32:13.000Z</time>
      </trkpt>
      <trkpt lat="47.09727" lon="-1.62876">
        <ele>3.4000000953674</ele>
        <time>2020-08-29T15:32:18.000Z</time>
      </trkpt>
      <trkpt lat="47.09718" lon="-1.62851">
        <ele>3.5999999046326</ele>
        <time>2020-08-29T15:32:23.000Z</time>
      </trkpt>
      <trkpt lat="47.09705" lon="-1.62822">
        <ele>4.8000001907349</ele>
        <time>2020-08-29T15:32:28.000Z</time>
      </trkpt>
      <trkpt lat="47.09701" lon="-1.62811">
        <ele>5</ele>
        <time>2020-08-29T15:32:30.000Z</time>
      </trkpt>
      <trkpt lat="47.09696" lon="-1.62792">
        <ele>5.1999998092651</ele>
        <time>2020-08-29T15:32:33.000Z</time>
      </trkpt>
      <trkpt lat="47.0969" lon="-1.62764">
        <ele>5</ele>
        <time>2020-08-29T15:32:37.000Z</time>
      </trkpt>
      <trkpt lat="47.09684" lon="-1.62745">
        <ele>4.5999999046326</ele>
        <time>2020-08-29T15:32:40.000Z</time>
      </trkpt>
      <trkpt lat="47.09679" lon="-1.62728">
        <ele>4.5999999046326</ele>
        <time>2020-08-29T15:32:43.000Z</time>
      </trkpt>
      <trkpt lat="47.09677" lon="-1.6272">
        <ele>4.8000001907349</ele>
        <time>2020-08-29T15:32:45.000Z</time>
      </trkpt>
      <trkpt lat="47.09677" lon="-1.62713">
        <ele>4.5999999046326</ele>
        <time>2020-08-29T15:32:47.000Z</time>
      </trkpt>
      <trkpt lat="47.09678" lon="-1.62705">
        <ele>4.4000000953674</ele>
        <time>2020-08-29T15:32:49.000Z</time>
      </trkpt>
      <trkpt lat="47.09678" lon="-1.627">
        <ele>4.4000000953674</ele>
        <time>2020-08-29T15:32:50.000Z</time>
      </trkpt>
      <trkpt lat="47.09673" lon="-1.62677">
        <ele>3.7999999523163</ele>
        <time>2020-08-29T15:32:54.000Z</time>
      </trkpt>
      <trkpt lat="47.09663" lon="-1.62638">
        <ele>3</ele>
        <time>2020-08-29T15:33:00.000Z</time>
      </trkpt>
      <trkpt lat="47.09659" lon="-1.62616">
        <ele>3</ele>
        <time>2020-08-29T15:33:04.000Z</time>
      </trkpt>
      <trkpt lat="47.09659" lon="-1.62609">
        <ele>3</ele>
        <time>2020-08-29T15:33:05.000Z</time>
      </trkpt>
      <trkpt lat="47.09659" lon="-1.62582">
        <ele>3</ele>
        <time>2020-08-29T15:33:09.000Z</time>
      </trkpt>
      <trkpt lat="47.09659" lon="-1.62568">
        <ele>3</ele>
        <time>2020-08-29T15:33:11.000Z</time>
      </trkpt>
      <trkpt lat="47.09659" lon="-1.62554">
        <ele>3</ele>
        <time>2020-08-29T15:33:13.000Z</time>
      </trkpt>
      <trkpt lat="47.09659" lon="-1.62539">
        <ele>3</ele>
        <time>2020-08-29T15:33:15.000Z</time>
      </trkpt>
      <trkpt lat="47.09659" lon="-1.62526">
        <ele>3</ele>
        <time>2020-08-29T15:33:17.000Z</time>
      </trkpt>
      <trkpt lat="47.09659" lon="-1.62518">
        <ele>3</ele>
        <time>2020-08-29T15:33:18.000Z</time>
      </trkpt>
      <trkpt lat="47.09659" lon="-1.62497">
        <ele>3</ele>
        <time>2020-08-29T15:33:21.000Z</time>
      </trkpt>
      <trkpt lat="47.09658" lon="-1.62442">
        <ele>3.5999999046326</ele>
        <time>2020-08-29T15:33:29.000Z</time>
      </trkpt>
      <trkpt lat="47.09658" lon="-1.62422">
        <ele>3.7999999523163</ele>
        <time>2020-08-29T15:33:32.000Z</time>
      </trkpt>
      <trkpt lat="47.09657" lon="-1.62401">
        <ele>4</ele>
        <time>2020-08-29T15:33:35.000Z</time>
      </trkpt>
      <trkpt lat="47.09657" lon="-1.62393">
        <ele>4</ele>
        <time>2020-08-29T15:33:36.000Z</time>
      </trkpt>
      <trkpt lat="47.09656" lon="-1.62373">
        <ele>4</ele>
        <time>2020-08-29T15:33:39.000Z</time>
      </trkpt>
      <trkpt lat="47.09655" lon="-1.62366">
        <ele>4</ele>
        <time>2020-08-29T15:33:40.000Z</time>
      </trkpt>
      <trkpt lat="47.09653" lon="-1.62353">
        <ele>4</ele>
        <time>2020-08-29T15:33:42.000Z</time>
      </trkpt>
      <trkpt lat="47.09652" lon="-1.62347">
        <ele>4</ele>
        <time>2020-08-29T15:33:43.000Z</time>
      </trkpt>
      <trkpt lat="47.09647" lon="-1.62332">
        <ele>4.1999998092651</ele>
        <time>2020-08-29T15:33:46.000Z</time>
      </trkpt>
      <trkpt lat="47.09646" lon="-1.62327">
        <ele>4.1999998092651</ele>
        <time>2020-08-29T15:33:47.000Z</time>
      </trkpt>
      <trkpt lat="47.0963" lon="-1.6229">
        <ele>3.4000000953674</ele>
        <time>2020-08-29T15:33:55.000Z</time>
      </trkpt>
      <trkpt lat="47.09625" lon="-1.6228">
        <ele>3</ele>
        <time>2020-08-29T15:33:57.000Z</time>
      </trkpt>
      <trkpt lat="47.09613" lon="-1.62255">
        <ele>3.2000000476837</ele>
        <time>2020-08-29T15:34:02.000Z</time>
      </trkpt>
      <trkpt lat="47.09597" lon="-1.62221">
        <ele>3.5999999046326</ele>
        <time>2020-08-29T15:34:08.000Z</time>
      </trkpt>
      <trkpt lat="47.09595" lon="-1.62215">
        <ele>3.7999999523163</ele>
        <time>2020-08-29T15:34:09.000Z</time>
      </trkpt>
      <trkpt lat="47.09583" lon="-1.62187">
        <ele>4.4000000953674</ele>
        <time>2020-08-29T15:34:14.000Z</time>
      </trkpt>
      <trkpt lat="47.09578" lon="-1.62176">
        <ele>4.5999999046326</ele>
        <time>2020-08-29T15:34:16.000Z</time>
      </trkpt>
      <trkpt lat="47.09568" lon="-1.62155">
        <ele>5.1999998092651</ele>
        <time>2020-08-29T15:34:20.000Z</time>
      </trkpt>
      <trkpt lat="47.09562" lon="-1.6214">
        <ele>5.4000000953674</ele>
        <time>2020-08-29T15:34:23.000Z</time>
      </trkpt>
      <trkpt lat="47.09551" lon="-1.62113">
        <ele>5.4000000953674</ele>
        <time>2020-08-29T15:34:29.000Z</time>
      </trkpt>
      <trkpt lat="47.09547" lon="-1.62103">
        <ele>5.4000000953674</ele>
        <time>2020-08-29T15:34:31.000Z</time>
      </trkpt>
      <trkpt lat="47.09538" lon="-1.62083">
        <ele>5</ele>
        <time>2020-08-29T15:34:35.000Z</time>
      </trkpt>
      <trkpt lat="47.09535" lon="-1.62078">
        <ele>4.8000001907349</ele>
        <time>2020-08-29T15:34:36.000Z</time>
      </trkpt>
      <trkpt lat="47.09528" lon="-1.62062">
        <ele>4.4000000953674</ele>
        <time>2020-08-29T15:34:39.000Z</time>
      </trkpt>
      <trkpt lat="47.09518" lon="-1.6204">
        <ele>4</ele>
        <time>2020-08-29T15:34:43.000Z</time>
      </trkpt>
      <trkpt lat="47.09508" lon="-1.62016">
        <ele>3.5999999046326</ele>
        <time>2020-08-29T15:34:47.000Z</time>
      </trkpt>
      <trkpt lat="47.09497" lon="-1.61995">
        <ele>3.2000000476837</ele>
        <time>2020-08-29T15:34:51.000Z</time>
      </trkpt>
      <trkpt lat="47.09474" lon="-1.61947">
        <ele>3</ele>
        <time>2020-08-29T15:34:59.000Z</time>
      </trkpt>
      <trkpt lat="47.09458" lon="-1.61917">
        <ele>3.5999999046326</ele>
        <time>2020-08-29T15:35:05.000Z</time>
      </trkpt>
      <trkpt lat="47.09451" lon="-1.61906">
        <ele>4</ele>
        <time>2020-08-29T15:35:08.000Z</time>
      </trkpt>
      <trkpt lat="47.0945" lon="-1.61904">
        <ele>4</ele>
        <time>2020-08-29T15:35:10.000Z</time>
      </trkpt>
      <trkpt lat="47.09451" lon="-1.61903">
        <ele>4</ele>
        <time>2020-08-29T15:35:15.000Z</time>
      </trkpt>
      <trkpt lat="47.09451" lon="-1.61903">
        <ele>4</ele>
        <time>2020-08-29T15:35:16.000Z</time>
      </trkpt>
      <trkpt lat="47.09452" lon="-1.61903">
        <ele>4</ele>
        <time>2020-08-29T15:35:18.000Z</time>
      </trkpt>
      <trkpt lat="47.09452" lon="-1.61903">
        <ele>4</ele>
        <time>2020-08-29T15:35:19.000Z</time>
      </trkpt>
      <trkpt lat="47.09453" lon="-1.61898">
        <ele>4</ele>
        <time>2020-08-29T15:35:23.000Z</time>
      </trkpt>
      <trkpt lat="47.09454" lon="-1.61894">
        <ele>4</ele>
        <time>2020-08-29T15:35:25.000Z</time>
      </trkpt>
      <trkpt lat="47.09455" lon="-1.61891">
        <ele>4.1999998092651</ele>
        <time>2020-08-29T15:35:26.000Z</time>
      </trkpt>
      <trkpt lat="47.09458" lon="-1.61872">
        <ele>4.4000000953674</ele>
        <time>2020-08-29T15:35:31.000Z</time>
      </trkpt>
      <trkpt lat="47.09459" lon="-1.61867">
        <ele>4.4000000953674</ele>
        <time>2020-08-29T15:35:32.000Z</time>
      </trkpt>
      <trkpt lat="47.09462" lon="-1.61852">
        <ele>4.5999999046326</ele>
        <time>2020-08-29T15:35:35.000Z</time>
      </trkpt>
      <trkpt lat="47.09466" lon="-1.61834">
        <ele>4.5999999046326</ele>
        <time>2020-08-29T15:35:38.000Z</time>
      </trkpt>
      <trkpt lat="47.09467" lon="-1.61828">
        <ele>4.4000000953674</ele>
        <time>2020-08-29T15:35:39.000Z</time>
      </trkpt>
      <trkpt lat="47.09468" lon="-1.61822">
        <ele>4.4000000953674</ele>
        <time>2020-08-29T15:35:40.000Z</time>
      </trkpt>
      <trkpt lat="47.0947" lon="-1.6181">
        <ele>4.4000000953674</ele>
        <time>2020-08-29T15:35:42.000Z</time>
      </trkpt>
      <trkpt lat="47.09473" lon="-1.61792">
        <ele>4.5999999046326</ele>
        <time>2020-08-29T15:35:45.000Z</time>
      </trkpt>
      <trkpt lat="47.09483" lon="-1.61761">
        <ele>4.8000001907349</ele>
        <time>2020-08-29T15:35:51.000Z</time>
      </trkpt>
      <trkpt lat="47.09485" lon="-1.61756">
        <ele>4.8000001907349</ele>
        <time>2020-08-29T15:35:52.000Z</time>
      </trkpt>
      <trkpt lat="47.0949" lon="-1.61734">
        <ele>5.1999998092651</ele>
        <time>2020-08-29T15:35:56.000Z</time>
      </trkpt>
      <trkpt lat="47.09492" lon="-1.61724">
        <ele>5.1999998092651</ele>
        <time>2020-08-29T15:36:00.000Z</time>
      </trkpt>
      <trkpt lat="47.09494" lon="-1.61711">
        <ele>5.1999998092651</ele>
        <time>2020-08-29T15:36:05.000Z</time>
      </trkpt>
      <trkpt lat="47.09498" lon="-1.61684">
        <ele>5.4000000953674</ele>
        <time>2020-08-29T15:36:10.000Z</time>
      </trkpt>
      <trkpt lat="47.09501" lon="-1.61657">
        <ele>5.5999999046326</ele>
        <time>2020-08-29T15:36:14.000Z</time>
      </trkpt>
      <trkpt lat="47.09502" lon="-1.61651">
        <ele>5.5999999046326</ele>
        <time>2020-08-29T15:36:15.000Z</time>
      </trkpt>
      <trkpt lat="47.09507" lon="-1.61609">
        <ele>5.4000000953674</ele>
        <time>2020-08-29T15:36:21.000Z</time>
      </trkpt>
      <trkpt lat="47.09508" lon="-1.61601">
        <ele>5.1999998092651</ele>
        <time>2020-08-29T15:36:22.000Z</time>
      </trkpt>
      <trkpt lat="47.0951" lon="-1.61585">
        <ele>5.1999998092651</ele>
        <time>2020-08-29T15:36:24.000Z</time>
      </trkpt>
      <trkpt lat="47.09509" lon="-1.61577">
        <ele>5.1999998092651</ele>
        <time>2020-08-29T15:36:25.000Z</time>
      </trkpt>
      <trkpt lat="47.09507" lon="-1.61563">
        <ele>5.4000000953674</ele>
        <time>2020-08-29T15:36:27.000Z</time>
      </trkpt>
      <trkpt lat="47.09504" lon="-1.61541">
        <ele>5.4000000953674</ele>
        <time>2020-08-29T15:36:30.000Z</time>
      </trkpt>
      <trkpt lat="47.09503" lon="-1.61526">
        <ele>5.5999999046326</ele>
        <time>2020-08-29T15:36:32.000Z</time>
      </trkpt>
      <trkpt lat="47.09498" lon="-1.61506">
        <ele>5.8000001907349</ele>
        <time>2020-08-29T15:36:35.000Z</time>
      </trkpt>
      <trkpt lat="47.09492" lon="-1.6148">
        <ele>6</ele>
        <time>2020-08-29T15:36:39.000Z</time>
      </trkpt>
      <trkpt lat="47.09488" lon="-1.61467">
        <ele>5.5999999046326</ele>
        <time>2020-08-29T15:36:41.000Z</time>
      </trkpt>
      <trkpt lat="47.09482" lon="-1.61436">
        <ele>5</ele>
        <time>2020-08-29T15:36:47.000Z</time>
      </trkpt>
      <trkpt lat="47.09487" lon="-1.61419">
        <ele>4.5999999046326</ele>
        <time>2020-08-29T15:36:52.000Z</time>
      </trkpt>
      <trkpt lat="47.09489" lon="-1.61406">
        <ele>4.1999998092651</ele>
        <time>2020-08-29T15:36:55.000Z</time>
      </trkpt>
      <trkpt lat="47.09488" lon="-1.61401">
        <ele>4.1999998092651</ele>
        <time>2020-08-29T15:36:56.000Z</time>
      </trkpt>
      <trkpt lat="47.09489" lon="-1.61365">
        <ele>4.1999998092651</ele>
        <time>2020-08-29T15:37:02.000Z</time>
      </trkpt>
      <trkpt lat="47.09496" lon="-1.61338">
        <ele>4</ele>
        <time>2020-08-29T15:37:07.000Z</time>
      </trkpt>
      <trkpt lat="47.09498" lon="-1.61333">
        <ele>4</ele>
        <time>2020-08-29T15:37:08.000Z</time>
      </trkpt>
      <trkpt lat="47.09505" lon="-1.61306">
        <ele>4.1999998092651</ele>
        <time>2020-08-29T15:37:12.000Z</time>
      </trkpt>
      <trkpt lat="47.09507" lon="-1.61298">
        <ele>4.4000000953674</ele>
        <time>2020-08-29T15:37:13.000Z</time>
      </trkpt>
      <trkpt lat="47.09508" lon="-1.61279">
        <ele>4.8000001907349</ele>
        <time>2020-08-29T15:37:16.000Z</time>
      </trkpt>
      <trkpt lat="47.09509" lon="-1.61274">
        <ele>4.8000001907349</ele>
        <time>2020-08-29T15:37:18.000Z</time>
      </trkpt>
      <trkpt lat="47.09513" lon="-1.61275">
        <ele>4.8000001907349</ele>
        <time>2020-08-29T15:37:20.000Z</time>
      </trkpt>
      <trkpt lat="47.0953" lon="-1.61287">
        <ele>4.4000000953674</ele>
        <time>2020-08-29T15:37:25.000Z</time>
      </trkpt>
      <trkpt lat="47.09535" lon="-1.61289">
        <ele>4.4000000953674</ele>
        <time>2020-08-29T15:37:26.000Z</time>
      </trkpt>
      <trkpt lat="47.09568" lon="-1.61313">
        <ele>4</ele>
        <time>2020-08-29T15:37:33.000Z</time>
      </trkpt>
      <trkpt lat="47.09601" lon="-1.61337">
        <ele>3.4000000953674</ele>
        <time>2020-08-29T15:37:40.000Z</time>
      </trkpt>
      <trkpt lat="47.09606" lon="-1.6134">
        <ele>3.4000000953674</ele>
        <time>2020-08-29T15:37:41.000Z</time>
      </trkpt>
      <trkpt lat="47.09629" lon="-1.61355">
        <ele>3</ele>
        <time>2020-08-29T15:37:47.000Z</time>
      </trkpt>
      <trkpt lat="47.09634" lon="-1.61357">
        <ele>2.7999999523163</ele>
        <time>2020-08-29T15:37:49.000Z</time>
      </trkpt>
      <trkpt lat="47.09636" lon="-1.61352">
        <ele>2.7999999523163</ele>
        <time>2020-08-29T15:37:51.000Z</time>
      </trkpt>
      <trkpt lat="47.09638" lon="-1.61345">
        <ele>3</ele>
        <time>2020-08-29T15:37:53.000Z</time>
      </trkpt>
      <trkpt lat="47.09643" lon="-1.61331">
        <ele>3</ele>
        <time>2020-08-29T15:37:56.000Z</time>
      </trkpt>
      <trkpt lat="47.09658" lon="-1.61296">
        <ele>3.5999999046326</ele>
        <time>2020-08-29T15:38:02.000Z</time>
      </trkpt>
      <trkpt lat="47.09669" lon="-1.61271">
        <ele>4</ele>
        <time>2020-08-29T15:38:06.000Z</time>
      </trkpt>
      <trkpt lat="47.09675" lon="-1.61253">
        <ele>4.4000000953674</ele>
        <time>2020-08-29T15:38:09.000Z</time>
      </trkpt>
      <trkpt lat="47.09683" lon="-1.61231">
        <ele>4.5999999046326</ele>
        <time>2020-08-29T15:38:14.000Z</time>
      </trkpt>
      <trkpt lat="47.0969" lon="-1.61218">
        <ele>4.4000000953674</ele>
        <time>2020-08-29T15:38:17.000Z</time>
      </trkpt>
      <trkpt lat="47.09693" lon="-1.61214">
        <ele>4.4000000953674</ele>
        <time>2020-08-29T15:38:18.000Z</time>
      </trkpt>
      <trkpt lat="47.09696" lon="-1.61209">
        <ele>4.1999998092651</ele>
        <time>2020-08-29T15:38:19.000Z</time>
      </trkpt>
      <trkpt lat="47.09699" lon="-1.61206">
        <ele>4.1999998092651</ele>
        <time>2020-08-29T15:38:20.000Z</time>
      </trkpt>
      <trkpt lat="47.09713" lon="-1.61197">
        <ele>4</ele>
        <time>2020-08-29T15:38:24.000Z</time>
      </trkpt>
      <trkpt lat="47.09717" lon="-1.61196">
        <ele>3.7999999523163</ele>
        <time>2020-08-29T15:38:25.000Z</time>
      </trkpt>
      <trkpt lat="47.0973" lon="-1.61198">
        <ele>3.7999999523163</ele>
        <time>2020-08-29T15:38:28.000Z</time>
      </trkpt>
      <trkpt lat="47.09734" lon="-1.61197">
        <ele>3.5999999046326</ele>
        <time>2020-08-29T15:38:29.000Z</time>
      </trkpt>
      <trkpt lat="47.09741" lon="-1.61191">
        <ele>3.5999999046326</ele>
        <time>2020-08-29T15:38:32.000Z</time>
      </trkpt>
      <trkpt lat="47.09742" lon="-1.61187">
        <ele>3.4000000953674</ele>
        <time>2020-08-29T15:38:33.000Z</time>
      </trkpt>
      <trkpt lat="47.09746" lon="-1.61182">
        <ele>3.4000000953674</ele>
        <time>2020-08-29T15:38:35.000Z</time>
      </trkpt>
      <trkpt lat="47.09753" lon="-1.61177">
        <ele>3.5999999046326</ele>
        <time>2020-08-29T15:38:37.000Z</time>
      </trkpt>
      <trkpt lat="47.09779" lon="-1.61163">
        <ele>4</ele>
        <time>2020-08-29T15:38:43.000Z</time>
      </trkpt>
      <trkpt lat="47.09791" lon="-1.61155">
        <ele>4.1999998092651</ele>
        <time>2020-08-29T15:38:46.000Z</time>
      </trkpt>
      <trkpt lat="47.09805" lon="-1.61146">
        <ele>4.4000000953674</ele>
        <time>2020-08-29T15:38:49.000Z</time>
      </trkpt>
      <trkpt lat="47.09813" lon="-1.61138">
        <ele>4.5999999046326</ele>
        <time>2020-08-29T15:38:51.000Z</time>
      </trkpt>
      <trkpt lat="47.09828" lon="-1.61122">
        <ele>5</ele>
        <time>2020-08-29T15:38:55.000Z</time>
      </trkpt>
      <trkpt lat="47.09833" lon="-1.61115">
        <ele>5.1999998092651</ele>
        <time>2020-08-29T15:38:58.000Z</time>
      </trkpt>
      <trkpt lat="47.09835" lon="-1.61114">
        <ele>5.1999998092651</ele>
        <time>2020-08-29T15:39:03.000Z</time>
      </trkpt>
      <trkpt lat="47.09838" lon="-1.61114">
        <ele>5.1999998092651</ele>
        <time>2020-08-29T15:39:05.000Z</time>
      </trkpt>
      <trkpt lat="47.0984" lon="-1.61114">
        <ele>5.4000000953674</ele>
        <time>2020-08-29T15:39:06.000Z</time>
      </trkpt>
      <trkpt lat="47.09845" lon="-1.61112">
        <ele>5.4000000953674</ele>
        <time>2020-08-29T15:39:08.000Z</time>
      </trkpt>
      <trkpt lat="47.09847" lon="-1.61113">
        <ele>5.4000000953674</ele>
        <time>2020-08-29T15:39:09.000Z</time>
      </trkpt>
      <trkpt lat="47.0985" lon="-1.61119">
        <ele>5.5999999046326</ele>
        <time>2020-08-29T15:39:11.000Z</time>
      </trkpt>
      <trkpt lat="47.09854" lon="-1.61129">
        <ele>5.5999999046326</ele>
        <time>2020-08-29T15:39:13.000Z</time>
      </trkpt>
      <trkpt lat="47.0986" lon="-1.6115">
        <ele>5.4000000953674</ele>
        <time>2020-08-29T15:39:17.000Z</time>
      </trkpt>
      <trkpt lat="47.09863" lon="-1.61169">
        <ele>5.4000000953674</ele>
        <time>2020-08-29T15:39:20.000Z</time>
      </trkpt>
      <trkpt lat="47.09869" lon="-1.61193">
        <ele>5.5999999046326</ele>
        <time>2020-08-29T15:39:24.000Z</time>
      </trkpt>
      <trkpt lat="47.09874" lon="-1.61212">
        <ele>6.4000000953674</ele>
        <time>2020-08-29T15:39:27.000Z</time>
      </trkpt>
      <trkpt lat="47.09878" lon="-1.61231">
        <ele>7.4000000953674</ele>
        <time>2020-08-29T15:39:30.000Z</time>
      </trkpt>
      <trkpt lat="47.09879" lon="-1.61238">
        <ele>7.4000000953674</ele>
        <time>2020-08-29T15:39:31.000Z</time>
      </trkpt>
      <trkpt lat="47.09883" lon="-1.61262">
        <ele>7.5999999046326</ele>
        <time>2020-08-29T15:39:35.000Z</time>
      </trkpt>
      <trkpt lat="47.09886" lon="-1.61281">
        <ele>7.8000001907349</ele>
        <time>2020-08-29T15:39:38.000Z</time>
      </trkpt>
      <trkpt lat="47.09888" lon="-1.61294">
        <ele>8</ele>
        <time>2020-08-29T15:39:40.000Z</time>
      </trkpt>
      <trkpt lat="47.09889" lon="-1.613">
        <ele>8</ele>
        <time>2020-08-29T15:39:41.000Z</time>
      </trkpt>
      <trkpt lat="47.09891" lon="-1.61312">
        <ele>8</ele>
        <time>2020-08-29T15:39:43.000Z</time>
      </trkpt>
      <trkpt lat="47.09892" lon="-1.61319">
        <ele>8.1999998092651</ele>
        <time>2020-08-29T15:39:44.000Z</time>
      </trkpt>
      <trkpt lat="47.09893" lon="-1.61325">
        <ele>8.1999998092651</ele>
        <time>2020-08-29T15:39:45.000Z</time>
      </trkpt>
      <trkpt lat="47.09895" lon="-1.61338">
        <ele>8.3999996185303</ele>
        <time>2020-08-29T15:39:47.000Z</time>
      </trkpt>
      <trkpt lat="47.09897" lon="-1.6135">
        <ele>8</ele>
        <time>2020-08-29T15:39:49.000Z</time>
      </trkpt>
      <trkpt lat="47.099" lon="-1.61369">
        <ele>7.5999999046326</ele>
        <time>2020-08-29T15:39:52.000Z</time>
      </trkpt>
      <trkpt lat="47.09909" lon="-1.61427">
        <ele>7</ele>
        <time>2020-08-29T15:40:01.000Z</time>
      </trkpt>
      <trkpt lat="47.09914" lon="-1.61459">
        <ele>7</ele>
        <time>2020-08-29T15:40:06.000Z</time>
      </trkpt>
      <trkpt lat="47.09916" lon="-1.61473">
        <ele>7</ele>
        <time>2020-08-29T15:40:08.000Z</time>
      </trkpt>
      <trkpt lat="47.09925" lon="-1.61528">
        <ele>6.8000001907349</ele>
        <time>2020-08-29T15:40:16.000Z</time>
      </trkpt>
      <trkpt lat="47.09928" lon="-1.61543">
        <ele>6.8000001907349</ele>
        <time>2020-08-29T15:40:18.000Z</time>
      </trkpt>
      <trkpt lat="47.09932" lon="-1.61565">
        <ele>6.8000001907349</ele>
        <time>2020-08-29T15:40:21.000Z</time>
      </trkpt>
      <trkpt lat="47.09935" lon="-1.6158">
        <ele>6.8000001907349</ele>
        <time>2020-08-29T15:40:23.000Z</time>
      </trkpt>
      <trkpt lat="47.09937" lon="-1.61588">
        <ele>7</ele>
        <time>2020-08-29T15:40:24.000Z</time>
      </trkpt>
      <trkpt lat="47.09952" lon="-1.61644">
        <ele>7</ele>
        <time>2020-08-29T15:40:31.000Z</time>
      </trkpt>
      <trkpt lat="47.09969" lon="-1.61706">
        <ele>6.4000000953674</ele>
        <time>2020-08-29T15:40:39.000Z</time>
      </trkpt>
      <trkpt lat="47.09972" lon="-1.61722">
        <ele>6.5999999046326</ele>
        <time>2020-08-29T15:40:41.000Z</time>
      </trkpt>
      <trkpt lat="47.09977" lon="-1.61763">
        <ele>7</ele>
        <time>2020-08-29T15:40:46.000Z</time>
      </trkpt>
      <trkpt lat="47.09977" lon="-1.61794">
        <ele>7.4000000953674</ele>
        <time>2020-08-29T15:40:50.000Z</time>
      </trkpt>
      <trkpt lat="47.09977" lon="-1.61801">
        <ele>7.4000000953674</ele>
        <time>2020-08-29T15:40:51.000Z</time>
      </trkpt>
      <trkpt lat="47.09975" lon="-1.61809">
        <ele>7.4000000953674</ele>
        <time>2020-08-29T15:40:52.000Z</time>
      </trkpt>
      <trkpt lat="47.09974" lon="-1.61817">
        <ele>7.5999999046326</ele>
        <time>2020-08-29T15:40:53.000Z</time>
      </trkpt>
      <trkpt lat="47.09974" lon="-1.61825">
        <ele>7.5999999046326</ele>
        <time>2020-08-29T15:40:54.000Z</time>
      </trkpt>
      <trkpt lat="47.09975" lon="-1.61842">
        <ele>7.5999999046326</ele>
        <time>2020-08-29T15:40:56.000Z</time>
      </trkpt>
      <trkpt lat="47.09979" lon="-1.6189">
        <ele>8.3999996185303</ele>
        <time>2020-08-29T15:41:02.000Z</time>
      </trkpt>
      <trkpt lat="47.0999" lon="-1.61942">
        <ele>8</ele>
        <time>2020-08-29T15:41:09.000Z</time>
      </trkpt>
      <trkpt lat="47.09997" lon="-1.61969">
        <ele>7.4000000953674</ele>
        <time>2020-08-29T15:41:13.000Z</time>
      </trkpt>
      <trkpt lat="47.1" lon="-1.61975">
        <ele>7.1999998092651</ele>
        <time>2020-08-29T15:41:14.000Z</time>
      </trkpt>
      <trkpt lat="47.10004" lon="-1.6198">
        <ele>7.1999998092651</ele>
        <time>2020-08-29T15:41:15.000Z</time>
      </trkpt>
      <trkpt lat="47.10012" lon="-1.61983">
        <ele>7</ele>
        <time>2020-08-29T15:41:17.000Z</time>
      </trkpt>
      <trkpt lat="47.10022" lon="-1.6198">
        <ele>7.1999998092651</ele>
        <time>2020-08-29T15:41:19.000Z</time>
      </trkpt>
      <trkpt lat="47.10032" lon="-1.61976">
        <ele>7.1999998092651</ele>
        <time>2020-08-29T15:41:21.000Z</time>
      </trkpt>
      <trkpt lat="47.10041" lon="-1.6197">
        <ele>7.4000000953674</ele>
        <time>2020-08-29T15:41:23.000Z</time>
      </trkpt>
      <trkpt lat="47.10046" lon="-1.61967">
        <ele>7.4000000953674</ele>
        <time>2020-08-29T15:41:24.000Z</time>
      </trkpt>
      <trkpt lat="47.1006" lon="-1.61954">
        <ele>7.8000001907349</ele>
        <time>2020-08-29T15:41:27.000Z</time>
      </trkpt>
      <trkpt lat="47.10095" lon="-1.61923">
        <ele>8</ele>
        <time>2020-08-29T15:41:34.000Z</time>
      </trkpt>
      <trkpt lat="47.10112" lon="-1.619">
        <ele>8.1999998092651</ele>
        <time>2020-08-29T15:41:38.000Z</time>
      </trkpt>
      <trkpt lat="47.10116" lon="-1.61893">
        <ele>8.1999998092651</ele>
        <time>2020-08-29T15:41:39.000Z</time>
      </trkpt>
      <trkpt lat="47.10144" lon="-1.61845">
        <ele>8</ele>
        <time>2020-08-29T15:41:46.000Z</time>
      </trkpt>
      <trkpt lat="47.10161" lon="-1.61822">
        <ele>8</ele>
        <time>2020-08-29T15:41:50.000Z</time>
      </trkpt>
      <trkpt lat="47.1017" lon="-1.61814">
        <ele>7.8000001907349</ele>
        <time>2020-08-29T15:41:52.000Z</time>
      </trkpt>
      <trkpt lat="47.10185" lon="-1.61802">
        <ele>7.5999999046326</ele>
        <time>2020-08-29T15:41:55.000Z</time>
      </trkpt>
      <trkpt lat="47.10195" lon="-1.61793">
        <ele>7.4000000953674</ele>
        <time>2020-08-29T15:41:57.000Z</time>
      </trkpt>
      <trkpt lat="47.10209" lon="-1.61778">
        <ele>7.1999998092651</ele>
        <time>2020-08-29T15:42:00.000Z</time>
      </trkpt>
      <trkpt lat="47.10215" lon="-1.61764">
        <ele>7.4000000953674</ele>
        <time>2020-08-29T15:42:02.000Z</time>
      </trkpt>
      <trkpt lat="47.10229" lon="-1.61738">
        <ele>7</ele>
        <time>2020-08-29T15:42:06.000Z</time>
      </trkpt>
      <trkpt lat="47.10234" lon="-1.61733">
        <ele>7</ele>
        <time>2020-08-29T15:42:07.000Z</time>
      </trkpt>
      <trkpt lat="47.10243" lon="-1.61724">
        <ele>7</ele>
        <time>2020-08-29T15:42:09.000Z</time>
      </trkpt>
      <trkpt lat="47.10259" lon="-1.6171">
        <ele>6.4000000953674</ele>
        <time>2020-08-29T15:42:13.000Z</time>
      </trkpt>
      <trkpt lat="47.10266" lon="-1.61705">
        <ele>6.1999998092651</ele>
        <time>2020-08-29T15:42:17.000Z</time>
      </trkpt>
      <trkpt lat="47.10267" lon="-1.61705">
        <ele>6.1999998092651</ele>
        <time>2020-08-29T15:42:18.000Z</time>
      </trkpt>
      <trkpt lat="47.10268" lon="-1.61704">
        <ele>6.1999998092651</ele>
        <time>2020-08-29T15:42:22.000Z</time>
      </trkpt>
      <trkpt lat="47.10268" lon="-1.61705">
        <ele>6.1999998092651</ele>
        <time>2020-08-29T15:42:29.000Z</time>
      </trkpt>
      <trkpt lat="47.10269" lon="-1.61705">
        <ele>6</ele>
        <time>2020-08-29T15:42:34.000Z</time>
      </trkpt>
      <trkpt lat="47.10269" lon="-1.61706">
        <ele>6</ele>
        <time>2020-08-29T15:42:36.000Z</time>
      </trkpt>
      <trkpt lat="47.10269" lon="-1.61706">
        <ele>6</ele>
        <time>2020-08-29T15:42:38.000Z</time>
      </trkpt>
      <trkpt lat="47.10269" lon="-1.61706">
        <ele>6</ele>
        <time>2020-08-29T15:42:39.000Z</time>
      </trkpt>
      <trkpt lat="47.10269" lon="-1.61706">
        <ele>6</ele>
        <time>2020-08-29T15:42:43.000Z</time>
      </trkpt>
      <trkpt lat="47.10269" lon="-1.61706">
        <ele>6</ele>
        <time>2020-08-29T15:42:45.000Z</time>
      </trkpt>
      <trkpt lat="47.10269" lon="-1.61705">
        <ele>6</ele>
        <time>2020-08-29T15:42:47.000Z</time>
      </trkpt>
      <trkpt lat="47.10269" lon="-1.61705">
        <ele>6</ele>
        <time>2020-08-29T15:42:49.000Z</time>
      </trkpt>
      <trkpt lat="47.10269" lon="-1.61705">
        <ele>6</ele>
        <time>2020-08-29T15:42:50.000Z</time>
      </trkpt>
      <trkpt lat="47.10268" lon="-1.61701">
        <ele>6.1999998092651</ele>
        <time>2020-08-29T15:42:53.000Z</time>
      </trkpt>
      <trkpt lat="47.10267" lon="-1.61691">
        <ele>6.1999998092651</ele>
        <time>2020-08-29T15:42:56.000Z</time>
      </trkpt>
      <trkpt lat="47.10267" lon="-1.6167">
        <ele>6.1999998092651</ele>
        <time>2020-08-29T15:43:00.000Z</time>
      </trkpt>
      <trkpt lat="47.10267" lon="-1.61664">
        <ele>6.1999998092651</ele>
        <time>2020-08-29T15:43:01.000Z</time>
      </trkpt>
      <trkpt lat="47.10269" lon="-1.6162">
        <ele>6</ele>
        <time>2020-08-29T15:43:07.000Z</time>
      </trkpt>
      <trkpt lat="47.10269" lon="-1.61613">
        <ele>6</ele>
        <time>2020-08-29T15:43:08.000Z</time>
      </trkpt>
      <trkpt lat="47.10269" lon="-1.61605">
        <ele>5.8000001907349</ele>
        <time>2020-08-29T15:43:09.000Z</time>
      </trkpt>
      <trkpt lat="47.10269" lon="-1.61573">
        <ele>5.4000000953674</ele>
        <time>2020-08-29T15:43:13.000Z</time>
      </trkpt>
      <trkpt lat="47.10269" lon="-1.61557">
        <ele>5.4000000953674</ele>
        <time>2020-08-29T15:43:15.000Z</time>
      </trkpt>
      <trkpt lat="47.10269" lon="-1.61516">
        <ele>5</ele>
        <time>2020-08-29T15:43:20.000Z</time>
      </trkpt>
      <trkpt lat="47.10269" lon="-1.61491">
        <ele>4.8000001907349</ele>
        <time>2020-08-29T15:43:23.000Z</time>
      </trkpt>
      <trkpt lat="47.10269" lon="-1.61483">
        <ele>4.5999999046326</ele>
        <time>2020-08-29T15:43:24.000Z</time>
      </trkpt>
      <trkpt lat="47.10269" lon="-1.61458">
        <ele>4.5999999046326</ele>
        <time>2020-08-29T15:43:27.000Z</time>
      </trkpt>
      <trkpt lat="47.1027" lon="-1.61424">
        <ele>4.1999998092651</ele>
        <time>2020-08-29T15:43:31.000Z</time>
      </trkpt>
      <trkpt lat="47.1027" lon="-1.61408">
        <ele>4</ele>
        <time>2020-08-29T15:43:33.000Z</time>
      </trkpt>
      <trkpt lat="47.1027" lon="-1.61391">
        <ele>3.7999999523163</ele>
        <time>2020-08-29T15:43:35.000Z</time>
      </trkpt>
      <trkpt lat="47.1027" lon="-1.61375">
        <ele>3.5999999046326</ele>
        <time>2020-08-29T15:43:37.000Z</time>
      </trkpt>
      <trkpt lat="47.1027" lon="-1.61334">
        <ele>3.5999999046326</ele>
        <time>2020-08-29T15:43:42.000Z</time>
      </trkpt>
      <trkpt lat="47.1027" lon="-1.61326">
        <ele>3.5999999046326</ele>
        <time>2020-08-29T15:43:43.000Z</time>
      </trkpt>
      <trkpt lat="47.1027" lon="-1.6131">
        <ele>3.5999999046326</ele>
        <time>2020-08-29T15:43:45.000Z</time>
      </trkpt>
      <trkpt lat="47.1027" lon="-1.61276">
        <ele>3.5999999046326</ele>
        <time>2020-08-29T15:43:49.000Z</time>
      </trkpt>
      <trkpt lat="47.1027" lon="-1.61268">
        <ele>3.5999999046326</ele>
        <time>2020-08-29T15:43:50.000Z</time>
      </trkpt>
      <trkpt lat="47.10271" lon="-1.61242">
        <ele>3.5999999046326</ele>
        <time>2020-08-29T15:43:53.000Z</time>
      </trkpt>
      <trkpt lat="47.10271" lon="-1.61207">
        <ele>4.4000000953674</ele>
        <time>2020-08-29T15:43:57.000Z</time>
      </trkpt>
      <trkpt lat="47.1027" lon="-1.6119">
        <ele>4.4000000953674</ele>
        <time>2020-08-29T15:43:59.000Z</time>
      </trkpt>
      <trkpt lat="47.10268" lon="-1.61173">
        <ele>4.1999998092651</ele>
        <time>2020-08-29T15:44:01.000Z</time>
      </trkpt>
      <trkpt lat="47.10264" lon="-1.61153">
        <ele>4.1999998092651</ele>
        <time>2020-08-29T15:44:04.000Z</time>
      </trkpt>
      <trkpt lat="47.10262" lon="-1.61145">
        <ele>4.4000000953674</ele>
        <time>2020-08-29T15:44:06.000Z</time>
      </trkpt>
      <trkpt lat="47.1026" lon="-1.61135">
        <ele>4.4000000953674</ele>
        <time>2020-08-29T15:44:09.000Z</time>
      </trkpt>
      <trkpt lat="47.10257" lon="-1.61126">
        <ele>4.4000000953674</ele>
        <time>2020-08-29T15:44:12.000Z</time>
      </trkpt>
      <trkpt lat="47.10252" lon="-1.61123">
        <ele>4.4000000953674</ele>
        <time>2020-08-29T15:44:14.000Z</time>
      </trkpt>
      <trkpt lat="47.10244" lon="-1.61116">
        <ele>4.4000000953674</ele>
        <time>2020-08-29T15:44:17.000Z</time>
      </trkpt>
      <trkpt lat="47.10243" lon="-1.61111">
        <ele>4.4000000953674</ele>
        <time>2020-08-29T15:44:18.000Z</time>
      </trkpt>
      <trkpt lat="47.10236" lon="-1.61076">
        <ele>5.1999998092651</ele>
        <time>2020-08-29T15:44:23.000Z</time>
      </trkpt>
      <trkpt lat="47.10233" lon="-1.61061">
        <ele>5.1999998092651</ele>
        <time>2020-08-29T15:44:25.000Z</time>
      </trkpt>
      <trkpt lat="47.10229" lon="-1.61038">
        <ele>5.5999999046326</ele>
        <time>2020-08-29T15:44:28.000Z</time>
      </trkpt>
      <trkpt lat="47.10228" lon="-1.6103">
        <ele>5.5999999046326</ele>
        <time>2020-08-29T15:44:29.000Z</time>
      </trkpt>
      <trkpt lat="47.10229" lon="-1.61014">
        <ele>5.8000001907349</ele>
        <time>2020-08-29T15:44:31.000Z</time>
      </trkpt>
      <trkpt lat="47.10232" lon="-1.60998">
        <ele>6</ele>
        <time>2020-08-29T15:44:33.000Z</time>
      </trkpt>
      <trkpt lat="47.10239" lon="-1.60978">
        <ele>6</ele>
        <time>2020-08-29T15:44:36.000Z</time>
      </trkpt>
      <trkpt lat="47.10242" lon="-1.60972">
        <ele>5.8000001907349</ele>
        <time>2020-08-29T15:44:37.000Z</time>
      </trkpt>
      <trkpt lat="47.1027" lon="-1.60928">
        <ele>6</ele>
        <time>2020-08-29T15:44:45.000Z</time>
      </trkpt>
      <trkpt lat="47.10274" lon="-1.60923">
        <ele>6</ele>
        <time>2020-08-29T15:44:46.000Z</time>
      </trkpt>
      <trkpt lat="47.10293" lon="-1.60889">
        <ele>6.1999998092651</ele>
        <time>2020-08-29T15:44:52.000Z</time>
      </trkpt>
      <trkpt lat="47.10302" lon="-1.60873">
        <ele>6.4000000953674</ele>
        <time>2020-08-29T15:44:55.000Z</time>
      </trkpt>
      <trkpt lat="47.10311" lon="-1.60855">
        <ele>6.5999999046326</ele>
        <time>2020-08-29T15:44:58.000Z</time>
      </trkpt>
      <trkpt lat="47.10316" lon="-1.60842">
        <ele>6.8000001907349</ele>
        <time>2020-08-29T15:45:00.000Z</time>
      </trkpt>
      <trkpt lat="47.10322" lon="-1.6082">
        <ele>7</ele>
        <time>2020-08-29T15:45:03.000Z</time>
      </trkpt>
      <trkpt lat="47.10327" lon="-1.60767">
        <ele>7</ele>
        <time>2020-08-29T15:45:10.000Z</time>
      </trkpt>
      <trkpt lat="47.1033" lon="-1.6073">
        <ele>7.1999998092651</ele>
        <time>2020-08-29T15:45:15.000Z</time>
      </trkpt>
      <trkpt lat="47.10331" lon="-1.60723">
        <ele>7.4000000953674</ele>
        <time>2020-08-29T15:45:16.000Z</time>
      </trkpt>
      <trkpt lat="47.10333" lon="-1.60709">
        <ele>7.8000001907349</ele>
        <time>2020-08-29T15:45:18.000Z</time>
      </trkpt>
      <trkpt lat="47.10336" lon="-1.6068">
        <ele>8.8000001907349</ele>
        <time>2020-08-29T15:45:22.000Z</time>
      </trkpt>
      <trkpt lat="47.10338" lon="-1.60674">
        <ele>9</ele>
        <time>2020-08-29T15:45:23.000Z</time>
      </trkpt>
      <trkpt lat="47.10341" lon="-1.60669">
        <ele>9.1999998092651</ele>
        <time>2020-08-29T15:45:24.000Z</time>
      </trkpt>
      <trkpt lat="47.10349" lon="-1.60661">
        <ele>9.3999996185303</ele>
        <time>2020-08-29T15:45:26.000Z</time>
      </trkpt>
      <trkpt lat="47.10367" lon="-1.60647">
        <ele>9.6000003814697</ele>
        <time>2020-08-29T15:45:30.000Z</time>
      </trkpt>
      <trkpt lat="47.10382" lon="-1.60637">
        <ele>9.3999996185303</ele>
        <time>2020-08-29T15:45:33.000Z</time>
      </trkpt>
      <trkpt lat="47.10413" lon="-1.60616">
        <ele>8.8000001907349</ele>
        <time>2020-08-29T15:45:40.000Z</time>
      </trkpt>
      <trkpt lat="47.10426" lon="-1.60608">
        <ele>8.3999996185303</ele>
        <time>2020-08-29T15:45:43.000Z</time>
      </trkpt>
      <trkpt lat="47.10435" lon="-1.60603">
        <ele>8.1999998092651</ele>
        <time>2020-08-29T15:45:45.000Z</time>
      </trkpt>
      <trkpt lat="47.10443" lon="-1.60597">
        <ele>7.8000001907349</ele>
        <time>2020-08-29T15:45:47.000Z</time>
      </trkpt>
      <trkpt lat="47.10451" lon="-1.60592">
        <ele>7.5999999046326</ele>
        <time>2020-08-29T15:45:49.000Z</time>
      </trkpt>
      <trkpt lat="47.10464" lon="-1.60583">
        <ele>7</ele>
        <time>2020-08-29T15:45:52.000Z</time>
      </trkpt>
      <trkpt lat="47.10478" lon="-1.60575">
        <ele>6.5999999046326</ele>
        <time>2020-08-29T15:45:55.000Z</time>
      </trkpt>
      <trkpt lat="47.10496" lon="-1.60563">
        <ele>6.1999998092651</ele>
        <time>2020-08-29T15:45:59.000Z</time>
      </trkpt>
      <trkpt lat="47.10513" lon="-1.60552">
        <ele>6.5999999046326</ele>
        <time>2020-08-29T15:46:03.000Z</time>
      </trkpt>
      <trkpt lat="47.1053" lon="-1.60542">
        <ele>7.1999998092651</ele>
        <time>2020-08-29T15:46:07.000Z</time>
      </trkpt>
      <trkpt lat="47.10538" lon="-1.60537">
        <ele>7.4000000953674</ele>
        <time>2020-08-29T15:46:09.000Z</time>
      </trkpt>
      <trkpt lat="47.10546" lon="-1.6053">
        <ele>7.8000001907349</ele>
        <time>2020-08-29T15:46:11.000Z</time>
      </trkpt>
      <trkpt lat="47.10563" lon="-1.60509">
        <ele>8.3999996185303</ele>
        <time>2020-08-29T15:46:16.000Z</time>
      </trkpt>
      <trkpt lat="47.1057" lon="-1.605">
        <ele>8.6000003814697</ele>
        <time>2020-08-29T15:46:18.000Z</time>
      </trkpt>
      <trkpt lat="47.10584" lon="-1.60478">
        <ele>8.8000001907349</ele>
        <time>2020-08-29T15:46:23.000Z</time>
      </trkpt>
      <trkpt lat="47.10589" lon="-1.60469">
        <ele>8.6000003814697</ele>
        <time>2020-08-29T15:46:25.000Z</time>
      </trkpt>
      <trkpt lat="47.10591" lon="-1.60464">
        <ele>8.3999996185303</ele>
        <time>2020-08-29T15:46:26.000Z</time>
      </trkpt>
      <trkpt lat="47.106" lon="-1.60438">
        <ele>7.8000001907349</ele>
        <time>2020-08-29T15:46:31.000Z</time>
      </trkpt>
      <trkpt lat="47.10613" lon="-1.60394">
        <ele>7.4000000953674</ele>
        <time>2020-08-29T15:46:38.000Z</time>
      </trkpt>
      <trkpt lat="47.10618" lon="-1.60382">
        <ele>7.4000000953674</ele>
        <time>2020-08-29T15:46:40.000Z</time>
      </trkpt>
      <trkpt lat="47.10629" lon="-1.6037">
        <ele>7.5999999046326</ele>
        <time>2020-08-29T15:46:43.000Z</time>
      </trkpt>
      <trkpt lat="47.10654" lon="-1.60358">
        <ele>7.1999998092651</ele>
        <time>2020-08-29T15:46:48.000Z</time>
      </trkpt>
      <trkpt lat="47.10678" lon="-1.60352">
        <ele>7.5999999046326</ele>
        <time>2020-08-29T15:46:53.000Z</time>
      </trkpt>
      <trkpt lat="47.10682" lon="-1.60351">
        <ele>7.8000001907349</ele>
        <time>2020-08-29T15:46:54.000Z</time>
      </trkpt>
      <trkpt lat="47.10715" lon="-1.60345">
        <ele>8.6000003814697</ele>
        <time>2020-08-29T15:47:01.000Z</time>
      </trkpt>
      <trkpt lat="47.10719" lon="-1.60345">
        <ele>8.8000001907349</ele>
        <time>2020-08-29T15:47:02.000Z</time>
      </trkpt>
      <trkpt lat="47.10739" lon="-1.60349">
        <ele>8.8000001907349</ele>
        <time>2020-08-29T15:47:07.000Z</time>
      </trkpt>
      <trkpt lat="47.1075" lon="-1.60351">
        <ele>8.8000001907349</ele>
        <time>2020-08-29T15:47:10.000Z</time>
      </trkpt>
      <trkpt lat="47.10755" lon="-1.60358">
        <ele>8.6000003814697</ele>
        <time>2020-08-29T15:47:12.000Z</time>
      </trkpt>
      <trkpt lat="47.10767" lon="-1.60376">
        <ele>8</ele>
        <time>2020-08-29T15:47:16.000Z</time>
      </trkpt>
      <trkpt lat="47.10771" lon="-1.60378">
        <ele>8</ele>
        <time>2020-08-29T15:47:17.000Z</time>
      </trkpt>
      <trkpt lat="47.10776" lon="-1.60378">
        <ele>8</ele>
        <time>2020-08-29T15:47:18.000Z</time>
      </trkpt>
      <trkpt lat="47.10784" lon="-1.60372">
        <ele>8.3999996185303</ele>
        <time>2020-08-29T15:47:20.000Z</time>
      </trkpt>
      <trkpt lat="47.108" lon="-1.60353">
        <ele>9</ele>
        <time>2020-08-29T15:47:25.000Z</time>
      </trkpt>
      <trkpt lat="47.10819" lon="-1.60314">
        <ele>10</ele>
        <time>2020-08-29T15:47:33.000Z</time>
      </trkpt>
      <trkpt lat="47.10828" lon="-1.60291">
        <ele>10.39999961853</ele>
        <time>2020-08-29T15:47:37.000Z</time>
      </trkpt>
      <trkpt lat="47.10832" lon="-1.60273">
        <ele>10.60000038147</ele>
        <time>2020-08-29T15:47:40.000Z</time>
      </trkpt>
      <trkpt lat="47.10839" lon="-1.60235">
        <ele>11</ele>
        <time>2020-08-29T15:47:46.000Z</time>
      </trkpt>
      <trkpt lat="47.10848" lon="-1.602">
        <ele>11.199999809265</ele>
        <time>2020-08-29T15:47:51.000Z</time>
      </trkpt>
      <trkpt lat="47.10851" lon="-1.60182">
        <ele>11.39999961853</ele>
        <time>2020-08-29T15:47:54.000Z</time>
      </trkpt>
      <trkpt lat="47.10851" lon="-1.60142">
        <ele>11.800000190735</ele>
        <time>2020-08-29T15:48:00.000Z</time>
      </trkpt>
      <trkpt lat="47.10851" lon="-1.60131">
        <ele>11.800000190735</ele>
        <time>2020-08-29T15:48:02.000Z</time>
      </trkpt>
      <trkpt lat="47.10851" lon="-1.60121">
        <ele>11.800000190735</ele>
        <time>2020-08-29T15:48:04.000Z</time>
      </trkpt>
      <trkpt lat="47.10853" lon="-1.60113">
        <ele>11.60000038147</ele>
        <time>2020-08-29T15:48:06.000Z</time>
      </trkpt>
      <trkpt lat="47.10854" lon="-1.60111">
        <ele>11.60000038147</ele>
        <time>2020-08-29T15:48:07.000Z</time>
      </trkpt>
      <trkpt lat="47.10861" lon="-1.60106">
        <ele>11.60000038147</ele>
        <time>2020-08-29T15:48:10.000Z</time>
      </trkpt>
      <trkpt lat="47.1087" lon="-1.60113">
        <ele>11.39999961853</ele>
        <time>2020-08-29T15:48:15.000Z</time>
      </trkpt>
      <trkpt lat="47.10888" lon="-1.60132">
        <ele>11.199999809265</ele>
        <time>2020-08-29T15:48:21.000Z</time>
      </trkpt>
      <trkpt lat="47.10899" lon="-1.60144">
        <ele>11.199999809265</ele>
        <time>2020-08-29T15:48:24.000Z</time>
      </trkpt>
      <trkpt lat="47.10912" lon="-1.60167">
        <ele>11</ele>
        <time>2020-08-29T15:48:28.000Z</time>
      </trkpt>
      <trkpt lat="47.10919" lon="-1.6018">
        <ele>10.800000190735</ele>
        <time>2020-08-29T15:48:30.000Z</time>
      </trkpt>
      <trkpt lat="47.10923" lon="-1.60186">
        <ele>10.800000190735</ele>
        <time>2020-08-29T15:48:31.000Z</time>
      </trkpt>
      <trkpt lat="47.10936" lon="-1.60206">
        <ele>10.39999961853</ele>
        <time>2020-08-29T15:48:35.000Z</time>
      </trkpt>
      <trkpt lat="47.10965" lon="-1.60238">
        <ele>9</ele>
        <time>2020-08-29T15:48:43.000Z</time>
      </trkpt>
      <trkpt lat="47.10995" lon="-1.60274">
        <ele>8</ele>
        <time>2020-08-29T15:48:51.000Z</time>
      </trkpt>
      <trkpt lat="47.10999" lon="-1.60279">
        <ele>8</ele>
        <time>2020-08-29T15:48:52.000Z</time>
      </trkpt>
      <trkpt lat="47.11016" lon="-1.60304">
        <ele>7.5999999046326</ele>
        <time>2020-08-29T15:48:57.000Z</time>
      </trkpt>
      <trkpt lat="47.11046" lon="-1.60351">
        <ele>6.8000001907349</ele>
        <time>2020-08-29T15:49:05.000Z</time>
      </trkpt>
      <trkpt lat="47.11057" lon="-1.60366">
        <ele>6.8000001907349</ele>
        <time>2020-08-29T15:49:08.000Z</time>
      </trkpt>
      <trkpt lat="47.11072" lon="-1.60384">
        <ele>6.8000001907349</ele>
        <time>2020-08-29T15:49:12.000Z</time>
      </trkpt>
      <trkpt lat="47.11101" lon="-1.60419">
        <ele>7.1999998092651</ele>
        <time>2020-08-29T15:49:20.000Z</time>
      </trkpt>
      <trkpt lat="47.11116" lon="-1.60435">
        <ele>7.4000000953674</ele>
        <time>2020-08-29T15:49:24.000Z</time>
      </trkpt>
      <trkpt lat="47.11127" lon="-1.60446">
        <ele>7.5999999046326</ele>
        <time>2020-08-29T15:49:27.000Z</time>
      </trkpt>
      <trkpt lat="47.11149" lon="-1.60466">
        <ele>7.8000001907349</ele>
        <time>2020-08-29T15:49:32.000Z</time>
      </trkpt>
      <trkpt lat="47.11158" lon="-1.60473">
        <ele>8</ele>
        <time>2020-08-29T15:49:34.000Z</time>
      </trkpt>
      <trkpt lat="47.11168" lon="-1.60477">
        <ele>7.8000001907349</ele>
        <time>2020-08-29T15:49:36.000Z</time>
      </trkpt>
      <trkpt lat="47.11178" lon="-1.60474">
        <ele>7.4000000953674</ele>
        <time>2020-08-29T15:49:38.000Z</time>
      </trkpt>
      <trkpt lat="47.11208" lon="-1.60459">
        <ele>6.5999999046326</ele>
        <time>2020-08-29T15:49:44.000Z</time>
      </trkpt>
      <trkpt lat="47.11217" lon="-1.6046">
        <ele>6.1999998092651</ele>
        <time>2020-08-29T15:49:46.000Z</time>
      </trkpt>
      <trkpt lat="47.11222" lon="-1.60464">
        <ele>6</ele>
        <time>2020-08-29T15:49:47.000Z</time>
      </trkpt>
      <trkpt lat="47.11232" lon="-1.60472">
        <ele>5.5999999046326</ele>
        <time>2020-08-29T15:49:49.000Z</time>
      </trkpt>
      <trkpt lat="47.1124" lon="-1.60482">
        <ele>5.1999998092651</ele>
        <time>2020-08-29T15:49:51.000Z</time>
      </trkpt>
      <trkpt lat="47.11246" lon="-1.60494">
        <ele>5</ele>
        <time>2020-08-29T15:49:53.000Z</time>
      </trkpt>
      <trkpt lat="47.11247" lon="-1.60509">
        <ele>5.1999998092651</ele>
        <time>2020-08-29T15:49:55.000Z</time>
      </trkpt>
      <trkpt lat="47.11247" lon="-1.60514">
        <ele>5.4000000953674</ele>
        <time>2020-08-29T15:49:56.000Z</time>
      </trkpt>
      <trkpt lat="47.11249" lon="-1.60521">
        <ele>5.4000000953674</ele>
        <time>2020-08-29T15:49:59.000Z</time>
      </trkpt>
      <trkpt lat="47.11251" lon="-1.60522">
        <ele>5.4000000953674</ele>
        <time>2020-08-29T15:50:00.000Z</time>
      </trkpt>
      <trkpt lat="47.11263" lon="-1.60527">
        <ele>5.1999998092651</ele>
        <time>2020-08-29T15:50:04.000Z</time>
      </trkpt>
      <trkpt lat="47.11286" lon="-1.6053">
        <ele>5</ele>
        <time>2020-08-29T15:50:10.000Z</time>
      </trkpt>
      <trkpt lat="47.11295" lon="-1.60526">
        <ele>4.8000001907349</ele>
        <time>2020-08-29T15:50:12.000Z</time>
      </trkpt>
      <trkpt lat="47.11303" lon="-1.60519">
        <ele>4.5999999046326</ele>
        <time>2020-08-29T15:50:14.000Z</time>
      </trkpt>
      <trkpt lat="47.11311" lon="-1.60515">
        <ele>4.4000000953674</ele>
        <time>2020-08-29T15:50:16.000Z</time>
      </trkpt>
      <trkpt lat="47.11322" lon="-1.60515">
        <ele>4.1999998092651</ele>
        <time>2020-08-29T15:50:19.000Z</time>
      </trkpt>
      <trkpt lat="47.11328" lon="-1.60522">
        <ele>4</ele>
        <time>2020-08-29T15:50:23.000Z</time>
      </trkpt>
      <trkpt lat="47.11338" lon="-1.60542">
        <ele>4</ele>
        <time>2020-08-29T15:50:27.000Z</time>
      </trkpt>
      <trkpt lat="47.11342" lon="-1.60546">
        <ele>4</ele>
        <time>2020-08-29T15:50:28.000Z</time>
      </trkpt>
      <trkpt lat="47.11351" lon="-1.60554">
        <ele>4</ele>
        <time>2020-08-29T15:50:30.000Z</time>
      </trkpt>
      <trkpt lat="47.11364" lon="-1.60564">
        <ele>4</ele>
        <time>2020-08-29T15:50:33.000Z</time>
      </trkpt>
      <trkpt lat="47.11379" lon="-1.60572">
        <ele>4</ele>
        <time>2020-08-29T15:50:36.000Z</time>
      </trkpt>
      <trkpt lat="47.11403" lon="-1.60582">
        <ele>4.1999998092651</ele>
        <time>2020-08-29T15:50:41.000Z</time>
      </trkpt>
      <trkpt lat="47.11424" lon="-1.6059">
        <ele>4</ele>
        <time>2020-08-29T15:50:46.000Z</time>
      </trkpt>
      <trkpt lat="47.11427" lon="-1.60591">
        <ele>3.7999999523163</ele>
        <time>2020-08-29T15:50:47.000Z</time>
      </trkpt>
      <trkpt lat="47.11437" lon="-1.6059">
        <ele>3.5999999046326</ele>
        <time>2020-08-29T15:50:51.000Z</time>
      </trkpt>
      <trkpt lat="47.11442" lon="-1.60588">
        <ele>3.4000000953674</ele>
        <time>2020-08-29T15:50:53.000Z</time>
      </trkpt>
      <trkpt lat="47.11449" lon="-1.60586">
        <ele>3.2000000476837</ele>
        <time>2020-08-29T15:50:56.000Z</time>
      </trkpt>
      <trkpt lat="47.11454" lon="-1.60585">
        <ele>3.2000000476837</ele>
        <time>2020-08-29T15:50:59.000Z</time>
      </trkpt>
      <trkpt lat="47.11456" lon="-1.60589">
        <ele>3.2000000476837</ele>
        <time>2020-08-29T15:51:03.000Z</time>
      </trkpt>
      <trkpt lat="47.11444" lon="-1.60592">
        <ele>3.4000000953674</ele>
        <time>2020-08-29T15:51:08.000Z</time>
      </trkpt>
      <trkpt lat="47.11431" lon="-1.60595">
        <ele>3.7999999523163</ele>
        <time>2020-08-29T15:51:12.000Z</time>
      </trkpt>
      <trkpt lat="47.11426" lon="-1.60593">
        <ele>4</ele>
        <time>2020-08-29T15:51:14.000Z</time>
      </trkpt>
      <trkpt lat="47.11414" lon="-1.60581">
        <ele>4</ele>
        <time>2020-08-29T15:51:18.000Z</time>
      </trkpt>
      <trkpt lat="47.11412" lon="-1.60576">
        <ele>4</ele>
        <time>2020-08-29T15:51:19.000Z</time>
      </trkpt>
      <trkpt lat="47.11407" lon="-1.60566">
        <ele>4</ele>
        <time>2020-08-29T15:51:21.000Z</time>
      </trkpt>
      <trkpt lat="47.11399" lon="-1.60549">
        <ele>4</ele>
        <time>2020-08-29T15:51:24.000Z</time>
      </trkpt>
      <trkpt lat="47.11379" lon="-1.60505">
        <ele>4</ele>
        <time>2020-08-29T15:51:31.000Z</time>
      </trkpt>
      <trkpt lat="47.11371" lon="-1.60488">
        <ele>4</ele>
        <time>2020-08-29T15:51:34.000Z</time>
      </trkpt>
      <trkpt lat="47.11357" lon="-1.60461">
        <ele>4</ele>
        <time>2020-08-29T15:51:39.000Z</time>
      </trkpt>
      <trkpt lat="47.11344" lon="-1.60432">
        <ele>4.4000000953674</ele>
        <time>2020-08-29T15:51:44.000Z</time>
      </trkpt>
      <trkpt lat="47.11338" lon="-1.60422">
        <ele>4.5999999046326</ele>
        <time>2020-08-29T15:51:46.000Z</time>
      </trkpt>
      <trkpt lat="47.11332" lon="-1.60412">
        <ele>4.8000001907349</ele>
        <time>2020-08-29T15:51:48.000Z</time>
      </trkpt>
      <trkpt lat="47.11327" lon="-1.604">
        <ele>5</ele>
        <time>2020-08-29T15:51:50.000Z</time>
      </trkpt>
      <trkpt lat="47.11325" lon="-1.60393">
        <ele>5</ele>
        <time>2020-08-29T15:51:51.000Z</time>
      </trkpt>
      <trkpt lat="47.11316" lon="-1.60358">
        <ele>5.1999998092651</ele>
        <time>2020-08-29T15:51:56.000Z</time>
      </trkpt>
      <trkpt lat="47.11311" lon="-1.60337">
        <ele>5.1999998092651</ele>
        <time>2020-08-29T15:51:59.000Z</time>
      </trkpt>
      <trkpt lat="47.11302" lon="-1.60296">
        <ele>5.4000000953674</ele>
        <time>2020-08-29T15:52:05.000Z</time>
      </trkpt>
      <trkpt lat="47.11294" lon="-1.60245">
        <ele>5</ele>
        <time>2020-08-29T15:52:12.000Z</time>
      </trkpt>
      <trkpt lat="47.11283" lon="-1.60175">
        <ele>4.5999999046326</ele>
        <time>2020-08-29T15:52:21.000Z</time>
      </trkpt>
      <trkpt lat="47.11275" lon="-1.60147">
        <ele>5</ele>
        <time>2020-08-29T15:52:25.000Z</time>
      </trkpt>
      <trkpt lat="47.1127" lon="-1.60132">
        <ele>5.5999999046326</ele>
        <time>2020-08-29T15:52:27.000Z</time>
      </trkpt>
      <trkpt lat="47.11254" lon="-1.601">
        <ele>5.8000001907349</ele>
        <time>2020-08-29T15:52:32.000Z</time>
      </trkpt>
      <trkpt lat="47.1125" lon="-1.60095">
        <ele>6</ele>
        <time>2020-08-29T15:52:33.000Z</time>
      </trkpt>
      <trkpt lat="47.11246" lon="-1.60092">
        <ele>6</ele>
        <time>2020-08-29T15:52:34.000Z</time>
      </trkpt>
      <trkpt lat="47.11241" lon="-1.60089">
        <ele>6</ele>
        <time>2020-08-29T15:52:35.000Z</time>
      </trkpt>
      <trkpt lat="47.1123" lon="-1.60085">
        <ele>6.1999998092651</ele>
        <time>2020-08-29T15:52:37.000Z</time>
      </trkpt>
      <trkpt lat="47.11182" lon="-1.60066">
        <ele>5.1999998092651</ele>
        <time>2020-08-29T15:52:46.000Z</time>
      </trkpt>
      <trkpt lat="47.11172" lon="-1.6006">
        <ele>5.1999998092651</ele>
        <time>2020-08-29T15:52:48.000Z</time>
      </trkpt>
      <trkpt lat="47.11163" lon="-1.60053">
        <ele>5.1999998092651</ele>
        <time>2020-08-29T15:52:50.000Z</time>
      </trkpt>
      <trkpt lat="47.11159" lon="-1.60052">
        <ele>5.1999998092651</ele>
        <time>2020-08-29T15:52:51.000Z</time>
      </trkpt>
      <trkpt lat="47.11136" lon="-1.60048">
        <ele>5.1999998092651</ele>
        <time>2020-08-29T15:52:57.000Z</time>
      </trkpt>
      <trkpt lat="47.11137" lon="-1.60047">
        <ele>5.1999998092651</ele>
        <time>2020-08-29T15:53:00.000Z</time>
      </trkpt>
      <trkpt lat="47.1114" lon="-1.60048">
        <ele>5.1999998092651</ele>
        <time>2020-08-29T15:53:02.000Z</time>
      </trkpt>
      <trkpt lat="47.11146" lon="-1.6005">
        <ele>5.1999998092651</ele>
        <time>2020-08-29T15:53:05.000Z</time>
      </trkpt>
      <trkpt lat="47.11153" lon="-1.6005">
        <ele>5.1999998092651</ele>
        <time>2020-08-29T15:53:09.000Z</time>
      </trkpt>
      <trkpt lat="47.11153" lon="-1.6005">
        <ele>5.1999998092651</ele>
        <time>2020-08-29T15:53:10.000Z</time>
      </trkpt>
      <trkpt lat="47.11154" lon="-1.60049">
        <ele>5.1999998092651</ele>
        <time>2020-08-29T15:53:16.000Z</time>
      </trkpt>
      <trkpt lat="47.11154" lon="-1.60049">
        <ele>5.1999998092651</ele>
        <time>2020-08-29T15:53:19.000Z</time>
      </trkpt>
      <trkpt lat="47.11176" lon="-1.59881">
        <ele>5.4000000953674</ele>
        <time>2020-08-29T15:57:03.000Z</time>
      </trkpt>
      <trkpt lat="47.11176" lon="-1.59873">
        <ele>5.4000000953674</ele>
        <time>2020-08-29T15:57:04.000Z</time>
      </trkpt>
      <trkpt lat="47.11177" lon="-1.59835">
        <ele>5.8000001907349</ele>
        <time>2020-08-29T15:57:09.000Z</time>
      </trkpt>
      <trkpt lat="47.11184" lon="-1.59785">
        <ele>5.8000001907349</ele>
        <time>2020-08-29T15:57:14.000Z</time>
      </trkpt>
      <trkpt lat="47.11186" lon="-1.59756">
        <ele>5.4000000953674</ele>
        <time>2020-08-29T15:57:17.000Z</time>
      </trkpt>
      <trkpt lat="47.11187" lon="-1.59737">
        <ele>5</ele>
        <time>2020-08-29T15:57:19.000Z</time>
      </trkpt>
      <trkpt lat="47.11186" lon="-1.59688">
        <ele>5</ele>
        <time>2020-08-29T15:57:24.000Z</time>
      </trkpt>
      <trkpt lat="47.11185" lon="-1.59666">
        <ele>5.4000000953674</ele>
        <time>2020-08-29T15:57:26.000Z</time>
      </trkpt>
      <trkpt lat="47.11185" lon="-1.59637">
        <ele>5.5999999046326</ele>
        <time>2020-08-29T15:57:29.000Z</time>
      </trkpt>
      <trkpt lat="47.11186" lon="-1.59618">
        <ele>5.4000000953674</ele>
        <time>2020-08-29T15:57:31.000Z</time>
      </trkpt>
      <trkpt lat="47.11186" lon="-1.59599">
        <ele>5.1999998092651</ele>
        <time>2020-08-29T15:57:33.000Z</time>
      </trkpt>
      <trkpt lat="47.11182" lon="-1.59564">
        <ele>5</ele>
        <time>2020-08-29T15:57:37.000Z</time>
      </trkpt>
      <trkpt lat="47.11182" lon="-1.59555">
        <ele>5</ele>
        <time>2020-08-29T15:57:38.000Z</time>
      </trkpt>
      <trkpt lat="47.11185" lon="-1.59522">
        <ele>4.8000001907349</ele>
        <time>2020-08-29T15:57:42.000Z</time>
      </trkpt>
      <trkpt lat="47.11186" lon="-1.59498">
        <ele>4.8000001907349</ele>
        <time>2020-08-29T15:57:45.000Z</time>
      </trkpt>
      <trkpt lat="47.11189" lon="-1.59476">
        <ele>4.8000001907349</ele>
        <time>2020-08-29T15:57:48.000Z</time>
      </trkpt>
      <trkpt lat="47.11193" lon="-1.59466">
        <ele>4.8000001907349</ele>
        <time>2020-08-29T15:57:50.000Z</time>
      </trkpt>
      <trkpt lat="47.1121" lon="-1.59465">
        <ele>4</ele>
        <time>2020-08-29T15:57:54.000Z</time>
      </trkpt>
      <trkpt lat="47.11243" lon="-1.59477">
        <ele>2.2000000476837</ele>
        <time>2020-08-29T15:58:00.000Z</time>
      </trkpt>
      <trkpt lat="47.11254" lon="-1.59481">
        <ele>2.2000000476837</ele>
        <time>2020-08-29T15:58:02.000Z</time>
      </trkpt>
      <trkpt lat="47.11265" lon="-1.59481">
        <ele>2.4000000953674</ele>
        <time>2020-08-29T15:58:04.000Z</time>
      </trkpt>
      <trkpt lat="47.11276" lon="-1.59479">
        <ele>2.5999999046326</ele>
        <time>2020-08-29T15:58:06.000Z</time>
      </trkpt>
      <trkpt lat="47.11295" lon="-1.59472">
        <ele>3</ele>
        <time>2020-08-29T15:58:10.000Z</time>
      </trkpt>
      <trkpt lat="47.113" lon="-1.59463">
        <ele>3.4000000953674</ele>
        <time>2020-08-29T15:58:12.000Z</time>
      </trkpt>
      <trkpt lat="47.113" lon="-1.59456">
        <ele>3.7999999523163</ele>
        <time>2020-08-29T15:58:13.000Z</time>
      </trkpt>
      <trkpt lat="47.11298" lon="-1.59427">
        <ele>4.8000001907349</ele>
        <time>2020-08-29T15:58:18.000Z</time>
      </trkpt>
      <trkpt lat="47.11298" lon="-1.59415">
        <ele>5</ele>
        <time>2020-08-29T15:58:20.000Z</time>
      </trkpt>
      <trkpt lat="47.11296" lon="-1.59398">
        <ele>5.1999998092651</ele>
        <time>2020-08-29T15:58:23.000Z</time>
      </trkpt>
      <trkpt lat="47.11296" lon="-1.59392">
        <ele>5</ele>
        <time>2020-08-29T15:58:24.000Z</time>
      </trkpt>
      <trkpt lat="47.11295" lon="-1.59387">
        <ele>4.8000001907349</ele>
        <time>2020-08-29T15:58:25.000Z</time>
      </trkpt>
      <trkpt lat="47.11295" lon="-1.59381">
        <ele>4.8000001907349</ele>
        <time>2020-08-29T15:58:26.000Z</time>
      </trkpt>
      <trkpt lat="47.11295" lon="-1.59356">
        <ele>4.1999998092651</ele>
        <time>2020-08-29T15:58:30.000Z</time>
      </trkpt>
      <trkpt lat="47.11295" lon="-1.59337">
        <ele>4.4000000953674</ele>
        <time>2020-08-29T15:58:33.000Z</time>
      </trkpt>
      <trkpt lat="47.11293" lon="-1.59316">
        <ele>4.8000001907349</ele>
        <time>2020-08-29T15:58:36.000Z</time>
      </trkpt>
      <trkpt lat="47.11291" lon="-1.59301">
        <ele>4.8000001907349</ele>
        <time>2020-08-29T15:58:38.000Z</time>
      </trkpt>
      <trkpt lat="47.11288" lon="-1.59259">
        <ele>4.8000001907349</ele>
        <time>2020-08-29T15:58:44.000Z</time>
      </trkpt>
      <trkpt lat="47.11288" lon="-1.59235">
        <ele>4.4000000953674</ele>
        <time>2020-08-29T15:58:49.000Z</time>
      </trkpt>
      <trkpt lat="47.11286" lon="-1.59208">
        <ele>4.4000000953674</ele>
        <time>2020-08-29T15:58:54.000Z</time>
      </trkpt>
      <trkpt lat="47.11285" lon="-1.59192">
        <ele>4.5999999046326</ele>
        <time>2020-08-29T15:58:57.000Z</time>
      </trkpt>
      <trkpt lat="47.11283" lon="-1.59176">
        <ele>4.5999999046326</ele>
        <time>2020-08-29T15:59:00.000Z</time>
      </trkpt>
      <trkpt lat="47.11275" lon="-1.59137">
        <ele>4.1999998092651</ele>
        <time>2020-08-29T15:59:07.000Z</time>
      </trkpt>
      <trkpt lat="47.11272" lon="-1.59132">
        <ele>4.1999998092651</ele>
        <time>2020-08-29T15:59:08.000Z</time>
      </trkpt>
      <trkpt lat="47.11261" lon="-1.59114">
        <ele>3.7999999523163</ele>
        <time>2020-08-29T15:59:12.000Z</time>
      </trkpt>
      <trkpt lat="47.1124" lon="-1.59086">
        <ele>3.5999999046326</ele>
        <time>2020-08-29T15:59:19.000Z</time>
      </trkpt>
      <trkpt lat="47.11226" lon="-1.59065">
        <ele>4.1999998092651</ele>
        <time>2020-08-29T15:59:24.000Z</time>
      </trkpt>
      <trkpt lat="47.11221" lon="-1.59057">
        <ele>4.5999999046326</ele>
        <time>2020-08-29T15:59:26.000Z</time>
      </trkpt>
      <trkpt lat="47.11202" lon="-1.59031">
        <ele>6.4000000953674</ele>
        <time>2020-08-29T15:59:33.000Z</time>
      </trkpt>
      <trkpt lat="47.11192" lon="-1.59018">
        <ele>7.4000000953674</ele>
        <time>2020-08-29T15:59:37.000Z</time>
      </trkpt>
      <trkpt lat="47.11183" lon="-1.59009">
        <ele>8</ele>
        <time>2020-08-29T15:59:40.000Z</time>
      </trkpt>
      <trkpt lat="47.1118" lon="-1.59006">
        <ele>8.1999998092651</ele>
        <time>2020-08-29T15:59:41.000Z</time>
      </trkpt>
      <trkpt lat="47.11175" lon="-1.59">
        <ele>8.8000001907349</ele>
        <time>2020-08-29T15:59:43.000Z</time>
      </trkpt>
      <trkpt lat="47.11165" lon="-1.58988">
        <ele>9.6000003814697</ele>
        <time>2020-08-29T15:59:47.000Z</time>
      </trkpt>
      <trkpt lat="47.11163" lon="-1.58985">
        <ele>9.8000001907349</ele>
        <time>2020-08-29T15:59:48.000Z</time>
      </trkpt>
      <trkpt lat="47.1116" lon="-1.58982">
        <ele>10</ele>
        <time>2020-08-29T15:59:49.000Z</time>
      </trkpt>
      <trkpt lat="47.11145" lon="-1.58963">
        <ele>9.6000003814697</ele>
        <time>2020-08-29T15:59:55.000Z</time>
      </trkpt>
      <trkpt lat="47.11134" lon="-1.58947">
        <ele>9.3999996185303</ele>
        <time>2020-08-29T15:59:59.000Z</time>
      </trkpt>
      <trkpt lat="47.11129" lon="-1.58938">
        <ele>9.1999998092651</ele>
        <time>2020-08-29T16:00:01.000Z</time>
      </trkpt>
      <trkpt lat="47.11117" lon="-1.58921">
        <ele>9</ele>
        <time>2020-08-29T16:00:05.000Z</time>
      </trkpt>
      <trkpt lat="47.11109" lon="-1.58909">
        <ele>8.8000001907349</ele>
        <time>2020-08-29T16:00:08.000Z</time>
      </trkpt>
      <trkpt lat="47.11097" lon="-1.58893">
        <ele>8.6000003814697</ele>
        <time>2020-08-29T16:00:12.000Z</time>
      </trkpt>
      <trkpt lat="47.11089" lon="-1.58882">
        <ele>8.6000003814697</ele>
        <time>2020-08-29T16:00:15.000Z</time>
      </trkpt>
      <trkpt lat="47.11085" lon="-1.58878">
        <ele>8.8000001907349</ele>
        <time>2020-08-29T16:00:16.000Z</time>
      </trkpt>
      <trkpt lat="47.11078" lon="-1.58868">
        <ele>9.3999996185303</ele>
        <time>2020-08-29T16:00:19.000Z</time>
      </trkpt>
      <trkpt lat="47.11075" lon="-1.58862">
        <ele>9.6000003814697</ele>
        <time>2020-08-29T16:00:21.000Z</time>
      </trkpt>
      <trkpt lat="47.11074" lon="-1.58859">
        <ele>9.6000003814697</ele>
        <time>2020-08-29T16:00:22.000Z</time>
      </trkpt>
      <trkpt lat="47.11078" lon="-1.58849">
        <ele>9.6000003814697</ele>
        <time>2020-08-29T16:00:25.000Z</time>
      </trkpt>
      <trkpt lat="47.11091" lon="-1.58827">
        <ele>9.1999998092651</ele>
        <time>2020-08-29T16:00:30.000Z</time>
      </trkpt>
      <trkpt lat="47.11111" lon="-1.58798">
        <ele>8.3999996185303</ele>
        <time>2020-08-29T16:00:36.000Z</time>
      </trkpt>
      <trkpt lat="47.11115" lon="-1.58792">
        <ele>8.1999998092651</ele>
        <time>2020-08-29T16:00:37.000Z</time>
      </trkpt>
      <trkpt lat="47.11142" lon="-1.58749">
        <ele>7</ele>
        <time>2020-08-29T16:00:44.000Z</time>
      </trkpt>
      <trkpt lat="47.11182" lon="-1.58697">
        <ele>5.5999999046326</ele>
        <time>2020-08-29T16:00:52.000Z</time>
      </trkpt>
      <trkpt lat="47.11186" lon="-1.58691">
        <ele>5.5999999046326</ele>
        <time>2020-08-29T16:00:53.000Z</time>
      </trkpt>
      <trkpt lat="47.11195" lon="-1.58687">
        <ele>5.4000000953674</ele>
        <time>2020-08-29T16:00:55.000Z</time>
      </trkpt>
      <trkpt lat="47.11212" lon="-1.58697">
        <ele>4.8000001907349</ele>
        <time>2020-08-29T16:00:59.000Z</time>
      </trkpt>
      <trkpt lat="47.1122" lon="-1.58704">
        <ele>4.5999999046326</ele>
        <time>2020-08-29T16:01:01.000Z</time>
      </trkpt>
      <trkpt lat="47.11247" lon="-1.5873">
        <ele>4</ele>
        <time>2020-08-29T16:01:07.000Z</time>
      </trkpt>
      <trkpt lat="47.11282" lon="-1.58773">
        <ele>5</ele>
        <time>2020-08-29T16:01:15.000Z</time>
      </trkpt>
      <trkpt lat="47.11301" lon="-1.58795">
        <ele>5</ele>
        <time>2020-08-29T16:01:19.000Z</time>
      </trkpt>
      <trkpt lat="47.1131" lon="-1.58807">
        <ele>5</ele>
        <time>2020-08-29T16:01:21.000Z</time>
      </trkpt>
      <trkpt lat="47.11333" lon="-1.58839">
        <ele>4.4000000953674</ele>
        <time>2020-08-29T16:01:27.000Z</time>
      </trkpt>
      <trkpt lat="47.11345" lon="-1.58853">
        <ele>3.7999999523163</ele>
        <time>2020-08-29T16:01:30.000Z</time>
      </trkpt>
      <trkpt lat="47.11364" lon="-1.58873">
        <ele>3</ele>
        <time>2020-08-29T16:01:34.000Z</time>
      </trkpt>
      <trkpt lat="47.11373" lon="-1.58882">
        <ele>2.5999999046326</ele>
        <time>2020-08-29T16:01:36.000Z</time>
      </trkpt>
      <trkpt lat="47.11389" lon="-1.58895">
        <ele>2.4000000953674</ele>
        <time>2020-08-29T16:01:39.000Z</time>
      </trkpt>
      <trkpt lat="47.11399" lon="-1.58902">
        <ele>2.2000000476837</ele>
        <time>2020-08-29T16:01:41.000Z</time>
      </trkpt>
      <trkpt lat="47.11405" lon="-1.58906">
        <ele>2</ele>
        <time>2020-08-29T16:01:42.000Z</time>
      </trkpt>
      <trkpt lat="47.11436" lon="-1.58927">
        <ele>2.5999999046326</ele>
        <time>2020-08-29T16:01:48.000Z</time>
      </trkpt>
      <trkpt lat="47.11441" lon="-1.5893">
        <ele>2.7999999523163</ele>
        <time>2020-08-29T16:01:49.000Z</time>
      </trkpt>
      <trkpt lat="47.11471" lon="-1.58949">
        <ele>3.4000000953674</ele>
        <time>2020-08-29T16:01:56.000Z</time>
      </trkpt>
      <trkpt lat="47.11475" lon="-1.58954">
        <ele>3.4000000953674</ele>
        <time>2020-08-29T16:02:00.000Z</time>
      </trkpt>
      <trkpt lat="47.11476" lon="-1.58955">
        <ele>3.4000000953674</ele>
        <time>2020-08-29T16:02:01.000Z</time>
      </trkpt>
      <trkpt lat="47.11477" lon="-1.58957">
        <ele>3.4000000953674</ele>
        <time>2020-08-29T16:02:08.000Z</time>
      </trkpt>
      <trkpt lat="47.11477" lon="-1.58957">
        <ele>3.4000000953674</ele>
        <time>2020-08-29T16:02:10.000Z</time>
      </trkpt>
      <trkpt lat="47.11478" lon="-1.58958">
        <ele>3.4000000953674</ele>
        <time>2020-08-29T16:02:13.000Z</time>
      </trkpt>
      <trkpt lat="47.11479" lon="-1.5896">
        <ele>3.5999999046326</ele>
        <time>2020-08-29T16:02:15.000Z</time>
      </trkpt>
      <trkpt lat="47.11479" lon="-1.58963">
        <ele>3.5999999046326</ele>
        <time>2020-08-29T16:02:18.000Z</time>
      </trkpt>
      <trkpt lat="47.11481" lon="-1.58965">
        <ele>3.5999999046326</ele>
        <time>2020-08-29T16:02:21.000Z</time>
      </trkpt>
      <trkpt lat="47.11481" lon="-1.58964">
        <ele>3.5999999046326</ele>
        <time>2020-08-29T16:02:22.000Z</time>
      </trkpt>
      <trkpt lat="47.11484" lon="-1.5896">
        <ele>3.5999999046326</ele>
        <time>2020-08-29T16:02:25.000Z</time>
      </trkpt>
      <trkpt lat="47.11489" lon="-1.58959">
        <ele>3.5999999046326</ele>
        <time>2020-08-29T16:02:29.000Z</time>
      </trkpt>
      <trkpt lat="47.11501" lon="-1.58972">
        <ele>3.7999999523163</ele>
        <time>2020-08-29T16:02:35.000Z</time>
      </trkpt>
      <trkpt lat="47.11507" lon="-1.58979">
        <ele>3.7999999523163</ele>
        <time>2020-08-29T16:02:37.000Z</time>
      </trkpt>
      <trkpt lat="47.11515" lon="-1.58992">
        <ele>3.7999999523163</ele>
        <time>2020-08-29T16:02:40.000Z</time>
      </trkpt>
      <trkpt lat="47.11517" lon="-1.58996">
        <ele>3.7999999523163</ele>
        <time>2020-08-29T16:02:41.000Z</time>
      </trkpt>
      <trkpt lat="47.11527" lon="-1.59016">
        <ele>3.5999999046326</ele>
        <time>2020-08-29T16:02:46.000Z</time>
      </trkpt>
      <trkpt lat="47.11541" lon="-1.59038">
        <ele>3.7999999523163</ele>
        <time>2020-08-29T16:02:53.000Z</time>
      </trkpt>
      <trkpt lat="47.11551" lon="-1.5905">
        <ele>4.1999998092651</ele>
        <time>2020-08-29T16:02:57.000Z</time>
      </trkpt>
      <trkpt lat="47.11558" lon="-1.59056">
        <ele>4.4000000953674</ele>
        <time>2020-08-29T16:02:59.000Z</time>
      </trkpt>
      <trkpt lat="47.11571" lon="-1.59068">
        <ele>5</ele>
        <time>2020-08-29T16:03:05.000Z</time>
      </trkpt>
      <trkpt lat="47.11587" lon="-1.59086">
        <ele>4.8000001907349</ele>
        <time>2020-08-29T16:03:12.000Z</time>
      </trkpt>
      <trkpt lat="47.11605" lon="-1.591">
        <ele>4.8000001907349</ele>
        <time>2020-08-29T16:03:18.000Z</time>
      </trkpt>
      <trkpt lat="47.11621" lon="-1.59112">
        <ele>5</ele>
        <time>2020-08-29T16:03:24.000Z</time>
      </trkpt>
      <trkpt lat="47.11626" lon="-1.59115">
        <ele>4.8000001907349</ele>
        <time>2020-08-29T16:03:25.000Z</time>
      </trkpt>
      <trkpt lat="47.11634" lon="-1.5911">
        <ele>5.1999998092651</ele>
        <time>2020-08-29T16:03:28.000Z</time>
      </trkpt>
      <trkpt lat="47.11645" lon="-1.59093">
        <ele>6</ele>
        <time>2020-08-29T16:03:34.000Z</time>
      </trkpt>
      <trkpt lat="47.11653" lon="-1.59083">
        <ele>6.4000000953674</ele>
        <time>2020-08-29T16:03:37.000Z</time>
      </trkpt>
      <trkpt lat="47.11656" lon="-1.59076">
        <ele>6.5999999046326</ele>
        <time>2020-08-29T16:03:39.000Z</time>
      </trkpt>
      <trkpt lat="47.11662" lon="-1.59067">
        <ele>7</ele>
        <time>2020-08-29T16:03:42.000Z</time>
      </trkpt>
      <trkpt lat="47.11668" lon="-1.59057">
        <ele>7.1999998092651</ele>
        <time>2020-08-29T16:03:45.000Z</time>
      </trkpt>
      <trkpt lat="47.11676" lon="-1.59045">
        <ele>7.4000000953674</ele>
        <time>2020-08-29T16:03:48.000Z</time>
      </trkpt>
      <trkpt lat="47.1168" lon="-1.59038">
        <ele>7.4000000953674</ele>
        <time>2020-08-29T16:03:50.000Z</time>
      </trkpt>
      <trkpt lat="47.11692" lon="-1.59014">
        <ele>7.8000001907349</ele>
        <time>2020-08-29T16:03:57.000Z</time>
      </trkpt>
      <trkpt lat="47.11698" lon="-1.59002">
        <ele>7.8000001907349</ele>
        <time>2020-08-29T16:04:01.000Z</time>
      </trkpt>
      <trkpt lat="47.11699" lon="-1.58999">
        <ele>8</ele>
        <time>2020-08-29T16:04:02.000Z</time>
      </trkpt>
      <trkpt lat="47.1171" lon="-1.58979">
        <ele>8</ele>
        <time>2020-08-29T16:04:09.000Z</time>
      </trkpt>
      <trkpt lat="47.11722" lon="-1.58964">
        <ele>7.8000001907349</ele>
        <time>2020-08-29T16:04:15.000Z</time>
      </trkpt>
      <trkpt lat="47.11731" lon="-1.58966">
        <ele>8</ele>
        <time>2020-08-29T16:04:20.000Z</time>
      </trkpt>
      <trkpt lat="47.11746" lon="-1.5898">
        <ele>8.8000001907349</ele>
        <time>2020-08-29T16:04:27.000Z</time>
      </trkpt>
      <trkpt lat="47.11757" lon="-1.58993">
        <ele>8.3999996185303</ele>
        <time>2020-08-29T16:04:31.000Z</time>
      </trkpt>
      <trkpt lat="47.11769" lon="-1.59009">
        <ele>7.4000000953674</ele>
        <time>2020-08-29T16:04:35.000Z</time>
      </trkpt>
      <trkpt lat="47.11782" lon="-1.59024">
        <ele>6.5999999046326</ele>
        <time>2020-08-29T16:04:40.000Z</time>
      </trkpt>
      <trkpt lat="47.11788" lon="-1.59033">
        <ele>6.4000000953674</ele>
        <time>2020-08-29T16:04:42.000Z</time>
      </trkpt>
      <trkpt lat="47.11805" lon="-1.59048">
        <ele>6.1999998092651</ele>
        <time>2020-08-29T16:04:46.000Z</time>
      </trkpt>
      <trkpt lat="47.11813" lon="-1.59057">
        <ele>6.1999998092651</ele>
        <time>2020-08-29T16:04:48.000Z</time>
      </trkpt>
      <trkpt lat="47.11826" lon="-1.59061">
        <ele>6</ele>
        <time>2020-08-29T16:04:50.000Z</time>
      </trkpt>
      <trkpt lat="47.11842" lon="-1.5908">
        <ele>5.8000001907349</ele>
        <time>2020-08-29T16:04:54.000Z</time>
      </trkpt>
      <trkpt lat="47.11849" lon="-1.5909">
        <ele>5.8000001907349</ele>
        <time>2020-08-29T16:04:58.000Z</time>
      </trkpt>
      <trkpt lat="47.11853" lon="-1.59093">
        <ele>5.5999999046326</ele>
        <time>2020-08-29T16:05:04.000Z</time>
      </trkpt>
      <trkpt lat="47.11853" lon="-1.59099">
        <ele>5.5999999046326</ele>
        <time>2020-08-29T16:05:07.000Z</time>
      </trkpt>
      <trkpt lat="47.11849" lon="-1.59109">
        <ele>5.8000001907349</ele>
        <time>2020-08-29T16:05:09.000Z</time>
      </trkpt>
      <trkpt lat="47.11836" lon="-1.59134">
        <ele>5.8000001907349</ele>
        <time>2020-08-29T16:05:14.000Z</time>
      </trkpt>
      <trkpt lat="47.11833" lon="-1.59138">
        <ele>6</ele>
        <time>2020-08-29T16:05:15.000Z</time>
      </trkpt>
      <trkpt lat="47.11827" lon="-1.59148">
        <ele>6</ele>
        <time>2020-08-29T16:05:17.000Z</time>
      </trkpt>
      <trkpt lat="47.11821" lon="-1.59163">
        <ele>6</ele>
        <time>2020-08-29T16:05:20.000Z</time>
      </trkpt>
      <trkpt lat="47.11825" lon="-1.59181">
        <ele>6</ele>
        <time>2020-08-29T16:05:23.000Z</time>
      </trkpt>
      <trkpt lat="47.11827" lon="-1.59187">
        <ele>6</ele>
        <time>2020-08-29T16:05:24.000Z</time>
      </trkpt>
      <trkpt lat="47.11831" lon="-1.59193">
        <ele>6</ele>
        <time>2020-08-29T16:05:25.000Z</time>
      </trkpt>
      <trkpt lat="47.11845" lon="-1.59212">
        <ele>6</ele>
        <time>2020-08-29T16:05:28.000Z</time>
      </trkpt>
      <trkpt lat="47.11867" lon="-1.59241">
        <ele>6</ele>
        <time>2020-08-29T16:05:33.000Z</time>
      </trkpt>
      <trkpt lat="47.11877" lon="-1.59258">
        <ele>6.1999998092651</ele>
        <time>2020-08-29T16:05:36.000Z</time>
      </trkpt>
      <trkpt lat="47.11882" lon="-1.59263">
        <ele>6.4000000953674</ele>
        <time>2020-08-29T16:05:37.000Z</time>
      </trkpt>
      <trkpt lat="47.11886" lon="-1.59267">
        <ele>6.1999998092651</ele>
        <time>2020-08-29T16:05:38.000Z</time>
      </trkpt>
      <trkpt lat="47.11891" lon="-1.59272">
        <ele>6.1999998092651</ele>
        <time>2020-08-29T16:05:39.000Z</time>
      </trkpt>
      <trkpt lat="47.11916" lon="-1.59304">
        <ele>5.8000001907349</ele>
        <time>2020-08-29T16:05:45.000Z</time>
      </trkpt>
      <trkpt lat="47.11946" lon="-1.59347">
        <ele>4</ele>
        <time>2020-08-29T16:05:53.000Z</time>
      </trkpt>
      <trkpt lat="47.11957" lon="-1.59364">
        <ele>3.4000000953674</ele>
        <time>2020-08-29T16:05:56.000Z</time>
      </trkpt>
      <trkpt lat="47.11967" lon="-1.59381">
        <ele>3.4000000953674</ele>
        <time>2020-08-29T16:05:59.000Z</time>
      </trkpt>
      <trkpt lat="47.11975" lon="-1.59392">
        <ele>3.2000000476837</ele>
        <time>2020-08-29T16:06:03.000Z</time>
      </trkpt>
      <trkpt lat="47.1198" lon="-1.59395">
        <ele>3.2000000476837</ele>
        <time>2020-08-29T16:06:07.000Z</time>
      </trkpt>
      <trkpt lat="47.1198" lon="-1.59395">
        <ele>3.2000000476837</ele>
        <time>2020-08-29T16:06:08.000Z</time>
      </trkpt>
      <trkpt lat="47.11985" lon="-1.5939">
        <ele>3.2000000476837</ele>
        <time>2020-08-29T16:06:11.000Z</time>
      </trkpt>
      <trkpt lat="47.1199" lon="-1.59386">
        <ele>3</ele>
        <time>2020-08-29T16:06:13.000Z</time>
      </trkpt>
      <trkpt lat="47.11994" lon="-1.59381">
        <ele>3</ele>
        <time>2020-08-29T16:06:15.000Z</time>
      </trkpt>
      <trkpt lat="47.12004" lon="-1.59366">
        <ele>2.7999999523163</ele>
        <time>2020-08-29T16:06:19.000Z</time>
      </trkpt>
      <trkpt lat="47.12007" lon="-1.59362">
        <ele>2.5999999046326</ele>
        <time>2020-08-29T16:06:20.000Z</time>
      </trkpt>
      <trkpt lat="47.12017" lon="-1.59349">
        <ele>2.4000000953674</ele>
        <time>2020-08-29T16:06:24.000Z</time>
      </trkpt>
      <trkpt lat="47.1202" lon="-1.5935">
        <ele>2.4000000953674</ele>
        <time>2020-08-29T16:06:25.000Z</time>
      </trkpt>
      <trkpt lat="47.12028" lon="-1.59355">
        <ele>2.2000000476837</ele>
        <time>2020-08-29T16:06:27.000Z</time>
      </trkpt>
      <trkpt lat="47.12049" lon="-1.59378">
        <ele>2</ele>
        <time>2020-08-29T16:06:33.000Z</time>
      </trkpt>
      <trkpt lat="47.1206" lon="-1.59391">
        <ele>2</ele>
        <time>2020-08-29T16:06:36.000Z</time>
      </trkpt>
      <trkpt lat="47.12073" lon="-1.59411">
        <ele>2</ele>
        <time>2020-08-29T16:06:40.000Z</time>
      </trkpt>
      <trkpt lat="47.1208" lon="-1.59415">
        <ele>2</ele>
        <time>2020-08-29T16:06:42.000Z</time>
      </trkpt>
      <trkpt lat="47.12083" lon="-1.59415">
        <ele>2</ele>
        <time>2020-08-29T16:06:43.000Z</time>
      </trkpt>
      <trkpt lat="47.12087" lon="-1.59418">
        <ele>2.2000000476837</ele>
        <time>2020-08-29T16:06:46.000Z</time>
      </trkpt>
      <trkpt lat="47.12087" lon="-1.59418">
        <ele>2.2000000476837</ele>
        <time>2020-08-29T16:06:47.000Z</time>
      </trkpt>
      <trkpt lat="47.1215" lon="-1.59409">
        <ele>2.7999999523163</ele>
        <time>2020-08-29T16:16:53.000Z</time>
      </trkpt>
      <trkpt lat="47.12152" lon="-1.59409">
        <ele>2.7999999523163</ele>
        <time>2020-08-29T16:16:54.000Z</time>
      </trkpt>
      <trkpt lat="47.12155" lon="-1.59408">
        <ele>3</ele>
        <time>2020-08-29T16:16:56.000Z</time>
      </trkpt>
      <trkpt lat="47.12168" lon="-1.59402">
        <ele>3</ele>
        <time>2020-08-29T16:17:01.000Z</time>
      </trkpt>
      <trkpt lat="47.12188" lon="-1.59406">
        <ele>3</ele>
        <time>2020-08-29T16:17:07.000Z</time>
      </trkpt>
      <trkpt lat="47.12196" lon="-1.59409">
        <ele>3</ele>
        <time>2020-08-29T16:17:10.000Z</time>
      </trkpt>
      <trkpt lat="47.12199" lon="-1.59413">
        <ele>3</ele>
        <time>2020-08-29T16:17:12.000Z</time>
      </trkpt>
      <trkpt lat="47.12199" lon="-1.59429">
        <ele>3</ele>
        <time>2020-08-29T16:17:17.000Z</time>
      </trkpt>
      <trkpt lat="47.12199" lon="-1.59439">
        <ele>3</ele>
        <time>2020-08-29T16:17:19.000Z</time>
      </trkpt>
      <trkpt lat="47.12197" lon="-1.59456">
        <ele>3</ele>
        <time>2020-08-29T16:17:22.000Z</time>
      </trkpt>
      <trkpt lat="47.12196" lon="-1.59462">
        <ele>3.2000000476837</ele>
        <time>2020-08-29T16:17:23.000Z</time>
      </trkpt>
      <trkpt lat="47.12193" lon="-1.59481">
        <ele>3.4000000953674</ele>
        <time>2020-08-29T16:17:26.000Z</time>
      </trkpt>
      <trkpt lat="47.12188" lon="-1.59509">
        <ele>3.4000000953674</ele>
        <time>2020-08-29T16:17:30.000Z</time>
      </trkpt>
      <trkpt lat="47.12187" lon="-1.59515">
        <ele>3.4000000953674</ele>
        <time>2020-08-29T16:17:31.000Z</time>
      </trkpt>
      <trkpt lat="47.12182" lon="-1.59543">
        <ele>3.2000000476837</ele>
        <time>2020-08-29T16:17:36.000Z</time>
      </trkpt>
      <trkpt lat="47.12183" lon="-1.59548">
        <ele>3.2000000476837</ele>
        <time>2020-08-29T16:17:38.000Z</time>
      </trkpt>
      <trkpt lat="47.12184" lon="-1.59554">
        <ele>3.2000000476837</ele>
        <time>2020-08-29T16:17:40.000Z</time>
      </trkpt>
      <trkpt lat="47.12185" lon="-1.59556">
        <ele>3.2000000476837</ele>
        <time>2020-08-29T16:17:41.000Z</time>
      </trkpt>
      <trkpt lat="47.12186" lon="-1.59573">
        <ele>3.4000000953674</ele>
        <time>2020-08-29T16:17:47.000Z</time>
      </trkpt>
      <trkpt lat="47.12185" lon="-1.59577">
        <ele>3.2000000476837</ele>
        <time>2020-08-29T16:17:48.000Z</time>
      </trkpt>
      <trkpt lat="47.12185" lon="-1.59588">
        <ele>3.2000000476837</ele>
        <time>2020-08-29T16:17:52.000Z</time>
      </trkpt>
      <trkpt lat="47.12184" lon="-1.59598">
        <ele>3.2000000476837</ele>
        <time>2020-08-29T16:17:55.000Z</time>
      </trkpt>
      <trkpt lat="47.12183" lon="-1.59605">
        <ele>3.2000000476837</ele>
        <time>2020-08-29T16:17:57.000Z</time>
      </trkpt>
      <trkpt lat="47.12183" lon="-1.59611">
        <ele>3.2000000476837</ele>
        <time>2020-08-29T16:17:59.000Z</time>
      </trkpt>
      <trkpt lat="47.12182" lon="-1.59623">
        <ele>3.2000000476837</ele>
        <time>2020-08-29T16:18:03.000Z</time>
      </trkpt>
      <trkpt lat="47.12181" lon="-1.59625">
        <ele>3.2000000476837</ele>
        <time>2020-08-29T16:18:04.000Z</time>
      </trkpt>
      <trkpt lat="47.12179" lon="-1.59635">
        <ele>3.2000000476837</ele>
        <time>2020-08-29T16:18:09.000Z</time>
      </trkpt>
      <trkpt lat="47.12179" lon="-1.59636">
        <ele>3.2000000476837</ele>
        <time>2020-08-29T16:18:10.000Z</time>
      </trkpt>
      <trkpt lat="47.12178" lon="-1.59638">
        <ele>3.2000000476837</ele>
        <time>2020-08-29T16:18:11.000Z</time>
      </trkpt>
      <trkpt lat="47.12178" lon="-1.59639">
        <ele>3.2000000476837</ele>
        <time>2020-08-29T16:18:12.000Z</time>
      </trkpt>
      <trkpt lat="47.12176" lon="-1.59645">
        <ele>3.2000000476837</ele>
        <time>2020-08-29T16:18:16.000Z</time>
      </trkpt>
      <trkpt lat="47.12175" lon="-1.5965">
        <ele>3.2000000476837</ele>
        <time>2020-08-29T16:18:18.000Z</time>
      </trkpt>
      <trkpt lat="47.12174" lon="-1.59654">
        <ele>3.2000000476837</ele>
        <time>2020-08-29T16:18:19.000Z</time>
      </trkpt>
      <trkpt lat="47.12172" lon="-1.59658">
        <ele>3.2000000476837</ele>
        <time>2020-08-29T16:18:20.000Z</time>
      </trkpt>
      <trkpt lat="47.1217" lon="-1.59668">
        <ele>3.4000000953674</ele>
        <time>2020-08-29T16:18:23.000Z</time>
      </trkpt>
      <trkpt lat="47.12168" lon="-1.59676">
        <ele>3.4000000953674</ele>
        <time>2020-08-29T16:18:26.000Z</time>
      </trkpt>
      <trkpt lat="47.12168" lon="-1.59698">
        <ele>3.5999999046326</ele>
        <time>2020-08-29T16:18:31.000Z</time>
      </trkpt>
      <trkpt lat="47.12163" lon="-1.59726">
        <ele>4</ele>
        <time>2020-08-29T16:18:36.000Z</time>
      </trkpt>
      <trkpt lat="47.12161" lon="-1.59731">
        <ele>4</ele>
        <time>2020-08-29T16:18:37.000Z</time>
      </trkpt>
      <trkpt lat="47.1216" lon="-1.59736">
        <ele>4</ele>
        <time>2020-08-29T16:18:38.000Z</time>
      </trkpt>
      <trkpt lat="47.12153" lon="-1.59754">
        <ele>4.1999998092651</ele>
        <time>2020-08-29T16:18:41.000Z</time>
      </trkpt>
      <trkpt lat="47.1215" lon="-1.59761">
        <ele>4.4000000953674</ele>
        <time>2020-08-29T16:18:42.000Z</time>
      </trkpt>
      <trkpt lat="47.12147" lon="-1.59767">
        <ele>4.4000000953674</ele>
        <time>2020-08-29T16:18:43.000Z</time>
      </trkpt>
      <trkpt lat="47.12142" lon="-1.59782">
        <ele>4.5999999046326</ele>
        <time>2020-08-29T16:18:45.000Z</time>
      </trkpt>
      <trkpt lat="47.12142" lon="-1.59789">
        <ele>4.5999999046326</ele>
        <time>2020-08-29T16:18:46.000Z</time>
      </trkpt>
      <trkpt lat="47.12143" lon="-1.59798">
        <ele>4.8000001907349</ele>
        <time>2020-08-29T16:18:48.000Z</time>
      </trkpt>
      <trkpt lat="47.12145" lon="-1.59799">
        <ele>4.8000001907349</ele>
        <time>2020-08-29T16:18:49.000Z</time>
      </trkpt>
      <trkpt lat="47.12156" lon="-1.59796">
        <ele>4.8000001907349</ele>
        <time>2020-08-29T16:18:52.000Z</time>
      </trkpt>
      <trkpt lat="47.1217" lon="-1.59792">
        <ele>5</ele>
        <time>2020-08-29T16:18:55.000Z</time>
      </trkpt>
      <trkpt lat="47.12191" lon="-1.5978">
        <ele>5.5999999046326</ele>
        <time>2020-08-29T16:19:00.000Z</time>
      </trkpt>
      <trkpt lat="47.12203" lon="-1.59773">
        <ele>6</ele>
        <time>2020-08-29T16:19:03.000Z</time>
      </trkpt>
      <trkpt lat="47.12208" lon="-1.59771">
        <ele>6.1999998092651</ele>
        <time>2020-08-29T16:19:04.000Z</time>
      </trkpt>
      <trkpt lat="47.12215" lon="-1.59766">
        <ele>6.1999998092651</ele>
        <time>2020-08-29T16:19:06.000Z</time>
      </trkpt>
      <trkpt lat="47.12223" lon="-1.59763">
        <ele>6.4000000953674</ele>
        <time>2020-08-29T16:19:10.000Z</time>
      </trkpt>
      <trkpt lat="47.12223" lon="-1.59764">
        <ele>6.4000000953674</ele>
        <time>2020-08-29T16:19:13.000Z</time>
      </trkpt>
      <trkpt lat="47.12224" lon="-1.59766">
        <ele>6.4000000953674</ele>
        <time>2020-08-29T16:19:16.000Z</time>
      </trkpt>
      <trkpt lat="47.12228" lon="-1.59764">
        <ele>6.4000000953674</ele>
        <time>2020-08-29T16:19:19.000Z</time>
      </trkpt>
      <trkpt lat="47.12235" lon="-1.59764">
        <ele>6.5999999046326</ele>
        <time>2020-08-29T16:19:22.000Z</time>
      </trkpt>
      <trkpt lat="47.12237" lon="-1.59766">
        <ele>6.5999999046326</ele>
        <time>2020-08-29T16:19:23.000Z</time>
      </trkpt>
      <trkpt lat="47.12245" lon="-1.59781">
        <ele>6.4000000953674</ele>
        <time>2020-08-29T16:19:28.000Z</time>
      </trkpt>
      <trkpt lat="47.12245" lon="-1.59805">
        <ele>6.1999998092651</ele>
        <time>2020-08-29T16:19:33.000Z</time>
      </trkpt>
      <trkpt lat="47.12245" lon="-1.59818">
        <ele>6</ele>
        <time>2020-08-29T16:19:35.000Z</time>
      </trkpt>
      <trkpt lat="47.12247" lon="-1.5983">
        <ele>6.1999998092651</ele>
        <time>2020-08-29T16:19:37.000Z</time>
      </trkpt>
      <trkpt lat="47.12248" lon="-1.59836">
        <ele>6.4000000953674</ele>
        <time>2020-08-29T16:19:38.000Z</time>
      </trkpt>
      <trkpt lat="47.1226" lon="-1.59858">
        <ele>7</ele>
        <time>2020-08-29T16:19:43.000Z</time>
      </trkpt>
      <trkpt lat="47.12262" lon="-1.59863">
        <ele>7</ele>
        <time>2020-08-29T16:19:44.000Z</time>
      </trkpt>
      <trkpt lat="47.12265" lon="-1.59868">
        <ele>7.1999998092651</ele>
        <time>2020-08-29T16:19:45.000Z</time>
      </trkpt>
      <trkpt lat="47.1227" lon="-1.59877">
        <ele>7.4000000953674</ele>
        <time>2020-08-29T16:19:47.000Z</time>
      </trkpt>
      <trkpt lat="47.12275" lon="-1.59886">
        <ele>7.1999998092651</ele>
        <time>2020-08-29T16:19:49.000Z</time>
      </trkpt>
      <trkpt lat="47.12279" lon="-1.59897">
        <ele>7.1999998092651</ele>
        <time>2020-08-29T16:19:51.000Z</time>
      </trkpt>
      <trkpt lat="47.12281" lon="-1.59903">
        <ele>7</ele>
        <time>2020-08-29T16:19:52.000Z</time>
      </trkpt>
      <trkpt lat="47.12282" lon="-1.5991">
        <ele>7</ele>
        <time>2020-08-29T16:19:53.000Z</time>
      </trkpt>
      <trkpt lat="47.12284" lon="-1.59923">
        <ele>6.8000001907349</ele>
        <time>2020-08-29T16:19:55.000Z</time>
      </trkpt>
      <trkpt lat="47.12285" lon="-1.5993">
        <ele>6.5999999046326</ele>
        <time>2020-08-29T16:19:56.000Z</time>
      </trkpt>
      <trkpt lat="47.12292" lon="-1.59958">
        <ele>6.4000000953674</ele>
        <time>2020-08-29T16:20:01.000Z</time>
      </trkpt>
      <trkpt lat="47.12297" lon="-1.5996">
        <ele>6.4000000953674</ele>
        <time>2020-08-29T16:20:02.000Z</time>
      </trkpt>
      <trkpt lat="47.12301" lon="-1.5996">
        <ele>6.4000000953674</ele>
        <time>2020-08-29T16:20:03.000Z</time>
      </trkpt>
      <trkpt lat="47.12305" lon="-1.59959">
        <ele>6.1999998092651</ele>
        <time>2020-08-29T16:20:04.000Z</time>
      </trkpt>
      <trkpt lat="47.12314" lon="-1.59957">
        <ele>6.1999998092651</ele>
        <time>2020-08-29T16:20:06.000Z</time>
      </trkpt>
      <trkpt lat="47.12322" lon="-1.59961">
        <ele>6</ele>
        <time>2020-08-29T16:20:08.000Z</time>
      </trkpt>
      <trkpt lat="47.12327" lon="-1.59972">
        <ele>6</ele>
        <time>2020-08-29T16:20:10.000Z</time>
      </trkpt>
      <trkpt lat="47.12329" lon="-1.59978">
        <ele>6</ele>
        <time>2020-08-29T16:20:11.000Z</time>
      </trkpt>
      <trkpt lat="47.12338" lon="-1.60005">
        <ele>6.4000000953674</ele>
        <time>2020-08-29T16:20:15.000Z</time>
      </trkpt>
      <trkpt lat="47.12346" lon="-1.60034">
        <ele>6.5999999046326</ele>
        <time>2020-08-29T16:20:19.000Z</time>
      </trkpt>
      <trkpt lat="47.12363" lon="-1.60095">
        <ele>6.8000001907349</ele>
        <time>2020-08-29T16:20:27.000Z</time>
      </trkpt>
      <trkpt lat="47.12364" lon="-1.60103">
        <ele>6.8000001907349</ele>
        <time>2020-08-29T16:20:28.000Z</time>
      </trkpt>
      <trkpt lat="47.12369" lon="-1.60119">
        <ele>6.8000001907349</ele>
        <time>2020-08-29T16:20:30.000Z</time>
      </trkpt>
      <trkpt lat="47.12379" lon="-1.60141">
        <ele>6.5999999046326</ele>
        <time>2020-08-29T16:20:33.000Z</time>
      </trkpt>
      <trkpt lat="47.12397" lon="-1.60186">
        <ele>6</ele>
        <time>2020-08-29T16:20:39.000Z</time>
      </trkpt>
      <trkpt lat="47.12399" lon="-1.60204">
        <ele>5.5999999046326</ele>
        <time>2020-08-29T16:20:41.000Z</time>
      </trkpt>
      <trkpt lat="47.12401" lon="-1.60232">
        <ele>5.1999998092651</ele>
        <time>2020-08-29T16:20:44.000Z</time>
      </trkpt>
      <trkpt lat="47.12403" lon="-1.6025">
        <ele>5.4000000953674</ele>
        <time>2020-08-29T16:20:46.000Z</time>
      </trkpt>
      <trkpt lat="47.12407" lon="-1.60266">
        <ele>5.4000000953674</ele>
        <time>2020-08-29T16:20:48.000Z</time>
      </trkpt>
      <trkpt lat="47.1241" lon="-1.60272">
        <ele>5.4000000953674</ele>
        <time>2020-08-29T16:20:49.000Z</time>
      </trkpt>
      <trkpt lat="47.12424" lon="-1.60305">
        <ele>5.8000001907349</ele>
        <time>2020-08-29T16:20:54.000Z</time>
      </trkpt>
      <trkpt lat="47.12427" lon="-1.60312">
        <ele>6</ele>
        <time>2020-08-29T16:20:55.000Z</time>
      </trkpt>
      <trkpt lat="47.12429" lon="-1.60318">
        <ele>6</ele>
        <time>2020-08-29T16:20:56.000Z</time>
      </trkpt>
      <trkpt lat="47.12428" lon="-1.60329">
        <ele>6.1999998092651</ele>
        <time>2020-08-29T16:20:58.000Z</time>
      </trkpt>
      <trkpt lat="47.12426" lon="-1.60333">
        <ele>6.1999998092651</ele>
        <time>2020-08-29T16:20:59.000Z</time>
      </trkpt>
      <trkpt lat="47.1241" lon="-1.60362">
        <ele>6.5999999046326</ele>
        <time>2020-08-29T16:21:04.000Z</time>
      </trkpt>
      <trkpt lat="47.12407" lon="-1.60368">
        <ele>6.5999999046326</ele>
        <time>2020-08-29T16:21:05.000Z</time>
      </trkpt>
      <trkpt lat="47.12388" lon="-1.60405">
        <ele>6.8000001907349</ele>
        <time>2020-08-29T16:21:11.000Z</time>
      </trkpt>
      <trkpt lat="47.12386" lon="-1.6041">
        <ele>6.8000001907349</ele>
        <time>2020-08-29T16:21:12.000Z</time>
      </trkpt>
      <trkpt lat="47.12374" lon="-1.60444">
        <ele>6.5999999046326</ele>
        <time>2020-08-29T16:21:17.000Z</time>
      </trkpt>
      <trkpt lat="47.12372" lon="-1.60452">
        <ele>6.5999999046326</ele>
        <time>2020-08-29T16:21:18.000Z</time>
      </trkpt>
      <trkpt lat="47.12355" lon="-1.60516">
        <ele>6.5999999046326</ele>
        <time>2020-08-29T16:21:27.000Z</time>
      </trkpt>
      <trkpt lat="47.12348" lon="-1.60542">
        <ele>6.4000000953674</ele>
        <time>2020-08-29T16:21:32.000Z</time>
      </trkpt>
      <trkpt lat="47.12341" lon="-1.60565">
        <ele>6.1999998092651</ele>
        <time>2020-08-29T16:21:36.000Z</time>
      </trkpt>
      <trkpt lat="47.12339" lon="-1.60578">
        <ele>6.4000000953674</ele>
        <time>2020-08-29T16:21:38.000Z</time>
      </trkpt>
      <trkpt lat="47.12333" lon="-1.60619">
        <ele>7.1999998092651</ele>
        <time>2020-08-29T16:21:45.000Z</time>
      </trkpt>
      <trkpt lat="47.12332" lon="-1.60624">
        <ele>7.4000000953674</ele>
        <time>2020-08-29T16:21:46.000Z</time>
      </trkpt>
      <trkpt lat="47.12328" lon="-1.60632">
        <ele>7.5999999046326</ele>
        <time>2020-08-29T16:21:48.000Z</time>
      </trkpt>
      <trkpt lat="47.12321" lon="-1.60636">
        <ele>7.8000001907349</ele>
        <time>2020-08-29T16:21:50.000Z</time>
      </trkpt>
      <trkpt lat="47.12299" lon="-1.60637">
        <ele>8.3999996185303</ele>
        <time>2020-08-29T16:21:56.000Z</time>
      </trkpt>
      <trkpt lat="47.12291" lon="-1.60639">
        <ele>8.6000003814697</ele>
        <time>2020-08-29T16:21:58.000Z</time>
      </trkpt>
      <trkpt lat="47.12285" lon="-1.60647">
        <ele>8.8000001907349</ele>
        <time>2020-08-29T16:22:00.000Z</time>
      </trkpt>
      <trkpt lat="47.12281" lon="-1.60658">
        <ele>9</ele>
        <time>2020-08-29T16:22:02.000Z</time>
      </trkpt>
      <trkpt lat="47.12277" lon="-1.60676">
        <ele>8.6000003814697</ele>
        <time>2020-08-29T16:22:05.000Z</time>
      </trkpt>
      <trkpt lat="47.12268" lon="-1.60718">
        <ele>8</ele>
        <time>2020-08-29T16:22:11.000Z</time>
      </trkpt>
      <trkpt lat="47.12265" lon="-1.60724">
        <ele>8</ele>
        <time>2020-08-29T16:22:12.000Z</time>
      </trkpt>
      <trkpt lat="47.1226" lon="-1.60738">
        <ele>8</ele>
        <time>2020-08-29T16:22:14.000Z</time>
      </trkpt>
      <trkpt lat="47.12248" lon="-1.60774">
        <ele>7.5999999046326</ele>
        <time>2020-08-29T16:22:19.000Z</time>
      </trkpt>
      <trkpt lat="47.12246" lon="-1.60781">
        <ele>7.4000000953674</ele>
        <time>2020-08-29T16:22:20.000Z</time>
      </trkpt>
      <trkpt lat="47.12239" lon="-1.6081">
        <ele>7</ele>
        <time>2020-08-29T16:22:24.000Z</time>
      </trkpt>
      <trkpt lat="47.12236" lon="-1.60817">
        <ele>7</ele>
        <time>2020-08-29T16:22:25.000Z</time>
      </trkpt>
      <trkpt lat="47.12232" lon="-1.60823">
        <ele>7</ele>
        <time>2020-08-29T16:22:26.000Z</time>
      </trkpt>
      <trkpt lat="47.12216" lon="-1.60847">
        <ele>6.5999999046326</ele>
        <time>2020-08-29T16:22:30.000Z</time>
      </trkpt>
      <trkpt lat="47.12197" lon="-1.60866">
        <ele>6.4000000953674</ele>
        <time>2020-08-29T16:22:34.000Z</time>
      </trkpt>
      <trkpt lat="47.12192" lon="-1.6087">
        <ele>6.4000000953674</ele>
        <time>2020-08-29T16:22:35.000Z</time>
      </trkpt>
      <trkpt lat="47.1218" lon="-1.60878">
        <ele>6.1999998092651</ele>
        <time>2020-08-29T16:22:37.000Z</time>
      </trkpt>
      <trkpt lat="47.12169" lon="-1.60886">
        <ele>6.1999998092651</ele>
        <time>2020-08-29T16:22:39.000Z</time>
      </trkpt>
      <trkpt lat="47.12145" lon="-1.609">
        <ele>6.1999998092651</ele>
        <time>2020-08-29T16:22:43.000Z</time>
      </trkpt>
      <trkpt lat="47.12132" lon="-1.60908">
        <ele>6.4000000953674</ele>
        <time>2020-08-29T16:22:45.000Z</time>
      </trkpt>
      <trkpt lat="47.12126" lon="-1.60912">
        <ele>6.5999999046326</ele>
        <time>2020-08-29T16:22:46.000Z</time>
      </trkpt>
      <trkpt lat="47.1212" lon="-1.60915">
        <ele>6.5999999046326</ele>
        <time>2020-08-29T16:22:47.000Z</time>
      </trkpt>
      <trkpt lat="47.12113" lon="-1.60918">
        <ele>6.8000001907349</ele>
        <time>2020-08-29T16:22:48.000Z</time>
      </trkpt>
      <trkpt lat="47.121" lon="-1.60926">
        <ele>7</ele>
        <time>2020-08-29T16:22:50.000Z</time>
      </trkpt>
      <trkpt lat="47.12068" lon="-1.6094">
        <ele>7.4000000953674</ele>
        <time>2020-08-29T16:22:55.000Z</time>
      </trkpt>
      <trkpt lat="47.12061" lon="-1.60941">
        <ele>7.1999998092651</ele>
        <time>2020-08-29T16:22:56.000Z</time>
      </trkpt>
      <trkpt lat="47.12023" lon="-1.60937">
        <ele>7.4000000953674</ele>
        <time>2020-08-29T16:23:02.000Z</time>
      </trkpt>
      <trkpt lat="47.11983" lon="-1.60927">
        <ele>8.3999996185303</ele>
        <time>2020-08-29T16:23:08.000Z</time>
      </trkpt>
      <trkpt lat="47.11977" lon="-1.60929">
        <ele>8.3999996185303</ele>
        <time>2020-08-29T16:23:09.000Z</time>
      </trkpt>
      <trkpt lat="47.11972" lon="-1.60932">
        <ele>8.1999998092651</ele>
        <time>2020-08-29T16:23:10.000Z</time>
      </trkpt>
      <trkpt lat="47.11964" lon="-1.60942">
        <ele>8</ele>
        <time>2020-08-29T16:23:12.000Z</time>
      </trkpt>
      <trkpt lat="47.1196" lon="-1.60947">
        <ele>8</ele>
        <time>2020-08-29T16:23:13.000Z</time>
      </trkpt>
      <trkpt lat="47.11953" lon="-1.60958">
        <ele>7.5999999046326</ele>
        <time>2020-08-29T16:23:15.000Z</time>
      </trkpt>
      <trkpt lat="47.11939" lon="-1.60982">
        <ele>7</ele>
        <time>2020-08-29T16:23:20.000Z</time>
      </trkpt>
      <trkpt lat="47.11932" lon="-1.60993">
        <ele>7</ele>
        <time>2020-08-29T16:23:22.000Z</time>
      </trkpt>
      <trkpt lat="47.11921" lon="-1.61016">
        <ele>7</ele>
        <time>2020-08-29T16:23:26.000Z</time>
      </trkpt>
      <trkpt lat="47.11907" lon="-1.61063">
        <ele>7.1999998092651</ele>
        <time>2020-08-29T16:23:33.000Z</time>
      </trkpt>
      <trkpt lat="47.11904" lon="-1.61087">
        <ele>7</ele>
        <time>2020-08-29T16:23:36.000Z</time>
      </trkpt>
      <trkpt lat="47.119" lon="-1.61117">
        <ele>6.5999999046326</ele>
        <time>2020-08-29T16:23:40.000Z</time>
      </trkpt>
      <trkpt lat="47.11898" lon="-1.61132">
        <ele>6.5999999046326</ele>
        <time>2020-08-29T16:23:42.000Z</time>
      </trkpt>
      <trkpt lat="47.11894" lon="-1.61173">
        <ele>6.4000000953674</ele>
        <time>2020-08-29T16:23:47.000Z</time>
      </trkpt>
      <trkpt lat="47.11894" lon="-1.61182">
        <ele>6.4000000953674</ele>
        <time>2020-08-29T16:23:48.000Z</time>
      </trkpt>
      <trkpt lat="47.1189" lon="-1.61222">
        <ele>6.4000000953674</ele>
        <time>2020-08-29T16:23:53.000Z</time>
      </trkpt>
      <trkpt lat="47.1189" lon="-1.61278">
        <ele>5.4000000953674</ele>
        <time>2020-08-29T16:24:00.000Z</time>
      </trkpt>
      <trkpt lat="47.11897" lon="-1.61316">
        <ele>5</ele>
        <time>2020-08-29T16:24:05.000Z</time>
      </trkpt>
      <trkpt lat="47.11899" lon="-1.61324">
        <ele>5</ele>
        <time>2020-08-29T16:24:06.000Z</time>
      </trkpt>
      <trkpt lat="47.11916" lon="-1.61367">
        <ele>6.1999998092651</ele>
        <time>2020-08-29T16:24:12.000Z</time>
      </trkpt>
      <trkpt lat="47.11925" lon="-1.61384">
        <ele>6.5999999046326</ele>
        <time>2020-08-29T16:24:15.000Z</time>
      </trkpt>
      <trkpt lat="47.11933" lon="-1.61395">
        <ele>6.8000001907349</ele>
        <time>2020-08-29T16:24:17.000Z</time>
      </trkpt>
      <trkpt lat="47.11958" lon="-1.61424">
        <ele>7</ele>
        <time>2020-08-29T16:24:23.000Z</time>
      </trkpt>
      <trkpt lat="47.1197" lon="-1.61438">
        <ele>7.4000000953674</ele>
        <time>2020-08-29T16:24:26.000Z</time>
      </trkpt>
      <trkpt lat="47.11995" lon="-1.61464">
        <ele>8.3999996185303</ele>
        <time>2020-08-29T16:24:32.000Z</time>
      </trkpt>
      <trkpt lat="47.11999" lon="-1.61469">
        <ele>8.6000003814697</ele>
        <time>2020-08-29T16:24:33.000Z</time>
      </trkpt>
      <trkpt lat="47.12011" lon="-1.61481">
        <ele>8.6000003814697</ele>
        <time>2020-08-29T16:24:36.000Z</time>
      </trkpt>
      <trkpt lat="47.12028" lon="-1.61498">
        <ele>8.3999996185303</ele>
        <time>2020-08-29T16:24:40.000Z</time>
      </trkpt>
      <trkpt lat="47.12032" lon="-1.61501">
        <ele>8.3999996185303</ele>
        <time>2020-08-29T16:24:41.000Z</time>
      </trkpt>
      <trkpt lat="47.12055" lon="-1.61517">
        <ele>8.1999998092651</ele>
        <time>2020-08-29T16:24:47.000Z</time>
      </trkpt>
      <trkpt lat="47.12073" lon="-1.61522">
        <ele>8.3999996185303</ele>
        <time>2020-08-29T16:24:52.000Z</time>
      </trkpt>
      <trkpt lat="47.12077" lon="-1.61525">
        <ele>8.3999996185303</ele>
        <time>2020-08-29T16:24:54.000Z</time>
      </trkpt>
      <trkpt lat="47.12077" lon="-1.61526">
        <ele>8.6000003814697</ele>
        <time>2020-08-29T16:24:55.000Z</time>
      </trkpt>
      <trkpt lat="47.12079" lon="-1.61535">
        <ele>8.6000003814697</ele>
        <time>2020-08-29T16:24:58.000Z</time>
      </trkpt>
      <trkpt lat="47.1208" lon="-1.61544">
        <ele>8.8000001907349</ele>
        <time>2020-08-29T16:25:00.000Z</time>
      </trkpt>
      <trkpt lat="47.12084" lon="-1.61569">
        <ele>9</ele>
        <time>2020-08-29T16:25:04.000Z</time>
      </trkpt>
      <trkpt lat="47.12085" lon="-1.61583">
        <ele>9</ele>
        <time>2020-08-29T16:25:06.000Z</time>
      </trkpt>
      <trkpt lat="47.12086" lon="-1.61598">
        <ele>9.1999998092651</ele>
        <time>2020-08-29T16:25:08.000Z</time>
      </trkpt>
      <trkpt lat="47.12087" lon="-1.61614">
        <ele>9.1999998092651</ele>
        <time>2020-08-29T16:25:10.000Z</time>
      </trkpt>
      <trkpt lat="47.12087" lon="-1.61631">
        <ele>9.1999998092651</ele>
        <time>2020-08-29T16:25:12.000Z</time>
      </trkpt>
      <trkpt lat="47.12085" lon="-1.61658">
        <ele>9</ele>
        <time>2020-08-29T16:25:15.000Z</time>
      </trkpt>
      <trkpt lat="47.12081" lon="-1.61674">
        <ele>8.6000003814697</ele>
        <time>2020-08-29T16:25:17.000Z</time>
      </trkpt>
      <trkpt lat="47.12076" lon="-1.6169">
        <ele>8</ele>
        <time>2020-08-29T16:25:19.000Z</time>
      </trkpt>
      <trkpt lat="47.12074" lon="-1.61698">
        <ele>7.8000001907349</ele>
        <time>2020-08-29T16:25:20.000Z</time>
      </trkpt>
      <trkpt lat="47.12071" lon="-1.61715">
        <ele>7.4000000953674</ele>
        <time>2020-08-29T16:25:22.000Z</time>
      </trkpt>
      <trkpt lat="47.1207" lon="-1.61732">
        <ele>7</ele>
        <time>2020-08-29T16:25:24.000Z</time>
      </trkpt>
      <trkpt lat="47.12071" lon="-1.61748">
        <ele>7</ele>
        <time>2020-08-29T16:25:26.000Z</time>
      </trkpt>
      <trkpt lat="47.12077" lon="-1.61771">
        <ele>7</ele>
        <time>2020-08-29T16:25:29.000Z</time>
      </trkpt>
      <trkpt lat="47.12079" lon="-1.61778">
        <ele>7</ele>
        <time>2020-08-29T16:25:30.000Z</time>
      </trkpt>
      <trkpt lat="47.12082" lon="-1.61784">
        <ele>7.1999998092651</ele>
        <time>2020-08-29T16:25:31.000Z</time>
      </trkpt>
      <trkpt lat="47.12092" lon="-1.61802">
        <ele>7.4000000953674</ele>
        <time>2020-08-29T16:25:34.000Z</time>
      </trkpt>
      <trkpt lat="47.12101" lon="-1.61811">
        <ele>7.8000001907349</ele>
        <time>2020-08-29T16:25:36.000Z</time>
      </trkpt>
      <trkpt lat="47.12111" lon="-1.61818">
        <ele>8.1999998092651</ele>
        <time>2020-08-29T16:25:38.000Z</time>
      </trkpt>
      <trkpt lat="47.12116" lon="-1.6182">
        <ele>8.3999996185303</ele>
        <time>2020-08-29T16:25:39.000Z</time>
      </trkpt>
      <trkpt lat="47.12153" lon="-1.61831">
        <ele>10</ele>
        <time>2020-08-29T16:25:46.000Z</time>
      </trkpt>
      <trkpt lat="47.12164" lon="-1.61833">
        <ele>10.199999809265</ele>
        <time>2020-08-29T16:25:48.000Z</time>
      </trkpt>
      <trkpt lat="47.12169" lon="-1.61835">
        <ele>10.199999809265</ele>
        <time>2020-08-29T16:25:49.000Z</time>
      </trkpt>
      <trkpt lat="47.12195" lon="-1.61841">
        <ele>9.8000001907349</ele>
        <time>2020-08-29T16:25:54.000Z</time>
      </trkpt>
      <trkpt lat="47.122" lon="-1.61842">
        <ele>9.6000003814697</ele>
        <time>2020-08-29T16:25:55.000Z</time>
      </trkpt>
      <trkpt lat="47.12244" lon="-1.61854">
        <ele>8.8000001907349</ele>
        <time>2020-08-29T16:26:04.000Z</time>
      </trkpt>
      <trkpt lat="47.1226" lon="-1.61856">
        <ele>9</ele>
        <time>2020-08-29T16:26:07.000Z</time>
      </trkpt>
      <trkpt lat="47.1227" lon="-1.61854">
        <ele>9.1999998092651</ele>
        <time>2020-08-29T16:26:09.000Z</time>
      </trkpt>
      <trkpt lat="47.12296" lon="-1.61844">
        <ele>9.1999998092651</ele>
        <time>2020-08-29T16:26:14.000Z</time>
      </trkpt>
      <trkpt lat="47.12301" lon="-1.61842">
        <ele>9.1999998092651</ele>
        <time>2020-08-29T16:26:15.000Z</time>
      </trkpt>
      <trkpt lat="47.12321" lon="-1.61834">
        <ele>9</ele>
        <time>2020-08-29T16:26:19.000Z</time>
      </trkpt>
      <trkpt lat="47.12331" lon="-1.61834">
        <ele>9</ele>
        <time>2020-08-29T16:26:21.000Z</time>
      </trkpt>
      <trkpt lat="47.12341" lon="-1.61836">
        <ele>8.8000001907349</ele>
        <time>2020-08-29T16:26:23.000Z</time>
      </trkpt>
      <trkpt lat="47.12357" lon="-1.61843">
        <ele>8.6000003814697</ele>
        <time>2020-08-29T16:26:26.000Z</time>
      </trkpt>
      <trkpt lat="47.12387" lon="-1.61858">
        <ele>8</ele>
        <time>2020-08-29T16:26:32.000Z</time>
      </trkpt>
      <trkpt lat="47.12392" lon="-1.6186">
        <ele>8</ele>
        <time>2020-08-29T16:26:33.000Z</time>
      </trkpt>
      <trkpt lat="47.12397" lon="-1.61863">
        <ele>7.8000001907349</ele>
        <time>2020-08-29T16:26:34.000Z</time>
      </trkpt>
      <trkpt lat="47.12402" lon="-1.61872">
        <ele>7.5999999046326</ele>
        <time>2020-08-29T16:26:36.000Z</time>
      </trkpt>
      <trkpt lat="47.12403" lon="-1.61877">
        <ele>7.4000000953674</ele>
        <time>2020-08-29T16:26:37.000Z</time>
      </trkpt>
      <trkpt lat="47.12396" lon="-1.61888">
        <ele>7.5999999046326</ele>
        <time>2020-08-29T16:26:39.000Z</time>
      </trkpt>
      <trkpt lat="47.12378" lon="-1.61908">
        <ele>7.8000001907349</ele>
        <time>2020-08-29T16:26:43.000Z</time>
      </trkpt>
      <trkpt lat="47.12373" lon="-1.61914">
        <ele>8</ele>
        <time>2020-08-29T16:26:44.000Z</time>
      </trkpt>
      <trkpt lat="47.12365" lon="-1.61927">
        <ele>8.3999996185303</ele>
        <time>2020-08-29T16:26:46.000Z</time>
      </trkpt>
      <trkpt lat="47.1235" lon="-1.6194">
        <ele>9</ele>
        <time>2020-08-29T16:26:49.000Z</time>
      </trkpt>
      <trkpt lat="47.12334" lon="-1.61957">
        <ele>9.6000003814697</ele>
        <time>2020-08-29T16:26:53.000Z</time>
      </trkpt>
      <trkpt lat="47.12331" lon="-1.61961">
        <ele>9.6000003814697</ele>
        <time>2020-08-29T16:26:54.000Z</time>
      </trkpt>
      <trkpt lat="47.12331" lon="-1.61969">
        <ele>9.8000001907349</ele>
        <time>2020-08-29T16:26:56.000Z</time>
      </trkpt>
      <trkpt lat="47.12332" lon="-1.61973">
        <ele>9.8000001907349</ele>
        <time>2020-08-29T16:26:57.000Z</time>
      </trkpt>
      <trkpt lat="47.12337" lon="-1.61983">
        <ele>9.8000001907349</ele>
        <time>2020-08-29T16:26:59.000Z</time>
      </trkpt>
      <trkpt lat="47.1234" lon="-1.61989">
        <ele>9.6000003814697</ele>
        <time>2020-08-29T16:27:00.000Z</time>
      </trkpt>
      <trkpt lat="47.12343" lon="-1.61995">
        <ele>9.3999996185303</ele>
        <time>2020-08-29T16:27:01.000Z</time>
      </trkpt>
      <trkpt lat="47.12369" lon="-1.62049">
        <ele>7.8000001907349</ele>
        <time>2020-08-29T16:27:09.000Z</time>
      </trkpt>
      <trkpt lat="47.12375" lon="-1.62064">
        <ele>7.4000000953674</ele>
        <time>2020-08-29T16:27:11.000Z</time>
      </trkpt>
      <trkpt lat="47.12379" lon="-1.6209">
        <ele>6.5999999046326</ele>
        <time>2020-08-29T16:27:14.000Z</time>
      </trkpt>
      <trkpt lat="47.12383" lon="-1.62118">
        <ele>6</ele>
        <time>2020-08-29T16:27:17.000Z</time>
      </trkpt>
      <trkpt lat="47.12387" lon="-1.62137">
        <ele>6</ele>
        <time>2020-08-29T16:27:19.000Z</time>
      </trkpt>
      <trkpt lat="47.12394" lon="-1.62163">
        <ele>5.5999999046326</ele>
        <time>2020-08-29T16:27:22.000Z</time>
      </trkpt>
      <trkpt lat="47.12402" lon="-1.62188">
        <ele>5.1999998092651</ele>
        <time>2020-08-29T16:27:25.000Z</time>
      </trkpt>
      <trkpt lat="47.12427" lon="-1.62231">
        <ele>4.4000000953674</ele>
        <time>2020-08-29T16:27:31.000Z</time>
      </trkpt>
      <trkpt lat="47.12461" lon="-1.62284">
        <ele>5.4000000953674</ele>
        <time>2020-08-29T16:27:39.000Z</time>
      </trkpt>
      <trkpt lat="47.12486" lon="-1.62319">
        <ele>6.8000001907349</ele>
        <time>2020-08-29T16:27:45.000Z</time>
      </trkpt>
      <trkpt lat="47.12503" lon="-1.62352">
        <ele>7</ele>
        <time>2020-08-29T16:27:50.000Z</time>
      </trkpt>
      <trkpt lat="47.12503" lon="-1.62358">
        <ele>7</ele>
        <time>2020-08-29T16:27:51.000Z</time>
      </trkpt>
      <trkpt lat="47.12502" lon="-1.62364">
        <ele>7</ele>
        <time>2020-08-29T16:27:52.000Z</time>
      </trkpt>
      <trkpt lat="47.12497" lon="-1.6237">
        <ele>7</ele>
        <time>2020-08-29T16:27:54.000Z</time>
      </trkpt>
      <trkpt lat="47.12489" lon="-1.62377">
        <ele>6.8000001907349</ele>
        <time>2020-08-29T16:27:56.000Z</time>
      </trkpt>
      <trkpt lat="47.12485" lon="-1.62382">
        <ele>6.8000001907349</ele>
        <time>2020-08-29T16:27:57.000Z</time>
      </trkpt>
      <trkpt lat="47.12481" lon="-1.62386">
        <ele>6.5999999046326</ele>
        <time>2020-08-29T16:27:58.000Z</time>
      </trkpt>
      <trkpt lat="47.12457" lon="-1.62416">
        <ele>6.1999998092651</ele>
        <time>2020-08-29T16:28:04.000Z</time>
      </trkpt>
      <trkpt lat="47.12429" lon="-1.6246">
        <ele>6.1999998092651</ele>
        <time>2020-08-29T16:28:11.000Z</time>
      </trkpt>
      <trkpt lat="47.124" lon="-1.62497">
        <ele>5.5999999046326</ele>
        <time>2020-08-29T16:28:18.000Z</time>
      </trkpt>
      <trkpt lat="47.12379" lon="-1.62529">
        <ele>5.1999998092651</ele>
        <time>2020-08-29T16:28:24.000Z</time>
      </trkpt>
      <trkpt lat="47.12354" lon="-1.62574">
        <ele>4.5999999046326</ele>
        <time>2020-08-29T16:28:31.000Z</time>
      </trkpt>
      <trkpt lat="47.12347" lon="-1.62586">
        <ele>4.4000000953674</ele>
        <time>2020-08-29T16:28:33.000Z</time>
      </trkpt>
      <trkpt lat="47.1234" lon="-1.62595">
        <ele>4</ele>
        <time>2020-08-29T16:28:35.000Z</time>
      </trkpt>
      <trkpt lat="47.12336" lon="-1.626">
        <ele>3.7999999523163</ele>
        <time>2020-08-29T16:28:36.000Z</time>
      </trkpt>
      <trkpt lat="47.12306" lon="-1.62633">
        <ele>4</ele>
        <time>2020-08-29T16:28:43.000Z</time>
      </trkpt>
      <trkpt lat="47.12275" lon="-1.62673">
        <ele>4.5999999046326</ele>
        <time>2020-08-29T16:28:51.000Z</time>
      </trkpt>
      <trkpt lat="47.12262" lon="-1.62688">
        <ele>4.8000001907349</ele>
        <time>2020-08-29T16:28:54.000Z</time>
      </trkpt>
      <trkpt lat="47.12251" lon="-1.62702">
        <ele>5</ele>
        <time>2020-08-29T16:28:57.000Z</time>
      </trkpt>
      <trkpt lat="47.12244" lon="-1.62717">
        <ele>5</ele>
        <time>2020-08-29T16:29:01.000Z</time>
      </trkpt>
      <trkpt lat="47.12248" lon="-1.62726">
        <ele>5</ele>
        <time>2020-08-29T16:29:04.000Z</time>
      </trkpt>
      <trkpt lat="47.12251" lon="-1.62734">
        <ele>5</ele>
        <time>2020-08-29T16:29:06.000Z</time>
      </trkpt>
      <trkpt lat="47.12262" lon="-1.62753">
        <ele>5.1999998092651</ele>
        <time>2020-08-29T16:29:11.000Z</time>
      </trkpt>
      <trkpt lat="47.12265" lon="-1.62758">
        <ele>5.1999998092651</ele>
        <time>2020-08-29T16:29:12.000Z</time>
      </trkpt>
      <trkpt lat="47.12275" lon="-1.62779">
        <ele>5.4000000953674</ele>
        <time>2020-08-29T16:29:16.000Z</time>
      </trkpt>
      <trkpt lat="47.12278" lon="-1.62785">
        <ele>5.4000000953674</ele>
        <time>2020-08-29T16:29:17.000Z</time>
      </trkpt>
      <trkpt lat="47.123" lon="-1.62815">
        <ele>5</ele>
        <time>2020-08-29T16:29:23.000Z</time>
      </trkpt>
      <trkpt lat="47.12306" lon="-1.62825">
        <ele>5</ele>
        <time>2020-08-29T16:29:25.000Z</time>
      </trkpt>
      <trkpt lat="47.12323" lon="-1.62863">
        <ele>5</ele>
        <time>2020-08-29T16:29:32.000Z</time>
      </trkpt>
      <trkpt lat="47.1233" lon="-1.62891">
        <ele>5</ele>
        <time>2020-08-29T16:29:37.000Z</time>
      </trkpt>
      <trkpt lat="47.12321" lon="-1.62913">
        <ele>5</ele>
        <time>2020-08-29T16:29:41.000Z</time>
      </trkpt>
      <trkpt lat="47.12316" lon="-1.62927">
        <ele>5</ele>
        <time>2020-08-29T16:29:43.000Z</time>
      </trkpt>
      <trkpt lat="47.12308" lon="-1.62958">
        <ele>5</ele>
        <time>2020-08-29T16:29:47.000Z</time>
      </trkpt>
      <trkpt lat="47.12306" lon="-1.62965">
        <ele>5</ele>
        <time>2020-08-29T16:29:48.000Z</time>
      </trkpt>
      <trkpt lat="47.12301" lon="-1.63005">
        <ele>5</ele>
        <time>2020-08-29T16:29:53.000Z</time>
      </trkpt>
      <trkpt lat="47.12291" lon="-1.6306">
        <ele>5.4000000953674</ele>
        <time>2020-08-29T16:30:00.000Z</time>
      </trkpt>
      <trkpt lat="47.1228" lon="-1.63089">
        <ele>5.4000000953674</ele>
        <time>2020-08-29T16:30:04.000Z</time>
      </trkpt>
      <trkpt lat="47.12273" lon="-1.63102">
        <ele>5.4000000953674</ele>
        <time>2020-08-29T16:30:06.000Z</time>
      </trkpt>
      <trkpt lat="47.12265" lon="-1.63114">
        <ele>5.1999998092651</ele>
        <time>2020-08-29T16:30:08.000Z</time>
      </trkpt>
      <trkpt lat="47.12245" lon="-1.63142">
        <ele>5</ele>
        <time>2020-08-29T16:30:13.000Z</time>
      </trkpt>
      <trkpt lat="47.1224" lon="-1.63148">
        <ele>5</ele>
        <time>2020-08-29T16:30:14.000Z</time>
      </trkpt>
      <trkpt lat="47.12223" lon="-1.63168">
        <ele>4.8000001907349</ele>
        <time>2020-08-29T16:30:18.000Z</time>
      </trkpt>
      <trkpt lat="47.12218" lon="-1.63182">
        <ele>4.5999999046326</ele>
        <time>2020-08-29T16:30:20.000Z</time>
      </trkpt>
      <trkpt lat="47.1222" lon="-1.63197">
        <ele>4.4000000953674</ele>
        <time>2020-08-29T16:30:22.000Z</time>
      </trkpt>
      <trkpt lat="47.12222" lon="-1.63204">
        <ele>4.4000000953674</ele>
        <time>2020-08-29T16:30:23.000Z</time>
      </trkpt>
      <trkpt lat="47.12235" lon="-1.63237">
        <ele>4</ele>
        <time>2020-08-29T16:30:28.000Z</time>
      </trkpt>
      <trkpt lat="47.1224" lon="-1.63249">
        <ele>4</ele>
        <time>2020-08-29T16:30:30.000Z</time>
      </trkpt>
      <trkpt lat="47.12242" lon="-1.63255">
        <ele>4.1999998092651</ele>
        <time>2020-08-29T16:30:31.000Z</time>
      </trkpt>
      <trkpt lat="47.12256" lon="-1.63283">
        <ele>4.8000001907349</ele>
        <time>2020-08-29T16:30:36.000Z</time>
      </trkpt>
      <trkpt lat="47.12259" lon="-1.63289">
        <ele>5</ele>
        <time>2020-08-29T16:30:37.000Z</time>
      </trkpt>
      <trkpt lat="47.12262" lon="-1.63295">
        <ele>5.1999998092651</ele>
        <time>2020-08-29T16:30:38.000Z</time>
      </trkpt>
      <trkpt lat="47.12264" lon="-1.63309">
        <ele>5.1999998092651</ele>
        <time>2020-08-29T16:30:40.000Z</time>
      </trkpt>
      <trkpt lat="47.12264" lon="-1.63317">
        <ele>5.1999998092651</ele>
        <time>2020-08-29T16:30:41.000Z</time>
      </trkpt>
      <trkpt lat="47.12264" lon="-1.63331">
        <ele>5</ele>
        <time>2020-08-29T16:30:43.000Z</time>
      </trkpt>
      <trkpt lat="47.12268" lon="-1.63345">
        <ele>5</ele>
        <time>2020-08-29T16:30:45.000Z</time>
      </trkpt>
      <trkpt lat="47.1227" lon="-1.63351">
        <ele>5</ele>
        <time>2020-08-29T16:30:46.000Z</time>
      </trkpt>
      <trkpt lat="47.12277" lon="-1.63383">
        <ele>4.4000000953674</ele>
        <time>2020-08-29T16:30:52.000Z</time>
      </trkpt>
      <trkpt lat="47.12265" lon="-1.63398">
        <ele>4</ele>
        <time>2020-08-29T16:30:55.000Z</time>
      </trkpt>
      <trkpt lat="47.12236" lon="-1.63431">
        <ele>4.4000000953674</ele>
        <time>2020-08-29T16:31:01.000Z</time>
      </trkpt>
      <trkpt lat="47.12226" lon="-1.63442">
        <ele>4.4000000953674</ele>
        <time>2020-08-29T16:31:03.000Z</time>
      </trkpt>
      <trkpt lat="47.12196" lon="-1.63471">
        <ele>4.8000001907349</ele>
        <time>2020-08-29T16:31:09.000Z</time>
      </trkpt>
      <trkpt lat="47.12159" lon="-1.63512">
        <ele>4.8000001907349</ele>
        <time>2020-08-29T16:31:17.000Z</time>
      </trkpt>
      <trkpt lat="47.12131" lon="-1.63544">
        <ele>5</ele>
        <time>2020-08-29T16:31:23.000Z</time>
      </trkpt>
      <trkpt lat="47.12121" lon="-1.63554">
        <ele>5.1999998092651</ele>
        <time>2020-08-29T16:31:25.000Z</time>
      </trkpt>
      <trkpt lat="47.12091" lon="-1.63586">
        <ele>5.1999998092651</ele>
        <time>2020-08-29T16:31:32.000Z</time>
      </trkpt>
      <trkpt lat="47.12068" lon="-1.63609">
        <ele>5</ele>
        <time>2020-08-29T16:31:37.000Z</time>
      </trkpt>
      <trkpt lat="47.12063" lon="-1.63615">
        <ele>4.8000001907349</ele>
        <time>2020-08-29T16:31:38.000Z</time>
      </trkpt>
      <trkpt lat="47.12059" lon="-1.63621">
        <ele>4.8000001907349</ele>
        <time>2020-08-29T16:31:39.000Z</time>
      </trkpt>
      <trkpt lat="47.12051" lon="-1.63636">
        <ele>4.4000000953674</ele>
        <time>2020-08-29T16:31:41.000Z</time>
      </trkpt>
      <trkpt lat="47.12044" lon="-1.6365">
        <ele>4</ele>
        <time>2020-08-29T16:31:43.000Z</time>
      </trkpt>
      <trkpt lat="47.12031" lon="-1.6368">
        <ele>3.5999999046326</ele>
        <time>2020-08-29T16:31:47.000Z</time>
      </trkpt>
      <trkpt lat="47.12021" lon="-1.63702">
        <ele>3.4000000953674</ele>
        <time>2020-08-29T16:31:50.000Z</time>
      </trkpt>
      <trkpt lat="47.11999" lon="-1.63759">
        <ele>3.2000000476837</ele>
        <time>2020-08-29T16:31:58.000Z</time>
      </trkpt>
      <trkpt lat="47.1198" lon="-1.63809">
        <ele>4.4000000953674</ele>
        <time>2020-08-29T16:32:05.000Z</time>
      </trkpt>
      <trkpt lat="47.11976" lon="-1.6384">
        <ele>4.8000001907349</ele>
        <time>2020-08-29T16:32:09.000Z</time>
      </trkpt>
      <trkpt lat="47.11974" lon="-1.63856">
        <ele>4.8000001907349</ele>
        <time>2020-08-29T16:32:11.000Z</time>
      </trkpt>
      <trkpt lat="47.11973" lon="-1.63863">
        <ele>4.8000001907349</ele>
        <time>2020-08-29T16:32:12.000Z</time>
      </trkpt>
      <trkpt lat="47.1197" lon="-1.63886">
        <ele>4.5999999046326</ele>
        <time>2020-08-29T16:32:15.000Z</time>
      </trkpt>
      <trkpt lat="47.11967" lon="-1.63917">
        <ele>4.4000000953674</ele>
        <time>2020-08-29T16:32:19.000Z</time>
      </trkpt>
      <trkpt lat="47.11967" lon="-1.63925">
        <ele>4.4000000953674</ele>
        <time>2020-08-29T16:32:20.000Z</time>
      </trkpt>
      <trkpt lat="47.11966" lon="-1.63933">
        <ele>4.4000000953674</ele>
        <time>2020-08-29T16:32:21.000Z</time>
      </trkpt>
      <trkpt lat="47.11963" lon="-1.63973">
        <ele>5.4000000953674</ele>
        <time>2020-08-29T16:32:26.000Z</time>
      </trkpt>
      <trkpt lat="47.11961" lon="-1.64007">
        <ele>5.8000001907349</ele>
        <time>2020-08-29T16:32:30.000Z</time>
      </trkpt>
      <trkpt lat="47.11957" lon="-1.64055">
        <ele>5.8000001907349</ele>
        <time>2020-08-29T16:32:36.000Z</time>
      </trkpt>
      <trkpt lat="47.11956" lon="-1.64071">
        <ele>6</ele>
        <time>2020-08-29T16:32:38.000Z</time>
      </trkpt>
      <trkpt lat="47.11955" lon="-1.64078">
        <ele>6</ele>
        <time>2020-08-29T16:32:39.000Z</time>
      </trkpt>
      <trkpt lat="47.11953" lon="-1.64102">
        <ele>6</ele>
        <time>2020-08-29T16:32:42.000Z</time>
      </trkpt>
      <trkpt lat="47.11951" lon="-1.64134">
        <ele>6.1999998092651</ele>
        <time>2020-08-29T16:32:46.000Z</time>
      </trkpt>
      <trkpt lat="47.11952" lon="-1.64206">
        <ele>6.4000000953674</ele>
        <time>2020-08-29T16:32:55.000Z</time>
      </trkpt>
      <trkpt lat="47.11952" lon="-1.6423">
        <ele>6.4000000953674</ele>
        <time>2020-08-29T16:32:58.000Z</time>
      </trkpt>
      <trkpt lat="47.11957" lon="-1.64263">
        <ele>5.8000001907349</ele>
        <time>2020-08-29T16:33:02.000Z</time>
      </trkpt>
      <trkpt lat="47.1196" lon="-1.64287">
        <ele>5.5999999046326</ele>
        <time>2020-08-29T16:33:05.000Z</time>
      </trkpt>
      <trkpt lat="47.11957" lon="-1.64301">
        <ele>5.5999999046326</ele>
        <time>2020-08-29T16:33:07.000Z</time>
      </trkpt>
      <trkpt lat="47.11941" lon="-1.64344">
        <ele>5.4000000953674</ele>
        <time>2020-08-29T16:33:13.000Z</time>
      </trkpt>
      <trkpt lat="47.11938" lon="-1.64352">
        <ele>5.4000000953674</ele>
        <time>2020-08-29T16:33:14.000Z</time>
      </trkpt>
      <trkpt lat="47.11935" lon="-1.64359">
        <ele>5.1999998092651</ele>
        <time>2020-08-29T16:33:15.000Z</time>
      </trkpt>
      <trkpt lat="47.11928" lon="-1.64381">
        <ele>5.1999998092651</ele>
        <time>2020-08-29T16:33:18.000Z</time>
      </trkpt>
      <trkpt lat="47.11923" lon="-1.64395">
        <ele>5</ele>
        <time>2020-08-29T16:33:20.000Z</time>
      </trkpt>
      <trkpt lat="47.1192" lon="-1.64402">
        <ele>5</ele>
        <time>2020-08-29T16:33:21.000Z</time>
      </trkpt>
      <trkpt lat="47.11918" lon="-1.64409">
        <ele>5</ele>
        <time>2020-08-29T16:33:22.000Z</time>
      </trkpt>
      <trkpt lat="47.11907" lon="-1.6444">
        <ele>5.4000000953674</ele>
        <time>2020-08-29T16:33:26.000Z</time>
      </trkpt>
      <trkpt lat="47.11899" lon="-1.64464">
        <ele>5.8000001907349</ele>
        <time>2020-08-29T16:33:29.000Z</time>
      </trkpt>
      <trkpt lat="47.11892" lon="-1.64486">
        <ele>6.1999998092651</ele>
        <time>2020-08-29T16:33:32.000Z</time>
      </trkpt>
      <trkpt lat="47.11894" lon="-1.64493">
        <ele>6.1999998092651</ele>
        <time>2020-08-29T16:33:33.000Z</time>
      </trkpt>
      <trkpt lat="47.11897" lon="-1.64499">
        <ele>6.4000000953674</ele>
        <time>2020-08-29T16:33:34.000Z</time>
      </trkpt>
      <trkpt lat="47.11905" lon="-1.64507">
        <ele>6.4000000953674</ele>
        <time>2020-08-29T16:33:36.000Z</time>
      </trkpt>
      <trkpt lat="47.11909" lon="-1.6451">
        <ele>6.4000000953674</ele>
        <time>2020-08-29T16:33:37.000Z</time>
      </trkpt>
      <trkpt lat="47.11919" lon="-1.64515">
        <ele>6.1999998092651</ele>
        <time>2020-08-29T16:33:39.000Z</time>
      </trkpt>
      <trkpt lat="47.11923" lon="-1.64516">
        <ele>6.1999998092651</ele>
        <time>2020-08-29T16:33:40.000Z</time>
      </trkpt>
      <trkpt lat="47.11928" lon="-1.64518">
        <ele>6.1999998092651</ele>
        <time>2020-08-29T16:33:41.000Z</time>
      </trkpt>
      <trkpt lat="47.11951" lon="-1.64532">
        <ele>6.1999998092651</ele>
        <time>2020-08-29T16:33:46.000Z</time>
      </trkpt>
      <trkpt lat="47.11982" lon="-1.64548">
        <ele>6.4000000953674</ele>
        <time>2020-08-29T16:33:52.000Z</time>
      </trkpt>
      <trkpt lat="47.12003" lon="-1.64557">
        <ele>6.8000001907349</ele>
        <time>2020-08-29T16:33:56.000Z</time>
      </trkpt>
      <trkpt lat="47.12018" lon="-1.64566">
        <ele>7.1999998092651</ele>
        <time>2020-08-29T16:33:59.000Z</time>
      </trkpt>
      <trkpt lat="47.1205" lon="-1.64585">
        <ele>7.5999999046326</ele>
        <time>2020-08-29T16:34:06.000Z</time>
      </trkpt>
      <trkpt lat="47.12054" lon="-1.64589">
        <ele>7.8000001907349</ele>
        <time>2020-08-29T16:34:07.000Z</time>
      </trkpt>
      <trkpt lat="47.12091" lon="-1.64614">
        <ele>7.1999998092651</ele>
        <time>2020-08-29T16:34:15.000Z</time>
      </trkpt>
      <trkpt lat="47.12104" lon="-1.64619">
        <ele>6.8000001907349</ele>
        <time>2020-08-29T16:34:18.000Z</time>
      </trkpt>
      <trkpt lat="47.12113" lon="-1.64617">
        <ele>6.5999999046326</ele>
        <time>2020-08-29T16:34:20.000Z</time>
      </trkpt>
      <trkpt lat="47.12122" lon="-1.64613">
        <ele>6.4000000953674</ele>
        <time>2020-08-29T16:34:22.000Z</time>
      </trkpt>
      <trkpt lat="47.12137" lon="-1.64604">
        <ele>6.1999998092651</ele>
        <time>2020-08-29T16:34:25.000Z</time>
      </trkpt>
      <trkpt lat="47.12173" lon="-1.64583">
        <ele>6</ele>
        <time>2020-08-29T16:34:33.000Z</time>
      </trkpt>
      <trkpt lat="47.12187" lon="-1.64574">
        <ele>6</ele>
        <time>2020-08-29T16:34:36.000Z</time>
      </trkpt>
      <trkpt lat="47.12211" lon="-1.6456">
        <ele>6.4000000953674</ele>
        <time>2020-08-29T16:34:41.000Z</time>
      </trkpt>
      <trkpt lat="47.12216" lon="-1.64557">
        <ele>6.5999999046326</ele>
        <time>2020-08-29T16:34:42.000Z</time>
      </trkpt>
      <trkpt lat="47.12235" lon="-1.64547">
        <ele>7</ele>
        <time>2020-08-29T16:34:46.000Z</time>
      </trkpt>
      <trkpt lat="47.12239" lon="-1.64544">
        <ele>7.1999998092651</ele>
        <time>2020-08-29T16:34:47.000Z</time>
      </trkpt>
      <trkpt lat="47.12243" lon="-1.64541">
        <ele>7.4000000953674</ele>
        <time>2020-08-29T16:34:48.000Z</time>
      </trkpt>
      <trkpt lat="47.12247" lon="-1.64539">
        <ele>7.1999998092651</ele>
        <time>2020-08-29T16:34:49.000Z</time>
      </trkpt>
      <trkpt lat="47.12255" lon="-1.64533">
        <ele>7.1999998092651</ele>
        <time>2020-08-29T16:34:51.000Z</time>
      </trkpt>
      <trkpt lat="47.12264" lon="-1.64533">
        <ele>6.8000001907349</ele>
        <time>2020-08-29T16:34:54.000Z</time>
      </trkpt>
      <trkpt lat="47.12277" lon="-1.64548">
        <ele>5.8000001907349</ele>
        <time>2020-08-29T16:34:58.000Z</time>
      </trkpt>
      <trkpt lat="47.12283" lon="-1.64558">
        <ele>5.5999999046326</ele>
        <time>2020-08-29T16:35:00.000Z</time>
      </trkpt>
      <trkpt lat="47.12294" lon="-1.64581">
        <ele>5.5999999046326</ele>
        <time>2020-08-29T16:35:04.000Z</time>
      </trkpt>
      <trkpt lat="47.12296" lon="-1.64588">
        <ele>5.8000001907349</ele>
        <time>2020-08-29T16:35:05.000Z</time>
      </trkpt>
      <trkpt lat="47.12297" lon="-1.64594">
        <ele>6</ele>
        <time>2020-08-29T16:35:06.000Z</time>
      </trkpt>
      <trkpt lat="47.12298" lon="-1.64626">
        <ele>6.8000001907349</ele>
        <time>2020-08-29T16:35:10.000Z</time>
      </trkpt>
      <trkpt lat="47.12298" lon="-1.64634">
        <ele>6.8000001907349</ele>
        <time>2020-08-29T16:35:11.000Z</time>
      </trkpt>
      <trkpt lat="47.12299" lon="-1.64641">
        <ele>7</ele>
        <time>2020-08-29T16:35:12.000Z</time>
      </trkpt>
      <trkpt lat="47.12299" lon="-1.64648">
        <ele>7.1999998092651</ele>
        <time>2020-08-29T16:35:13.000Z</time>
      </trkpt>
      <trkpt lat="47.12299" lon="-1.64656">
        <ele>7.4000000953674</ele>
        <time>2020-08-29T16:35:14.000Z</time>
      </trkpt>
      <trkpt lat="47.12299" lon="-1.64664">
        <ele>7.4000000953674</ele>
        <time>2020-08-29T16:35:15.000Z</time>
      </trkpt>
      <trkpt lat="47.12299" lon="-1.6469">
        <ele>7.4000000953674</ele>
        <time>2020-08-29T16:35:18.000Z</time>
      </trkpt>
      <trkpt lat="47.12299" lon="-1.64699">
        <ele>7.4000000953674</ele>
        <time>2020-08-29T16:35:19.000Z</time>
      </trkpt>
      <trkpt lat="47.12298" lon="-1.64732">
        <ele>7.4000000953674</ele>
        <time>2020-08-29T16:35:23.000Z</time>
      </trkpt>
      <trkpt lat="47.12298" lon="-1.64757">
        <ele>6.5999999046326</ele>
        <time>2020-08-29T16:35:26.000Z</time>
      </trkpt>
      <trkpt lat="47.12298" lon="-1.64766">
        <ele>6.1999998092651</ele>
        <time>2020-08-29T16:35:27.000Z</time>
      </trkpt>
      <trkpt lat="47.12297" lon="-1.64783">
        <ele>5.8000001907349</ele>
        <time>2020-08-29T16:35:29.000Z</time>
      </trkpt>
      <trkpt lat="47.12295" lon="-1.64801">
        <ele>5.4000000953674</ele>
        <time>2020-08-29T16:35:31.000Z</time>
      </trkpt>
      <trkpt lat="47.12293" lon="-1.64817">
        <ele>5</ele>
        <time>2020-08-29T16:35:33.000Z</time>
      </trkpt>
      <trkpt lat="47.12292" lon="-1.64825">
        <ele>5</ele>
        <time>2020-08-29T16:35:34.000Z</time>
      </trkpt>
      <trkpt lat="47.1229" lon="-1.64841">
        <ele>5.1999998092651</ele>
        <time>2020-08-29T16:35:36.000Z</time>
      </trkpt>
      <trkpt lat="47.12284" lon="-1.6489">
        <ele>5.1999998092651</ele>
        <time>2020-08-29T16:35:42.000Z</time>
      </trkpt>
      <trkpt lat="47.12282" lon="-1.64921">
        <ele>5</ele>
        <time>2020-08-29T16:35:46.000Z</time>
      </trkpt>
      <trkpt lat="47.12281" lon="-1.64929">
        <ele>5.1999998092651</ele>
        <time>2020-08-29T16:35:47.000Z</time>
      </trkpt>
      <trkpt lat="47.1228" lon="-1.64937">
        <ele>5.1999998092651</ele>
        <time>2020-08-29T16:35:48.000Z</time>
      </trkpt>
      <trkpt lat="47.12279" lon="-1.64946">
        <ele>5.1999998092651</ele>
        <time>2020-08-29T16:35:49.000Z</time>
      </trkpt>
      <trkpt lat="47.12278" lon="-1.64954">
        <ele>5.1999998092651</ele>
        <time>2020-08-29T16:35:50.000Z</time>
      </trkpt>
      <trkpt lat="47.12277" lon="-1.64963">
        <ele>5.4000000953674</ele>
        <time>2020-08-29T16:35:51.000Z</time>
      </trkpt>
      <trkpt lat="47.12275" lon="-1.64979">
        <ele>5.5999999046326</ele>
        <time>2020-08-29T16:35:53.000Z</time>
      </trkpt>
      <trkpt lat="47.12271" lon="-1.65004">
        <ele>5.8000001907349</ele>
        <time>2020-08-29T16:35:56.000Z</time>
      </trkpt>
      <trkpt lat="47.12269" lon="-1.6502">
        <ele>6.1999998092651</ele>
        <time>2020-08-29T16:35:58.000Z</time>
      </trkpt>
      <trkpt lat="47.12266" lon="-1.65042">
        <ele>6.4000000953674</ele>
        <time>2020-08-29T16:36:01.000Z</time>
      </trkpt>
      <trkpt lat="47.12263" lon="-1.65064">
        <ele>6.8000001907349</ele>
        <time>2020-08-29T16:36:04.000Z</time>
      </trkpt>
      <trkpt lat="47.12261" lon="-1.6508">
        <ele>7.1999998092651</ele>
        <time>2020-08-29T16:36:06.000Z</time>
      </trkpt>
      <trkpt lat="47.12253" lon="-1.65134">
        <ele>7.8000001907349</ele>
        <time>2020-08-29T16:36:13.000Z</time>
      </trkpt>
      <trkpt lat="47.12252" lon="-1.65144">
        <ele>8</ele>
        <time>2020-08-29T16:36:14.000Z</time>
      </trkpt>
      <trkpt lat="47.12246" lon="-1.65201">
        <ele>8</ele>
        <time>2020-08-29T16:36:21.000Z</time>
      </trkpt>
      <trkpt lat="47.1224" lon="-1.65245">
        <ele>7.8000001907349</ele>
        <time>2020-08-29T16:36:27.000Z</time>
      </trkpt>
      <trkpt lat="47.1224" lon="-1.65251">
        <ele>7.5999999046326</ele>
        <time>2020-08-29T16:36:28.000Z</time>
      </trkpt>
      <trkpt lat="47.12239" lon="-1.65257">
        <ele>7.4000000953674</ele>
        <time>2020-08-29T16:36:29.000Z</time>
      </trkpt>
      <trkpt lat="47.12237" lon="-1.65268">
        <ele>7.1999998092651</ele>
        <time>2020-08-29T16:36:31.000Z</time>
      </trkpt>
      <trkpt lat="47.12233" lon="-1.65279">
        <ele>7</ele>
        <time>2020-08-29T16:36:33.000Z</time>
      </trkpt>
      <trkpt lat="47.1223" lon="-1.65284">
        <ele>6.8000001907349</ele>
        <time>2020-08-29T16:36:34.000Z</time>
      </trkpt>
      <trkpt lat="47.12223" lon="-1.65295">
        <ele>6.5999999046326</ele>
        <time>2020-08-29T16:36:36.000Z</time>
      </trkpt>
      <trkpt lat="47.12219" lon="-1.653">
        <ele>6.4000000953674</ele>
        <time>2020-08-29T16:36:37.000Z</time>
      </trkpt>
      <trkpt lat="47.12215" lon="-1.65304">
        <ele>6.4000000953674</ele>
        <time>2020-08-29T16:36:38.000Z</time>
      </trkpt>
      <trkpt lat="47.12211" lon="-1.65309">
        <ele>6.1999998092651</ele>
        <time>2020-08-29T16:36:39.000Z</time>
      </trkpt>
      <trkpt lat="47.12194" lon="-1.65332">
        <ele>5.8000001907349</ele>
        <time>2020-08-29T16:36:43.000Z</time>
      </trkpt>
      <trkpt lat="47.12189" lon="-1.65339">
        <ele>5.8000001907349</ele>
        <time>2020-08-29T16:36:44.000Z</time>
      </trkpt>
      <trkpt lat="47.1218" lon="-1.6535">
        <ele>5.5999999046326</ele>
        <time>2020-08-29T16:36:46.000Z</time>
      </trkpt>
      <trkpt lat="47.12171" lon="-1.65362">
        <ele>5.4000000953674</ele>
        <time>2020-08-29T16:36:48.000Z</time>
      </trkpt>
      <trkpt lat="47.12162" lon="-1.65373">
        <ele>5.4000000953674</ele>
        <time>2020-08-29T16:36:50.000Z</time>
      </trkpt>
      <trkpt lat="47.12149" lon="-1.65389">
        <ele>5.1999998092651</ele>
        <time>2020-08-29T16:36:53.000Z</time>
      </trkpt>
      <trkpt lat="47.12136" lon="-1.65407">
        <ele>5</ele>
        <time>2020-08-29T16:36:56.000Z</time>
      </trkpt>
      <trkpt lat="47.1212" lon="-1.65428">
        <ele>5</ele>
        <time>2020-08-29T16:37:00.000Z</time>
      </trkpt>
      <trkpt lat="47.12097" lon="-1.65455">
        <ele>5</ele>
        <time>2020-08-29T16:37:06.000Z</time>
      </trkpt>
      <trkpt lat="47.12094" lon="-1.65459">
        <ele>5</ele>
        <time>2020-08-29T16:37:07.000Z</time>
      </trkpt>
      <trkpt lat="47.12078" lon="-1.65478">
        <ele>5</ele>
        <time>2020-08-29T16:37:12.000Z</time>
      </trkpt>
      <trkpt lat="47.12076" lon="-1.6548">
        <ele>5</ele>
        <time>2020-08-29T16:37:13.000Z</time>
      </trkpt>
      <trkpt lat="47.12074" lon="-1.65482">
        <ele>5</ele>
        <time>2020-08-29T16:37:14.000Z</time>
      </trkpt>
      <trkpt lat="47.12059" lon="-1.65499">
        <ele>4.8000001907349</ele>
        <time>2020-08-29T16:37:21.000Z</time>
      </trkpt>
      <trkpt lat="47.1205" lon="-1.65506">
        <ele>4.5999999046326</ele>
        <time>2020-08-29T16:37:24.000Z</time>
      </trkpt>
      <trkpt lat="47.12038" lon="-1.65514">
        <ele>4.5999999046326</ele>
        <time>2020-08-29T16:37:27.000Z</time>
      </trkpt>
      <trkpt lat="47.1202" lon="-1.65525">
        <ele>4.4000000953674</ele>
        <time>2020-08-29T16:37:31.000Z</time>
      </trkpt>
      <trkpt lat="47.12008" lon="-1.65535">
        <ele>4.1999998092651</ele>
        <time>2020-08-29T16:37:34.000Z</time>
      </trkpt>
      <trkpt lat="47.11997" lon="-1.65551">
        <ele>4</ele>
        <time>2020-08-29T16:37:38.000Z</time>
      </trkpt>
      <trkpt lat="47.11989" lon="-1.65566">
        <ele>3.7999999523163</ele>
        <time>2020-08-29T16:37:42.000Z</time>
      </trkpt>
      <trkpt lat="47.11987" lon="-1.65568">
        <ele>3.5999999046326</ele>
        <time>2020-08-29T16:37:43.000Z</time>
      </trkpt>
      <trkpt lat="47.11984" lon="-1.6557">
        <ele>3.4000000953674</ele>
        <time>2020-08-29T16:37:47.000Z</time>
      </trkpt>
      <trkpt lat="47.11984" lon="-1.6557">
        <ele>3.4000000953674</ele>
        <time>2020-08-29T16:37:52.000Z</time>
      </trkpt>
      <trkpt lat="47.11984" lon="-1.6557">
        <ele>3.4000000953674</ele>
        <time>2020-08-29T16:37:55.000Z</time>
      </trkpt>
      <trkpt lat="47.11984" lon="-1.65571">
        <ele>3.4000000953674</ele>
        <time>2020-08-29T16:37:58.000Z</time>
      </trkpt>
      <trkpt lat="47.11984" lon="-1.65571">
        <ele>3.4000000953674</ele>
        <time>2020-08-29T16:37:59.000Z</time>
      </trkpt>
      <trkpt lat="47.11984" lon="-1.65571">
        <ele>3.4000000953674</ele>
        <time>2020-08-29T16:38:01.000Z</time>
      </trkpt>
      <trkpt lat="47.11983" lon="-1.65569">
        <ele>3.4000000953674</ele>
        <time>2020-08-29T16:38:04.000Z</time>
      </trkpt>
      <trkpt lat="47.11978" lon="-1.6557">
        <ele>3</ele>
        <time>2020-08-29T16:38:09.000Z</time>
      </trkpt>
      <trkpt lat="47.11976" lon="-1.65572">
        <ele>3</ele>
        <time>2020-08-29T16:38:11.000Z</time>
      </trkpt>
      <trkpt lat="47.11975" lon="-1.65574">
        <ele>2.7999999523163</ele>
        <time>2020-08-29T16:38:14.000Z</time>
      </trkpt>
      <trkpt lat="47.11973" lon="-1.65576">
        <ele>2.7999999523163</ele>
        <time>2020-08-29T16:38:17.000Z</time>
      </trkpt>
      <trkpt lat="47.11972" lon="-1.65578">
        <ele>2.5999999046326</ele>
        <time>2020-08-29T16:38:20.000Z</time>
      </trkpt>
      <trkpt lat="47.11971" lon="-1.65579">
        <ele>2.5999999046326</ele>
        <time>2020-08-29T16:38:25.000Z</time>
      </trkpt>
      <trkpt lat="47.11971" lon="-1.65581">
        <ele>2.5999999046326</ele>
        <time>2020-08-29T16:38:29.000Z</time>
      </trkpt>
      <trkpt lat="47.11971" lon="-1.65581">
        <ele>2.5999999046326</ele>
        <time>2020-08-29T16:38:32.000Z</time>
      </trkpt>
      <trkpt lat="47.11971" lon="-1.65581">
        <ele>2.5999999046326</ele>
        <time>2020-08-29T16:38:34.000Z</time>
      </trkpt>
      <trkpt lat="47.11971" lon="-1.65581">
        <ele>2.5999999046326</ele>
        <time>2020-08-29T16:38:35.000Z</time>
      </trkpt>
      <trkpt lat="47.11971" lon="-1.65581">
        <ele>2.5999999046326</ele>
        <time>2020-08-29T16:38:37.000Z</time>
      </trkpt>
      <trkpt lat="47.11971" lon="-1.65581">
        <ele>2.5999999046326</ele>
        <time>2020-08-29T16:38:40.000Z</time>
      </trkpt>
      <trkpt lat="47.11971" lon="-1.65581">
        <ele>2.5999999046326</ele>
        <time>2020-08-29T16:38:43.000Z</time>
      </trkpt>
      <trkpt lat="47.11971" lon="-1.65581">
        <ele>2.5999999046326</ele>
        <time>2020-08-29T16:38:45.000Z</time>
      </trkpt>
      <trkpt lat="47.11971" lon="-1.65581">
        <ele>2.5999999046326</ele>
        <time>2020-08-29T16:38:47.000Z</time>
      </trkpt>
      <trkpt lat="47.11971" lon="-1.65581">
        <ele>2.5999999046326</ele>
        <time>2020-08-29T16:38:53.000Z</time>
      </trkpt>
      <trkpt lat="47.11971" lon="-1.65581">
        <ele>2.5999999046326</ele>
        <time>2020-08-29T16:38:54.000Z</time>
      </trkpt>
      <trkpt lat="47.11971" lon="-1.65581">
        <ele>2.5999999046326</ele>
        <time>2020-08-29T16:38:57.000Z</time>
      </trkpt>
      <trkpt lat="47.11971" lon="-1.65581">
        <ele>2.5999999046326</ele>
        <time>2020-08-29T16:39:02.000Z</time>
      </trkpt>
      <trkpt lat="47.11972" lon="-1.65581">
        <ele>2.5999999046326</ele>
        <time>2020-08-29T16:39:06.000Z</time>
      </trkpt>
      <trkpt lat="47.11971" lon="-1.65582">
        <ele>2.5999999046326</ele>
        <time>2020-08-29T16:39:15.000Z</time>
      </trkpt>
      <trkpt lat="47.11971" lon="-1.65581">
        <ele>2.5999999046326</ele>
        <time>2020-08-29T16:39:21.000Z</time>
      </trkpt>
      <trkpt lat="47.11971" lon="-1.6558">
        <ele>2.5999999046326</ele>
        <time>2020-08-29T16:39:25.000Z</time>
      </trkpt>
      <trkpt lat="47.11971" lon="-1.65579">
        <ele>2.5999999046326</ele>
        <time>2020-08-29T16:39:31.000Z</time>
      </trkpt>
      <trkpt lat="47.11972" lon="-1.65579">
        <ele>2.5999999046326</ele>
        <time>2020-08-29T16:39:35.000Z</time>
      </trkpt>
      <trkpt lat="47.11972" lon="-1.65579">
        <ele>2.5999999046326</ele>
        <time>2020-08-29T16:39:45.000Z</time>
      </trkpt>
      <trkpt lat="47.11972" lon="-1.65579">
        <ele>2.5999999046326</ele>
        <time>2020-08-29T16:39:47.000Z</time>
      </trkpt>
      <trkpt lat="47.11972" lon="-1.65579">
        <ele>2.5999999046326</ele>
        <time>2020-08-29T16:39:53.000Z</time>
      </trkpt>
      <trkpt lat="47.11972" lon="-1.65579">
        <ele>2.5999999046326</ele>
        <time>2020-08-29T16:39:55.000Z</time>
      </trkpt>
      <trkpt lat="47.11971" lon="-1.65579">
        <ele>2.5999999046326</ele>
        <time>2020-08-29T16:40:03.000Z</time>
      </trkpt>
      <trkpt lat="47.11971" lon="-1.65579">
        <ele>2.5999999046326</ele>
        <time>2020-08-29T16:40:04.000Z</time>
      </trkpt>
      <trkpt lat="47.11972" lon="-1.65579">
        <ele>2.5999999046326</ele>
        <time>2020-08-29T16:40:15.000Z</time>
      </trkpt>
      <trkpt lat="47.11971" lon="-1.65579">
        <ele>2.5999999046326</ele>
        <time>2020-08-29T16:40:25.000Z</time>
      </trkpt>
      <trkpt lat="47.11971" lon="-1.65579">
        <ele>2.5999999046326</ele>
        <time>2020-08-29T16:40:26.000Z</time>
      </trkpt>
      <trkpt lat="47.11971" lon="-1.65586">
        <ele>2.5999999046326</ele>
        <time>2020-08-29T16:40:31.000Z</time>
      </trkpt>
      <trkpt lat="47.11971" lon="-1.65587">
        <ele>2.5999999046326</ele>
        <time>2020-08-29T16:40:32.000Z</time>
      </trkpt>
      <trkpt lat="47.11972" lon="-1.65591">
        <ele>2.5999999046326</ele>
        <time>2020-08-29T16:40:35.000Z</time>
      </trkpt>
      <trkpt lat="47.11972" lon="-1.65593">
        <ele>2.5999999046326</ele>
        <time>2020-08-29T16:40:37.000Z</time>
      </trkpt>
      <trkpt lat="47.11972" lon="-1.65594">
        <ele>2.5999999046326</ele>
        <time>2020-08-29T16:40:38.000Z</time>
      </trkpt>
      <trkpt lat="47.11972" lon="-1.65594">
        <ele>2.5999999046326</ele>
        <time>2020-08-29T16:40:40.000Z</time>
      </trkpt>
      <trkpt lat="47.11972" lon="-1.65594">
        <ele>2.4000000953674</ele>
        <time>2020-08-29T16:40:43.000Z</time>
      </trkpt>
      <trkpt lat="47.11972" lon="-1.65595">
        <ele>2.4000000953674</ele>
        <time>2020-08-29T16:40:55.000Z</time>
      </trkpt>
      <trkpt lat="47.11972" lon="-1.65596">
        <ele>2.4000000953674</ele>
        <time>2020-08-29T16:40:59.000Z</time>
      </trkpt>
      <trkpt lat="47.11972" lon="-1.65595">
        <ele>2.4000000953674</ele>
        <time>2020-08-29T16:41:03.000Z</time>
      </trkpt>
      <trkpt lat="47.11973" lon="-1.65594">
        <ele>2.4000000953674</ele>
        <time>2020-08-29T16:41:04.000Z</time>
      </trkpt>
      <trkpt lat="47.11972" lon="-1.65591">
        <ele>2.7999999523163</ele>
        <time>2020-08-29T16:41:08.000Z</time>
      </trkpt>
      <trkpt lat="47.11972" lon="-1.65584">
        <ele>2.5999999046326</ele>
        <time>2020-08-29T16:41:14.000Z</time>
      </trkpt>
      <trkpt lat="47.11973" lon="-1.65581">
        <ele>2.7999999523163</ele>
        <time>2020-08-29T16:41:16.000Z</time>
      </trkpt>
      <trkpt lat="47.11974" lon="-1.6558">
        <ele>2.7999999523163</ele>
        <time>2020-08-29T16:41:17.000Z</time>
      </trkpt>
      <trkpt lat="47.11978" lon="-1.65576">
        <ele>3</ele>
        <time>2020-08-29T16:41:22.000Z</time>
      </trkpt>
      <trkpt lat="47.11984" lon="-1.65575">
        <ele>3.4000000953674</ele>
        <time>2020-08-29T16:41:29.000Z</time>
      </trkpt>
      <trkpt lat="47.11984" lon="-1.65576">
        <ele>3.4000000953674</ele>
        <time>2020-08-29T16:41:30.000Z</time>
      </trkpt>
      <trkpt lat="47.11983" lon="-1.65577">
        <ele>3.4000000953674</ele>
        <time>2020-08-29T16:41:34.000Z</time>
      </trkpt>
      <trkpt lat="47.12043" lon="-1.65622">
        <ele>2.4000000953674</ele>
        <time>2020-08-29T16:42:54.000Z</time>
      </trkpt>
      <trkpt lat="47.12042" lon="-1.65618">
        <ele>2.4000000953674</ele>
        <time>2020-08-29T16:42:55.000Z</time>
      </trkpt>
      <trkpt lat="47.12043" lon="-1.65601">
        <ele>2.7999999523163</ele>
        <time>2020-08-29T16:42:59.000Z</time>
      </trkpt>
      <trkpt lat="47.12043" lon="-1.65585">
        <ele>3.5999999046326</ele>
        <time>2020-08-29T16:43:02.000Z</time>
      </trkpt>
      <trkpt lat="47.12043" lon="-1.65573">
        <ele>4.4000000953674</ele>
        <time>2020-08-29T16:43:04.000Z</time>
      </trkpt>
      <trkpt lat="47.12048" lon="-1.65556">
        <ele>4.5999999046326</ele>
        <time>2020-08-29T16:43:07.000Z</time>
      </trkpt>
      <trkpt lat="47.1205" lon="-1.65544">
        <ele>4.5999999046326</ele>
        <time>2020-08-29T16:43:09.000Z</time>
      </trkpt>
      <trkpt lat="47.12049" lon="-1.65531">
        <ele>4.5999999046326</ele>
        <time>2020-08-29T16:43:11.000Z</time>
      </trkpt>
      <trkpt lat="47.12049" lon="-1.65525">
        <ele>4.5999999046326</ele>
        <time>2020-08-29T16:43:12.000Z</time>
      </trkpt>
      <trkpt lat="47.12052" lon="-1.65504">
        <ele>4.5999999046326</ele>
        <time>2020-08-29T16:43:16.000Z</time>
      </trkpt>
      <trkpt lat="47.12068" lon="-1.65485">
        <ele>4.8000001907349</ele>
        <time>2020-08-29T16:43:21.000Z</time>
      </trkpt>
      <trkpt lat="47.12092" lon="-1.65454">
        <ele>5</ele>
        <time>2020-08-29T16:43:28.000Z</time>
      </trkpt>
      <trkpt lat="47.12095" lon="-1.6545">
        <ele>5</ele>
        <time>2020-08-29T16:43:29.000Z</time>
      </trkpt>
      <trkpt lat="47.12105" lon="-1.65435">
        <ele>5</ele>
        <time>2020-08-29T16:43:32.000Z</time>
      </trkpt>
      <trkpt lat="47.12118" lon="-1.65415">
        <ele>5</ele>
        <time>2020-08-29T16:43:36.000Z</time>
      </trkpt>
      <trkpt lat="47.12125" lon="-1.65404">
        <ele>5</ele>
        <time>2020-08-29T16:43:38.000Z</time>
      </trkpt>
      <trkpt lat="47.12152" lon="-1.65365">
        <ele>5.4000000953674</ele>
        <time>2020-08-29T16:43:46.000Z</time>
      </trkpt>
      <trkpt lat="47.12162" lon="-1.6535">
        <ele>5.5999999046326</ele>
        <time>2020-08-29T16:43:49.000Z</time>
      </trkpt>
      <trkpt lat="47.12176" lon="-1.65331">
        <ele>5.8000001907349</ele>
        <time>2020-08-29T16:43:53.000Z</time>
      </trkpt>
      <trkpt lat="47.12197" lon="-1.65305">
        <ele>6.4000000953674</ele>
        <time>2020-08-29T16:43:59.000Z</time>
      </trkpt>
      <trkpt lat="47.12205" lon="-1.65299">
        <ele>6.4000000953674</ele>
        <time>2020-08-29T16:44:01.000Z</time>
      </trkpt>
      <trkpt lat="47.12213" lon="-1.65293">
        <ele>6.5999999046326</ele>
        <time>2020-08-29T16:44:04.000Z</time>
      </trkpt>
      <trkpt lat="47.12216" lon="-1.65293">
        <ele>6.5999999046326</ele>
        <time>2020-08-29T16:44:05.000Z</time>
      </trkpt>
      <trkpt lat="47.12222" lon="-1.65299">
        <ele>6.4000000953674</ele>
        <time>2020-08-29T16:44:07.000Z</time>
      </trkpt>
      <trkpt lat="47.12227" lon="-1.65308">
        <ele>6.1999998092651</ele>
        <time>2020-08-29T16:44:09.000Z</time>
      </trkpt>
      <trkpt lat="47.12233" lon="-1.65326">
        <ele>6</ele>
        <time>2020-08-29T16:44:12.000Z</time>
      </trkpt>
      <trkpt lat="47.12239" lon="-1.65345">
        <ele>6</ele>
        <time>2020-08-29T16:44:15.000Z</time>
      </trkpt>
      <trkpt lat="47.12244" lon="-1.65357">
        <ele>6</ele>
        <time>2020-08-29T16:44:17.000Z</time>
      </trkpt>
      <trkpt lat="47.12246" lon="-1.65362">
        <ele>6</ele>
        <time>2020-08-29T16:44:18.000Z</time>
      </trkpt>
      <trkpt lat="47.12248" lon="-1.65368">
        <ele>6</ele>
        <time>2020-08-29T16:44:19.000Z</time>
      </trkpt>
      <trkpt lat="47.12253" lon="-1.65378">
        <ele>5.8000001907349</ele>
        <time>2020-08-29T16:44:21.000Z</time>
      </trkpt>
      <trkpt lat="47.12269" lon="-1.6541">
        <ele>5.1999998092651</ele>
        <time>2020-08-29T16:44:27.000Z</time>
      </trkpt>
      <trkpt lat="47.12283" lon="-1.65432">
        <ele>4.8000001907349</ele>
        <time>2020-08-29T16:44:31.000Z</time>
      </trkpt>
      <trkpt lat="47.1229" lon="-1.65442">
        <ele>4.4000000953674</ele>
        <time>2020-08-29T16:44:33.000Z</time>
      </trkpt>
      <trkpt lat="47.12303" lon="-1.65457">
        <ele>4.1999998092651</ele>
        <time>2020-08-29T16:44:36.000Z</time>
      </trkpt>
      <trkpt lat="47.12322" lon="-1.6548">
        <ele>4</ele>
        <time>2020-08-29T16:44:40.000Z</time>
      </trkpt>
      <trkpt lat="47.12325" lon="-1.65485">
        <ele>4</ele>
        <time>2020-08-29T16:44:41.000Z</time>
      </trkpt>
      <trkpt lat="47.12337" lon="-1.65502">
        <ele>4.4000000953674</ele>
        <time>2020-08-29T16:44:44.000Z</time>
      </trkpt>
      <trkpt lat="47.12341" lon="-1.65508">
        <ele>4.5999999046326</ele>
        <time>2020-08-29T16:44:45.000Z</time>
      </trkpt>
      <trkpt lat="47.12344" lon="-1.65514">
        <ele>4.8000001907349</ele>
        <time>2020-08-29T16:44:46.000Z</time>
      </trkpt>
      <trkpt lat="47.12348" lon="-1.6552">
        <ele>5</ele>
        <time>2020-08-29T16:44:47.000Z</time>
      </trkpt>
      <trkpt lat="47.12355" lon="-1.65533">
        <ele>5.4000000953674</ele>
        <time>2020-08-29T16:44:49.000Z</time>
      </trkpt>
      <trkpt lat="47.12366" lon="-1.6555">
        <ele>5.8000001907349</ele>
        <time>2020-08-29T16:44:52.000Z</time>
      </trkpt>
      <trkpt lat="47.12374" lon="-1.65562">
        <ele>6.1999998092651</ele>
        <time>2020-08-29T16:44:54.000Z</time>
      </trkpt>
      <trkpt lat="47.12396" lon="-1.65585">
        <ele>6.4000000953674</ele>
        <time>2020-08-29T16:44:59.000Z</time>
      </trkpt>
      <trkpt lat="47.12405" lon="-1.6559">
        <ele>6.4000000953674</ele>
        <time>2020-08-29T16:45:01.000Z</time>
      </trkpt>
      <trkpt lat="47.1242" lon="-1.65594">
        <ele>6.1999998092651</ele>
        <time>2020-08-29T16:45:04.000Z</time>
      </trkpt>
      <trkpt lat="47.12425" lon="-1.65595">
        <ele>6.4000000953674</ele>
        <time>2020-08-29T16:45:05.000Z</time>
      </trkpt>
      <trkpt lat="47.12467" lon="-1.65603">
        <ele>6.4000000953674</ele>
        <time>2020-08-29T16:45:13.000Z</time>
      </trkpt>
      <trkpt lat="47.12473" lon="-1.65604">
        <ele>6.5999999046326</ele>
        <time>2020-08-29T16:45:14.000Z</time>
      </trkpt>
      <trkpt lat="47.12494" lon="-1.65608">
        <ele>7</ele>
        <time>2020-08-29T16:45:18.000Z</time>
      </trkpt>
      <trkpt lat="47.1251" lon="-1.65611">
        <ele>7.1999998092651</ele>
        <time>2020-08-29T16:45:21.000Z</time>
      </trkpt>
      <trkpt lat="47.12526" lon="-1.65615">
        <ele>7.4000000953674</ele>
        <time>2020-08-29T16:45:24.000Z</time>
      </trkpt>
      <trkpt lat="47.12542" lon="-1.65624">
        <ele>8.1999998092651</ele>
        <time>2020-08-29T16:45:27.000Z</time>
      </trkpt>
      <trkpt lat="47.12574" lon="-1.65656">
        <ele>10</ele>
        <time>2020-08-29T16:45:34.000Z</time>
      </trkpt>
      <trkpt lat="47.12595" lon="-1.65682">
        <ele>9</ele>
        <time>2020-08-29T16:45:39.000Z</time>
      </trkpt>
      <trkpt lat="47.12611" lon="-1.65702">
        <ele>8.3999996185303</ele>
        <time>2020-08-29T16:45:43.000Z</time>
      </trkpt>
      <trkpt lat="47.12614" lon="-1.65707">
        <ele>8.3999996185303</ele>
        <time>2020-08-29T16:45:44.000Z</time>
      </trkpt>
      <trkpt lat="47.12623" lon="-1.65724">
        <ele>8.6000003814697</ele>
        <time>2020-08-29T16:45:47.000Z</time>
      </trkpt>
      <trkpt lat="47.12629" lon="-1.65737">
        <ele>8.6000003814697</ele>
        <time>2020-08-29T16:45:49.000Z</time>
      </trkpt>
      <trkpt lat="47.12653" lon="-1.6578">
        <ele>9</ele>
        <time>2020-08-29T16:45:56.000Z</time>
      </trkpt>
      <trkpt lat="47.12667" lon="-1.65808">
        <ele>8.8000001907349</ele>
        <time>2020-08-29T16:46:00.000Z</time>
      </trkpt>
      <trkpt lat="47.12672" lon="-1.65822">
        <ele>9</ele>
        <time>2020-08-29T16:46:02.000Z</time>
      </trkpt>
      <trkpt lat="47.12674" lon="-1.65829">
        <ele>8.8000001907349</ele>
        <time>2020-08-29T16:46:03.000Z</time>
      </trkpt>
      <trkpt lat="47.12678" lon="-1.65852">
        <ele>8.6000003814697</ele>
        <time>2020-08-29T16:46:06.000Z</time>
      </trkpt>
      <trkpt lat="47.1268" lon="-1.65867">
        <ele>8.3999996185303</ele>
        <time>2020-08-29T16:46:08.000Z</time>
      </trkpt>
      <trkpt lat="47.12692" lon="-1.65927">
        <ele>9.3999996185303</ele>
        <time>2020-08-29T16:46:16.000Z</time>
      </trkpt>
      <trkpt lat="47.12696" lon="-1.65943">
        <ele>9.8000001907349</ele>
        <time>2020-08-29T16:46:18.000Z</time>
      </trkpt>
      <trkpt lat="47.12703" lon="-1.65981">
        <ele>9.6000003814697</ele>
        <time>2020-08-29T16:46:23.000Z</time>
      </trkpt>
      <trkpt lat="47.12709" lon="-1.66005">
        <ele>9.6000003814697</ele>
        <time>2020-08-29T16:46:26.000Z</time>
      </trkpt>
      <trkpt lat="47.12713" lon="-1.66021">
        <ele>9.6000003814697</ele>
        <time>2020-08-29T16:46:28.000Z</time>
      </trkpt>
      <trkpt lat="47.12717" lon="-1.66045">
        <ele>9.6000003814697</ele>
        <time>2020-08-29T16:46:31.000Z</time>
      </trkpt>
      <trkpt lat="47.12717" lon="-1.66054">
        <ele>9.6000003814697</ele>
        <time>2020-08-29T16:46:32.000Z</time>
      </trkpt>
      <trkpt lat="47.12716" lon="-1.66063">
        <ele>9.6000003814697</ele>
        <time>2020-08-29T16:46:33.000Z</time>
      </trkpt>
      <trkpt lat="47.12714" lon="-1.66091">
        <ele>9.8000001907349</ele>
        <time>2020-08-29T16:46:36.000Z</time>
      </trkpt>
      <trkpt lat="47.1271" lon="-1.66108">
        <ele>10</ele>
        <time>2020-08-29T16:46:38.000Z</time>
      </trkpt>
      <trkpt lat="47.12699" lon="-1.66141">
        <ele>10.39999961853</ele>
        <time>2020-08-29T16:46:42.000Z</time>
      </trkpt>
      <trkpt lat="47.12688" lon="-1.66183">
        <ele>10.39999961853</ele>
        <time>2020-08-29T16:46:48.000Z</time>
      </trkpt>
      <trkpt lat="47.12688" lon="-1.6619">
        <ele>10.39999961853</ele>
        <time>2020-08-29T16:46:49.000Z</time>
      </trkpt>
      <trkpt lat="47.12689" lon="-1.66238">
        <ele>10</ele>
        <time>2020-08-29T16:46:56.000Z</time>
      </trkpt>
      <trkpt lat="47.12695" lon="-1.66272">
        <ele>9.1999998092651</ele>
        <time>2020-08-29T16:47:01.000Z</time>
      </trkpt>
      <trkpt lat="47.12697" lon="-1.66286">
        <ele>8.8000001907349</ele>
        <time>2020-08-29T16:47:03.000Z</time>
      </trkpt>
      <trkpt lat="47.12699" lon="-1.66301">
        <ele>9</ele>
        <time>2020-08-29T16:47:05.000Z</time>
      </trkpt>
      <trkpt lat="47.12701" lon="-1.66309">
        <ele>9</ele>
        <time>2020-08-29T16:47:06.000Z</time>
      </trkpt>
      <trkpt lat="47.12707" lon="-1.66333">
        <ele>9</ele>
        <time>2020-08-29T16:47:09.000Z</time>
      </trkpt>
      <trkpt lat="47.12708" lon="-1.66341">
        <ele>8.8000001907349</ele>
        <time>2020-08-29T16:47:10.000Z</time>
      </trkpt>
      <trkpt lat="47.12711" lon="-1.66357">
        <ele>8.8000001907349</ele>
        <time>2020-08-29T16:47:12.000Z</time>
      </trkpt>
      <trkpt lat="47.12714" lon="-1.66391">
        <ele>8.3999996185303</ele>
        <time>2020-08-29T16:47:16.000Z</time>
      </trkpt>
      <trkpt lat="47.12714" lon="-1.664">
        <ele>8.3999996185303</ele>
        <time>2020-08-29T16:47:17.000Z</time>
      </trkpt>
      <trkpt lat="47.12715" lon="-1.66419">
        <ele>8.3999996185303</ele>
        <time>2020-08-29T16:47:19.000Z</time>
      </trkpt>
      <trkpt lat="47.12717" lon="-1.66444">
        <ele>8.3999996185303</ele>
        <time>2020-08-29T16:47:22.000Z</time>
      </trkpt>
      <trkpt lat="47.12719" lon="-1.6646">
        <ele>8.3999996185303</ele>
        <time>2020-08-29T16:47:24.000Z</time>
      </trkpt>
      <trkpt lat="47.12727" lon="-1.66481">
        <ele>8</ele>
        <time>2020-08-29T16:47:27.000Z</time>
      </trkpt>
      <trkpt lat="47.12733" lon="-1.66495">
        <ele>8</ele>
        <time>2020-08-29T16:47:29.000Z</time>
      </trkpt>
      <trkpt lat="47.12736" lon="-1.66501">
        <ele>8</ele>
        <time>2020-08-29T16:47:30.000Z</time>
      </trkpt>
      <trkpt lat="47.12749" lon="-1.66527">
        <ele>8.3999996185303</ele>
        <time>2020-08-29T16:47:34.000Z</time>
      </trkpt>
      <trkpt lat="47.12755" lon="-1.66538">
        <ele>8.3999996185303</ele>
        <time>2020-08-29T16:47:36.000Z</time>
      </trkpt>
      <trkpt lat="47.12781" lon="-1.66579">
        <ele>8</ele>
        <time>2020-08-29T16:47:43.000Z</time>
      </trkpt>
      <trkpt lat="47.1279" lon="-1.6659">
        <ele>7.5999999046326</ele>
        <time>2020-08-29T16:47:45.000Z</time>
      </trkpt>
      <trkpt lat="47.128" lon="-1.666">
        <ele>7.1999998092651</ele>
        <time>2020-08-29T16:47:47.000Z</time>
      </trkpt>
      <trkpt lat="47.12809" lon="-1.66608">
        <ele>7</ele>
        <time>2020-08-29T16:47:49.000Z</time>
      </trkpt>
      <trkpt lat="47.12814" lon="-1.66612">
        <ele>6.8000001907349</ele>
        <time>2020-08-29T16:47:50.000Z</time>
      </trkpt>
      <trkpt lat="47.12842" lon="-1.66631">
        <ele>5.8000001907349</ele>
        <time>2020-08-29T16:47:56.000Z</time>
      </trkpt>
      <trkpt lat="47.12847" lon="-1.66635">
        <ele>5.8000001907349</ele>
        <time>2020-08-29T16:47:57.000Z</time>
      </trkpt>
      <trkpt lat="47.12871" lon="-1.6665">
        <ele>5.4000000953674</ele>
        <time>2020-08-29T16:48:02.000Z</time>
      </trkpt>
      <trkpt lat="47.12882" lon="-1.66656">
        <ele>5.1999998092651</ele>
        <time>2020-08-29T16:48:04.000Z</time>
      </trkpt>
      <trkpt lat="47.12912" lon="-1.66671">
        <ele>5</ele>
        <time>2020-08-29T16:48:10.000Z</time>
      </trkpt>
      <trkpt lat="47.12917" lon="-1.66674">
        <ele>5</ele>
        <time>2020-08-29T16:48:11.000Z</time>
      </trkpt>
      <trkpt lat="47.12921" lon="-1.66677">
        <ele>5.1999998092651</ele>
        <time>2020-08-29T16:48:12.000Z</time>
      </trkpt>
      <trkpt lat="47.12926" lon="-1.6668">
        <ele>5.1999998092651</ele>
        <time>2020-08-29T16:48:13.000Z</time>
      </trkpt>
      <trkpt lat="47.12932" lon="-1.66683">
        <ele>5.1999998092651</ele>
        <time>2020-08-29T16:48:14.000Z</time>
      </trkpt>
      <trkpt lat="47.12937" lon="-1.66685">
        <ele>5.4000000953674</ele>
        <time>2020-08-29T16:48:15.000Z</time>
      </trkpt>
      <trkpt lat="47.12942" lon="-1.66687">
        <ele>5.4000000953674</ele>
        <time>2020-08-29T16:48:16.000Z</time>
      </trkpt>
      <trkpt lat="47.12947" lon="-1.6669">
        <ele>5.4000000953674</ele>
        <time>2020-08-29T16:48:17.000Z</time>
      </trkpt>
      <trkpt lat="47.12952" lon="-1.66693">
        <ele>5.4000000953674</ele>
        <time>2020-08-29T16:48:18.000Z</time>
      </trkpt>
      <trkpt lat="47.12957" lon="-1.66695">
        <ele>5.5999999046326</ele>
        <time>2020-08-29T16:48:19.000Z</time>
      </trkpt>
      <trkpt lat="47.12962" lon="-1.66698">
        <ele>6</ele>
        <time>2020-08-29T16:48:20.000Z</time>
      </trkpt>
      <trkpt lat="47.12972" lon="-1.66703">
        <ele>6.4000000953674</ele>
        <time>2020-08-29T16:48:22.000Z</time>
      </trkpt>
      <trkpt lat="47.12977" lon="-1.66706">
        <ele>6.5999999046326</ele>
        <time>2020-08-29T16:48:23.000Z</time>
      </trkpt>
      <trkpt lat="47.12986" lon="-1.66713">
        <ele>7.1999998092651</ele>
        <time>2020-08-29T16:48:25.000Z</time>
      </trkpt>
      <trkpt lat="47.12995" lon="-1.6672">
        <ele>7.5999999046326</ele>
        <time>2020-08-29T16:48:27.000Z</time>
      </trkpt>
      <trkpt lat="47.13" lon="-1.66724">
        <ele>7.8000001907349</ele>
        <time>2020-08-29T16:48:28.000Z</time>
      </trkpt>
      <trkpt lat="47.13019" lon="-1.66739">
        <ele>7.8000001907349</ele>
        <time>2020-08-29T16:48:32.000Z</time>
      </trkpt>
      <trkpt lat="47.13023" lon="-1.66743">
        <ele>7.5999999046326</ele>
        <time>2020-08-29T16:48:33.000Z</time>
      </trkpt>
      <trkpt lat="47.13049" lon="-1.6677">
        <ele>7.4000000953674</ele>
        <time>2020-08-29T16:48:39.000Z</time>
      </trkpt>
      <trkpt lat="47.13054" lon="-1.66774">
        <ele>7.4000000953674</ele>
        <time>2020-08-29T16:48:40.000Z</time>
      </trkpt>
      <trkpt lat="47.13062" lon="-1.66782">
        <ele>7.5999999046326</ele>
        <time>2020-08-29T16:48:42.000Z</time>
      </trkpt>
      <trkpt lat="47.1308" lon="-1.66801">
        <ele>7.8000001907349</ele>
        <time>2020-08-29T16:48:46.000Z</time>
      </trkpt>
      <trkpt lat="47.13123" lon="-1.66841">
        <ele>9.8000001907349</ele>
        <time>2020-08-29T16:48:55.000Z</time>
      </trkpt>
      <trkpt lat="47.13158" lon="-1.66877">
        <ele>11</ele>
        <time>2020-08-29T16:49:03.000Z</time>
      </trkpt>
      <trkpt lat="47.13197" lon="-1.66916">
        <ele>9.1999998092651</ele>
        <time>2020-08-29T16:49:12.000Z</time>
      </trkpt>
      <trkpt lat="47.13223" lon="-1.66944">
        <ele>8.1999998092651</ele>
        <time>2020-08-29T16:49:18.000Z</time>
      </trkpt>
      <trkpt lat="47.13237" lon="-1.66959">
        <ele>8</ele>
        <time>2020-08-29T16:49:21.000Z</time>
      </trkpt>
      <trkpt lat="47.13271" lon="-1.66997">
        <ele>7.5999999046326</ele>
        <time>2020-08-29T16:49:28.000Z</time>
      </trkpt>
      <trkpt lat="47.13314" lon="-1.67041">
        <ele>7.1999998092651</ele>
        <time>2020-08-29T16:49:37.000Z</time>
      </trkpt>
      <trkpt lat="47.13355" lon="-1.67076">
        <ele>6.4000000953674</ele>
        <time>2020-08-29T16:49:45.000Z</time>
      </trkpt>
      <trkpt lat="47.1336" lon="-1.6708">
        <ele>6.1999998092651</ele>
        <time>2020-08-29T16:49:46.000Z</time>
      </trkpt>
      <trkpt lat="47.13383" lon="-1.67099">
        <ele>5.8000001907349</ele>
        <time>2020-08-29T16:49:51.000Z</time>
      </trkpt>
      <trkpt lat="47.13393" lon="-1.67107">
        <ele>6.1999998092651</ele>
        <time>2020-08-29T16:49:53.000Z</time>
      </trkpt>
      <trkpt lat="47.13436" lon="-1.6715">
        <ele>7.1999998092651</ele>
        <time>2020-08-29T16:50:03.000Z</time>
      </trkpt>
      <trkpt lat="47.13464" lon="-1.67181">
        <ele>6</ele>
        <time>2020-08-29T16:50:10.000Z</time>
      </trkpt>
      <trkpt lat="47.13472" lon="-1.67188">
        <ele>5.8000001907349</ele>
        <time>2020-08-29T16:50:12.000Z</time>
      </trkpt>
      <trkpt lat="47.13485" lon="-1.67205">
        <ele>5.4000000953674</ele>
        <time>2020-08-29T16:50:16.000Z</time>
      </trkpt>
      <trkpt lat="47.13488" lon="-1.6721">
        <ele>5.1999998092651</ele>
        <time>2020-08-29T16:50:17.000Z</time>
      </trkpt>
      <trkpt lat="47.135" lon="-1.67231">
        <ele>5.1999998092651</ele>
        <time>2020-08-29T16:50:21.000Z</time>
      </trkpt>
      <trkpt lat="47.13505" lon="-1.67235">
        <ele>5.1999998092651</ele>
        <time>2020-08-29T16:50:22.000Z</time>
      </trkpt>
      <trkpt lat="47.13525" lon="-1.67253">
        <ele>5.4000000953674</ele>
        <time>2020-08-29T16:50:27.000Z</time>
      </trkpt>
      <trkpt lat="47.13534" lon="-1.67256">
        <ele>5.4000000953674</ele>
        <time>2020-08-29T16:50:29.000Z</time>
      </trkpt>
      <trkpt lat="47.13551" lon="-1.67262">
        <ele>5.5999999046326</ele>
        <time>2020-08-29T16:50:33.000Z</time>
      </trkpt>
      <trkpt lat="47.13555" lon="-1.67264">
        <ele>5.8000001907349</ele>
        <time>2020-08-29T16:50:34.000Z</time>
      </trkpt>
      <trkpt lat="47.13574" lon="-1.67273">
        <ele>6.8000001907349</ele>
        <time>2020-08-29T16:50:39.000Z</time>
      </trkpt>
      <trkpt lat="47.13581" lon="-1.67276">
        <ele>7</ele>
        <time>2020-08-29T16:50:41.000Z</time>
      </trkpt>
      <trkpt lat="47.13584" lon="-1.67277">
        <ele>7</ele>
        <time>2020-08-29T16:50:42.000Z</time>
      </trkpt>
      <trkpt lat="47.13593" lon="-1.67282">
        <ele>7.1999998092651</ele>
        <time>2020-08-29T16:50:45.000Z</time>
      </trkpt>
      <trkpt lat="47.13595" lon="-1.67284">
        <ele>7.4000000953674</ele>
        <time>2020-08-29T16:50:46.000Z</time>
      </trkpt>
      <trkpt lat="47.13597" lon="-1.67286">
        <ele>7.4000000953674</ele>
        <time>2020-08-29T16:50:47.000Z</time>
      </trkpt>
      <trkpt lat="47.13606" lon="-1.67288">
        <ele>7.5999999046326</ele>
        <time>2020-08-29T16:50:50.000Z</time>
      </trkpt>
      <trkpt lat="47.13626" lon="-1.67297">
        <ele>7.8000001907349</ele>
        <time>2020-08-29T16:50:56.000Z</time>
      </trkpt>
      <trkpt lat="47.1363" lon="-1.67299">
        <ele>7.8000001907349</ele>
        <time>2020-08-29T16:50:57.000Z</time>
      </trkpt>
      <trkpt lat="47.13657" lon="-1.6731">
        <ele>7.8000001907349</ele>
        <time>2020-08-29T16:51:04.000Z</time>
      </trkpt>
      <trkpt lat="47.13665" lon="-1.67313">
        <ele>8</ele>
        <time>2020-08-29T16:51:06.000Z</time>
      </trkpt>
      <trkpt lat="47.13673" lon="-1.67316">
        <ele>8</ele>
        <time>2020-08-29T16:51:08.000Z</time>
      </trkpt>
      <trkpt lat="47.13686" lon="-1.67321">
        <ele>8</ele>
        <time>2020-08-29T16:51:11.000Z</time>
      </trkpt>
      <trkpt lat="47.13718" lon="-1.67332">
        <ele>7.8000001907349</ele>
        <time>2020-08-29T16:51:18.000Z</time>
      </trkpt>
      <trkpt lat="47.13726" lon="-1.67331">
        <ele>7.8000001907349</ele>
        <time>2020-08-29T16:51:20.000Z</time>
      </trkpt>
      <trkpt lat="47.13738" lon="-1.67325">
        <ele>8</ele>
        <time>2020-08-29T16:51:23.000Z</time>
      </trkpt>
      <trkpt lat="47.13753" lon="-1.67325">
        <ele>8.1999998092651</ele>
        <time>2020-08-29T16:51:27.000Z</time>
      </trkpt>
      <trkpt lat="47.13756" lon="-1.67328">
        <ele>8.1999998092651</ele>
        <time>2020-08-29T16:51:28.000Z</time>
      </trkpt>
      <trkpt lat="47.13759" lon="-1.6734">
        <ele>8.3999996185303</ele>
        <time>2020-08-29T16:51:30.000Z</time>
      </trkpt>
      <trkpt lat="47.13762" lon="-1.67362">
        <ele>8.3999996185303</ele>
        <time>2020-08-29T16:51:33.000Z</time>
      </trkpt>
      <trkpt lat="47.13764" lon="-1.67377">
        <ele>8.3999996185303</ele>
        <time>2020-08-29T16:51:35.000Z</time>
      </trkpt>
      <trkpt lat="47.13766" lon="-1.67422">
        <ele>8.8000001907349</ele>
        <time>2020-08-29T16:51:41.000Z</time>
      </trkpt>
      <trkpt lat="47.13765" lon="-1.67444">
        <ele>8.8000001907349</ele>
        <time>2020-08-29T16:51:44.000Z</time>
      </trkpt>
      <trkpt lat="47.13762" lon="-1.67468">
        <ele>8.6000003814697</ele>
        <time>2020-08-29T16:51:47.000Z</time>
      </trkpt>
      <trkpt lat="47.13753" lon="-1.67507">
        <ele>8.3999996185303</ele>
        <time>2020-08-29T16:51:52.000Z</time>
      </trkpt>
      <trkpt lat="47.13751" lon="-1.67514">
        <ele>8.1999998092651</ele>
        <time>2020-08-29T16:51:53.000Z</time>
      </trkpt>
      <trkpt lat="47.13746" lon="-1.67538">
        <ele>8</ele>
        <time>2020-08-29T16:51:56.000Z</time>
      </trkpt>
      <trkpt lat="47.13744" lon="-1.67554">
        <ele>8</ele>
        <time>2020-08-29T16:51:58.000Z</time>
      </trkpt>
      <trkpt lat="47.13744" lon="-1.67562">
        <ele>8</ele>
        <time>2020-08-29T16:51:59.000Z</time>
      </trkpt>
      <trkpt lat="47.13746" lon="-1.67601">
        <ele>8.8000001907349</ele>
        <time>2020-08-29T16:52:04.000Z</time>
      </trkpt>
      <trkpt lat="47.13747" lon="-1.67608">
        <ele>9</ele>
        <time>2020-08-29T16:52:05.000Z</time>
      </trkpt>
      <trkpt lat="47.13751" lon="-1.67653">
        <ele>10</ele>
        <time>2020-08-29T16:52:11.000Z</time>
      </trkpt>
      <trkpt lat="47.13753" lon="-1.67667">
        <ele>10</ele>
        <time>2020-08-29T16:52:13.000Z</time>
      </trkpt>
      <trkpt lat="47.13757" lon="-1.67703">
        <ele>10</ele>
        <time>2020-08-29T16:52:18.000Z</time>
      </trkpt>
      <trkpt lat="47.1376" lon="-1.67726">
        <ele>10</ele>
        <time>2020-08-29T16:52:21.000Z</time>
      </trkpt>
      <trkpt lat="47.13766" lon="-1.67779">
        <ele>9.1999998092651</ele>
        <time>2020-08-29T16:52:28.000Z</time>
      </trkpt>
      <trkpt lat="47.13769" lon="-1.67802">
        <ele>9</ele>
        <time>2020-08-29T16:52:31.000Z</time>
      </trkpt>
      <trkpt lat="47.13771" lon="-1.67817">
        <ele>9.1999998092651</ele>
        <time>2020-08-29T16:52:33.000Z</time>
      </trkpt>
      <trkpt lat="47.13777" lon="-1.67865">
        <ele>8.3999996185303</ele>
        <time>2020-08-29T16:52:39.000Z</time>
      </trkpt>
      <trkpt lat="47.13779" lon="-1.67881">
        <ele>8</ele>
        <time>2020-08-29T16:52:41.000Z</time>
      </trkpt>
      <trkpt lat="47.13781" lon="-1.67904">
        <ele>7.4000000953674</ele>
        <time>2020-08-29T16:52:44.000Z</time>
      </trkpt>
      <trkpt lat="47.13781" lon="-1.67912">
        <ele>7.4000000953674</ele>
        <time>2020-08-29T16:52:45.000Z</time>
      </trkpt>
      <trkpt lat="47.13784" lon="-1.67926">
        <ele>7.1999998092651</ele>
        <time>2020-08-29T16:52:47.000Z</time>
      </trkpt>
      <trkpt lat="47.1379" lon="-1.67936">
        <ele>7.1999998092651</ele>
        <time>2020-08-29T16:52:49.000Z</time>
      </trkpt>
      <trkpt lat="47.13802" lon="-1.67942">
        <ele>7.4000000953674</ele>
        <time>2020-08-29T16:52:52.000Z</time>
      </trkpt>
      <trkpt lat="47.13806" lon="-1.67945">
        <ele>7.4000000953674</ele>
        <time>2020-08-29T16:52:53.000Z</time>
      </trkpt>
      <trkpt lat="47.1381" lon="-1.6795">
        <ele>7.5999999046326</ele>
        <time>2020-08-29T16:52:54.000Z</time>
      </trkpt>
      <trkpt lat="47.13814" lon="-1.67963">
        <ele>7.5999999046326</ele>
        <time>2020-08-29T16:52:56.000Z</time>
      </trkpt>
      <trkpt lat="47.1382" lon="-1.68002">
        <ele>7.8000001907349</ele>
        <time>2020-08-29T16:53:01.000Z</time>
      </trkpt>
      <trkpt lat="47.13822" lon="-1.68009">
        <ele>7.8000001907349</ele>
        <time>2020-08-29T16:53:02.000Z</time>
      </trkpt>
      <trkpt lat="47.13838" lon="-1.68057">
        <ele>8.1999998092651</ele>
        <time>2020-08-29T16:53:09.000Z</time>
      </trkpt>
      <trkpt lat="47.13841" lon="-1.68063">
        <ele>8.3999996185303</ele>
        <time>2020-08-29T16:53:10.000Z</time>
      </trkpt>
      <trkpt lat="47.13847" lon="-1.68076">
        <ele>8.6000003814697</ele>
        <time>2020-08-29T16:53:12.000Z</time>
      </trkpt>
      <trkpt lat="47.13853" lon="-1.68089">
        <ele>8.8000001907349</ele>
        <time>2020-08-29T16:53:14.000Z</time>
      </trkpt>
      <trkpt lat="47.13859" lon="-1.68103">
        <ele>9.1999998092651</ele>
        <time>2020-08-29T16:53:16.000Z</time>
      </trkpt>
      <trkpt lat="47.13876" lon="-1.68142">
        <ele>9.1999998092651</ele>
        <time>2020-08-29T16:53:22.000Z</time>
      </trkpt>
      <trkpt lat="47.13881" lon="-1.68154">
        <ele>9</ele>
        <time>2020-08-29T16:53:24.000Z</time>
      </trkpt>
      <trkpt lat="47.13886" lon="-1.68167">
        <ele>8.8000001907349</ele>
        <time>2020-08-29T16:53:26.000Z</time>
      </trkpt>
      <trkpt lat="47.13892" lon="-1.68181">
        <ele>8.8000001907349</ele>
        <time>2020-08-29T16:53:28.000Z</time>
      </trkpt>
      <trkpt lat="47.139" lon="-1.68203">
        <ele>8.8000001907349</ele>
        <time>2020-08-29T16:53:31.000Z</time>
      </trkpt>
      <trkpt lat="47.13911" lon="-1.68231">
        <ele>9</ele>
        <time>2020-08-29T16:53:35.000Z</time>
      </trkpt>
      <trkpt lat="47.13919" lon="-1.68252">
        <ele>8.8000001907349</ele>
        <time>2020-08-29T16:53:38.000Z</time>
      </trkpt>
      <trkpt lat="47.13938" lon="-1.68297">
        <ele>8</ele>
        <time>2020-08-29T16:53:44.000Z</time>
      </trkpt>
      <trkpt lat="47.13941" lon="-1.68305">
        <ele>8</ele>
        <time>2020-08-29T16:53:45.000Z</time>
      </trkpt>
      <trkpt lat="47.13948" lon="-1.6832">
        <ele>8</ele>
        <time>2020-08-29T16:53:47.000Z</time>
      </trkpt>
      <trkpt lat="47.13959" lon="-1.68343">
        <ele>7.8000001907349</ele>
        <time>2020-08-29T16:53:50.000Z</time>
      </trkpt>
      <trkpt lat="47.13983" lon="-1.68401">
        <ele>7.8000001907349</ele>
        <time>2020-08-29T16:53:57.000Z</time>
      </trkpt>
      <trkpt lat="47.13991" lon="-1.68415">
        <ele>8</ele>
        <time>2020-08-29T16:53:59.000Z</time>
      </trkpt>
      <trkpt lat="47.14001" lon="-1.68432">
        <ele>8</ele>
        <time>2020-08-29T16:54:02.000Z</time>
      </trkpt>
      <trkpt lat="47.14008" lon="-1.68441">
        <ele>8</ele>
        <time>2020-08-29T16:54:04.000Z</time>
      </trkpt>
      <trkpt lat="47.14018" lon="-1.68455">
        <ele>8</ele>
        <time>2020-08-29T16:54:07.000Z</time>
      </trkpt>
      <trkpt lat="47.14025" lon="-1.68465">
        <ele>8.1999998092651</ele>
        <time>2020-08-29T16:54:09.000Z</time>
      </trkpt>
      <trkpt lat="47.14035" lon="-1.6848">
        <ele>8.3999996185303</ele>
        <time>2020-08-29T16:54:12.000Z</time>
      </trkpt>
      <trkpt lat="47.14051" lon="-1.68505">
        <ele>8.3999996185303</ele>
        <time>2020-08-29T16:54:17.000Z</time>
      </trkpt>
      <trkpt lat="47.14062" lon="-1.68522">
        <ele>8.6000003814697</ele>
        <time>2020-08-29T16:54:20.000Z</time>
      </trkpt>
      <trkpt lat="47.14069" lon="-1.68533">
        <ele>8.8000001907349</ele>
        <time>2020-08-29T16:54:22.000Z</time>
      </trkpt>
      <trkpt lat="47.141" lon="-1.68579">
        <ele>9.3999996185303</ele>
        <time>2020-08-29T16:54:30.000Z</time>
      </trkpt>
      <trkpt lat="47.14134" lon="-1.68631">
        <ele>9.6000003814697</ele>
        <time>2020-08-29T16:54:39.000Z</time>
      </trkpt>
      <trkpt lat="47.14156" lon="-1.68664">
        <ele>10</ele>
        <time>2020-08-29T16:54:45.000Z</time>
      </trkpt>
      <trkpt lat="47.1416" lon="-1.68669">
        <ele>10.199999809265</ele>
        <time>2020-08-29T16:54:46.000Z</time>
      </trkpt>
      <trkpt lat="47.14173" lon="-1.68689">
        <ele>10.60000038147</ele>
        <time>2020-08-29T16:54:50.000Z</time>
      </trkpt>
      <trkpt lat="47.14181" lon="-1.68707">
        <ele>10.800000190735</ele>
        <time>2020-08-29T16:54:53.000Z</time>
      </trkpt>
      <trkpt lat="47.14197" lon="-1.68746">
        <ele>11.39999961853</ele>
        <time>2020-08-29T16:54:59.000Z</time>
      </trkpt>
      <trkpt lat="47.14215" lon="-1.68808">
        <ele>12.60000038147</ele>
        <time>2020-08-29T16:55:08.000Z</time>
      </trkpt>
      <trkpt lat="47.14216" lon="-1.68815">
        <ele>12.800000190735</ele>
        <time>2020-08-29T16:55:09.000Z</time>
      </trkpt>
      <trkpt lat="47.14226" lon="-1.68856">
        <ele>13.39999961853</ele>
        <time>2020-08-29T16:55:15.000Z</time>
      </trkpt>
      <trkpt lat="47.14232" lon="-1.689">
        <ele>13.60000038147</ele>
        <time>2020-08-29T16:55:21.000Z</time>
      </trkpt>
      <trkpt lat="47.14237" lon="-1.68936">
        <ele>14.199999809265</ele>
        <time>2020-08-29T16:55:26.000Z</time>
      </trkpt>
      <trkpt lat="47.14239" lon="-1.68951">
        <ele>14.39999961853</ele>
        <time>2020-08-29T16:55:28.000Z</time>
      </trkpt>
      <trkpt lat="47.14241" lon="-1.68959">
        <ele>14.60000038147</ele>
        <time>2020-08-29T16:55:29.000Z</time>
      </trkpt>
      <trkpt lat="47.14245" lon="-1.68973">
        <ele>14.800000190735</ele>
        <time>2020-08-29T16:55:31.000Z</time>
      </trkpt>
      <trkpt lat="47.1425" lon="-1.68986">
        <ele>15.199999809265</ele>
        <time>2020-08-29T16:55:33.000Z</time>
      </trkpt>
      <trkpt lat="47.14258" lon="-1.69004">
        <ele>15.60000038147</ele>
        <time>2020-08-29T16:55:36.000Z</time>
      </trkpt>
      <trkpt lat="47.14269" lon="-1.69026">
        <ele>16.200000762939</ele>
        <time>2020-08-29T16:55:40.000Z</time>
      </trkpt>
      <trkpt lat="47.14272" lon="-1.69031">
        <ele>16.39999961853</ele>
        <time>2020-08-29T16:55:41.000Z</time>
      </trkpt>
      <trkpt lat="47.14275" lon="-1.69036">
        <ele>16.39999961853</ele>
        <time>2020-08-29T16:55:42.000Z</time>
      </trkpt>
      <trkpt lat="47.14288" lon="-1.69063">
        <ele>17</ele>
        <time>2020-08-29T16:55:47.000Z</time>
      </trkpt>
      <trkpt lat="47.14289" lon="-1.69069">
        <ele>17.200000762939</ele>
        <time>2020-08-29T16:55:48.000Z</time>
      </trkpt>
      <trkpt lat="47.14288" lon="-1.69074">
        <ele>17.200000762939</ele>
        <time>2020-08-29T16:55:49.000Z</time>
      </trkpt>
      <trkpt lat="47.14286" lon="-1.6908">
        <ele>17.200000762939</ele>
        <time>2020-08-29T16:55:50.000Z</time>
      </trkpt>
      <trkpt lat="47.14283" lon="-1.69086">
        <ele>17</ele>
        <time>2020-08-29T16:55:51.000Z</time>
      </trkpt>
      <trkpt lat="47.14272" lon="-1.69109">
        <ele>16.799999237061</ele>
        <time>2020-08-29T16:55:55.000Z</time>
      </trkpt>
      <trkpt lat="47.14261" lon="-1.69131">
        <ele>16.60000038147</ele>
        <time>2020-08-29T16:55:59.000Z</time>
      </trkpt>
      <trkpt lat="47.14252" lon="-1.69147">
        <ele>16.200000762939</ele>
        <time>2020-08-29T16:56:02.000Z</time>
      </trkpt>
      <trkpt lat="47.14246" lon="-1.69158">
        <ele>16</ele>
        <time>2020-08-29T16:56:04.000Z</time>
      </trkpt>
      <trkpt lat="47.14243" lon="-1.69164">
        <ele>16</ele>
        <time>2020-08-29T16:56:05.000Z</time>
      </trkpt>
      <trkpt lat="47.14238" lon="-1.69177">
        <ele>16.200000762939</ele>
        <time>2020-08-29T16:56:07.000Z</time>
      </trkpt>
      <trkpt lat="47.14236" lon="-1.69183">
        <ele>16.200000762939</ele>
        <time>2020-08-29T16:56:08.000Z</time>
      </trkpt>
      <trkpt lat="47.14234" lon="-1.6919">
        <ele>16.200000762939</ele>
        <time>2020-08-29T16:56:09.000Z</time>
      </trkpt>
      <trkpt lat="47.14234" lon="-1.69197">
        <ele>16.200000762939</ele>
        <time>2020-08-29T16:56:10.000Z</time>
      </trkpt>
      <trkpt lat="47.14235" lon="-1.69204">
        <ele>16.200000762939</ele>
        <time>2020-08-29T16:56:11.000Z</time>
      </trkpt>
      <trkpt lat="47.14237" lon="-1.69217">
        <ele>16.200000762939</ele>
        <time>2020-08-29T16:56:13.000Z</time>
      </trkpt>
      <trkpt lat="47.14243" lon="-1.69241">
        <ele>16.200000762939</ele>
        <time>2020-08-29T16:56:17.000Z</time>
      </trkpt>
      <trkpt lat="47.14245" lon="-1.69246">
        <ele>16.200000762939</ele>
        <time>2020-08-29T16:56:18.000Z</time>
      </trkpt>
      <trkpt lat="47.14248" lon="-1.69262">
        <ele>16.799999237061</ele>
        <time>2020-08-29T16:56:21.000Z</time>
      </trkpt>
      <trkpt lat="47.14252" lon="-1.69272">
        <ele>17</ele>
        <time>2020-08-29T16:56:23.000Z</time>
      </trkpt>
      <trkpt lat="47.14253" lon="-1.69277">
        <ele>17.200000762939</ele>
        <time>2020-08-29T16:56:24.000Z</time>
      </trkpt>
      <trkpt lat="47.14257" lon="-1.69293">
        <ele>17.60000038147</ele>
        <time>2020-08-29T16:56:27.000Z</time>
      </trkpt>
      <trkpt lat="47.14262" lon="-1.69303">
        <ele>18</ele>
        <time>2020-08-29T16:56:29.000Z</time>
      </trkpt>
      <trkpt lat="47.14268" lon="-1.69308">
        <ele>18.200000762939</ele>
        <time>2020-08-29T16:56:31.000Z</time>
      </trkpt>
      <trkpt lat="47.14273" lon="-1.69307">
        <ele>18.39999961853</ele>
        <time>2020-08-29T16:56:32.000Z</time>
      </trkpt>
      <trkpt lat="47.14276" lon="-1.69306">
        <ele>18.39999961853</ele>
        <time>2020-08-29T16:56:33.000Z</time>
      </trkpt>
      <trkpt lat="47.14292" lon="-1.69301">
        <ele>18.60000038147</ele>
        <time>2020-08-29T16:56:37.000Z</time>
      </trkpt>
      <trkpt lat="47.14296" lon="-1.693">
        <ele>18.799999237061</ele>
        <time>2020-08-29T16:56:38.000Z</time>
      </trkpt>
      <trkpt lat="47.14321" lon="-1.693">
        <ele>19.39999961853</ele>
        <time>2020-08-29T16:56:44.000Z</time>
      </trkpt>
      <trkpt lat="47.14345" lon="-1.69303">
        <ele>20</ele>
        <time>2020-08-29T16:56:50.000Z</time>
      </trkpt>
      <trkpt lat="47.14378" lon="-1.69311">
        <ele>21</ele>
        <time>2020-08-29T16:56:58.000Z</time>
      </trkpt>
      <trkpt lat="47.14384" lon="-1.69314">
        <ele>21.200000762939</ele>
        <time>2020-08-29T16:57:01.000Z</time>
      </trkpt>
      <trkpt lat="47.14385" lon="-1.69314">
        <ele>21.200000762939</ele>
        <time>2020-08-29T16:57:02.000Z</time>
      </trkpt>
      <trkpt lat="47.14385" lon="-1.69314">
        <ele>21.200000762939</ele>
        <time>2020-08-29T16:57:07.000Z</time>
      </trkpt>
      <trkpt lat="47.14385" lon="-1.69314">
        <ele>21.200000762939</ele>
        <time>2020-08-29T16:57:08.000Z</time>
      </trkpt>
      <trkpt lat="47.14386" lon="-1.69313">
        <ele>21.200000762939</ele>
        <time>2020-08-29T16:57:12.000Z</time>
      </trkpt>
      <trkpt lat="47.14387" lon="-1.69312">
        <ele>21.200000762939</ele>
        <time>2020-08-29T16:57:17.000Z</time>
      </trkpt>
      <trkpt lat="47.14387" lon="-1.69311">
        <ele>21.200000762939</ele>
        <time>2020-08-29T16:57:20.000Z</time>
      </trkpt>
      <trkpt lat="47.14388" lon="-1.6931">
        <ele>21.200000762939</ele>
        <time>2020-08-29T16:57:21.000Z</time>
      </trkpt>
      <trkpt lat="47.1439" lon="-1.69307">
        <ele>21.200000762939</ele>
        <time>2020-08-29T16:57:23.000Z</time>
      </trkpt>
      <trkpt lat="47.14391" lon="-1.69305">
        <ele>21.200000762939</ele>
        <time>2020-08-29T16:57:24.000Z</time>
      </trkpt>
      <trkpt lat="47.14392" lon="-1.69304">
        <ele>21.200000762939</ele>
        <time>2020-08-29T16:57:27.000Z</time>
      </trkpt>
      <trkpt lat="47.14392" lon="-1.69305">
        <ele>21.200000762939</ele>
        <time>2020-08-29T16:57:33.000Z</time>
      </trkpt>
      <trkpt lat="47.14392" lon="-1.69305">
        <ele>21.200000762939</ele>
        <time>2020-08-29T16:57:34.000Z</time>
      </trkpt>
      <trkpt lat="47.14394" lon="-1.69306">
        <ele>21.200000762939</ele>
        <time>2020-08-29T16:57:35.000Z</time>
      </trkpt>
      <trkpt lat="47.14398" lon="-1.69311">
        <ele>21.39999961853</ele>
        <time>2020-08-29T16:57:37.000Z</time>
      </trkpt>
      <trkpt lat="47.14399" lon="-1.69316">
        <ele>21.60000038147</ele>
        <time>2020-08-29T16:57:38.000Z</time>
      </trkpt>
      <trkpt lat="47.14399" lon="-1.69328">
        <ele>21.799999237061</ele>
        <time>2020-08-29T16:57:40.000Z</time>
      </trkpt>
      <trkpt lat="47.14397" lon="-1.69349">
        <ele>21.39999961853</ele>
        <time>2020-08-29T16:57:43.000Z</time>
      </trkpt>
      <trkpt lat="47.14394" lon="-1.69371">
        <ele>21.200000762939</ele>
        <time>2020-08-29T16:57:46.000Z</time>
      </trkpt>
      <trkpt lat="47.14389" lon="-1.69403">
        <ele>20.799999237061</ele>
        <time>2020-08-29T16:57:50.000Z</time>
      </trkpt>
      <trkpt lat="47.14388" lon="-1.69412">
        <ele>20.60000038147</ele>
        <time>2020-08-29T16:57:51.000Z</time>
      </trkpt>
      <trkpt lat="47.14386" lon="-1.6943">
        <ele>20.39999961853</ele>
        <time>2020-08-29T16:57:53.000Z</time>
      </trkpt>
      <trkpt lat="47.14386" lon="-1.69438">
        <ele>20</ele>
        <time>2020-08-29T16:57:54.000Z</time>
      </trkpt>
      <trkpt lat="47.14385" lon="-1.69447">
        <ele>19.799999237061</ele>
        <time>2020-08-29T16:57:55.000Z</time>
      </trkpt>
      <trkpt lat="47.14385" lon="-1.69457">
        <ele>19.39999961853</ele>
        <time>2020-08-29T16:57:56.000Z</time>
      </trkpt>
      <trkpt lat="47.14385" lon="-1.69466">
        <ele>19</ele>
        <time>2020-08-29T16:57:57.000Z</time>
      </trkpt>
      <trkpt lat="47.14384" lon="-1.69502">
        <ele>18</ele>
        <time>2020-08-29T16:58:01.000Z</time>
      </trkpt>
      <trkpt lat="47.14386" lon="-1.69521">
        <ele>17.39999961853</ele>
        <time>2020-08-29T16:58:03.000Z</time>
      </trkpt>
      <trkpt lat="47.14388" lon="-1.6953">
        <ele>17.200000762939</ele>
        <time>2020-08-29T16:58:04.000Z</time>
      </trkpt>
      <trkpt lat="47.14391" lon="-1.69538">
        <ele>17</ele>
        <time>2020-08-29T16:58:05.000Z</time>
      </trkpt>
      <trkpt lat="47.14398" lon="-1.69552">
        <ele>16.60000038147</ele>
        <time>2020-08-29T16:58:07.000Z</time>
      </trkpt>
      <trkpt lat="47.14402" lon="-1.69558">
        <ele>16.39999961853</ele>
        <time>2020-08-29T16:58:08.000Z</time>
      </trkpt>
      <trkpt lat="47.14429" lon="-1.69598">
        <ele>15.800000190735</ele>
        <time>2020-08-29T16:58:15.000Z</time>
      </trkpt>
      <trkpt lat="47.14454" lon="-1.69632">
        <ele>15.800000190735</ele>
        <time>2020-08-29T16:58:21.000Z</time>
      </trkpt>
      <trkpt lat="47.14459" lon="-1.69637">
        <ele>15.800000190735</ele>
        <time>2020-08-29T16:58:22.000Z</time>
      </trkpt>
      <trkpt lat="47.14477" lon="-1.69657">
        <ele>15.800000190735</ele>
        <time>2020-08-29T16:58:26.000Z</time>
      </trkpt>
      <trkpt lat="47.14482" lon="-1.69663">
        <ele>15.800000190735</ele>
        <time>2020-08-29T16:58:27.000Z</time>
      </trkpt>
      <trkpt lat="47.1449" lon="-1.69674">
        <ele>15.800000190735</ele>
        <time>2020-08-29T16:58:29.000Z</time>
      </trkpt>
      <trkpt lat="47.14504" lon="-1.69688">
        <ele>16</ele>
        <time>2020-08-29T16:58:32.000Z</time>
      </trkpt>
      <trkpt lat="47.14514" lon="-1.69696">
        <ele>16.39999961853</ele>
        <time>2020-08-29T16:58:34.000Z</time>
      </trkpt>
      <trkpt lat="47.14519" lon="-1.69699">
        <ele>16.60000038147</ele>
        <time>2020-08-29T16:58:35.000Z</time>
      </trkpt>
      <trkpt lat="47.14524" lon="-1.69701">
        <ele>16.799999237061</ele>
        <time>2020-08-29T16:58:36.000Z</time>
      </trkpt>
      <trkpt lat="47.14537" lon="-1.69707">
        <ele>17.39999961853</ele>
        <time>2020-08-29T16:58:39.000Z</time>
      </trkpt>
      <trkpt lat="47.14562" lon="-1.69718">
        <ele>18.60000038147</ele>
        <time>2020-08-29T16:58:45.000Z</time>
      </trkpt>
      <trkpt lat="47.14569" lon="-1.69723">
        <ele>18.799999237061</ele>
        <time>2020-08-29T16:58:47.000Z</time>
      </trkpt>
      <trkpt lat="47.14571" lon="-1.69728">
        <ele>18.799999237061</ele>
        <time>2020-08-29T16:58:48.000Z</time>
      </trkpt>
      <trkpt lat="47.14574" lon="-1.6974">
        <ele>18.799999237061</ele>
        <time>2020-08-29T16:58:50.000Z</time>
      </trkpt>
      <trkpt lat="47.14575" lon="-1.69748">
        <ele>18.799999237061</ele>
        <time>2020-08-29T16:58:51.000Z</time>
      </trkpt>
      <trkpt lat="47.14581" lon="-1.69786">
        <ele>18.39999961853</ele>
        <time>2020-08-29T16:58:56.000Z</time>
      </trkpt>
      <trkpt lat="47.14592" lon="-1.69847">
        <ele>17.39999961853</ele>
        <time>2020-08-29T16:59:03.000Z</time>
      </trkpt>
      <trkpt lat="47.14594" lon="-1.69857">
        <ele>17.200000762939</ele>
        <time>2020-08-29T16:59:04.000Z</time>
      </trkpt>
      <trkpt lat="47.146" lon="-1.69883">
        <ele>16.60000038147</ele>
        <time>2020-08-29T16:59:07.000Z</time>
      </trkpt>
      <trkpt lat="47.14605" lon="-1.699">
        <ele>15.800000190735</ele>
        <time>2020-08-29T16:59:09.000Z</time>
      </trkpt>
      <trkpt lat="47.14608" lon="-1.69907">
        <ele>15.39999961853</ele>
        <time>2020-08-29T16:59:10.000Z</time>
      </trkpt>
      <trkpt lat="47.14614" lon="-1.69923">
        <ele>14.39999961853</ele>
        <time>2020-08-29T16:59:12.000Z</time>
      </trkpt>
      <trkpt lat="47.14626" lon="-1.69955">
        <ele>13.199999809265</ele>
        <time>2020-08-29T16:59:16.000Z</time>
      </trkpt>
      <trkpt lat="47.14629" lon="-1.69962">
        <ele>13.39999961853</ele>
        <time>2020-08-29T16:59:17.000Z</time>
      </trkpt>
      <trkpt lat="47.14632" lon="-1.6997">
        <ele>13.39999961853</ele>
        <time>2020-08-29T16:59:18.000Z</time>
      </trkpt>
      <trkpt lat="47.14635" lon="-1.69978">
        <ele>13.60000038147</ele>
        <time>2020-08-29T16:59:19.000Z</time>
      </trkpt>
      <trkpt lat="47.14638" lon="-1.69986">
        <ele>13.800000190735</ele>
        <time>2020-08-29T16:59:20.000Z</time>
      </trkpt>
      <trkpt lat="47.14647" lon="-1.70009">
        <ele>14.39999961853</ele>
        <time>2020-08-29T16:59:23.000Z</time>
      </trkpt>
      <trkpt lat="47.14658" lon="-1.70039">
        <ele>16.39999961853</ele>
        <time>2020-08-29T16:59:27.000Z</time>
      </trkpt>
      <trkpt lat="47.14661" lon="-1.70047">
        <ele>16.799999237061</ele>
        <time>2020-08-29T16:59:28.000Z</time>
      </trkpt>
      <trkpt lat="47.14666" lon="-1.70061">
        <ele>17.60000038147</ele>
        <time>2020-08-29T16:59:30.000Z</time>
      </trkpt>
      <trkpt lat="47.14677" lon="-1.7009">
        <ele>18.39999961853</ele>
        <time>2020-08-29T16:59:34.000Z</time>
      </trkpt>
      <trkpt lat="47.14682" lon="-1.70102">
        <ele>18.60000038147</ele>
        <time>2020-08-29T16:59:36.000Z</time>
      </trkpt>
      <trkpt lat="47.14685" lon="-1.70108">
        <ele>18.799999237061</ele>
        <time>2020-08-29T16:59:37.000Z</time>
      </trkpt>
      <trkpt lat="47.14687" lon="-1.70114">
        <ele>18.799999237061</ele>
        <time>2020-08-29T16:59:38.000Z</time>
      </trkpt>
      <trkpt lat="47.14699" lon="-1.7014">
        <ele>19.60000038147</ele>
        <time>2020-08-29T16:59:43.000Z</time>
      </trkpt>
      <trkpt lat="47.14705" lon="-1.70155">
        <ele>20</ele>
        <time>2020-08-29T16:59:46.000Z</time>
      </trkpt>
      <trkpt lat="47.14709" lon="-1.70164">
        <ele>20.200000762939</ele>
        <time>2020-08-29T16:59:48.000Z</time>
      </trkpt>
      <trkpt lat="47.14714" lon="-1.70173">
        <ele>20.200000762939</ele>
        <time>2020-08-29T16:59:50.000Z</time>
      </trkpt>
      <trkpt lat="47.14718" lon="-1.70181">
        <ele>20.39999961853</ele>
        <time>2020-08-29T16:59:52.000Z</time>
      </trkpt>
      <trkpt lat="47.14729" lon="-1.70203">
        <ele>21</ele>
        <time>2020-08-29T16:59:57.000Z</time>
      </trkpt>
      <trkpt lat="47.14734" lon="-1.70211">
        <ele>21.39999961853</ele>
        <time>2020-08-29T16:59:59.000Z</time>
      </trkpt>
      <trkpt lat="47.14754" lon="-1.70245">
        <ele>21.799999237061</ele>
        <time>2020-08-29T17:00:07.000Z</time>
      </trkpt>
      <trkpt lat="47.14774" lon="-1.70274">
        <ele>21.200000762939</ele>
        <time>2020-08-29T17:00:13.000Z</time>
      </trkpt>
      <trkpt lat="47.14782" lon="-1.70283">
        <ele>21</ele>
        <time>2020-08-29T17:00:15.000Z</time>
      </trkpt>
      <trkpt lat="47.14805" lon="-1.70314">
        <ele>20.39999961853</ele>
        <time>2020-08-29T17:00:21.000Z</time>
      </trkpt>
      <trkpt lat="47.14824" lon="-1.70331">
        <ele>20</ele>
        <time>2020-08-29T17:00:25.000Z</time>
      </trkpt>
      <trkpt lat="47.14835" lon="-1.70338">
        <ele>20</ele>
        <time>2020-08-29T17:00:27.000Z</time>
      </trkpt>
      <trkpt lat="47.1485" lon="-1.70349">
        <ele>20</ele>
        <time>2020-08-29T17:00:30.000Z</time>
      </trkpt>
      <trkpt lat="47.14875" lon="-1.70368">
        <ele>20</ele>
        <time>2020-08-29T17:00:35.000Z</time>
      </trkpt>
      <trkpt lat="47.14895" lon="-1.70383">
        <ele>20</ele>
        <time>2020-08-29T17:00:39.000Z</time>
      </trkpt>
      <trkpt lat="47.14915" lon="-1.70398">
        <ele>20</ele>
        <time>2020-08-29T17:00:43.000Z</time>
      </trkpt>
      <trkpt lat="47.14948" lon="-1.7043">
        <ele>19.200000762939</ele>
        <time>2020-08-29T17:00:50.000Z</time>
      </trkpt>
      <trkpt lat="47.14966" lon="-1.7045">
        <ele>19.200000762939</ele>
        <time>2020-08-29T17:00:54.000Z</time>
      </trkpt>
      <trkpt lat="47.14979" lon="-1.70466">
        <ele>19.39999961853</ele>
        <time>2020-08-29T17:00:57.000Z</time>
      </trkpt>
      <trkpt lat="47.15" lon="-1.70489">
        <ele>20</ele>
        <time>2020-08-29T17:01:02.000Z</time>
      </trkpt>
      <trkpt lat="47.15013" lon="-1.70504">
        <ele>20.200000762939</ele>
        <time>2020-08-29T17:01:05.000Z</time>
      </trkpt>
      <trkpt lat="47.15027" lon="-1.70519">
        <ele>20.39999961853</ele>
        <time>2020-08-29T17:01:08.000Z</time>
      </trkpt>
      <trkpt lat="47.15037" lon="-1.70527">
        <ele>20.39999961853</ele>
        <time>2020-08-29T17:01:10.000Z</time>
      </trkpt>
      <trkpt lat="47.15042" lon="-1.7053">
        <ele>20.60000038147</ele>
        <time>2020-08-29T17:01:11.000Z</time>
      </trkpt>
      <trkpt lat="47.15047" lon="-1.70533">
        <ele>20.799999237061</ele>
        <time>2020-08-29T17:01:12.000Z</time>
      </trkpt>
      <trkpt lat="47.15064" lon="-1.70539">
        <ele>21.200000762939</ele>
        <time>2020-08-29T17:01:15.000Z</time>
      </trkpt>
      <trkpt lat="47.15098" lon="-1.70558">
        <ele>21.200000762939</ele>
        <time>2020-08-29T17:01:21.000Z</time>
      </trkpt>
      <trkpt lat="47.15128" lon="-1.70575">
        <ele>19.60000038147</ele>
        <time>2020-08-29T17:01:26.000Z</time>
      </trkpt>
      <trkpt lat="47.15134" lon="-1.70578">
        <ele>19.39999961853</ele>
        <time>2020-08-29T17:01:27.000Z</time>
      </trkpt>
      <trkpt lat="47.15145" lon="-1.70584">
        <ele>18.799999237061</ele>
        <time>2020-08-29T17:01:29.000Z</time>
      </trkpt>
      <trkpt lat="47.15151" lon="-1.70587">
        <ele>18.60000038147</ele>
        <time>2020-08-29T17:01:30.000Z</time>
      </trkpt>
      <trkpt lat="47.15198" lon="-1.70613">
        <ele>19.39999961853</ele>
        <time>2020-08-29T17:01:39.000Z</time>
      </trkpt>
      <trkpt lat="47.15228" lon="-1.70632">
        <ele>19.799999237061</ele>
        <time>2020-08-29T17:01:45.000Z</time>
      </trkpt>
      <trkpt lat="47.15262" lon="-1.70654">
        <ele>20.39999961853</ele>
        <time>2020-08-29T17:01:52.000Z</time>
      </trkpt>
      <trkpt lat="47.15267" lon="-1.70656">
        <ele>20.60000038147</ele>
        <time>2020-08-29T17:01:53.000Z</time>
      </trkpt>
      <trkpt lat="47.15275" lon="-1.70662">
        <ele>20.799999237061</ele>
        <time>2020-08-29T17:01:55.000Z</time>
      </trkpt>
      <trkpt lat="47.15293" lon="-1.70673">
        <ele>21.200000762939</ele>
        <time>2020-08-29T17:01:59.000Z</time>
      </trkpt>
      <trkpt lat="47.15305" lon="-1.7068">
        <ele>21.39999961853</ele>
        <time>2020-08-29T17:02:02.000Z</time>
      </trkpt>
      <trkpt lat="47.15325" lon="-1.70693">
        <ele>21.39999961853</ele>
        <time>2020-08-29T17:02:07.000Z</time>
      </trkpt>
      <trkpt lat="47.15341" lon="-1.70702">
        <ele>21.39999961853</ele>
        <time>2020-08-29T17:02:11.000Z</time>
      </trkpt>
      <trkpt lat="47.15345" lon="-1.70705">
        <ele>21.39999961853</ele>
        <time>2020-08-29T17:02:12.000Z</time>
      </trkpt>
      <trkpt lat="47.15361" lon="-1.70714">
        <ele>21.39999961853</ele>
        <time>2020-08-29T17:02:16.000Z</time>
      </trkpt>
      <trkpt lat="47.1538" lon="-1.70725">
        <ele>21.60000038147</ele>
        <time>2020-08-29T17:02:21.000Z</time>
      </trkpt>
      <trkpt lat="47.15407" lon="-1.70743">
        <ele>22</ele>
        <time>2020-08-29T17:02:28.000Z</time>
      </trkpt>
      <trkpt lat="47.15411" lon="-1.70746">
        <ele>22</ele>
        <time>2020-08-29T17:02:29.000Z</time>
      </trkpt>
      <trkpt lat="47.15429" lon="-1.70762">
        <ele>22.200000762939</ele>
        <time>2020-08-29T17:02:34.000Z</time>
      </trkpt>
      <trkpt lat="47.15444" lon="-1.70777">
        <ele>22.39999961853</ele>
        <time>2020-08-29T17:02:38.000Z</time>
      </trkpt>
      <trkpt lat="47.15448" lon="-1.70781">
        <ele>22.39999961853</ele>
        <time>2020-08-29T17:02:39.000Z</time>
      </trkpt>
      <trkpt lat="47.15468" lon="-1.70804">
        <ele>23.200000762939</ele>
        <time>2020-08-29T17:02:45.000Z</time>
      </trkpt>
      <trkpt lat="47.15472" lon="-1.70808">
        <ele>23.39999961853</ele>
        <time>2020-08-29T17:02:46.000Z</time>
      </trkpt>
      <trkpt lat="47.15478" lon="-1.70818">
        <ele>23.60000038147</ele>
        <time>2020-08-29T17:02:48.000Z</time>
      </trkpt>
      <trkpt lat="47.15488" lon="-1.70833">
        <ele>24</ele>
        <time>2020-08-29T17:02:51.000Z</time>
      </trkpt>
      <trkpt lat="47.15498" lon="-1.70846">
        <ele>24</ele>
        <time>2020-08-29T17:02:54.000Z</time>
      </trkpt>
      <trkpt lat="47.15501" lon="-1.70851">
        <ele>24</ele>
        <time>2020-08-29T17:02:55.000Z</time>
      </trkpt>
      <trkpt lat="47.15507" lon="-1.70861">
        <ele>24</ele>
        <time>2020-08-29T17:02:57.000Z</time>
      </trkpt>
      <trkpt lat="47.15514" lon="-1.70871">
        <ele>24</ele>
        <time>2020-08-29T17:02:59.000Z</time>
      </trkpt>
      <trkpt lat="47.15524" lon="-1.70886">
        <ele>24.200000762939</ele>
        <time>2020-08-29T17:03:02.000Z</time>
      </trkpt>
      <trkpt lat="47.15548" lon="-1.70919">
        <ele>24.799999237061</ele>
        <time>2020-08-29T17:03:09.000Z</time>
      </trkpt>
      <trkpt lat="47.15555" lon="-1.70927">
        <ele>25</ele>
        <time>2020-08-29T17:03:11.000Z</time>
      </trkpt>
      <trkpt lat="47.15563" lon="-1.7094">
        <ele>25</ele>
        <time>2020-08-29T17:03:14.000Z</time>
      </trkpt>
      <trkpt lat="47.15578" lon="-1.70962">
        <ele>25</ele>
        <time>2020-08-29T17:03:19.000Z</time>
      </trkpt>
      <trkpt lat="47.15584" lon="-1.70971">
        <ele>25</ele>
        <time>2020-08-29T17:03:21.000Z</time>
      </trkpt>
      <trkpt lat="47.15592" lon="-1.70983">
        <ele>25</ele>
        <time>2020-08-29T17:03:24.000Z</time>
      </trkpt>
      <trkpt lat="47.15595" lon="-1.70986">
        <ele>25</ele>
        <time>2020-08-29T17:03:25.000Z</time>
      </trkpt>
      <trkpt lat="47.15598" lon="-1.70989">
        <ele>25</ele>
        <time>2020-08-29T17:03:26.000Z</time>
      </trkpt>
      <trkpt lat="47.15606" lon="-1.71">
        <ele>25</ele>
        <time>2020-08-29T17:03:31.000Z</time>
      </trkpt>
      <trkpt lat="47.15611" lon="-1.71009">
        <ele>25</ele>
        <time>2020-08-29T17:03:39.000Z</time>
      </trkpt>
      <trkpt lat="47.15617" lon="-1.71019">
        <ele>25</ele>
        <time>2020-08-29T17:03:40.000Z</time>
      </trkpt>
      <trkpt lat="47.15623" lon="-1.71029">
        <ele>25</ele>
        <time>2020-08-29T17:04:24.000Z</time>
      </trkpt>
      <trkpt lat="47.15628" lon="-1.71039">
        <ele>24.799999237061</ele>
        <time>2020-08-29T17:04:25.000Z</time>
      </trkpt>
      <trkpt lat="47.15641" lon="-1.71053">
        <ele>24.39999961853</ele>
        <time>2020-08-29T17:04:28.000Z</time>
      </trkpt>
      <trkpt lat="47.15653" lon="-1.71067">
        <ele>24.200000762939</ele>
        <time>2020-08-29T17:04:31.000Z</time>
      </trkpt>
      <trkpt lat="47.15666" lon="-1.7108">
        <ele>24.200000762939</ele>
        <time>2020-08-29T17:04:34.000Z</time>
      </trkpt>
      <trkpt lat="47.15674" lon="-1.7109">
        <ele>24.200000762939</ele>
        <time>2020-08-29T17:04:36.000Z</time>
      </trkpt>
      <trkpt lat="47.15683" lon="-1.71099">
        <ele>24.39999961853</ele>
        <time>2020-08-29T17:04:38.000Z</time>
      </trkpt>
      <trkpt lat="47.15695" lon="-1.71112">
        <ele>24.60000038147</ele>
        <time>2020-08-29T17:04:41.000Z</time>
      </trkpt>
      <trkpt lat="47.15699" lon="-1.71116">
        <ele>24.60000038147</ele>
        <time>2020-08-29T17:04:42.000Z</time>
      </trkpt>
      <trkpt lat="47.1572" lon="-1.7114">
        <ele>24.799999237061</ele>
        <time>2020-08-29T17:04:47.000Z</time>
      </trkpt>
      <trkpt lat="47.15739" lon="-1.71165">
        <ele>25.200000762939</ele>
        <time>2020-08-29T17:04:52.000Z</time>
      </trkpt>
      <trkpt lat="47.15747" lon="-1.71175">
        <ele>25.200000762939</ele>
        <time>2020-08-29T17:04:54.000Z</time>
      </trkpt>
      <trkpt lat="47.1575" lon="-1.71181">
        <ele>25.39999961853</ele>
        <time>2020-08-29T17:04:55.000Z</time>
      </trkpt>
      <trkpt lat="47.15768" lon="-1.71209">
        <ele>25.60000038147</ele>
        <time>2020-08-29T17:05:00.000Z</time>
      </trkpt>
      <trkpt lat="47.15771" lon="-1.71215">
        <ele>25.799999237061</ele>
        <time>2020-08-29T17:05:01.000Z</time>
      </trkpt>
      <trkpt lat="47.15792" lon="-1.71251">
        <ele>25.799999237061</ele>
        <time>2020-08-29T17:05:07.000Z</time>
      </trkpt>
      <trkpt lat="47.15799" lon="-1.71264">
        <ele>25.60000038147</ele>
        <time>2020-08-29T17:05:09.000Z</time>
      </trkpt>
      <trkpt lat="47.15809" lon="-1.71284">
        <ele>25.39999961853</ele>
        <time>2020-08-29T17:05:12.000Z</time>
      </trkpt>
      <trkpt lat="47.1583" lon="-1.71325">
        <ele>25</ele>
        <time>2020-08-29T17:05:18.000Z</time>
      </trkpt>
      <trkpt lat="47.15848" lon="-1.7136">
        <ele>24.799999237061</ele>
        <time>2020-08-29T17:05:23.000Z</time>
      </trkpt>
      <trkpt lat="47.15852" lon="-1.71366">
        <ele>24.799999237061</ele>
        <time>2020-08-29T17:05:24.000Z</time>
      </trkpt>
      <trkpt lat="47.1586" lon="-1.7138">
        <ele>24.60000038147</ele>
        <time>2020-08-29T17:05:26.000Z</time>
      </trkpt>
      <trkpt lat="47.15869" lon="-1.71392">
        <ele>24.200000762939</ele>
        <time>2020-08-29T17:05:28.000Z</time>
      </trkpt>
      <trkpt lat="47.15882" lon="-1.71411">
        <ele>23.60000038147</ele>
        <time>2020-08-29T17:05:31.000Z</time>
      </trkpt>
      <trkpt lat="47.15896" lon="-1.71428">
        <ele>23.39999961853</ele>
        <time>2020-08-29T17:05:34.000Z</time>
      </trkpt>
      <trkpt lat="47.15901" lon="-1.71434">
        <ele>23.60000038147</ele>
        <time>2020-08-29T17:05:35.000Z</time>
      </trkpt>
      <trkpt lat="47.15932" lon="-1.71478">
        <ele>24.39999961853</ele>
        <time>2020-08-29T17:05:42.000Z</time>
      </trkpt>
      <trkpt lat="47.15971" lon="-1.71524">
        <ele>22.60000038147</ele>
        <time>2020-08-29T17:05:50.000Z</time>
      </trkpt>
      <trkpt lat="47.15993" lon="-1.71544">
        <ele>22</ele>
        <time>2020-08-29T17:05:54.000Z</time>
      </trkpt>
      <trkpt lat="47.16009" lon="-1.71558">
        <ele>22.200000762939</ele>
        <time>2020-08-29T17:05:57.000Z</time>
      </trkpt>
      <trkpt lat="47.16013" lon="-1.71563">
        <ele>22</ele>
        <time>2020-08-29T17:05:58.000Z</time>
      </trkpt>
      <trkpt lat="47.16032" lon="-1.71587">
        <ele>21.799999237061</ele>
        <time>2020-08-29T17:06:02.000Z</time>
      </trkpt>
      <trkpt lat="47.16044" lon="-1.71607">
        <ele>21.799999237061</ele>
        <time>2020-08-29T17:06:05.000Z</time>
      </trkpt>
      <trkpt lat="47.1607" lon="-1.71654">
        <ele>21.200000762939</ele>
        <time>2020-08-29T17:06:11.000Z</time>
      </trkpt>
      <trkpt lat="47.16074" lon="-1.71662">
        <ele>21</ele>
        <time>2020-08-29T17:06:12.000Z</time>
      </trkpt>
      <trkpt lat="47.16089" lon="-1.71683">
        <ele>20.60000038147</ele>
        <time>2020-08-29T17:06:15.000Z</time>
      </trkpt>
      <trkpt lat="47.161" lon="-1.71695">
        <ele>20.200000762939</ele>
        <time>2020-08-29T17:06:17.000Z</time>
      </trkpt>
      <trkpt lat="47.16105" lon="-1.71701">
        <ele>20</ele>
        <time>2020-08-29T17:06:18.000Z</time>
      </trkpt>
      <trkpt lat="47.16117" lon="-1.71712">
        <ele>19.799999237061</ele>
        <time>2020-08-29T17:06:20.000Z</time>
      </trkpt>
      <trkpt lat="47.16129" lon="-1.71722">
        <ele>19.60000038147</ele>
        <time>2020-08-29T17:06:22.000Z</time>
      </trkpt>
      <trkpt lat="47.16148" lon="-1.71736">
        <ele>19.200000762939</ele>
        <time>2020-08-29T17:06:25.000Z</time>
      </trkpt>
      <trkpt lat="47.16197" lon="-1.71774">
        <ele>19.799999237061</ele>
        <time>2020-08-29T17:06:33.000Z</time>
      </trkpt>
      <trkpt lat="47.16216" lon="-1.71788">
        <ele>20</ele>
        <time>2020-08-29T17:06:36.000Z</time>
      </trkpt>
      <trkpt lat="47.16252" lon="-1.71816">
        <ele>20</ele>
        <time>2020-08-29T17:06:42.000Z</time>
      </trkpt>
      <trkpt lat="47.16264" lon="-1.71825">
        <ele>19.799999237061</ele>
        <time>2020-08-29T17:06:44.000Z</time>
      </trkpt>
      <trkpt lat="47.16283" lon="-1.71839">
        <ele>19.799999237061</ele>
        <time>2020-08-29T17:06:47.000Z</time>
      </trkpt>
      <trkpt lat="47.16322" lon="-1.71869">
        <ele>19.60000038147</ele>
        <time>2020-08-29T17:06:53.000Z</time>
      </trkpt>
      <trkpt lat="47.16367" lon="-1.7191">
        <ele>19.60000038147</ele>
        <time>2020-08-29T17:07:00.000Z</time>
      </trkpt>
      <trkpt lat="47.16373" lon="-1.71915">
        <ele>20</ele>
        <time>2020-08-29T17:07:01.000Z</time>
      </trkpt>
      <trkpt lat="47.1639" lon="-1.71933">
        <ele>20.60000038147</ele>
        <time>2020-08-29T17:07:04.000Z</time>
      </trkpt>
      <trkpt lat="47.16402" lon="-1.71944">
        <ele>20.60000038147</ele>
        <time>2020-08-29T17:07:06.000Z</time>
      </trkpt>
      <trkpt lat="47.16419" lon="-1.71962">
        <ele>20.60000038147</ele>
        <time>2020-08-29T17:07:09.000Z</time>
      </trkpt>
      <trkpt lat="47.16432" lon="-1.71973">
        <ele>20.200000762939</ele>
        <time>2020-08-29T17:07:11.000Z</time>
      </trkpt>
      <trkpt lat="47.16465" lon="-1.71998">
        <ele>16.60000038147</ele>
        <time>2020-08-29T17:07:16.000Z</time>
      </trkpt>
      <trkpt lat="47.16472" lon="-1.72002">
        <ele>15.800000190735</ele>
        <time>2020-08-29T17:07:17.000Z</time>
      </trkpt>
      <trkpt lat="47.16488" lon="-1.72007">
        <ele>14.60000038147</ele>
        <time>2020-08-29T17:07:19.000Z</time>
      </trkpt>
      <trkpt lat="47.16504" lon="-1.72008">
        <ele>14.199999809265</ele>
        <time>2020-08-29T17:07:21.000Z</time>
      </trkpt>
      <trkpt lat="47.16513" lon="-1.72008">
        <ele>14</ele>
        <time>2020-08-29T17:07:22.000Z</time>
      </trkpt>
      <trkpt lat="47.16552" lon="-1.72012">
        <ele>13.60000038147</ele>
        <time>2020-08-29T17:07:27.000Z</time>
      </trkpt>
      <trkpt lat="47.16584" lon="-1.72011">
        <ele>12.60000038147</ele>
        <time>2020-08-29T17:07:32.000Z</time>
      </trkpt>
      <trkpt lat="47.16613" lon="-1.72009">
        <ele>13.800000190735</ele>
        <time>2020-08-29T17:07:38.000Z</time>
      </trkpt>
      <trkpt lat="47.16636" lon="-1.7201">
        <ele>14.60000038147</ele>
        <time>2020-08-29T17:07:44.000Z</time>
      </trkpt>
      <trkpt lat="47.16667" lon="-1.72009">
        <ele>16</ele>
        <time>2020-08-29T17:07:53.000Z</time>
      </trkpt>
      <trkpt lat="47.1667" lon="-1.72009">
        <ele>16</ele>
        <time>2020-08-29T17:07:54.000Z</time>
      </trkpt>
      <trkpt lat="47.1668" lon="-1.72009">
        <ele>16.39999961853</ele>
        <time>2020-08-29T17:07:57.000Z</time>
      </trkpt>
      <trkpt lat="47.16687" lon="-1.72009">
        <ele>16.60000038147</ele>
        <time>2020-08-29T17:07:59.000Z</time>
      </trkpt>
      <trkpt lat="47.16691" lon="-1.72009">
        <ele>16.799999237061</ele>
        <time>2020-08-29T17:08:00.000Z</time>
      </trkpt>
      <trkpt lat="47.16704" lon="-1.72009">
        <ele>17.200000762939</ele>
        <time>2020-08-29T17:08:04.000Z</time>
      </trkpt>
      <trkpt lat="47.1671" lon="-1.72008">
        <ele>17.39999961853</ele>
        <time>2020-08-29T17:08:06.000Z</time>
      </trkpt>
      <trkpt lat="47.16719" lon="-1.72008">
        <ele>17.799999237061</ele>
        <time>2020-08-29T17:08:09.000Z</time>
      </trkpt>
      <trkpt lat="47.16729" lon="-1.72008">
        <ele>18.200000762939</ele>
        <time>2020-08-29T17:08:12.000Z</time>
      </trkpt>
      <trkpt lat="47.16735" lon="-1.72009">
        <ele>18.39999961853</ele>
        <time>2020-08-29T17:08:14.000Z</time>
      </trkpt>
      <trkpt lat="47.16757" lon="-1.7201">
        <ele>19.39999961853</ele>
        <time>2020-08-29T17:08:21.000Z</time>
      </trkpt>
      <trkpt lat="47.1676" lon="-1.7201">
        <ele>19.39999961853</ele>
        <time>2020-08-29T17:08:22.000Z</time>
      </trkpt>
      <trkpt lat="47.16763" lon="-1.7201">
        <ele>19.60000038147</ele>
        <time>2020-08-29T17:08:23.000Z</time>
      </trkpt>
      <trkpt lat="47.16769" lon="-1.72008">
        <ele>20</ele>
        <time>2020-08-29T17:08:25.000Z</time>
      </trkpt>
      <trkpt lat="47.16778" lon="-1.72007">
        <ele>20.39999961853</ele>
        <time>2020-08-29T17:08:28.000Z</time>
      </trkpt>
      <trkpt lat="47.168" lon="-1.72008">
        <ele>21.39999961853</ele>
        <time>2020-08-29T17:08:35.000Z</time>
      </trkpt>
      <trkpt lat="47.16806" lon="-1.72008">
        <ele>21.60000038147</ele>
        <time>2020-08-29T17:08:37.000Z</time>
      </trkpt>
      <trkpt lat="47.16815" lon="-1.72009">
        <ele>22.200000762939</ele>
        <time>2020-08-29T17:08:40.000Z</time>
      </trkpt>
      <trkpt lat="47.16823" lon="-1.72009">
        <ele>22.60000038147</ele>
        <time>2020-08-29T17:08:43.000Z</time>
      </trkpt>
      <trkpt lat="47.16832" lon="-1.7201">
        <ele>22.799999237061</ele>
        <time>2020-08-29T17:08:46.000Z</time>
      </trkpt>
      <trkpt lat="47.16838" lon="-1.72012">
        <ele>23</ele>
        <time>2020-08-29T17:08:48.000Z</time>
      </trkpt>
      <trkpt lat="47.16844" lon="-1.72013">
        <ele>23.200000762939</ele>
        <time>2020-08-29T17:08:50.000Z</time>
      </trkpt>
      <trkpt lat="47.16846" lon="-1.72013">
        <ele>23.39999961853</ele>
        <time>2020-08-29T17:08:51.000Z</time>
      </trkpt>
      <trkpt lat="47.1687" lon="-1.72018">
        <ele>24.200000762939</ele>
        <time>2020-08-29T17:08:59.000Z</time>
      </trkpt>
      <trkpt lat="47.1689" lon="-1.72021">
        <ele>25</ele>
        <time>2020-08-29T17:09:06.000Z</time>
      </trkpt>
      <trkpt lat="47.16911" lon="-1.7202">
        <ele>26</ele>
        <time>2020-08-29T17:09:13.000Z</time>
      </trkpt>
      <trkpt lat="47.16914" lon="-1.72021">
        <ele>26</ele>
        <time>2020-08-29T17:09:14.000Z</time>
      </trkpt>
      <trkpt lat="47.16924" lon="-1.72034">
        <ele>26</ele>
        <time>2020-08-29T17:09:18.000Z</time>
      </trkpt>
      <trkpt lat="47.16929" lon="-1.72048">
        <ele>26</ele>
        <time>2020-08-29T17:09:21.000Z</time>
      </trkpt>
      <trkpt lat="47.16935" lon="-1.72066">
        <ele>26.200000762939</ele>
        <time>2020-08-29T17:09:25.000Z</time>
      </trkpt>
      <trkpt lat="47.16939" lon="-1.72082">
        <ele>26.200000762939</ele>
        <time>2020-08-29T17:09:28.000Z</time>
      </trkpt>
      <trkpt lat="47.16944" lon="-1.72099">
        <ele>26</ele>
        <time>2020-08-29T17:09:31.000Z</time>
      </trkpt>
      <trkpt lat="47.16947" lon="-1.72109">
        <ele>26</ele>
        <time>2020-08-29T17:09:33.000Z</time>
      </trkpt>
      <trkpt lat="47.16948" lon="-1.72115">
        <ele>26</ele>
        <time>2020-08-29T17:09:34.000Z</time>
      </trkpt>
      <trkpt lat="47.16951" lon="-1.72126">
        <ele>26.200000762939</ele>
        <time>2020-08-29T17:09:36.000Z</time>
      </trkpt>
      <trkpt lat="47.16956" lon="-1.72138">
        <ele>26.39999961853</ele>
        <time>2020-08-29T17:09:38.000Z</time>
      </trkpt>
      <trkpt lat="47.16959" lon="-1.7215">
        <ele>26.60000038147</ele>
        <time>2020-08-29T17:09:40.000Z</time>
      </trkpt>
      <trkpt lat="47.16966" lon="-1.72179">
        <ele>26.39999961853</ele>
        <time>2020-08-29T17:09:45.000Z</time>
      </trkpt>
      <trkpt lat="47.16967" lon="-1.72184">
        <ele>26.39999961853</ele>
        <time>2020-08-29T17:09:46.000Z</time>
      </trkpt>
      <trkpt lat="47.16969" lon="-1.7219">
        <ele>26.39999961853</ele>
        <time>2020-08-29T17:09:47.000Z</time>
      </trkpt>
      <trkpt lat="47.16974" lon="-1.72213">
        <ele>26.39999961853</ele>
        <time>2020-08-29T17:09:51.000Z</time>
      </trkpt>
      <trkpt lat="47.16978" lon="-1.72238">
        <ele>26.200000762939</ele>
        <time>2020-08-29T17:09:55.000Z</time>
      </trkpt>
      <trkpt lat="47.1698" lon="-1.72263">
        <ele>25.799999237061</ele>
        <time>2020-08-29T17:09:59.000Z</time>
      </trkpt>
      <trkpt lat="47.16982" lon="-1.72278">
        <ele>25.60000038147</ele>
        <time>2020-08-29T17:10:01.000Z</time>
      </trkpt>
      <trkpt lat="47.16984" lon="-1.723">
        <ele>25.200000762939</ele>
        <time>2020-08-29T17:10:04.000Z</time>
      </trkpt>
      <trkpt lat="47.16986" lon="-1.72314">
        <ele>24.799999237061</ele>
        <time>2020-08-29T17:10:06.000Z</time>
      </trkpt>
      <trkpt lat="47.16986" lon="-1.72329">
        <ele>24.799999237061</ele>
        <time>2020-08-29T17:10:08.000Z</time>
      </trkpt>
      <trkpt lat="47.16987" lon="-1.72337">
        <ele>24.799999237061</ele>
        <time>2020-08-29T17:10:09.000Z</time>
      </trkpt>
      <trkpt lat="47.16987" lon="-1.72344">
        <ele>25</ele>
        <time>2020-08-29T17:10:10.000Z</time>
      </trkpt>
      <trkpt lat="47.16988" lon="-1.7235">
        <ele>25</ele>
        <time>2020-08-29T17:10:11.000Z</time>
      </trkpt>
      <trkpt lat="47.16989" lon="-1.72357">
        <ele>25.200000762939</ele>
        <time>2020-08-29T17:10:12.000Z</time>
      </trkpt>
      <trkpt lat="47.1699" lon="-1.7238">
        <ele>25.60000038147</ele>
        <time>2020-08-29T17:10:15.000Z</time>
      </trkpt>
      <trkpt lat="47.16992" lon="-1.72403">
        <ele>25.799999237061</ele>
        <time>2020-08-29T17:10:18.000Z</time>
      </trkpt>
      <trkpt lat="47.16993" lon="-1.72411">
        <ele>25.799999237061</ele>
        <time>2020-08-29T17:10:19.000Z</time>
      </trkpt>
      <trkpt lat="47.17001" lon="-1.72472">
        <ele>25.39999961853</ele>
        <time>2020-08-29T17:10:26.000Z</time>
      </trkpt>
      <trkpt lat="47.17003" lon="-1.72481">
        <ele>25.200000762939</ele>
        <time>2020-08-29T17:10:27.000Z</time>
      </trkpt>
      <trkpt lat="47.17011" lon="-1.72505">
        <ele>24.799999237061</ele>
        <time>2020-08-29T17:10:30.000Z</time>
      </trkpt>
      <trkpt lat="47.17015" lon="-1.72512">
        <ele>24.60000038147</ele>
        <time>2020-08-29T17:10:31.000Z</time>
      </trkpt>
      <trkpt lat="47.17023" lon="-1.72526">
        <ele>24.39999961853</ele>
        <time>2020-08-29T17:10:33.000Z</time>
      </trkpt>
      <trkpt lat="47.17031" lon="-1.72538">
        <ele>24.200000762939</ele>
        <time>2020-08-29T17:10:35.000Z</time>
      </trkpt>
      <trkpt lat="47.17036" lon="-1.72544">
        <ele>24.200000762939</ele>
        <time>2020-08-29T17:10:36.000Z</time>
      </trkpt>
      <trkpt lat="47.17061" lon="-1.72565">
        <ele>24</ele>
        <time>2020-08-29T17:10:41.000Z</time>
      </trkpt>
      <trkpt lat="47.17096" lon="-1.72586">
        <ele>23.799999237061</ele>
        <time>2020-08-29T17:10:48.000Z</time>
      </trkpt>
      <trkpt lat="47.17116" lon="-1.72598">
        <ele>23.60000038147</ele>
        <time>2020-08-29T17:10:52.000Z</time>
      </trkpt>
      <trkpt lat="47.17137" lon="-1.72611">
        <ele>23.799999237061</ele>
        <time>2020-08-29T17:10:56.000Z</time>
      </trkpt>
      <trkpt lat="47.17147" lon="-1.72618">
        <ele>23.799999237061</ele>
        <time>2020-08-29T17:10:58.000Z</time>
      </trkpt>
      <trkpt lat="47.17158" lon="-1.72624">
        <ele>24</ele>
        <time>2020-08-29T17:11:00.000Z</time>
      </trkpt>
      <trkpt lat="47.17167" lon="-1.72631">
        <ele>24</ele>
        <time>2020-08-29T17:11:02.000Z</time>
      </trkpt>
      <trkpt lat="47.17177" lon="-1.72636">
        <ele>23.799999237061</ele>
        <time>2020-08-29T17:11:04.000Z</time>
      </trkpt>
      <trkpt lat="47.17192" lon="-1.72646">
        <ele>23.39999961853</ele>
        <time>2020-08-29T17:11:07.000Z</time>
      </trkpt>
      <trkpt lat="47.17198" lon="-1.72648">
        <ele>23.200000762939</ele>
        <time>2020-08-29T17:11:08.000Z</time>
      </trkpt>
      <trkpt lat="47.17229" lon="-1.72668">
        <ele>22</ele>
        <time>2020-08-29T17:11:14.000Z</time>
      </trkpt>
      <trkpt lat="47.17245" lon="-1.72679">
        <ele>22</ele>
        <time>2020-08-29T17:11:17.000Z</time>
      </trkpt>
      <trkpt lat="47.17288" lon="-1.72706">
        <ele>21</ele>
        <time>2020-08-29T17:11:25.000Z</time>
      </trkpt>
      <trkpt lat="47.17308" lon="-1.72714">
        <ele>20.39999961853</ele>
        <time>2020-08-29T17:11:29.000Z</time>
      </trkpt>
      <trkpt lat="47.17313" lon="-1.72714">
        <ele>20.39999961853</ele>
        <time>2020-08-29T17:11:30.000Z</time>
      </trkpt>
      <trkpt lat="47.17319" lon="-1.72714">
        <ele>20.200000762939</ele>
        <time>2020-08-29T17:11:31.000Z</time>
      </trkpt>
      <trkpt lat="47.17328" lon="-1.72721">
        <ele>20</ele>
        <time>2020-08-29T17:11:33.000Z</time>
      </trkpt>
      <trkpt lat="47.17331" lon="-1.72736">
        <ele>19.799999237061</ele>
        <time>2020-08-29T17:11:35.000Z</time>
      </trkpt>
      <trkpt lat="47.17332" lon="-1.72754">
        <ele>19.60000038147</ele>
        <time>2020-08-29T17:11:37.000Z</time>
      </trkpt>
      <trkpt lat="47.17335" lon="-1.72763">
        <ele>19.200000762939</ele>
        <time>2020-08-29T17:11:38.000Z</time>
      </trkpt>
      <trkpt lat="47.17339" lon="-1.72771">
        <ele>19</ele>
        <time>2020-08-29T17:11:39.000Z</time>
      </trkpt>
      <trkpt lat="47.17345" lon="-1.72778">
        <ele>18.39999961853</ele>
        <time>2020-08-29T17:11:40.000Z</time>
      </trkpt>
      <trkpt lat="47.17356" lon="-1.72793">
        <ele>17.60000038147</ele>
        <time>2020-08-29T17:11:42.000Z</time>
      </trkpt>
      <trkpt lat="47.17369" lon="-1.72809">
        <ele>17</ele>
        <time>2020-08-29T17:11:44.000Z</time>
      </trkpt>
      <trkpt lat="47.17376" lon="-1.72816">
        <ele>16.799999237061</ele>
        <time>2020-08-29T17:11:45.000Z</time>
      </trkpt>
      <trkpt lat="47.17396" lon="-1.72839">
        <ele>15.60000038147</ele>
        <time>2020-08-29T17:11:48.000Z</time>
      </trkpt>
      <trkpt lat="47.17403" lon="-1.72847">
        <ele>15.39999961853</ele>
        <time>2020-08-29T17:11:49.000Z</time>
      </trkpt>
      <trkpt lat="47.17417" lon="-1.7286">
        <ele>15</ele>
        <time>2020-08-29T17:11:51.000Z</time>
      </trkpt>
      <trkpt lat="47.17424" lon="-1.72866">
        <ele>15</ele>
        <time>2020-08-29T17:11:52.000Z</time>
      </trkpt>
      <trkpt lat="47.17439" lon="-1.72877">
        <ele>15</ele>
        <time>2020-08-29T17:11:54.000Z</time>
      </trkpt>
      <trkpt lat="47.17453" lon="-1.72889">
        <ele>15</ele>
        <time>2020-08-29T17:11:56.000Z</time>
      </trkpt>
      <trkpt lat="47.17467" lon="-1.729">
        <ele>15</ele>
        <time>2020-08-29T17:11:58.000Z</time>
      </trkpt>
      <trkpt lat="47.17488" lon="-1.72916">
        <ele>15.199999809265</ele>
        <time>2020-08-29T17:12:01.000Z</time>
      </trkpt>
      <trkpt lat="47.17495" lon="-1.72921">
        <ele>15.60000038147</ele>
        <time>2020-08-29T17:12:02.000Z</time>
      </trkpt>
      <trkpt lat="47.17536" lon="-1.72945">
        <ele>16.39999961853</ele>
        <time>2020-08-29T17:12:08.000Z</time>
      </trkpt>
      <trkpt lat="47.17542" lon="-1.72948">
        <ele>16.60000038147</ele>
        <time>2020-08-29T17:12:09.000Z</time>
      </trkpt>
      <trkpt lat="47.17555" lon="-1.72955">
        <ele>16.799999237061</ele>
        <time>2020-08-29T17:12:11.000Z</time>
      </trkpt>
      <trkpt lat="47.17567" lon="-1.72962">
        <ele>17</ele>
        <time>2020-08-29T17:12:13.000Z</time>
      </trkpt>
      <trkpt lat="47.17586" lon="-1.72972">
        <ele>17.60000038147</ele>
        <time>2020-08-29T17:12:16.000Z</time>
      </trkpt>
      <trkpt lat="47.17598" lon="-1.72978">
        <ele>17.60000038147</ele>
        <time>2020-08-29T17:12:18.000Z</time>
      </trkpt>
      <trkpt lat="47.17604" lon="-1.72981">
        <ele>17.60000038147</ele>
        <time>2020-08-29T17:12:19.000Z</time>
      </trkpt>
      <trkpt lat="47.1761" lon="-1.72985">
        <ele>17.60000038147</ele>
        <time>2020-08-29T17:12:20.000Z</time>
      </trkpt>
      <trkpt lat="47.17621" lon="-1.72992">
        <ele>17.39999961853</ele>
        <time>2020-08-29T17:12:22.000Z</time>
      </trkpt>
      <trkpt lat="47.17642" lon="-1.73004">
        <ele>17.200000762939</ele>
        <time>2020-08-29T17:12:26.000Z</time>
      </trkpt>
      <trkpt lat="47.17684" lon="-1.73026">
        <ele>18.60000038147</ele>
        <time>2020-08-29T17:12:35.000Z</time>
      </trkpt>
      <trkpt lat="47.17697" lon="-1.73033">
        <ele>19</ele>
        <time>2020-08-29T17:12:38.000Z</time>
      </trkpt>
      <trkpt lat="47.17711" lon="-1.7304">
        <ele>19</ele>
        <time>2020-08-29T17:12:41.000Z</time>
      </trkpt>
      <trkpt lat="47.17716" lon="-1.73042">
        <ele>19</ele>
        <time>2020-08-29T17:12:42.000Z</time>
      </trkpt>
      <trkpt lat="47.17721" lon="-1.73045">
        <ele>19</ele>
        <time>2020-08-29T17:12:43.000Z</time>
      </trkpt>
      <trkpt lat="47.17729" lon="-1.7305">
        <ele>19</ele>
        <time>2020-08-29T17:12:45.000Z</time>
      </trkpt>
      <trkpt lat="47.17747" lon="-1.73059">
        <ele>18.799999237061</ele>
        <time>2020-08-29T17:12:49.000Z</time>
      </trkpt>
      <trkpt lat="47.1776" lon="-1.73065">
        <ele>19</ele>
        <time>2020-08-29T17:12:52.000Z</time>
      </trkpt>
      <trkpt lat="47.17764" lon="-1.73068">
        <ele>19</ele>
        <time>2020-08-29T17:12:53.000Z</time>
      </trkpt>
      <trkpt lat="47.17786" lon="-1.73079">
        <ele>19.200000762939</ele>
        <time>2020-08-29T17:12:58.000Z</time>
      </trkpt>
      <trkpt lat="47.17794" lon="-1.73083">
        <ele>19.200000762939</ele>
        <time>2020-08-29T17:13:00.000Z</time>
      </trkpt>
      <trkpt lat="47.17798" lon="-1.73085">
        <ele>19.200000762939</ele>
        <time>2020-08-29T17:13:01.000Z</time>
      </trkpt>
      <trkpt lat="47.17802" lon="-1.73087">
        <ele>19.200000762939</ele>
        <time>2020-08-29T17:13:02.000Z</time>
      </trkpt>
      <trkpt lat="47.17814" lon="-1.73091">
        <ele>19.200000762939</ele>
        <time>2020-08-29T17:13:05.000Z</time>
      </trkpt>
      <trkpt lat="47.17825" lon="-1.73095">
        <ele>19.200000762939</ele>
        <time>2020-08-29T17:13:08.000Z</time>
      </trkpt>
      <trkpt lat="47.1783" lon="-1.73096">
        <ele>19.39999961853</ele>
        <time>2020-08-29T17:13:09.000Z</time>
      </trkpt>
      <trkpt lat="47.17834" lon="-1.73097">
        <ele>19.39999961853</ele>
        <time>2020-08-29T17:13:10.000Z</time>
      </trkpt>
      <trkpt lat="47.17846" lon="-1.731">
        <ele>19.799999237061</ele>
        <time>2020-08-29T17:13:13.000Z</time>
      </trkpt>
      <trkpt lat="47.17866" lon="-1.73101">
        <ele>20.200000762939</ele>
        <time>2020-08-29T17:13:18.000Z</time>
      </trkpt>
      <trkpt lat="47.17902" lon="-1.73097">
        <ele>21</ele>
        <time>2020-08-29T17:13:27.000Z</time>
      </trkpt>
      <trkpt lat="47.17922" lon="-1.73094">
        <ele>21.39999961853</ele>
        <time>2020-08-29T17:13:32.000Z</time>
      </trkpt>
      <trkpt lat="47.17935" lon="-1.73093">
        <ele>21.60000038147</ele>
        <time>2020-08-29T17:13:35.000Z</time>
      </trkpt>
      <trkpt lat="47.17943" lon="-1.73092">
        <ele>21.60000038147</ele>
        <time>2020-08-29T17:13:37.000Z</time>
      </trkpt>
      <trkpt lat="47.17976" lon="-1.73089">
        <ele>22</ele>
        <time>2020-08-29T17:13:45.000Z</time>
      </trkpt>
      <trkpt lat="47.1798" lon="-1.73089">
        <ele>22</ele>
        <time>2020-08-29T17:13:46.000Z</time>
      </trkpt>
      <trkpt lat="47.17992" lon="-1.73088">
        <ele>22</ele>
        <time>2020-08-29T17:13:49.000Z</time>
      </trkpt>
      <trkpt lat="47.18016" lon="-1.73086">
        <ele>22</ele>
        <time>2020-08-29T17:13:55.000Z</time>
      </trkpt>
      <trkpt lat="47.1804" lon="-1.73084">
        <ele>22</ele>
        <time>2020-08-29T17:14:01.000Z</time>
      </trkpt>
      <trkpt lat="47.18047" lon="-1.73083">
        <ele>22</ele>
        <time>2020-08-29T17:14:03.000Z</time>
      </trkpt>
      <trkpt lat="47.18051" lon="-1.73083">
        <ele>22</ele>
        <time>2020-08-29T17:14:04.000Z</time>
      </trkpt>
      <trkpt lat="47.18063" lon="-1.73081">
        <ele>22</ele>
        <time>2020-08-29T17:14:07.000Z</time>
      </trkpt>
      <trkpt lat="47.18066" lon="-1.73078">
        <ele>22</ele>
        <time>2020-08-29T17:14:08.000Z</time>
      </trkpt>
      <trkpt lat="47.1807" lon="-1.73076">
        <ele>22</ele>
        <time>2020-08-29T17:14:09.000Z</time>
      </trkpt>
      <trkpt lat="47.18085" lon="-1.73076">
        <ele>22</ele>
        <time>2020-08-29T17:14:13.000Z</time>
      </trkpt>
      <trkpt lat="47.18092" lon="-1.73083">
        <ele>22.200000762939</ele>
        <time>2020-08-29T17:14:15.000Z</time>
      </trkpt>
      <trkpt lat="47.18097" lon="-1.73092">
        <ele>22.200000762939</ele>
        <time>2020-08-29T17:14:17.000Z</time>
      </trkpt>
      <trkpt lat="47.18098" lon="-1.73105">
        <ele>22.200000762939</ele>
        <time>2020-08-29T17:14:19.000Z</time>
      </trkpt>
      <trkpt lat="47.18099" lon="-1.73112">
        <ele>22.200000762939</ele>
        <time>2020-08-29T17:14:20.000Z</time>
      </trkpt>
      <trkpt lat="47.181" lon="-1.73119">
        <ele>22.200000762939</ele>
        <time>2020-08-29T17:14:21.000Z</time>
      </trkpt>
      <trkpt lat="47.18107" lon="-1.73162">
        <ele>22.200000762939</ele>
        <time>2020-08-29T17:14:27.000Z</time>
      </trkpt>
      <trkpt lat="47.18113" lon="-1.73192">
        <ele>22.39999961853</ele>
        <time>2020-08-29T17:14:31.000Z</time>
      </trkpt>
      <trkpt lat="47.18118" lon="-1.73206">
        <ele>22.60000038147</ele>
        <time>2020-08-29T17:14:33.000Z</time>
      </trkpt>
      <trkpt lat="47.18128" lon="-1.73225">
        <ele>22.799999237061</ele>
        <time>2020-08-29T17:14:36.000Z</time>
      </trkpt>
      <trkpt lat="47.18138" lon="-1.73244">
        <ele>22.799999237061</ele>
        <time>2020-08-29T17:14:39.000Z</time>
      </trkpt>
      <trkpt lat="47.18141" lon="-1.73251">
        <ele>22.60000038147</ele>
        <time>2020-08-29T17:14:40.000Z</time>
      </trkpt>
      <trkpt lat="47.18155" lon="-1.73276">
        <ele>23.200000762939</ele>
        <time>2020-08-29T17:14:44.000Z</time>
      </trkpt>
      <trkpt lat="47.18162" lon="-1.73288">
        <ele>23.60000038147</ele>
        <time>2020-08-29T17:14:46.000Z</time>
      </trkpt>
      <trkpt lat="47.18187" lon="-1.73326">
        <ele>24.200000762939</ele>
        <time>2020-08-29T17:14:53.000Z</time>
      </trkpt>
      <trkpt lat="47.18198" lon="-1.7334">
        <ele>24.60000038147</ele>
        <time>2020-08-29T17:14:56.000Z</time>
      </trkpt>
      <trkpt lat="47.18216" lon="-1.73358">
        <ele>25</ele>
        <time>2020-08-29T17:15:01.000Z</time>
      </trkpt>
      <trkpt lat="47.18239" lon="-1.73379">
        <ele>24.200000762939</ele>
        <time>2020-08-29T17:15:07.000Z</time>
      </trkpt>
      <trkpt lat="47.18247" lon="-1.73386">
        <ele>24</ele>
        <time>2020-08-29T17:15:09.000Z</time>
      </trkpt>
      <trkpt lat="47.18251" lon="-1.7339">
        <ele>24</ele>
        <time>2020-08-29T17:15:10.000Z</time>
      </trkpt>
      <trkpt lat="47.18276" lon="-1.7341">
        <ele>24</ele>
        <time>2020-08-29T17:15:16.000Z</time>
      </trkpt>
      <trkpt lat="47.18283" lon="-1.73417">
        <ele>24.200000762939</ele>
        <time>2020-08-29T17:15:18.000Z</time>
      </trkpt>
      <trkpt lat="47.18287" lon="-1.7342">
        <ele>24.200000762939</ele>
        <time>2020-08-29T17:15:19.000Z</time>
      </trkpt>
      <trkpt lat="47.18299" lon="-1.7343">
        <ele>24.39999961853</ele>
        <time>2020-08-29T17:15:22.000Z</time>
      </trkpt>
    </trkseg>
  </trk>
</gpx>